<?xml version='1.0' encoding='UTF-8'?><gpx version="1.1" creator="JPX - https://github.com/jenetics/jpx" xmlns="http://www.topografix.com/GPX/1/1"><trk><trkseg><trkpt lat="45.90902415522677" lon="11.908166444694194"><ele>294.0</ele><time>2026-04-12T14:17:32Z</time></trkpt><trkpt lat="45.90904557107076" lon="11.908266477576241"><ele>294.0</ele><time>2026-04-12T14:17:35Z</time></trkpt><trkpt lat="45.9090796270883" lon="11.908389627313394"><ele>294.0</ele><time>2026-04-12T14:17:37Z</time></trkpt><trkpt lat="45.909106502249934" lon="11.908549683052165"><ele>294.0</ele><time>2026-04-12T14:17:38.999Z</time></trkpt><trkpt lat="45.90904383465826" lon="11.908692368704946"><ele>294.0</ele><time>2026-04-12T14:17:40.999Z</time></trkpt><trkpt lat="45.90897067050575" lon="11.908723759208828"><ele>293.4</ele><time>2026-04-12T14:17:41.999Z</time></trkpt><trkpt lat="45.90888397149861" lon="11.90874673235174"><ele>292.79999999999995</ele><time>2026-04-12T14:17:42.999Z</time></trkpt><trkpt lat="45.90879465358338" lon="11.908770147546159"><ele>292.20000000000005</ele><time>2026-04-12T14:17:43.999Z</time></trkpt><trkpt lat="45.90869859075147" lon="11.908815418730866"><ele>291.6</ele><time>2026-04-12T14:17:44.999Z</time></trkpt><trkpt lat="45.90861435214164" lon="11.90884485464819"><ele>291.0</ele><time>2026-04-12T14:17:45.999Z</time></trkpt><trkpt lat="45.90852534072189" lon="11.908878353437068"><ele>291.0</ele><time>2026-04-12T14:17:46.999Z</time></trkpt><trkpt lat="45.9084273453476" lon="11.908942857609262"><ele>291.0</ele><time>2026-04-12T14:17:47.999Z</time></trkpt><trkpt lat="45.90833793816899" lon="11.908974421734888"><ele>291.0</ele><time>2026-04-12T14:17:48.999Z</time></trkpt><trkpt lat="45.908254610871495" lon="11.90900258649204"><ele>291.0</ele><time>2026-04-12T14:17:49.999Z</time></trkpt><trkpt lat="45.90818387781257" lon="11.909034713203798"><ele>291.0</ele><time>2026-04-12T14:17:50.999Z</time></trkpt><trkpt lat="45.90811531328192" lon="11.909055995852787"><ele>291.0</ele><time>2026-04-12T14:17:51.999Z</time></trkpt><trkpt lat="45.908050567406" lon="11.909070047146225"><ele>291.2</ele><time>2026-04-12T14:17:54.999Z</time></trkpt><trkpt lat="45.90800290235277" lon="11.909153721516612"><ele>291.40000000000003</ele><time>2026-04-12T14:17:56.999Z</time></trkpt><trkpt lat="45.90801927969908" lon="11.909260180462566"><ele>291.6</ele><time>2026-04-12T14:17:57.999Z</time></trkpt><trkpt lat="45.908047992390586" lon="11.909389073400964"><ele>291.8</ele><time>2026-04-12T14:17:58.999Z</time></trkpt><trkpt lat="45.90807747446004" lon="11.909530985929884"><ele>292.0</ele><time>2026-04-12T14:17:59.999Z</time></trkpt><trkpt lat="45.9081186511963" lon="11.90967547875639"><ele>292.0</ele><time>2026-04-12T14:18:00.999Z</time></trkpt><trkpt lat="45.90816548811283" lon="11.909846161846135"><ele>292.0</ele><time>2026-04-12T14:18:01.999Z</time></trkpt><trkpt lat="45.908212746556075" lon="11.910023213495432"><ele>292.0</ele><time>2026-04-12T14:18:02.999Z</time></trkpt><trkpt lat="45.90826130577247" lon="11.910191151335605"><ele>292.0</ele><time>2026-04-12T14:18:03.999Z</time></trkpt><trkpt lat="45.90830464714569" lon="11.910354772899192"><ele>291.25</ele><time>2026-04-12T14:18:04.999Z</time></trkpt><trkpt lat="45.9083540700669" lon="11.91053474795779"><ele>290.5</ele><time>2026-04-12T14:18:05.999Z</time></trkpt><trkpt lat="45.90839884381769" lon="11.910708952938421"><ele>289.75</ele><time>2026-04-12T14:18:06.999Z</time></trkpt><trkpt lat="45.90844377511404" lon="11.910885323518544"><ele>289.0</ele><time>2026-04-12T14:18:07.999Z</time></trkpt><trkpt lat="45.908488937333495" lon="11.911057724573222"><ele>286.75</ele><time>2026-04-12T14:18:08.999Z</time></trkpt><trkpt lat="45.90852388678837" lon="11.911217629618115"><ele>284.5</ele><time>2026-04-12T14:18:09.999Z</time></trkpt><trkpt lat="45.908560058829" lon="11.911374517969922"><ele>282.25</ele><time>2026-04-12T14:18:10.999Z</time></trkpt><trkpt lat="45.908594775013064" lon="11.911541146503728"><ele>280.0</ele><time>2026-04-12T14:18:11.999Z</time></trkpt><trkpt lat="45.908641328764" lon="11.91170117670857"><ele>279.4</ele><time>2026-04-12T14:18:12.999Z</time></trkpt><trkpt lat="45.90866717556998" lon="11.91186228765745"><ele>278.8</ele><time>2026-04-12T14:18:13.999Z</time></trkpt><trkpt lat="45.90868179894202" lon="11.912019263270887"><ele>278.2</ele><time>2026-04-12T14:18:14.999Z</time></trkpt><trkpt lat="45.90871397877898" lon="11.912169218146202"><ele>277.6</ele><time>2026-04-12T14:18:15.999Z</time></trkpt><trkpt lat="45.908732524807704" lon="11.912320416687326"><ele>277.0</ele><time>2026-04-12T14:18:16.999Z</time></trkpt><trkpt lat="45.908753526855186" lon="11.91246979355229"><ele>276.5</ele><time>2026-04-12T14:18:17.999Z</time></trkpt><trkpt lat="45.90877994066158" lon="11.912619941000296"><ele>276.0</ele><time>2026-04-12T14:18:18.999Z</time></trkpt><trkpt lat="45.908805376861544" lon="11.912777040680782"><ele>275.5</ele><time>2026-04-12T14:18:19.999Z</time></trkpt><trkpt lat="45.908834074093875" lon="11.912930866866509"><ele>275.0</ele><time>2026-04-12T14:18:20.999Z</time></trkpt><trkpt lat="45.90886223488204" lon="11.913108906527738"><ele>275.0</ele><time>2026-04-12T14:18:21.999Z</time></trkpt><trkpt lat="45.90890845795653" lon="11.91325714168629"><ele>275.0</ele><time>2026-04-12T14:18:22.999Z</time></trkpt><trkpt lat="45.908939960981414" lon="11.913417628851668"><ele>275.0</ele><time>2026-04-12T14:18:23.999Z</time></trkpt><trkpt lat="45.90896594225114" lon="11.913556822123617"><ele>275.0</ele><time>2026-04-12T14:18:24.999Z</time></trkpt><trkpt lat="45.90899078636322" lon="11.913704392720673"><ele>275.0</ele><time>2026-04-12T14:18:25.999Z</time></trkpt><trkpt lat="45.90901225517556" lon="11.913859928835784"><ele>274.25</ele><time>2026-04-12T14:18:26.999Z</time></trkpt><trkpt lat="45.909039551567446" lon="11.914009303148573"><ele>273.5</ele><time>2026-04-12T14:18:27.999Z</time></trkpt><trkpt lat="45.909089269802664" lon="11.914142524496102"><ele>272.75</ele><time>2026-04-12T14:18:28.999Z</time></trkpt><trkpt lat="45.90918434291655" lon="11.914204007150387"><ele>272.0</ele><time>2026-04-12T14:18:29.999Z</time></trkpt><trkpt lat="45.90931367509323" lon="11.914289451481906"><ele>270.25</ele><time>2026-04-12T14:18:30.999Z</time></trkpt><trkpt lat="45.90943126521028" lon="11.91435503328355"><ele>268.5</ele><time>2026-04-12T14:18:31.999Z</time></trkpt><trkpt lat="45.90956825641958" lon="11.91444271377543"><ele>266.75</ele><time>2026-04-12T14:18:32.998Z</time></trkpt><trkpt lat="45.9097110318042" lon="11.9144788364363"><ele>265.0</ele><time>2026-04-12T14:18:33.998Z</time></trkpt><trkpt lat="45.90982918382055" lon="11.914510471704268"><ele>265.0</ele><time>2026-04-12T14:18:34.998Z</time></trkpt><trkpt lat="45.909956074308525" lon="11.91452707930555"><ele>265.0</ele><time>2026-04-12T14:18:35.998Z</time></trkpt><trkpt lat="45.910083596471175" lon="11.91452937304928"><ele>265.0</ele><time>2026-04-12T14:18:36.998Z</time></trkpt><trkpt lat="45.91022391295102" lon="11.914532600257191"><ele>265.0</ele><time>2026-04-12T14:18:37.998Z</time></trkpt><trkpt lat="45.91038085840349" lon="11.914534993640903"><ele>264.0</ele><time>2026-04-12T14:18:38.998Z</time></trkpt><trkpt lat="45.910533908909464" lon="11.914553926427427"><ele>263.0</ele><time>2026-04-12T14:18:39.998Z</time></trkpt><trkpt lat="45.91067665153477" lon="11.914542382132007"><ele>262.0</ele><time>2026-04-12T14:18:40.998Z</time></trkpt><trkpt lat="45.91082156223108" lon="11.914561778774033"><ele>261.0</ele><time>2026-04-12T14:18:41.998Z</time></trkpt><trkpt lat="45.91095785354693" lon="11.914609799985836"><ele>261.0</ele><time>2026-04-12T14:18:42.998Z</time></trkpt><trkpt lat="45.91108292730268" lon="11.914692064732053"><ele>261.0</ele><time>2026-04-12T14:18:43.998Z</time></trkpt><trkpt lat="45.91119855465859" lon="11.914790653755917"><ele>261.0</ele><time>2026-04-12T14:18:44.998Z</time></trkpt><trkpt lat="45.911297139810586" lon="11.914892483119077"><ele>261.0</ele><time>2026-04-12T14:18:45.998Z</time></trkpt><trkpt lat="45.911374901384995" lon="11.914998116272125"><ele>261.75</ele><time>2026-04-12T14:18:46.998Z</time></trkpt><trkpt lat="45.911421758350166" lon="11.915171651346109"><ele>262.5</ele><time>2026-04-12T14:18:47.998Z</time></trkpt><trkpt lat="45.91143786364838" lon="11.915374234497536"><ele>263.25</ele><time>2026-04-12T14:18:48.998Z</time></trkpt><trkpt lat="45.91140974055729" lon="11.915579244236499"><ele>264.0</ele><time>2026-04-12T14:18:49.998Z</time></trkpt><trkpt lat="45.91137558743047" lon="11.915771749729068"><ele>264.0</ele><time>2026-04-12T14:18:50.999Z</time></trkpt><trkpt lat="45.91130359941704" lon="11.91596759211075"><ele>264.0</ele><time>2026-04-12T14:18:52Z</time></trkpt><trkpt lat="45.91122736679352" lon="11.916147636668157"><ele>264.0</ele><time>2026-04-12T14:18:53Z</time></trkpt><trkpt lat="45.91114589850552" lon="11.916333926588175"><ele>264.0</ele><time>2026-04-12T14:18:54Z</time></trkpt><trkpt lat="45.91103023379958" lon="11.916483170790181"><ele>264.0</ele><time>2026-04-12T14:18:55Z</time></trkpt><trkpt lat="45.91094416404503" lon="11.916652729469131"><ele>264.0</ele><time>2026-04-12T14:18:56Z</time></trkpt><trkpt lat="45.91085675247365" lon="11.916828900435775"><ele>260.3333333333333</ele><time>2026-04-12T14:18:57Z</time></trkpt><trkpt lat="45.910771416546886" lon="11.917003707544486"><ele>256.66666666666663</ele><time>2026-04-12T14:18:58Z</time></trkpt><trkpt lat="45.910703329312426" lon="11.917190930883214"><ele>253.0</ele><time>2026-04-12T14:18:59Z</time></trkpt><trkpt lat="45.91062360813817" lon="11.917388800027771"><ele>253.33333333333331</ele><time>2026-04-12T14:19:00Z</time></trkpt><trkpt lat="45.91055613348979" lon="11.917588306100233"><ele>253.66666666666669</ele><time>2026-04-12T14:19:01Z</time></trkpt><trkpt lat="45.91049761165071" lon="11.917794676572823"><ele>254.0</ele><time>2026-04-12T14:19:02Z</time></trkpt><trkpt lat="45.910439579024604" lon="11.918001574622068"><ele>254.0</ele><time>2026-04-12T14:19:03Z</time></trkpt><trkpt lat="45.91038907437152" lon="11.918213918188941"><ele>254.0</ele><time>2026-04-12T14:19:04Z</time></trkpt><trkpt lat="45.91034874916819" lon="11.918435770901015"><ele>254.0</ele><time>2026-04-12T14:19:05Z</time></trkpt><trkpt lat="45.910288752224766" lon="11.918644125676932"><ele>253.66666666666669</ele><time>2026-04-12T14:19:06Z</time></trkpt><trkpt lat="45.910234517582964" lon="11.918867610752242"><ele>253.33333333333331</ele><time>2026-04-12T14:19:07Z</time></trkpt><trkpt lat="45.91015602135587" lon="11.919081744614507"><ele>253.0</ele><time>2026-04-12T14:19:08Z</time></trkpt><trkpt lat="45.91007995165411" lon="11.919288287096649"><ele>248.66666666666666</ele><time>2026-04-12T14:19:09Z</time></trkpt><trkpt lat="45.91000080973196" lon="11.91950110870906"><ele>244.33333333333331</ele><time>2026-04-12T14:19:10Z</time></trkpt><trkpt lat="45.90992181725533" lon="11.919698242243918"><ele>240.0</ele><time>2026-04-12T14:19:11Z</time></trkpt><trkpt lat="45.90983979052664" lon="11.919894645715328"><ele>240.33333333333331</ele><time>2026-04-12T14:19:12Z</time></trkpt><trkpt lat="45.90975235966021" lon="11.920083017686611"><ele>240.66666666666666</ele><time>2026-04-12T14:19:13Z</time></trkpt><trkpt lat="45.90966851154868" lon="11.920271604389525"><ele>241.0</ele><time>2026-04-12T14:19:14Z</time></trkpt><trkpt lat="45.90958313500287" lon="11.920470950251442"><ele>241.0</ele><time>2026-04-12T14:19:15Z</time></trkpt><trkpt lat="45.90949466866386" lon="11.920682910187343"><ele>241.0</ele><time>2026-04-12T14:19:16Z</time></trkpt><trkpt lat="45.90940259474471" lon="11.9208935196435"><ele>241.0</ele><time>2026-04-12T14:19:17Z</time></trkpt><trkpt lat="45.90931212016678" lon="11.921102775557268"><ele>238.33333333333331</ele><time>2026-04-12T14:19:18Z</time></trkpt><trkpt lat="45.909225883523845" lon="11.921311159906313"><ele>235.66666666666669</ele><time>2026-04-12T14:19:19Z</time></trkpt><trkpt lat="45.909143337966064" lon="11.921512272463598"><ele>233.0</ele><time>2026-04-12T14:19:20Z</time></trkpt><trkpt lat="45.90905600730357" lon="11.921727692634104"><ele>233.66666666666669</ele><time>2026-04-12T14:19:21Z</time></trkpt><trkpt lat="45.90896083183846" lon="11.921953038312338"><ele>234.33333333333331</ele><time>2026-04-12T14:19:22Z</time></trkpt><trkpt lat="45.9088920897015" lon="11.92220745372565"><ele>235.0</ele><time>2026-04-12T14:19:23Z</time></trkpt><trkpt lat="45.908806885798406" lon="11.922464377920678"><ele>235.33333333333331</ele><time>2026-04-12T14:19:24Z</time></trkpt><trkpt lat="45.90873727636058" lon="11.922731415876756"><ele>235.66666666666669</ele><time>2026-04-12T14:19:25Z</time></trkpt><trkpt lat="45.908689205814575" lon="11.922995252627986"><ele>236.0</ele><time>2026-04-12T14:19:26Z</time></trkpt><trkpt lat="45.908629646077536" lon="11.923249071622843"><ele>234.0</ele><time>2026-04-12T14:19:27Z</time></trkpt><trkpt lat="45.908567802351236" lon="11.923491793211499"><ele>232.0</ele><time>2026-04-12T14:19:28Z</time></trkpt><trkpt lat="45.90851166480384" lon="11.9237369404477"><ele>230.0</ele><time>2026-04-12T14:19:29Z</time></trkpt><trkpt lat="45.90847388133891" lon="11.923994505351633"><ele>229.33333333333334</ele><time>2026-04-12T14:19:30Z</time></trkpt><trkpt lat="45.90846105744101" lon="11.924256764403875"><ele>228.66666666666669</ele><time>2026-04-12T14:19:31Z</time></trkpt><trkpt lat="45.908468771430435" lon="11.924551513007588"><ele>228.0</ele><time>2026-04-12T14:19:31.999Z</time></trkpt><trkpt lat="45.9084782052244" lon="11.924843140992898"><ele>228.33333333333331</ele><time>2026-04-12T14:19:32.999Z</time></trkpt><trkpt lat="45.90848592531965" lon="11.925127919850011"><ele>228.66666666666666</ele><time>2026-04-12T14:19:33.999Z</time></trkpt><trkpt lat="45.908484021983824" lon="11.925398013275268"><ele>229.0</ele><time>2026-04-12T14:19:34.999Z</time></trkpt><trkpt lat="45.90848500529305" lon="11.925669763037732"><ele>228.33333333333331</ele><time>2026-04-12T14:19:35.999Z</time></trkpt><trkpt lat="45.908485214180104" lon="11.925933758457047"><ele>227.66666666666669</ele><time>2026-04-12T14:19:36.999Z</time></trkpt><trkpt lat="45.90848576454619" lon="11.92620032984109"><ele>227.0</ele><time>2026-04-12T14:19:37.999Z</time></trkpt><trkpt lat="45.90848724346828" lon="11.926473278428084"><ele>224.66666666666669</ele><time>2026-04-12T14:19:38.999Z</time></trkpt><trkpt lat="45.90849438328538" lon="11.926745090120125"><ele>222.33333333333331</ele><time>2026-04-12T14:19:39.999Z</time></trkpt><trkpt lat="45.908501506413444" lon="11.927016052542596"><ele>220.0</ele><time>2026-04-12T14:19:40.999Z</time></trkpt><trkpt lat="45.9084905374094" lon="11.92730252537326"><ele>216.0</ele><time>2026-04-12T14:19:41.999Z</time></trkpt><trkpt lat="45.90847334168908" lon="11.927577776415783"><ele>212.0</ele><time>2026-04-12T14:19:42.999Z</time></trkpt><trkpt lat="45.90845314127395" lon="11.927853925539049"><ele>208.0</ele><time>2026-04-12T14:19:43.999Z</time></trkpt><trkpt lat="45.90842761931942" lon="11.928122944575836"><ele>206.33333333333331</ele><time>2026-04-12T14:19:44.999Z</time></trkpt><trkpt lat="45.908403716115075" lon="11.928396851371764"><ele>204.66666666666669</ele><time>2026-04-12T14:19:45.999Z</time></trkpt><trkpt lat="45.90840264158" lon="11.928671444673684"><ele>203.0</ele><time>2026-04-12T14:19:46.999Z</time></trkpt><trkpt lat="45.9084079646059" lon="11.928955117760866"><ele>203.0</ele><time>2026-04-12T14:19:47.999Z</time></trkpt><trkpt lat="45.908433930553194" lon="11.929249704823654"><ele>203.0</ele><time>2026-04-12T14:19:48.999Z</time></trkpt><trkpt lat="45.90848011077982" lon="11.92953056954746"><ele>203.0</ele><time>2026-04-12T14:19:49.999Z</time></trkpt><trkpt lat="45.908540424120595" lon="11.929798007261125"><ele>203.0</ele><time>2026-04-12T14:19:50.999Z</time></trkpt><trkpt lat="45.908613621888875" lon="11.930045555291692"><ele>203.0</ele><time>2026-04-12T14:19:51.999Z</time></trkpt><trkpt lat="45.90868224107127" lon="11.9303034952117"><ele>203.0</ele><time>2026-04-12T14:19:52.999Z</time></trkpt><trkpt lat="45.90875069112147" lon="11.93055416727097"><ele>201.0</ele><time>2026-04-12T14:19:53.999Z</time></trkpt><trkpt lat="45.908818434403976" lon="11.930805411862673"><ele>199.0</ele><time>2026-04-12T14:19:54.999Z</time></trkpt><trkpt lat="45.90887895114412" lon="11.931027655279774"><ele>197.0</ele><time>2026-04-12T14:19:55.999Z</time></trkpt><trkpt lat="45.908937488427085" lon="11.931243188537461"><ele>196.0</ele><time>2026-04-12T14:19:56.999Z</time></trkpt><trkpt lat="45.90898835383104" lon="11.931454535867157"><ele>195.0</ele><time>2026-04-12T14:19:57.999Z</time></trkpt><trkpt lat="45.909045113699335" lon="11.931658285243904"><ele>194.0</ele><time>2026-04-12T14:19:58.999Z</time></trkpt><trkpt lat="45.909100536170385" lon="11.93184685814419"><ele>193.25</ele><time>2026-04-12T14:19:59.999Z</time></trkpt><trkpt lat="45.909110097521115" lon="11.932015862506905"><ele>192.5</ele><time>2026-04-12T14:20:00.999Z</time></trkpt><trkpt lat="45.90911102070458" lon="11.932173744493532"><ele>191.75</ele><time>2026-04-12T14:20:01.999Z</time></trkpt><trkpt lat="45.909046254118834" lon="11.932334823150812"><ele>191.0</ele><time>2026-04-12T14:20:02.999Z</time></trkpt><trkpt lat="45.90892392789654" lon="11.93246817247636"><ele>191.66666666666666</ele><time>2026-04-12T14:20:03.999Z</time></trkpt><trkpt lat="45.908833050901805" lon="11.932649519041627"><ele>192.33333333333331</ele><time>2026-04-12T14:20:04.999Z</time></trkpt><trkpt lat="45.90873787544726" lon="11.932838974116631"><ele>193.0</ele><time>2026-04-12T14:20:05.999Z</time></trkpt><trkpt lat="45.90864853041723" lon="11.93302521673027"><ele>193.0</ele><time>2026-04-12T14:20:06.999Z</time></trkpt><trkpt lat="45.90855746002216" lon="11.93321871647948"><ele>193.0</ele><time>2026-04-12T14:20:07.999Z</time></trkpt><trkpt lat="45.90845507661835" lon="11.933418080198992"><ele>193.0</ele><time>2026-04-12T14:20:08.999Z</time></trkpt><trkpt lat="45.90834817710917" lon="11.933593482675775"><ele>193.2</ele><time>2026-04-12T14:20:09.999Z</time></trkpt><trkpt lat="45.90825084452836" lon="11.9337318401893"><ele>193.4</ele><time>2026-04-12T14:20:10.999Z</time></trkpt><trkpt lat="45.90816681338368" lon="11.933855746882712"><ele>193.6</ele><time>2026-04-12T14:20:11.999Z</time></trkpt><trkpt lat="45.908101280758196" lon="11.933972567020962"><ele>193.79999999999998</ele><time>2026-04-12T14:20:12.999Z</time></trkpt><trkpt lat="45.90805930481117" lon="11.934047806864783"><ele>194.0</ele><time>2026-04-12T14:20:13.999Z</time></trkpt><trkpt lat="45.90796939814909" lon="11.934132045444724"><ele>194.0</ele><time>2026-04-12T14:20:15.999Z</time></trkpt><trkpt lat="45.907877886115436" lon="11.93419375204437"><ele>194.0</ele><time>2026-04-12T14:20:16.999Z</time></trkpt><trkpt lat="45.907785698085945" lon="11.934286948675494"><ele>194.0</ele><time>2026-04-12T14:20:17.999Z</time></trkpt><trkpt lat="45.90770968722858" lon="11.93442147045965"><ele>194.0</ele><time>2026-04-12T14:20:18.999Z</time></trkpt><trkpt lat="45.907631254434676" lon="11.934593889536105"><ele>195.0</ele><time>2026-04-12T14:20:19.999Z</time></trkpt><trkpt lat="45.907556588735495" lon="11.934768197222402"><ele>196.0</ele><time>2026-04-12T14:20:20.999Z</time></trkpt><trkpt lat="45.90747193458912" lon="11.934953676397232"><ele>197.0</ele><time>2026-04-12T14:20:21.999Z</time></trkpt><trkpt lat="45.90737686704981" lon="11.935148876537816"><ele>194.66666666666669</ele><time>2026-04-12T14:20:22.999Z</time></trkpt><trkpt lat="45.90727408960859" lon="11.935351379141666"><ele>192.33333333333334</ele><time>2026-04-12T14:20:23.999Z</time></trkpt><trkpt lat="45.90717101933919" lon="11.935558948710975"><ele>190.0</ele><time>2026-04-12T14:20:24.999Z</time></trkpt><trkpt lat="45.90705858672604" lon="11.935796089453778"><ele>191.0</ele><time>2026-04-12T14:20:25.999Z</time></trkpt><trkpt lat="45.90694178684496" lon="11.936033154846927"><ele>192.0</ele><time>2026-04-12T14:20:26.999Z</time></trkpt><trkpt lat="45.90682606070115" lon="11.93626400132019"><ele>193.0</ele><time>2026-04-12T14:20:27.999Z</time></trkpt><trkpt lat="45.90671590041756" lon="11.936463120591124"><ele>193.0</ele><time>2026-04-12T14:20:28.999Z</time></trkpt><trkpt lat="45.906607857526076" lon="11.936637767551957"><ele>193.0</ele><time>2026-04-12T14:20:29.999Z</time></trkpt><trkpt lat="45.90649379815485" lon="11.93680791056185"><ele>193.0</ele><time>2026-04-12T14:20:30.999Z</time></trkpt><trkpt lat="45.906379829008785" lon="11.93695526978082"><ele>191.0</ele><time>2026-04-12T14:20:31.999Z</time></trkpt><trkpt lat="45.90625915346924" lon="11.937128740414149"><ele>189.0</ele><time>2026-04-12T14:20:32.999Z</time></trkpt><trkpt lat="45.90615607829948" lon="11.937319025682728"><ele>187.0</ele><time>2026-04-12T14:20:33.999Z</time></trkpt><trkpt lat="45.906068638348" lon="11.937547775699098"><ele>186.0</ele><time>2026-04-12T14:20:34.999Z</time></trkpt><trkpt lat="45.90598973008371" lon="11.937790121067948"><ele>185.0</ele><time>2026-04-12T14:20:35.999Z</time></trkpt><trkpt lat="45.905908063218035" lon="11.938010748326489"><ele>184.0</ele><time>2026-04-12T14:20:36.999Z</time></trkpt><trkpt lat="45.90582276357228" lon="11.93823137975476"><ele>185.0</ele><time>2026-04-12T14:20:37.999Z</time></trkpt><trkpt lat="45.90573892497818" lon="11.938455796276676"><ele>186.0</ele><time>2026-04-12T14:20:38.999Z</time></trkpt><trkpt lat="45.905667524427734" lon="11.938663483127996"><ele>187.0</ele><time>2026-04-12T14:20:39.999Z</time></trkpt><trkpt lat="45.905596340679274" lon="11.938874878941542"><ele>187.0</ele><time>2026-04-12T14:20:40.999Z</time></trkpt><trkpt lat="45.90554455252236" lon="11.939108548140169"><ele>187.0</ele><time>2026-04-12T14:20:41.999Z</time></trkpt><trkpt lat="45.9055272232159" lon="11.939356653393798"><ele>187.0</ele><time>2026-04-12T14:20:42.999Z</time></trkpt><trkpt lat="45.90552052952694" lon="11.939600104491031"><ele>186.0</ele><time>2026-04-12T14:20:43.999Z</time></trkpt><trkpt lat="45.905521219729536" lon="11.93984104809977"><ele>185.0</ele><time>2026-04-12T14:20:44.999Z</time></trkpt><trkpt lat="45.905507413529605" lon="11.940063383193365"><ele>184.0</ele><time>2026-04-12T14:20:45.999Z</time></trkpt><trkpt lat="45.90548068140304" lon="11.940287467454132"><ele>184.0</ele><time>2026-04-12T14:20:46.999Z</time></trkpt><trkpt lat="45.905427417439334" lon="11.940469379500428"><ele>184.0</ele><time>2026-04-12T14:20:47.999Z</time></trkpt><trkpt lat="45.90536928759369" lon="11.940644277973249"><ele>184.0</ele><time>2026-04-12T14:20:48.999Z</time></trkpt><trkpt lat="45.9053025377521" lon="11.940793585805775"><ele>184.0</ele><time>2026-04-12T14:20:49.998Z</time></trkpt><trkpt lat="45.905212762003" lon="11.940903778452945"><ele>183.75</ele><time>2026-04-12T14:20:50.998Z</time></trkpt><trkpt lat="45.905113517753676" lon="11.940998158876223"><ele>183.5</ele><time>2026-04-12T14:20:51.998Z</time></trkpt><trkpt lat="45.90503965201212" lon="11.941128681832168"><ele>183.25</ele><time>2026-04-12T14:20:52.998Z</time></trkpt><trkpt lat="45.905001170170856" lon="11.941292183060549"><ele>183.0</ele><time>2026-04-12T14:20:53.998Z</time></trkpt><trkpt lat="45.90495496493152" lon="11.94143790653245"><ele>184.75</ele><time>2026-04-12T14:20:54.998Z</time></trkpt><trkpt lat="45.90489101305417" lon="11.941564948315776"><ele>186.5</ele><time>2026-04-12T14:20:55.998Z</time></trkpt><trkpt lat="45.904725234550604" lon="11.941570583051163"><ele>188.25</ele><time>2026-04-12T14:20:57Z</time></trkpt><trkpt lat="45.90459867644065" lon="11.941622982458073"><ele>190.0</ele><time>2026-04-12T14:20:58Z</time></trkpt><trkpt lat="45.904477689076245" lon="11.941690424521422"><ele>189.75</ele><time>2026-04-12T14:20:59Z</time></trkpt><trkpt lat="45.904354863475184" lon="11.941737422294793"><ele>189.5</ele><time>2026-04-12T14:21:00Z</time></trkpt><trkpt lat="45.90423273745409" lon="11.941775554305815"><ele>189.25</ele><time>2026-04-12T14:21:01Z</time></trkpt><trkpt lat="45.90410057019878" lon="11.941827933515034"><ele>189.0</ele><time>2026-04-12T14:21:02Z</time></trkpt><trkpt lat="45.903970140864466" lon="11.941875394872579"><ele>189.0</ele><time>2026-04-12T14:21:03Z</time></trkpt><trkpt lat="45.903835478174415" lon="11.941938210031282"><ele>189.0</ele><time>2026-04-12T14:21:04Z</time></trkpt><trkpt lat="45.9036940639158" lon="11.942005106629473"><ele>189.0</ele><time>2026-04-12T14:21:05Z</time></trkpt><trkpt lat="45.903549435572025" lon="11.942058670357492"><ele>189.0</ele><time>2026-04-12T14:21:06Z</time></trkpt><trkpt lat="45.90339823429805" lon="11.94212232366657"><ele>189.33333333333334</ele><time>2026-04-12T14:21:07Z</time></trkpt><trkpt lat="45.90324765159652" lon="11.942180467984208"><ele>189.66666666666669</ele><time>2026-04-12T14:21:08Z</time></trkpt><trkpt lat="45.903094723922045" lon="11.942243079210328"><ele>190.0</ele><time>2026-04-12T14:21:09Z</time></trkpt><trkpt lat="45.90294334159261" lon="11.942326692695286"><ele>190.0</ele><time>2026-04-12T14:21:10Z</time></trkpt><trkpt lat="45.902792019926444" lon="11.942358616085745"><ele>190.0</ele><time>2026-04-12T14:21:11Z</time></trkpt><trkpt lat="45.90263630741584" lon="11.942425221320468"><ele>190.0</ele><time>2026-04-12T14:21:12Z</time></trkpt><trkpt lat="45.90248703763313" lon="11.942448600848222"><ele>189.33333333333334</ele><time>2026-04-12T14:21:13Z</time></trkpt><trkpt lat="45.90232770057686" lon="11.942480146700296"><ele>188.66666666666666</ele><time>2026-04-12T14:21:14Z</time></trkpt><trkpt lat="45.90216585580565" lon="11.942527084532134"><ele>188.0</ele><time>2026-04-12T14:21:15Z</time></trkpt><trkpt lat="45.90201503769465" lon="11.942581397847906"><ele>188.0</ele><time>2026-04-12T14:21:16Z</time></trkpt><trkpt lat="45.90186281888059" lon="11.942607751322663"><ele>188.0</ele><time>2026-04-12T14:21:17Z</time></trkpt><trkpt lat="45.90170776570588" lon="11.942666510401189"><ele>188.0</ele><time>2026-04-12T14:21:18Z</time></trkpt><trkpt lat="45.90156070906711" lon="11.942693034640735"><ele>187.25</ele><time>2026-04-12T14:21:19Z</time></trkpt><trkpt lat="45.9014081981363" lon="11.942737427590384"><ele>186.5</ele><time>2026-04-12T14:21:20Z</time></trkpt><trkpt lat="45.90126816491699" lon="11.942751398716798"><ele>185.75</ele><time>2026-04-12T14:21:21Z</time></trkpt><trkpt lat="45.90112937389886" lon="11.942786800874389"><ele>185.0</ele><time>2026-04-12T14:21:22Z</time></trkpt><trkpt lat="45.900994535205335" lon="11.942816500383488"><ele>185.25</ele><time>2026-04-12T14:21:23Z</time></trkpt><trkpt lat="45.90087113939966" lon="11.942817927100364"><ele>185.5</ele><time>2026-04-12T14:21:24Z</time></trkpt><trkpt lat="45.900737719367115" lon="11.942865400320551"><ele>185.75</ele><time>2026-04-12T14:21:25Z</time></trkpt><trkpt lat="45.90061782707604" lon="11.942879393383164"><ele>186.0</ele><time>2026-04-12T14:21:26Z</time></trkpt><trkpt lat="45.90050063595008" lon="11.94291843571892"><ele>186.0</ele><time>2026-04-12T14:21:27Z</time></trkpt><trkpt lat="45.900389217061175" lon="11.942930686873169"><ele>186.0</ele><time>2026-04-12T14:21:28Z</time></trkpt><trkpt lat="45.900285174803244" lon="11.942935910705708"><ele>186.0</ele><time>2026-04-12T14:21:29Z</time></trkpt><trkpt lat="45.900184601749395" lon="11.942945844205445"><ele>186.0</ele><time>2026-04-12T14:21:30Z</time></trkpt><trkpt lat="45.90009662692119" lon="11.942942789347015"><ele>186.0</ele><time>2026-04-12T14:21:31Z</time></trkpt><trkpt lat="45.900013454788656" lon="11.942941812469686"><ele>185.60000000000002</ele><time>2026-04-12T14:21:32Z</time></trkpt><trkpt lat="45.89991095353691" lon="11.942950374628499"><ele>185.2</ele><time>2026-04-12T14:21:34Z</time></trkpt><trkpt lat="45.89984239160905" lon="11.942913065749647"><ele>184.8</ele><time>2026-04-12T14:21:43Z</time></trkpt><trkpt lat="45.89975707835343" lon="11.942868390705971"><ele>184.39999999999998</ele><time>2026-04-12T14:21:45Z</time></trkpt><trkpt lat="45.89968507730344" lon="11.942850190382252"><ele>184.0</ele><time>2026-04-12T14:21:46Z</time></trkpt><trkpt lat="45.89954632539444" lon="11.94283020365548"><ele>184.0</ele><time>2026-04-12T14:21:47.999Z</time></trkpt><trkpt lat="45.89941968383966" lon="11.942810937942944"><ele>184.0</ele><time>2026-04-12T14:21:48.999Z</time></trkpt><trkpt lat="45.89929932990587" lon="11.942757681227064"><ele>184.0</ele><time>2026-04-12T14:21:49.999Z</time></trkpt><trkpt lat="45.899192583244265" lon="11.942706906957739"><ele>184.0</ele><time>2026-04-12T14:21:50.999Z</time></trkpt><trkpt lat="45.89908391241065" lon="11.942670342714473"><ele>183.0</ele><time>2026-04-12T14:21:51.999Z</time></trkpt><trkpt lat="45.89895210538287" lon="11.94263997675906"><ele>182.0</ele><time>2026-04-12T14:21:52.999Z</time></trkpt><trkpt lat="45.89880970417462" lon="11.942608645846953"><ele>181.0</ele><time>2026-04-12T14:21:53.999Z</time></trkpt><trkpt lat="45.898686127241454" lon="11.942565593713145"><ele>180.0</ele><time>2026-04-12T14:21:54.999Z</time></trkpt><trkpt lat="45.89857087045532" lon="11.942563961445536"><ele>180.0</ele><time>2026-04-12T14:21:55.999Z</time></trkpt><trkpt lat="45.89845405804352" lon="11.942548947173465"><ele>180.0</ele><time>2026-04-12T14:21:56.999Z</time></trkpt><trkpt lat="45.89831460807526" lon="11.9425673360391"><ele>180.0</ele><time>2026-04-12T14:21:57.999Z</time></trkpt><trkpt lat="45.898176932695236" lon="11.942576365809115"><ele>180.0</ele><time>2026-04-12T14:21:58.999Z</time></trkpt><trkpt lat="45.89803956740287" lon="11.94259718798783"><ele>178.5</ele><time>2026-04-12T14:21:59.999Z</time></trkpt><trkpt lat="45.8979112496667" lon="11.942605287568803"><ele>177.0</ele><time>2026-04-12T14:22:00.999Z</time></trkpt><trkpt lat="45.89778319988543" lon="11.942605248336223"><ele>175.5</ele><time>2026-04-12T14:22:01.999Z</time></trkpt><trkpt lat="45.89765745179409" lon="11.942616491280969"><ele>174.0</ele><time>2026-04-12T14:22:02.999Z</time></trkpt><trkpt lat="45.89753046552902" lon="11.942635174270231"><ele>174.0</ele><time>2026-04-12T14:22:03.999Z</time></trkpt><trkpt lat="45.897402268061384" lon="11.94263817614935"><ele>174.0</ele><time>2026-04-12T14:22:04.999Z</time></trkpt><trkpt lat="45.897265456069604" lon="11.942643740705632"><ele>174.0</ele><time>2026-04-12T14:22:05.999Z</time></trkpt><trkpt lat="45.897122494741886" lon="11.942654367234208"><ele>174.0</ele><time>2026-04-12T14:22:06.999Z</time></trkpt><trkpt lat="45.89698695560325" lon="11.942647818479283"><ele>174.0</ele><time>2026-04-12T14:22:07.999Z</time></trkpt><trkpt lat="45.89686107790153" lon="11.94263362728812"><ele>174.0</ele><time>2026-04-12T14:22:08.999Z</time></trkpt><trkpt lat="45.89675246546605" lon="11.942618148393848"><ele>174.0</ele><time>2026-04-12T14:22:09.999Z</time></trkpt><trkpt lat="45.89664461236045" lon="11.94260884744955"><ele>174.0</ele><time>2026-04-12T14:22:10.999Z</time></trkpt><trkpt lat="45.89654161043967" lon="11.942595020220796"><ele>174.0</ele><time>2026-04-12T14:22:11.999Z</time></trkpt><trkpt lat="45.896432950158186" lon="11.942597917145894"><ele>174.5</ele><time>2026-04-12T14:22:12.999Z</time></trkpt><trkpt lat="45.89633553857859" lon="11.942575335311618"><ele>175.0</ele><time>2026-04-12T14:22:13.999Z</time></trkpt><trkpt lat="45.89622872098298" lon="11.942554970796092"><ele>175.5</ele><time>2026-04-12T14:22:14.999Z</time></trkpt><trkpt lat="45.89611030742845" lon="11.942534922616801"><ele>176.0</ele><time>2026-04-12T14:22:15.999Z</time></trkpt><trkpt lat="45.895975517986585" lon="11.942514407995418"><ele>178.33333333333331</ele><time>2026-04-12T14:22:16.999Z</time></trkpt><trkpt lat="45.895825742557086" lon="11.942489857153907"><ele>180.66666666666666</ele><time>2026-04-12T14:22:17.999Z</time></trkpt><trkpt lat="45.89567861205158" lon="11.942457067497925"><ele>183.0</ele><time>2026-04-12T14:22:18.999Z</time></trkpt><trkpt lat="45.89550457137218" lon="11.942439531385885"><ele>183.0</ele><time>2026-04-12T14:22:19.999Z</time></trkpt><trkpt lat="45.89532267482959" lon="11.942423811430661"><ele>183.0</ele><time>2026-04-12T14:22:20.999Z</time></trkpt><trkpt lat="45.895147977128445" lon="11.942400752962316"><ele>183.0</ele><time>2026-04-12T14:22:21.999Z</time></trkpt><trkpt lat="45.894973684508756" lon="11.942363092009892"><ele>181.33333333333334</ele><time>2026-04-12T14:22:22.999Z</time></trkpt><trkpt lat="45.894807123418566" lon="11.942333825916897"><ele>179.66666666666669</ele><time>2026-04-12T14:22:23.999Z</time></trkpt><trkpt lat="45.894647677278705" lon="11.942319289564594"><ele>178.0</ele><time>2026-04-12T14:22:24.999Z</time></trkpt><trkpt lat="45.89448458741635" lon="11.942318637993537"><ele>178.0</ele><time>2026-04-12T14:22:25.999Z</time></trkpt><trkpt lat="45.89431761207152" lon="11.94233359032805"><ele>178.0</ele><time>2026-04-12T14:22:26.999Z</time></trkpt><trkpt lat="45.894154991285305" lon="11.94238172002262"><ele>178.0</ele><time>2026-04-12T14:22:27.999Z</time></trkpt><trkpt lat="45.89399604407065" lon="11.942467101093788"><ele>175.33333333333334</ele><time>2026-04-12T14:22:28.999Z</time></trkpt><trkpt lat="45.89385386719331" lon="11.942548741860287"><ele>172.66666666666666</ele><time>2026-04-12T14:22:29.999Z</time></trkpt><trkpt lat="45.89370962469117" lon="11.942649265524187"><ele>170.0</ele><time>2026-04-12T14:22:30.999Z</time></trkpt><trkpt lat="45.89357789076625" lon="11.942736973433215"><ele>170.0</ele><time>2026-04-12T14:22:31.999Z</time></trkpt><trkpt lat="45.89343961813293" lon="11.942849180125089"><ele>170.0</ele><time>2026-04-12T14:22:32.999Z</time></trkpt><trkpt lat="45.893299736684206" lon="11.942930652054578"><ele>170.0</ele><time>2026-04-12T14:22:33.999Z</time></trkpt><trkpt lat="45.8931574550658" lon="11.94303661520066"><ele>172.66666666666666</ele><time>2026-04-12T14:22:34.999Z</time></trkpt><trkpt lat="45.89301726158879" lon="11.943139429751506"><ele>175.33333333333334</ele><time>2026-04-12T14:22:35.999Z</time></trkpt><trkpt lat="45.89287595683516" lon="11.943250701476334"><ele>178.0</ele><time>2026-04-12T14:22:36.999Z</time></trkpt><trkpt lat="45.892737243546456" lon="11.943338825038305"><ele>177.33333333333334</ele><time>2026-04-12T14:22:37.999Z</time></trkpt><trkpt lat="45.89259552126747" lon="11.943414144635849"><ele>176.66666666666666</ele><time>2026-04-12T14:22:38.999Z</time></trkpt><trkpt lat="45.892444426245746" lon="11.94348748045153"><ele>176.0</ele><time>2026-04-12T14:22:39.999Z</time></trkpt><trkpt lat="45.89228830623094" lon="11.943527040005955"><ele>176.0</ele><time>2026-04-12T14:22:40.999Z</time></trkpt><trkpt lat="45.89212985516624" lon="11.943594687157914"><ele>176.0</ele><time>2026-04-12T14:22:41.999Z</time></trkpt><trkpt lat="45.891967612548086" lon="11.943656901918763"><ele>176.0</ele><time>2026-04-12T14:22:42.999Z</time></trkpt><trkpt lat="45.891807028753504" lon="11.94370284779568"><ele>175.66666666666666</ele><time>2026-04-12T14:22:43.999Z</time></trkpt><trkpt lat="45.891637456377026" lon="11.94370849891612"><ele>175.33333333333334</ele><time>2026-04-12T14:22:44.999Z</time></trkpt><trkpt lat="45.89147732765923" lon="11.943760038413405"><ele>175.0</ele><time>2026-04-12T14:22:45.999Z</time></trkpt><trkpt lat="45.891317048103225" lon="11.943787031393867"><ele>175.0</ele><time>2026-04-12T14:22:46.999Z</time></trkpt><trkpt lat="45.89115409106832" lon="11.943805513435306"><ele>175.0</ele><time>2026-04-12T14:22:47.999Z</time></trkpt><trkpt lat="45.89099795096172" lon="11.943833346326297"><ele>175.0</ele><time>2026-04-12T14:22:48.999Z</time></trkpt><trkpt lat="45.89083412089283" lon="11.943868267579647"><ele>175.33333333333334</ele><time>2026-04-12T14:22:49.999Z</time></trkpt><trkpt lat="45.89066936500999" lon="11.94388864005551"><ele>175.66666666666666</ele><time>2026-04-12T14:22:50.999Z</time></trkpt><trkpt lat="45.89050864683756" lon="11.943926108583454"><ele>176.0</ele><time>2026-04-12T14:22:51.999Z</time></trkpt><trkpt lat="45.890344230889475" lon="11.943969022763126"><ele>176.0</ele><time>2026-04-12T14:22:52.999Z</time></trkpt><trkpt lat="45.89018063655749" lon="11.944043610815607"><ele>176.0</ele><time>2026-04-12T14:22:53.999Z</time></trkpt><trkpt lat="45.89002626959342" lon="11.94415118034984"><ele>176.0</ele><time>2026-04-12T14:22:54.999Z</time></trkpt><trkpt lat="45.88987782503203" lon="11.944273350139857"><ele>175.33333333333331</ele><time>2026-04-12T14:22:55.999Z</time></trkpt><trkpt lat="45.889725085643185" lon="11.944418272241416"><ele>174.66666666666666</ele><time>2026-04-12T14:22:56.999Z</time></trkpt><trkpt lat="45.88957934238746" lon="11.94456313392683"><ele>174.0</ele><time>2026-04-12T14:22:57.999Z</time></trkpt><trkpt lat="45.88943385876432" lon="11.944700293320171"><ele>174.0</ele><time>2026-04-12T14:22:58.999Z</time></trkpt><trkpt lat="45.88928656084486" lon="11.944834415699399"><ele>174.0</ele><time>2026-04-12T14:22:59.999Z</time></trkpt><trkpt lat="45.88913414546754" lon="11.944976273225489"><ele>174.0</ele><time>2026-04-12T14:23:00.999Z</time></trkpt><trkpt lat="45.888984539269906" lon="11.945107386377979"><ele>172.33333333333334</ele><time>2026-04-12T14:23:01.999Z</time></trkpt><trkpt lat="45.88883443191129" lon="11.9452451205871"><ele>170.66666666666669</ele><time>2026-04-12T14:23:03Z</time></trkpt><trkpt lat="45.88867811139366" lon="11.945383379884174"><ele>169.0</ele><time>2026-04-12T14:23:04Z</time></trkpt><trkpt lat="45.88852155568446" lon="11.945521795548332"><ele>169.33333333333334</ele><time>2026-04-12T14:23:05Z</time></trkpt><trkpt lat="45.88836604692868" lon="11.945650201847629"><ele>169.66666666666666</ele><time>2026-04-12T14:23:06Z</time></trkpt><trkpt lat="45.88820163840726" lon="11.945803751417353"><ele>170.0</ele><time>2026-04-12T14:23:07Z</time></trkpt><trkpt lat="45.888032291525704" lon="11.945941578938166"><ele>170.0</ele><time>2026-04-12T14:23:08Z</time></trkpt><trkpt lat="45.88785962609011" lon="11.946097321288711"><ele>170.0</ele><time>2026-04-12T14:23:09Z</time></trkpt><trkpt lat="45.88768797606102" lon="11.946254547833906"><ele>170.0</ele><time>2026-04-12T14:23:10Z</time></trkpt><trkpt lat="45.88752120888715" lon="11.946408212374227"><ele>170.0</ele><time>2026-04-12T14:23:11Z</time></trkpt><trkpt lat="45.887384050283075" lon="11.946559829538643"><ele>170.0</ele><time>2026-04-12T14:23:12Z</time></trkpt><trkpt lat="45.88723170865052" lon="11.946698425365286"><ele>170.0</ele><time>2026-04-12T14:23:13Z</time></trkpt><trkpt lat="45.887081516580864" lon="11.946829706522426"><ele>170.0</ele><time>2026-04-12T14:23:14Z</time></trkpt><trkpt lat="45.886918269570884" lon="11.946954074707998"><ele>170.0</ele><time>2026-04-12T14:23:15Z</time></trkpt><trkpt lat="45.886763648521814" lon="11.947097095047342"><ele>170.0</ele><time>2026-04-12T14:23:16Z</time></trkpt><trkpt lat="45.88661905699992" lon="11.947269900788074"><ele>169.66666666666666</ele><time>2026-04-12T14:23:17Z</time></trkpt><trkpt lat="45.886479692395966" lon="11.947411318182095"><ele>169.33333333333334</ele><time>2026-04-12T14:23:18Z</time></trkpt><trkpt lat="45.8863687711202" lon="11.947591666408764"><ele>169.0</ele><time>2026-04-12T14:23:19Z</time></trkpt><trkpt lat="45.88625986185374" lon="11.947791335764595"><ele>169.0</ele><time>2026-04-12T14:23:20Z</time></trkpt><trkpt lat="45.886157150594265" lon="11.948013758470854"><ele>169.0</ele><time>2026-04-12T14:23:21Z</time></trkpt><trkpt lat="45.886052438782976" lon="11.948229755416827"><ele>169.0</ele><time>2026-04-12T14:23:22Z</time></trkpt><trkpt lat="45.885955328063936" lon="11.948449052007497"><ele>173.33333333333334</ele><time>2026-04-12T14:23:23Z</time></trkpt><trkpt lat="45.88585887609524" lon="11.948669837621377"><ele>177.66666666666666</ele><time>2026-04-12T14:23:24Z</time></trkpt><trkpt lat="45.88576714666656" lon="11.948906669323211"><ele>182.0</ele><time>2026-04-12T14:23:25Z</time></trkpt><trkpt lat="45.88568529215391" lon="11.949138223151774"><ele>178.0</ele><time>2026-04-12T14:23:26Z</time></trkpt><trkpt lat="45.88560551737499" lon="11.94937831182064"><ele>174.0</ele><time>2026-04-12T14:23:27Z</time></trkpt><trkpt lat="45.88552288786409" lon="11.949619125324272"><ele>170.0</ele><time>2026-04-12T14:23:28Z</time></trkpt><trkpt lat="45.88544680744795" lon="11.949856781737068"><ele>167.33333333333331</ele><time>2026-04-12T14:23:29Z</time></trkpt><trkpt lat="45.88538145716129" lon="11.95011149591647"><ele>164.66666666666666</ele><time>2026-04-12T14:23:30Z</time></trkpt><trkpt lat="45.88533539852884" lon="11.950368913690191"><ele>162.0</ele><time>2026-04-12T14:23:31Z</time></trkpt><trkpt lat="45.88528298215751" lon="11.950610267265883"><ele>162.0</ele><time>2026-04-12T14:23:32Z</time></trkpt><trkpt lat="45.88523351155171" lon="11.950860605333624"><ele>162.0</ele><time>2026-04-12T14:23:33Z</time></trkpt><trkpt lat="45.885182851326825" lon="11.951092353747539"><ele>162.0</ele><time>2026-04-12T14:23:34Z</time></trkpt><trkpt lat="45.88513466271529" lon="11.951319804908549"><ele>169.33333333333334</ele><time>2026-04-12T14:23:35Z</time></trkpt><trkpt lat="45.88508518242069" lon="11.951551204612723"><ele>176.66666666666669</ele><time>2026-04-12T14:23:36Z</time></trkpt><trkpt lat="45.88503928300827" lon="11.951789001847288"><ele>184.0</ele><time>2026-04-12T14:23:37Z</time></trkpt><trkpt lat="45.885001981713636" lon="11.952039541029462"><ele>184.0</ele><time>2026-04-12T14:23:38Z</time></trkpt><trkpt lat="45.88495548470918" lon="11.95228461327692"><ele>184.0</ele><time>2026-04-12T14:23:39Z</time></trkpt><trkpt lat="45.88490941854569" lon="11.952540334045162"><ele>184.0</ele><time>2026-04-12T14:23:40Z</time></trkpt><trkpt lat="45.8848769618184" lon="11.952799624823996"><ele>181.66666666666669</ele><time>2026-04-12T14:23:41Z</time></trkpt><trkpt lat="45.884838022514835" lon="11.95303712095732"><ele>179.33333333333334</ele><time>2026-04-12T14:23:42Z</time></trkpt><trkpt lat="45.884804685893876" lon="11.953275664276163"><ele>177.0</ele><time>2026-04-12T14:23:43Z</time></trkpt><trkpt lat="45.884766008581224" lon="11.953515027832752"><ele>175.33333333333334</ele><time>2026-04-12T14:23:44Z</time></trkpt><trkpt lat="45.88471788252238" lon="11.953746569120376"><ele>173.66666666666669</ele><time>2026-04-12T14:23:45Z</time></trkpt><trkpt lat="45.88466792800687" lon="11.953975761360546"><ele>172.0</ele><time>2026-04-12T14:23:46Z</time></trkpt><trkpt lat="45.884577772628326" lon="11.954173844204657"><ele>172.0</ele><time>2026-04-12T14:23:47Z</time></trkpt><trkpt lat="45.88447908730271" lon="11.954367486577667"><ele>172.0</ele><time>2026-04-12T14:23:48Z</time></trkpt><trkpt lat="45.88437584677649" lon="11.95456170690985"><ele>172.0</ele><time>2026-04-12T14:23:49Z</time></trkpt><trkpt lat="45.88426119113614" lon="11.954745387506776"><ele>171.0</ele><time>2026-04-12T14:23:50Z</time></trkpt><trkpt lat="45.88414427901412" lon="11.954933300206052"><ele>170.0</ele><time>2026-04-12T14:23:51Z</time></trkpt><trkpt lat="45.884031581918464" lon="11.9551270671783"><ele>169.0</ele><time>2026-04-12T14:23:52Z</time></trkpt><trkpt lat="45.88391847795585" lon="11.95531701196103"><ele>169.0</ele><time>2026-04-12T14:23:53Z</time></trkpt><trkpt lat="45.883807879713366" lon="11.955496814237614"><ele>169.0</ele><time>2026-04-12T14:23:54Z</time></trkpt><trkpt lat="45.88370027983686" lon="11.955674817907852"><ele>169.0</ele><time>2026-04-12T14:23:55Z</time></trkpt><trkpt lat="45.88358143764312" lon="11.955866565115379"><ele>168.0</ele><time>2026-04-12T14:23:56Z</time></trkpt><trkpt lat="45.88346383368898" lon="11.956071359398601"><ele>167.0</ele><time>2026-04-12T14:23:57Z</time></trkpt><trkpt lat="45.88334325705272" lon="11.956274307699776"><ele>166.0</ele><time>2026-04-12T14:23:57.999Z</time></trkpt><trkpt lat="45.8832234936371" lon="11.956473412851826"><ele>166.66666666666669</ele><time>2026-04-12T14:23:58.999Z</time></trkpt><trkpt lat="45.88309900535105" lon="11.956673907016178"><ele>167.33333333333334</ele><time>2026-04-12T14:23:59.999Z</time></trkpt><trkpt lat="45.8829831898628" lon="11.956871779350115"><ele>168.0</ele><time>2026-04-12T14:24:00.999Z</time></trkpt><trkpt lat="45.882859186086534" lon="11.957085995524562"><ele>168.0</ele><time>2026-04-12T14:24:01.999Z</time></trkpt><trkpt lat="45.88272927196361" lon="11.957299426401049"><ele>168.0</ele><time>2026-04-12T14:24:02.999Z</time></trkpt><trkpt lat="45.88258977911572" lon="11.957498150490757"><ele>168.0</ele><time>2026-04-12T14:24:03.999Z</time></trkpt><trkpt lat="45.88246244035145" lon="11.957697582268885"><ele>168.33333333333334</ele><time>2026-04-12T14:24:04.999Z</time></trkpt><trkpt lat="45.88232892071141" lon="11.957894593406717"><ele>168.66666666666669</ele><time>2026-04-12T14:24:05.999Z</time></trkpt><trkpt lat="45.88219570120481" lon="11.958096325805704"><ele>169.0</ele><time>2026-04-12T14:24:06.999Z</time></trkpt><trkpt lat="45.88206057151116" lon="11.958299345566237"><ele>170.0</ele><time>2026-04-12T14:24:07.999Z</time></trkpt><trkpt lat="45.88193996044885" lon="11.958515632393404"><ele>171.0</ele><time>2026-04-12T14:24:08.999Z</time></trkpt><trkpt lat="45.88182103378606" lon="11.958721318544255"><ele>172.0</ele><time>2026-04-12T14:24:09.999Z</time></trkpt><trkpt lat="45.88171445312666" lon="11.958935000107864"><ele>172.0</ele><time>2026-04-12T14:24:10.999Z</time></trkpt><trkpt lat="45.881608662673735" lon="11.95914111367897"><ele>172.0</ele><time>2026-04-12T14:24:11.999Z</time></trkpt><trkpt lat="45.881507267449145" lon="11.959352269755497"><ele>172.0</ele><time>2026-04-12T14:24:12.999Z</time></trkpt><trkpt lat="45.88140074421979" lon="11.959559034880769"><ele>170.66666666666669</ele><time>2026-04-12T14:24:13.999Z</time></trkpt><trkpt lat="45.88130222369504" lon="11.959773149896808"><ele>169.33333333333334</ele><time>2026-04-12T14:24:14.999Z</time></trkpt><trkpt lat="45.88119889083851" lon="11.959983960821658"><ele>168.0</ele><time>2026-04-12T14:24:15.999Z</time></trkpt><trkpt lat="45.881099236771476" lon="11.960198316241996"><ele>168.0</ele><time>2026-04-12T14:24:16.999Z</time></trkpt><trkpt lat="45.88099317772672" lon="11.960406089946657"><ele>168.0</ele><time>2026-04-12T14:24:17.999Z</time></trkpt><trkpt lat="45.880886950146596" lon="11.960612416688916"><ele>168.0</ele><time>2026-04-12T14:24:18.999Z</time></trkpt><trkpt lat="45.88077931092608" lon="11.960811314235658"><ele>169.33333333333334</ele><time>2026-04-12T14:24:19.999Z</time></trkpt><trkpt lat="45.88066894375348" lon="11.961000299700304"><ele>170.66666666666669</ele><time>2026-04-12T14:24:20.999Z</time></trkpt><trkpt lat="45.88055209839069" lon="11.961176625131511"><ele>172.0</ele><time>2026-04-12T14:24:21.999Z</time></trkpt><trkpt lat="45.880432552103144" lon="11.961350315071067"><ele>172.0</ele><time>2026-04-12T14:24:22.999Z</time></trkpt><trkpt lat="45.88030568424405" lon="11.96151454006702"><ele>172.0</ele><time>2026-04-12T14:24:23.999Z</time></trkpt><trkpt lat="45.88017898564382" lon="11.961680715296092"><ele>172.0</ele><time>2026-04-12T14:24:24.999Z</time></trkpt><trkpt lat="45.880050575225404" lon="11.961843230738397"><ele>171.66666666666669</ele><time>2026-04-12T14:24:25.999Z</time></trkpt><trkpt lat="45.87992249725757" lon="11.961997919578437"><ele>171.33333333333334</ele><time>2026-04-12T14:24:26.999Z</time></trkpt><trkpt lat="45.87979487626157" lon="11.962149701451029"><ele>171.0</ele><time>2026-04-12T14:24:27.999Z</time></trkpt><trkpt lat="45.87966603731948" lon="11.962299287232323"><ele>171.0</ele><time>2026-04-12T14:24:28.999Z</time></trkpt><trkpt lat="45.8795599976458" lon="11.962438208587546"><ele>171.0</ele><time>2026-04-12T14:24:29.999Z</time></trkpt><trkpt lat="45.879453042323945" lon="11.962566875836378"><ele>171.0</ele><time>2026-04-12T14:24:30.999Z</time></trkpt><trkpt lat="45.87933215313387" lon="11.962664157802754"><ele>171.0</ele><time>2026-04-12T14:24:31.999Z</time></trkpt><trkpt lat="45.879197708697525" lon="11.96272352825821"><ele>170.25</ele><time>2026-04-12T14:24:32.999Z</time></trkpt><trkpt lat="45.879066275152326" lon="11.962775271293163"><ele>169.5</ele><time>2026-04-12T14:24:33.999Z</time></trkpt><trkpt lat="45.8789303348832" lon="11.96280128979405"><ele>168.75</ele><time>2026-04-12T14:24:34.999Z</time></trkpt><trkpt lat="45.87880242540567" lon="11.962836990633312"><ele>168.0</ele><time>2026-04-12T14:24:35.999Z</time></trkpt><trkpt lat="45.878676789200505" lon="11.962887307872876"><ele>168.0</ele><time>2026-04-12T14:24:36.999Z</time></trkpt><trkpt lat="45.87855531926986" lon="11.962920138748776"><ele>168.0</ele><time>2026-04-12T14:24:37.999Z</time></trkpt><trkpt lat="45.878421481773906" lon="11.962951852696055"><ele>168.0</ele><time>2026-04-12T14:24:38.999Z</time></trkpt><trkpt lat="45.878300529757084" lon="11.96296169154636"><ele>168.0</ele><time>2026-04-12T14:24:39.999Z</time></trkpt><trkpt lat="45.878154956161815" lon="11.962996522754587"><ele>171.33333333333334</ele><time>2026-04-12T14:24:40.999Z</time></trkpt><trkpt lat="45.87800444941754" lon="11.963029374004467"><ele>174.66666666666669</ele><time>2026-04-12T14:24:41.999Z</time></trkpt><trkpt lat="45.87786550893609" lon="11.96306491739201"><ele>178.0</ele><time>2026-04-12T14:24:42.999Z</time></trkpt><trkpt lat="45.87770205045793" lon="11.963091346065779"><ele>178.33333333333334</ele><time>2026-04-12T14:24:43.999Z</time></trkpt><trkpt lat="45.87754191774538" lon="11.963136068522623"><ele>178.66666666666666</ele><time>2026-04-12T14:24:44.999Z</time></trkpt><trkpt lat="45.87737157415619" lon="11.963160868207776"><ele>179.0</ele><time>2026-04-12T14:24:45.999Z</time></trkpt><trkpt lat="45.87720871697043" lon="11.963180408999774"><ele>179.0</ele><time>2026-04-12T14:24:46.999Z</time></trkpt><trkpt lat="45.87704644563112" lon="11.963211510296377"><ele>179.0</ele><time>2026-04-12T14:24:47.999Z</time></trkpt><trkpt lat="45.87689441776463" lon="11.963238834034168"><ele>179.0</ele><time>2026-04-12T14:24:48.999Z</time></trkpt><trkpt lat="45.87673895045264" lon="11.963278068248474"><ele>179.5</ele><time>2026-04-12T14:24:49.999Z</time></trkpt><trkpt lat="45.87659407333363" lon="11.963307313365519"><ele>180.0</ele><time>2026-04-12T14:24:50.999Z</time></trkpt><trkpt lat="45.87644788238331" lon="11.963334584135465"><ele>180.5</ele><time>2026-04-12T14:24:51.999Z</time></trkpt><trkpt lat="45.87630270452795" lon="11.963393701065455"><ele>181.0</ele><time>2026-04-12T14:24:52.999Z</time></trkpt><trkpt lat="45.876168849564294" lon="11.963435124570436"><ele>180.75</ele><time>2026-04-12T14:24:53.999Z</time></trkpt><trkpt lat="45.87604113168838" lon="11.963490427931868"><ele>180.5</ele><time>2026-04-12T14:24:54.999Z</time></trkpt><trkpt lat="45.875916159681296" lon="11.96354988481598"><ele>180.25</ele><time>2026-04-12T14:24:55.999Z</time></trkpt><trkpt lat="45.87579819596232" lon="11.963608053035548"><ele>180.0</ele><time>2026-04-12T14:24:56.999Z</time></trkpt><trkpt lat="45.87567748030064" lon="11.963675973401589"><ele>180.0</ele><time>2026-04-12T14:24:57.999Z</time></trkpt><trkpt lat="45.875552137053276" lon="11.963754465025966"><ele>180.0</ele><time>2026-04-12T14:24:58.999Z</time></trkpt><trkpt lat="45.87542686811105" lon="11.963845000471032"><ele>180.0</ele><time>2026-04-12T14:24:59.999Z</time></trkpt><trkpt lat="45.87529680863881" lon="11.963936073376336"><ele>180.0</ele><time>2026-04-12T14:25:00.999Z</time></trkpt><trkpt lat="45.87515411111909" lon="11.96402288211474"><ele>181.0</ele><time>2026-04-12T14:25:01.999Z</time></trkpt><trkpt lat="45.87500878605523" lon="11.96411405338908"><ele>182.0</ele><time>2026-04-12T14:25:02.999Z</time></trkpt><trkpt lat="45.87486208671186" lon="11.96420066284327"><ele>183.0</ele><time>2026-04-12T14:25:03.999Z</time></trkpt><trkpt lat="45.8747148558117" lon="11.964308225016062"><ele>182.0</ele><time>2026-04-12T14:25:04.999Z</time></trkpt><trkpt lat="45.874564139788596" lon="11.964410232288992"><ele>181.0</ele><time>2026-04-12T14:25:05.999Z</time></trkpt><trkpt lat="45.87441552952502" lon="11.964519105238168"><ele>180.0</ele><time>2026-04-12T14:25:06.999Z</time></trkpt><trkpt lat="45.87426711885643" lon="11.964606351508944"><ele>180.0</ele><time>2026-04-12T14:25:07.999Z</time></trkpt><trkpt lat="45.874115395333824" lon="11.964694423281031"><ele>180.0</ele><time>2026-04-12T14:25:09Z</time></trkpt><trkpt lat="45.873976129831846" lon="11.964790416575935"><ele>180.0</ele><time>2026-04-12T14:25:10Z</time></trkpt><trkpt lat="45.87383237986502" lon="11.964881860974769"><ele>180.0</ele><time>2026-04-12T14:25:11Z</time></trkpt><trkpt lat="45.87368413859609" lon="11.964976554133367"><ele>180.0</ele><time>2026-04-12T14:25:12Z</time></trkpt><trkpt lat="45.873532468300475" lon="11.96507537922984"><ele>180.0</ele><time>2026-04-12T14:25:13Z</time></trkpt><trkpt lat="45.87337942467644" lon="11.965172969020008"><ele>178.33333333333334</ele><time>2026-04-12T14:25:14Z</time></trkpt><trkpt lat="45.87323910184455" lon="11.965267827287924"><ele>176.66666666666669</ele><time>2026-04-12T14:25:15Z</time></trkpt><trkpt lat="45.873107834735315" lon="11.965366872745033"><ele>175.0</ele><time>2026-04-12T14:25:16Z</time></trkpt><trkpt lat="45.872977988820644" lon="11.965470357293142"><ele>175.0</ele><time>2026-04-12T14:25:17Z</time></trkpt><trkpt lat="45.87285408499453" lon="11.965582092304128"><ele>175.0</ele><time>2026-04-12T14:25:18Z</time></trkpt><trkpt lat="45.87273871591299" lon="11.965704534183585"><ele>175.0</ele><time>2026-04-12T14:25:19Z</time></trkpt><trkpt lat="45.87262877330208" lon="11.965827750804626"><ele>175.0</ele><time>2026-04-12T14:25:20Z</time></trkpt><trkpt lat="45.872521717495204" lon="11.965935262561453"><ele>175.4</ele><time>2026-04-12T14:25:21Z</time></trkpt><trkpt lat="45.872436276427266" lon="11.966046089757215"><ele>175.8</ele><time>2026-04-12T14:25:22Z</time></trkpt><trkpt lat="45.87236276300651" lon="11.966133278964243"><ele>176.2</ele><time>2026-04-12T14:25:23Z</time></trkpt><trkpt lat="45.87230755325866" lon="11.966216118718119"><ele>176.6</ele><time>2026-04-12T14:25:24Z</time></trkpt><trkpt lat="45.87225520910097" lon="11.966294819144094"><ele>177.0</ele><time>2026-04-12T14:25:25Z</time></trkpt><trkpt lat="45.872194956631525" lon="11.966382435483059"><ele>177.0</ele><time>2026-04-12T14:25:26Z</time></trkpt><trkpt lat="45.87213436584611" lon="11.966468329002142"><ele>177.0</ele><time>2026-04-12T14:25:27Z</time></trkpt><trkpt lat="45.87208181444967" lon="11.966540564397718"><ele>177.0</ele><time>2026-04-12T14:25:28Z</time></trkpt><trkpt lat="45.872020947282664" lon="11.966624938626204"><ele>177.0</ele><time>2026-04-12T14:25:29Z</time></trkpt><trkpt lat="45.87196857789734" lon="11.9666979333853"><ele>177.0</ele><time>2026-04-12T14:25:30Z</time></trkpt><trkpt lat="45.871911032302656" lon="11.966774710021335"><ele>177.0</ele><time>2026-04-12T14:25:32Z</time></trkpt><trkpt lat="45.87185415512929" lon="11.966846831689912"><ele>176.66666666666666</ele><time>2026-04-12T14:25:35Z</time></trkpt><trkpt lat="45.87180529045772" lon="11.966905374492791"><ele>176.33333333333334</ele><time>2026-04-12T14:25:37Z</time></trkpt><trkpt lat="45.87172851513616" lon="11.966972376356857"><ele>176.0</ele><time>2026-04-12T14:25:40Z</time></trkpt><trkpt lat="45.8716655673735" lon="11.966996272665686"><ele>175.66666666666669</ele><time>2026-04-12T14:25:42Z</time></trkpt><trkpt lat="45.871591674071006" lon="11.966993502255026"><ele>175.33333333333334</ele><time>2026-04-12T14:25:45Z</time></trkpt><trkpt lat="45.87148988671985" lon="11.966946641013228"><ele>175.0</ele><time>2026-04-12T14:25:48Z</time></trkpt><trkpt lat="45.87143245081318" lon="11.966909471801758"><ele>175.0</ele><time>2026-04-12T14:25:49Z</time></trkpt><trkpt lat="45.871374706389304" lon="11.966858208970708"><ele>175.0</ele><time>2026-04-12T14:25:50Z</time></trkpt><trkpt lat="45.871309803872144" lon="11.966806449170303"><ele>175.0</ele><time>2026-04-12T14:25:51Z</time></trkpt><trkpt lat="45.8712404933398" lon="11.966772173556429"><ele>175.0</ele><time>2026-04-12T14:25:52Z</time></trkpt><trkpt lat="45.87117014742287" lon="11.966744444214191"><ele>175.0</ele><time>2026-04-12T14:25:53Z</time></trkpt><trkpt lat="45.871087702500134" lon="11.96681607640018"><ele>175.0</ele><time>2026-04-12T14:25:54Z</time></trkpt><trkpt lat="45.87102153540908" lon="11.966898371753567"><ele>175.0</ele><time>2026-04-12T14:25:55Z</time></trkpt><trkpt lat="45.870976368014475" lon="11.967015064021709"><ele>175.0</ele><time>2026-04-12T14:25:56Z</time></trkpt><trkpt lat="45.8709615327671" lon="11.967147910406807"><ele>175.0</ele><time>2026-04-12T14:25:57Z</time></trkpt><trkpt lat="45.870978726198906" lon="11.967295917701604"><ele>175.0</ele><time>2026-04-12T14:25:58Z</time></trkpt><trkpt lat="45.871004392195864" lon="11.967451224188244"><ele>175.0</ele><time>2026-04-12T14:25:59Z</time></trkpt><trkpt lat="45.87100339879141" lon="11.967615658517476"><ele>175.75</ele><time>2026-04-12T14:26:00Z</time></trkpt><trkpt lat="45.870956345963066" lon="11.967770786995516"><ele>176.5</ele><time>2026-04-12T14:26:01Z</time></trkpt><trkpt lat="45.87086112952894" lon="11.967868647201007"><ele>177.25</ele><time>2026-04-12T14:26:02Z</time></trkpt><trkpt lat="45.870742268657324" lon="11.967981716249527"><ele>178.0</ele><time>2026-04-12T14:26:03Z</time></trkpt><trkpt lat="45.87062120289104" lon="11.968117253588723"><ele>178.0</ele><time>2026-04-12T14:26:04Z</time></trkpt><trkpt lat="45.87049542863338" lon="11.968217983466987"><ele>178.0</ele><time>2026-04-12T14:26:04.999Z</time></trkpt><trkpt lat="45.8703657536608" lon="11.968341558441798"><ele>178.0</ele><time>2026-04-12T14:26:05.999Z</time></trkpt><trkpt lat="45.87024098133782" lon="11.968464130165076"><ele>179.0</ele><time>2026-04-12T14:26:06.999Z</time></trkpt><trkpt lat="45.87012449752475" lon="11.968578548171713"><ele>180.0</ele><time>2026-04-12T14:26:07.999Z</time></trkpt><trkpt lat="45.8699991860214" lon="11.968704993551603"><ele>181.0</ele><time>2026-04-12T14:26:08.999Z</time></trkpt><trkpt lat="45.86987733137697" lon="11.968828081979728"><ele>182.0</ele><time>2026-04-12T14:26:09.999Z</time></trkpt><trkpt lat="45.86975456785403" lon="11.968966210376323"><ele>182.0</ele><time>2026-04-12T14:26:10.999Z</time></trkpt><trkpt lat="45.86964461805633" lon="11.969107900460587"><ele>182.0</ele><time>2026-04-12T14:26:11.999Z</time></trkpt><trkpt lat="45.869542708531185" lon="11.969248194884695"><ele>182.0</ele><time>2026-04-12T14:26:12.999Z</time></trkpt><trkpt lat="45.86944572142063" lon="11.969391362816255"><ele>182.0</ele><time>2026-04-12T14:26:13.999Z</time></trkpt><trkpt lat="45.86935281822468" lon="11.969544467090236"><ele>181.5</ele><time>2026-04-12T14:26:14.999Z</time></trkpt><trkpt lat="45.869268705121165" lon="11.96969525094481"><ele>181.0</ele><time>2026-04-12T14:26:15.999Z</time></trkpt><trkpt lat="45.86917914745363" lon="11.969867107432831"><ele>180.5</ele><time>2026-04-12T14:26:16.999Z</time></trkpt><trkpt lat="45.869089404353424" lon="11.970045965799551"><ele>180.0</ele><time>2026-04-12T14:26:17.999Z</time></trkpt><trkpt lat="45.86900897365906" lon="11.97025012968992"><ele>180.0</ele><time>2026-04-12T14:26:18.999Z</time></trkpt><trkpt lat="45.86892558939689" lon="11.970448115608542"><ele>180.0</ele><time>2026-04-12T14:26:19.999Z</time></trkpt><trkpt lat="45.86884169744973" lon="11.970656806271524"><ele>180.0</ele><time>2026-04-12T14:26:20.999Z</time></trkpt><trkpt lat="45.86876399580819" lon="11.97085543591224"><ele>177.75</ele><time>2026-04-12T14:26:21.999Z</time></trkpt><trkpt lat="45.86869339988409" lon="11.97103778195671"><ele>175.5</ele><time>2026-04-12T14:26:22.999Z</time></trkpt><trkpt lat="45.86862356924028" lon="11.97121892470128"><ele>173.25</ele><time>2026-04-12T14:26:23.999Z</time></trkpt><trkpt lat="45.86855777423309" lon="11.9713966752777"><ele>171.0</ele><time>2026-04-12T14:26:24.999Z</time></trkpt><trkpt lat="45.868484594666725" lon="11.971580646832937"><ele>174.25</ele><time>2026-04-12T14:26:25.999Z</time></trkpt><trkpt lat="45.86841651732134" lon="11.97176130439905"><ele>177.5</ele><time>2026-04-12T14:26:26.999Z</time></trkpt><trkpt lat="45.86834529234464" lon="11.971947391441692"><ele>180.75</ele><time>2026-04-12T14:26:27.999Z</time></trkpt><trkpt lat="45.868275007171796" lon="11.972132429380597"><ele>184.0</ele><time>2026-04-12T14:26:28.999Z</time></trkpt><trkpt lat="45.86820417122265" lon="11.972314671319152"><ele>184.0</ele><time>2026-04-12T14:26:29.999Z</time></trkpt><trkpt lat="45.868128740300236" lon="11.972508008803347"><ele>184.0</ele><time>2026-04-12T14:26:30.999Z</time></trkpt><trkpt lat="45.86805025559573" lon="11.972700045215268"><ele>184.0</ele><time>2026-04-12T14:26:31.999Z</time></trkpt><trkpt lat="45.86796510616956" lon="11.972906578638874"><ele>181.0</ele><time>2026-04-12T14:26:32.999Z</time></trkpt><trkpt lat="45.867876724495815" lon="11.973132931394305"><ele>178.0</ele><time>2026-04-12T14:26:33.999Z</time></trkpt><trkpt lat="45.86778096648733" lon="11.973374790196058"><ele>175.0</ele><time>2026-04-12T14:26:34.999Z</time></trkpt><trkpt lat="45.86768234725935" lon="11.973637146300655"><ele>177.0</ele><time>2026-04-12T14:26:35.999Z</time></trkpt><trkpt lat="45.86759005594939" lon="11.97388332878679"><ele>179.0</ele><time>2026-04-12T14:26:36.999Z</time></trkpt><trkpt lat="45.86749528435924" lon="11.974121995944532"><ele>181.0</ele><time>2026-04-12T14:26:37.999Z</time></trkpt><trkpt lat="45.867412215112665" lon="11.974332676567009"><ele>181.0</ele><time>2026-04-12T14:26:38.999Z</time></trkpt><trkpt lat="45.86732754665124" lon="11.974555430502855"><ele>181.0</ele><time>2026-04-12T14:26:39.999Z</time></trkpt><trkpt lat="45.867243776743905" lon="11.974766844418395"><ele>181.0</ele><time>2026-04-12T14:26:40.999Z</time></trkpt><trkpt lat="45.8671605544891" lon="11.974976699221722"><ele>179.33333333333334</ele><time>2026-04-12T14:26:41.999Z</time></trkpt><trkpt lat="45.8670806975052" lon="11.975191609258399"><ele>177.66666666666666</ele><time>2026-04-12T14:26:42.999Z</time></trkpt><trkpt lat="45.866997450832585" lon="11.975408482220159"><ele>176.0</ele><time>2026-04-12T14:26:43.999Z</time></trkpt><trkpt lat="45.86691415320092" lon="11.975619388411692"><ele>176.0</ele><time>2026-04-12T14:26:44.999Z</time></trkpt><trkpt lat="45.86682761866212" lon="11.975823599963345"><ele>176.0</ele><time>2026-04-12T14:26:45.999Z</time></trkpt><trkpt lat="45.86674565180525" lon="11.97603182954832"><ele>176.0</ele><time>2026-04-12T14:26:46.999Z</time></trkpt><trkpt lat="45.86666835086634" lon="11.976237625138605"><ele>176.33333333333331</ele><time>2026-04-12T14:26:47.999Z</time></trkpt><trkpt lat="45.86659241216057" lon="11.976442952401216"><ele>176.66666666666666</ele><time>2026-04-12T14:26:48.999Z</time></trkpt><trkpt lat="45.86651425321724" lon="11.976648556529982"><ele>177.0</ele><time>2026-04-12T14:26:49.999Z</time></trkpt><trkpt lat="45.866437117697444" lon="11.976839622002835"><ele>177.0</ele><time>2026-04-12T14:26:50.999Z</time></trkpt><trkpt lat="45.86636058241712" lon="11.977027645464247"><ele>177.0</ele><time>2026-04-12T14:26:51.999Z</time></trkpt><trkpt lat="45.866282941964066" lon="11.977228717532281"><ele>177.0</ele><time>2026-04-12T14:26:52.999Z</time></trkpt><trkpt lat="45.86620503705029" lon="11.977428007027948"><ele>176.66666666666666</ele><time>2026-04-12T14:26:53.999Z</time></trkpt><trkpt lat="45.86612759474157" lon="11.977623229406717"><ele>176.33333333333331</ele><time>2026-04-12T14:26:54.999Z</time></trkpt><trkpt lat="45.866054468154786" lon="11.977815120024648"><ele>176.0</ele><time>2026-04-12T14:26:55.999Z</time></trkpt><trkpt lat="45.865976777677965" lon="11.978014800258494"><ele>177.33333333333331</ele><time>2026-04-12T14:26:56.999Z</time></trkpt><trkpt lat="45.865903037650526" lon="11.97822562323557"><ele>178.66666666666666</ele><time>2026-04-12T14:26:57.999Z</time></trkpt><trkpt lat="45.86582124504093" lon="11.978432244241686"><ele>180.0</ele><time>2026-04-12T14:26:58.999Z</time></trkpt><trkpt lat="45.86574801943457" lon="11.978625802365109"><ele>180.0</ele><time>2026-04-12T14:26:59.999Z</time></trkpt><trkpt lat="45.86568622074484" lon="11.978832836282612"><ele>180.0</ele><time>2026-04-12T14:27:00.999Z</time></trkpt><trkpt lat="45.86562303241703" lon="11.979059000689835"><ele>180.0</ele><time>2026-04-12T14:27:01.999Z</time></trkpt><trkpt lat="45.86556484274811" lon="11.979270531637678"><ele>179.33333333333334</ele><time>2026-04-12T14:27:02.999Z</time></trkpt><trkpt lat="45.86551335227154" lon="11.979481590541363"><ele>178.66666666666669</ele><time>2026-04-12T14:27:03.999Z</time></trkpt><trkpt lat="45.86546349526342" lon="11.979692845740182"><ele>178.0</ele><time>2026-04-12T14:27:04.999Z</time></trkpt><trkpt lat="45.86542095040983" lon="11.979898483150683"><ele>176.66666666666669</ele><time>2026-04-12T14:27:05.999Z</time></trkpt><trkpt lat="45.86537746556182" lon="11.980110596110242"><ele>175.33333333333334</ele><time>2026-04-12T14:27:06.999Z</time></trkpt><trkpt lat="45.86533779780589" lon="11.980324749009126"><ele>174.0</ele><time>2026-04-12T14:27:07.999Z</time></trkpt><trkpt lat="45.86529964435401" lon="11.980545903040582"><ele>174.0</ele><time>2026-04-12T14:27:08.999Z</time></trkpt><trkpt lat="45.865268238000404" lon="11.980786558145297"><ele>174.0</ele><time>2026-04-12T14:27:09.999Z</time></trkpt><trkpt lat="45.86518578420333" lon="11.981015477812607"><ele>174.0</ele><time>2026-04-12T14:27:10.999Z</time></trkpt><trkpt lat="45.865111077653644" lon="11.98122881372859"><ele>175.0</ele><time>2026-04-12T14:27:11.999Z</time></trkpt><trkpt lat="45.86501625868094" lon="11.981415649393739"><ele>176.0</ele><time>2026-04-12T14:27:12.999Z</time></trkpt><trkpt lat="45.86491756598" lon="11.98157351521541"><ele>177.0</ele><time>2026-04-12T14:27:13.999Z</time></trkpt><trkpt lat="45.86481343471495" lon="11.981739339099224"><ele>177.0</ele><time>2026-04-12T14:27:15Z</time></trkpt><trkpt lat="45.86470503058133" lon="11.981903279883568"><ele>177.0</ele><time>2026-04-12T14:27:16Z</time></trkpt><trkpt lat="45.864606129651854" lon="11.982058403985988"><ele>177.0</ele><time>2026-04-12T14:27:17Z</time></trkpt><trkpt lat="45.864512985194445" lon="11.982197408305439"><ele>177.0</ele><time>2026-04-12T14:27:18Z</time></trkpt><trkpt lat="45.864418500925694" lon="11.982328957263839"><ele>177.0</ele><time>2026-04-12T14:27:19Z</time></trkpt><trkpt lat="45.86432542182545" lon="11.982465907990552"><ele>177.0</ele><time>2026-04-12T14:27:20Z</time></trkpt><trkpt lat="45.8642313172058" lon="11.982609171356625"><ele>177.0</ele><time>2026-04-12T14:27:21Z</time></trkpt><trkpt lat="45.86415162594744" lon="11.982749956181157"><ele>177.0</ele><time>2026-04-12T14:27:22Z</time></trkpt><trkpt lat="45.86407144313737" lon="11.982894193640702"><ele>177.0</ele><time>2026-04-12T14:27:23Z</time></trkpt><trkpt lat="45.863988429764916" lon="11.983045518561585"><ele>177.0</ele><time>2026-04-12T14:27:24Z</time></trkpt><trkpt lat="45.86389738905824" lon="11.98320969638098"><ele>177.0</ele><time>2026-04-12T14:27:25Z</time></trkpt><trkpt lat="45.863799884137286" lon="11.983376174289758"><ele>177.0</ele><time>2026-04-12T14:27:26Z</time></trkpt><trkpt lat="45.86372163322709" lon="11.983562155681463"><ele>176.33333333333334</ele><time>2026-04-12T14:27:27Z</time></trkpt><trkpt lat="45.86363406932971" lon="11.983737214345124"><ele>175.66666666666669</ele><time>2026-04-12T14:27:28Z</time></trkpt><trkpt lat="45.86354748722378" lon="11.983919065633113"><ele>175.0</ele><time>2026-04-12T14:27:29Z</time></trkpt><trkpt lat="45.863463976236176" lon="11.984106856507612"><ele>172.0</ele><time>2026-04-12T14:27:30Z</time></trkpt><trkpt lat="45.86337900745996" lon="11.98429755070524"><ele>169.0</ele><time>2026-04-12T14:27:31Z</time></trkpt><trkpt lat="45.863294528536194" lon="11.984472539134776"><ele>166.0</ele><time>2026-04-12T14:27:32Z</time></trkpt><trkpt lat="45.86320900903607" lon="11.984654775197749"><ele>166.0</ele><time>2026-04-12T14:27:33Z</time></trkpt><trkpt lat="45.86311880027147" lon="11.984833181658557"><ele>166.0</ele><time>2026-04-12T14:27:34Z</time></trkpt><trkpt lat="45.863031461258" lon="11.985011181748803"><ele>166.0</ele><time>2026-04-12T14:27:35Z</time></trkpt><trkpt lat="45.86294399788942" lon="11.985197066192406"><ele>165.5</ele><time>2026-04-12T14:27:36Z</time></trkpt><trkpt lat="45.86285717471834" lon="11.985341115801553"><ele>165.0</ele><time>2026-04-12T14:27:37Z</time></trkpt><trkpt lat="45.86277976290511" lon="11.985470806676283"><ele>164.5</ele><time>2026-04-12T14:27:38Z</time></trkpt><trkpt lat="45.86268754637186" lon="11.985591100187316"><ele>164.0</ele><time>2026-04-12T14:27:39Z</time></trkpt><trkpt lat="45.86259618949536" lon="11.98567871293489"><ele>163.75</ele><time>2026-04-12T14:27:40Z</time></trkpt><trkpt lat="45.86249458282288" lon="11.98575940749349"><ele>163.5</ele><time>2026-04-12T14:27:41Z</time></trkpt><trkpt lat="45.86237690462641" lon="11.98583046550147"><ele>163.25</ele><time>2026-04-12T14:27:42Z</time></trkpt><trkpt lat="45.862261962778945" lon="11.98589480588326"><ele>163.0</ele><time>2026-04-12T14:27:43Z</time></trkpt><trkpt lat="45.86213991444465" lon="11.9859091082434"><ele>163.0</ele><time>2026-04-12T14:27:44Z</time></trkpt><trkpt lat="45.86200683128338" lon="11.985931680019867"><ele>163.0</ele><time>2026-04-12T14:27:45Z</time></trkpt><trkpt lat="45.86188150465243" lon="11.985954316666158"><ele>163.0</ele><time>2026-04-12T14:27:46Z</time></trkpt><trkpt lat="45.86175288456681" lon="11.985961734624913"><ele>163.0</ele><time>2026-04-12T14:27:47Z</time></trkpt><trkpt lat="45.861627522377105" lon="11.985960180216514"><ele>163.5</ele><time>2026-04-12T14:27:48Z</time></trkpt><trkpt lat="45.86150110795618" lon="11.985953470386184"><ele>164.0</ele><time>2026-04-12T14:27:49Z</time></trkpt><trkpt lat="45.861370271804745" lon="11.985943941383615"><ele>164.5</ele><time>2026-04-12T14:27:50Z</time></trkpt><trkpt lat="45.861238249243904" lon="11.985902110494097"><ele>165.0</ele><time>2026-04-12T14:27:51Z</time></trkpt><trkpt lat="45.86109749534234" lon="11.985859369191193"><ele>167.75</ele><time>2026-04-12T14:27:52Z</time></trkpt><trkpt lat="45.860960171591536" lon="11.98580952882219"><ele>170.5</ele><time>2026-04-12T14:27:53Z</time></trkpt><trkpt lat="45.86082517993387" lon="11.98578227094979"><ele>173.25</ele><time>2026-04-12T14:27:54Z</time></trkpt><trkpt lat="45.8606876753094" lon="11.98575225395142"><ele>176.0</ele><time>2026-04-12T14:27:55Z</time></trkpt><trkpt lat="45.860544421996565" lon="11.985741630063824"><ele>176.25</ele><time>2026-04-12T14:27:56Z</time></trkpt><trkpt lat="45.860411076100284" lon="11.985721332006728"><ele>176.5</ele><time>2026-04-12T14:27:57Z</time></trkpt><trkpt lat="45.860277788633624" lon="11.985694260516459"><ele>176.75</ele><time>2026-04-12T14:27:58Z</time></trkpt><trkpt lat="45.86014409626358" lon="11.985671785529242"><ele>177.0</ele><time>2026-04-12T14:27:59Z</time></trkpt><trkpt lat="45.8600224327717" lon="11.985648930880828"><ele>177.0</ele><time>2026-04-12T14:28:00Z</time></trkpt><trkpt lat="45.85989077986157" lon="11.98565979778909"><ele>177.0</ele><time>2026-04-12T14:28:01Z</time></trkpt><trkpt lat="45.8597619625505" lon="11.98568966595367"><ele>177.0</ele><time>2026-04-12T14:28:02Z</time></trkpt><trkpt lat="45.85966775658061" lon="11.985723311015118"><ele>177.0</ele><time>2026-04-12T14:28:03Z</time></trkpt><trkpt lat="45.85959235259965" lon="11.985752795311432"><ele>177.0</ele><time>2026-04-12T14:28:04Z</time></trkpt><trkpt lat="45.85953083564954" lon="11.98577591026228"><ele>177.0</ele><time>2026-04-12T14:28:05Z</time></trkpt><trkpt lat="45.85940647110605" lon="11.985832292821417"><ele>177.0</ele><time>2026-04-12T14:28:07Z</time></trkpt><trkpt lat="45.85933622365098" lon="11.985864108221321"><ele>177.0</ele><time>2026-04-12T14:28:08Z</time></trkpt><trkpt lat="45.85924844226018" lon="11.985903357885663"><ele>177.0</ele><time>2026-04-12T14:28:08.999Z</time></trkpt><trkpt lat="45.859161037209496" lon="11.985945766533511"><ele>177.0</ele><time>2026-04-12T14:28:09.999Z</time></trkpt><trkpt lat="45.85907198313818" lon="11.985979900045557"><ele>176.6</ele><time>2026-04-12T14:28:10.999Z</time></trkpt><trkpt lat="45.85897748731042" lon="11.986016753781099"><ele>176.2</ele><time>2026-04-12T14:28:11.999Z</time></trkpt><trkpt lat="45.85888373532261" lon="11.98606488151334"><ele>175.8</ele><time>2026-04-12T14:28:12.999Z</time></trkpt><trkpt lat="45.85877155717949" lon="11.986121545274969"><ele>175.4</ele><time>2026-04-12T14:28:13.999Z</time></trkpt><trkpt lat="45.85864685415587" lon="11.986173811035897"><ele>175.0</ele><time>2026-04-12T14:28:14.999Z</time></trkpt><trkpt lat="45.85852092256845" lon="11.986230755376901"><ele>174.66666666666669</ele><time>2026-04-12T14:28:15.999Z</time></trkpt><trkpt lat="45.85837721588219" lon="11.986297143296314"><ele>174.33333333333334</ele><time>2026-04-12T14:28:16.999Z</time></trkpt><trkpt lat="45.85824403959476" lon="11.986384305863403"><ele>174.0</ele><time>2026-04-12T14:28:17.999Z</time></trkpt><trkpt lat="45.85810734611535" lon="11.98648592252448"><ele>174.0</ele><time>2026-04-12T14:28:18.999Z</time></trkpt><trkpt lat="45.85797410583298" lon="11.986580540091815"><ele>174.0</ele><time>2026-04-12T14:28:19.999Z</time></trkpt><trkpt lat="45.85785220481195" lon="11.986669607889066"><ele>174.0</ele><time>2026-04-12T14:28:20.999Z</time></trkpt><trkpt lat="45.857732375875116" lon="11.98674925293179"><ele>174.0</ele><time>2026-04-12T14:28:21.999Z</time></trkpt><trkpt lat="45.85761816035241" lon="11.986793408848047"><ele>173.79999999999998</ele><time>2026-04-12T14:28:22.999Z</time></trkpt><trkpt lat="45.8575085347857" lon="11.986830916230225"><ele>173.6</ele><time>2026-04-12T14:28:23.999Z</time></trkpt><trkpt lat="45.85740532010504" lon="11.986867023987148"><ele>173.4</ele><time>2026-04-12T14:28:24.999Z</time></trkpt><trkpt lat="45.85731544266127" lon="11.98689952146013"><ele>173.2</ele><time>2026-04-12T14:28:25.999Z</time></trkpt><trkpt lat="45.85722737985013" lon="11.986931657141467"><ele>173.0</ele><time>2026-04-12T14:28:26.999Z</time></trkpt><trkpt lat="45.85714135953438" lon="11.986953978166717"><ele>173.0</ele><time>2026-04-12T14:28:27.999Z</time></trkpt><trkpt lat="45.85706035315569" lon="11.986982380982342"><ele>173.0</ele><time>2026-04-12T14:28:28.999Z</time></trkpt><trkpt lat="45.85699620885923" lon="11.987005656586561"><ele>173.0</ele><time>2026-04-12T14:28:29.999Z</time></trkpt><trkpt lat="45.856857547906614" lon="11.987056794415771"><ele>173.0</ele><time>2026-04-12T14:28:31.999Z</time></trkpt><trkpt lat="45.85677129724978" lon="11.987096876129874"><ele>173.0</ele><time>2026-04-12T14:28:32.999Z</time></trkpt><trkpt lat="45.856667391594854" lon="11.98712707811247"><ele>173.75</ele><time>2026-04-12T14:28:33.999Z</time></trkpt><trkpt lat="45.85655117820111" lon="11.98716832171538"><ele>174.5</ele><time>2026-04-12T14:28:34.999Z</time></trkpt><trkpt lat="45.856419960737554" lon="11.987214305825725"><ele>175.25</ele><time>2026-04-12T14:28:35.999Z</time></trkpt><trkpt lat="45.856252699038066" lon="11.987270019611543"><ele>176.0</ele><time>2026-04-12T14:28:36.999Z</time></trkpt><trkpt lat="45.85609095944369" lon="11.987315188313417"><ele>176.0</ele><time>2026-04-12T14:28:37.999Z</time></trkpt><trkpt lat="45.855956877808836" lon="11.987362752752203"><ele>176.0</ele><time>2026-04-12T14:28:38.999Z</time></trkpt><trkpt lat="45.85585577194118" lon="11.987405089809371"><ele>176.0</ele><time>2026-04-12T14:28:39.999Z</time></trkpt><trkpt lat="45.8557680348971" lon="11.987431533938453"><ele>176.0</ele><time>2026-04-12T14:28:40.999Z</time></trkpt><trkpt lat="45.85566327444288" lon="11.987468441853915"><ele>176.0</ele><time>2026-04-12T14:28:42.999Z</time></trkpt><trkpt lat="45.855564951158" lon="11.987505523704282"><ele>175.60000000000002</ele><time>2026-04-12T14:28:44.999Z</time></trkpt><trkpt lat="45.855488184806404" lon="11.987527697657649"><ele>175.2</ele><time>2026-04-12T14:28:45.999Z</time></trkpt><trkpt lat="45.85539802457765" lon="11.987562042846443"><ele>174.8</ele><time>2026-04-12T14:28:46.999Z</time></trkpt><trkpt lat="45.85530605228916" lon="11.987600684951037"><ele>174.39999999999998</ele><time>2026-04-12T14:28:47.999Z</time></trkpt><trkpt lat="45.85521571975365" lon="11.987632647460789"><ele>174.0</ele><time>2026-04-12T14:28:48.999Z</time></trkpt><trkpt lat="45.855121837877974" lon="11.987660075710963"><ele>174.75</ele><time>2026-04-12T14:28:49.999Z</time></trkpt><trkpt lat="45.85500340907276" lon="11.9877123122977"><ele>175.5</ele><time>2026-04-12T14:28:50.999Z</time></trkpt><trkpt lat="45.85486359545235" lon="11.987769659604874"><ele>176.25</ele><time>2026-04-12T14:28:51.999Z</time></trkpt><trkpt lat="45.8546982856081" lon="11.987824622469148"><ele>177.0</ele><time>2026-04-12T14:28:52.999Z</time></trkpt><trkpt lat="45.85452302050829" lon="11.987888736481908"><ele>177.0</ele><time>2026-04-12T14:28:53.999Z</time></trkpt><trkpt lat="45.85436323477569" lon="11.987935364436588"><ele>177.0</ele><time>2026-04-12T14:28:54.999Z</time></trkpt><trkpt lat="45.85421675347145" lon="11.987982681181151"><ele>177.0</ele><time>2026-04-12T14:28:55.999Z</time></trkpt><trkpt lat="45.85407529583109" lon="11.988042276610603"><ele>177.0</ele><time>2026-04-12T14:28:56.999Z</time></trkpt><trkpt lat="45.85393130755715" lon="11.9881297844525"><ele>177.0</ele><time>2026-04-12T14:28:57.999Z</time></trkpt><trkpt lat="45.853784631543924" lon="11.988231683584312"><ele>177.0</ele><time>2026-04-12T14:28:58.999Z</time></trkpt><trkpt lat="45.853623487491234" lon="11.988308684484807"><ele>177.0</ele><time>2026-04-12T14:28:59.999Z</time></trkpt><trkpt lat="45.853472011954636" lon="11.98840039247164"><ele>177.0</ele><time>2026-04-12T14:29:00.999Z</time></trkpt><trkpt lat="45.85332490457027" lon="11.988484035084237"><ele>177.0</ele><time>2026-04-12T14:29:01.999Z</time></trkpt><trkpt lat="45.85317448307248" lon="11.988557126771287"><ele>176.33333333333334</ele><time>2026-04-12T14:29:02.999Z</time></trkpt><trkpt lat="45.85302831734767" lon="11.98861851614614"><ele>175.66666666666669</ele><time>2026-04-12T14:29:03.999Z</time></trkpt><trkpt lat="45.85288114480542" lon="11.988678730094277"><ele>175.0</ele><time>2026-04-12T14:29:04.999Z</time></trkpt><trkpt lat="45.85272748616509" lon="11.988728535141227"><ele>175.66666666666669</ele><time>2026-04-12T14:29:05.999Z</time></trkpt><trkpt lat="45.85257268129167" lon="11.988779954880894"><ele>176.33333333333334</ele><time>2026-04-12T14:29:06.999Z</time></trkpt><trkpt lat="45.852422895943164" lon="11.988830127425581"><ele>177.0</ele><time>2026-04-12T14:29:07.999Z</time></trkpt><trkpt lat="45.852274807896904" lon="11.988859779867576"><ele>177.0</ele><time>2026-04-12T14:29:08.999Z</time></trkpt><trkpt lat="45.85212318152965" lon="11.988894740162097"><ele>177.0</ele><time>2026-04-12T14:29:09.999Z</time></trkpt><trkpt lat="45.85197439072897" lon="11.988932631362399"><ele>177.0</ele><time>2026-04-12T14:29:10.999Z</time></trkpt><trkpt lat="45.85181958515708" lon="11.988977463124558"><ele>176.33333333333334</ele><time>2026-04-12T14:29:11.999Z</time></trkpt><trkpt lat="45.851662413223906" lon="11.989023234084309"><ele>175.66666666666669</ele><time>2026-04-12T14:29:12.999Z</time></trkpt><trkpt lat="45.85150881291704" lon="11.989070905782514"><ele>175.0</ele><time>2026-04-12T14:29:13.999Z</time></trkpt><trkpt lat="45.851353425353814" lon="11.989134237718956"><ele>175.0</ele><time>2026-04-12T14:29:14.999Z</time></trkpt><trkpt lat="45.85119377610923" lon="11.989200823774425"><ele>175.0</ele><time>2026-04-12T14:29:15.999Z</time></trkpt><trkpt lat="45.85103804393741" lon="11.989267046077208"><ele>175.0</ele><time>2026-04-12T14:29:16.999Z</time></trkpt><trkpt lat="45.850878160627644" lon="11.989339435469741"><ele>174.33333333333334</ele><time>2026-04-12T14:29:17.999Z</time></trkpt><trkpt lat="45.85071085350469" lon="11.989407336367158"><ele>173.66666666666666</ele><time>2026-04-12T14:29:18.999Z</time></trkpt><trkpt lat="45.850553241087574" lon="11.989485917930951"><ele>173.0</ele><time>2026-04-12T14:29:19.999Z</time></trkpt><trkpt lat="45.850395746946006" lon="11.989571880614823"><ele>173.0</ele><time>2026-04-12T14:29:21Z</time></trkpt><trkpt lat="45.85023106526485" lon="11.98965408748946"><ele>173.0</ele><time>2026-04-12T14:29:22Z</time></trkpt><trkpt lat="45.85006751541101" lon="11.989738646049346"><ele>173.0</ele><time>2026-04-12T14:29:23Z</time></trkpt><trkpt lat="45.84990593783566" lon="11.98982082147649"><ele>173.0</ele><time>2026-04-12T14:29:24Z</time></trkpt><trkpt lat="45.84974017195893" lon="11.989893173353405"><ele>173.0</ele><time>2026-04-12T14:29:25Z</time></trkpt><trkpt lat="45.84957552214518" lon="11.989951003390978"><ele>173.0</ele><time>2026-04-12T14:29:26Z</time></trkpt><trkpt lat="45.84940673990648" lon="11.98996040736987"><ele>171.66666666666666</ele><time>2026-04-12T14:29:27Z</time></trkpt><trkpt lat="45.84924460029565" lon="11.989979489393889"><ele>170.33333333333334</ele><time>2026-04-12T14:29:28Z</time></trkpt><trkpt lat="45.84908696787611" lon="11.989962000681507"><ele>169.0</ele><time>2026-04-12T14:29:29Z</time></trkpt><trkpt lat="45.848933074662064" lon="11.989933298446317"><ele>169.0</ele><time>2026-04-12T14:29:30Z</time></trkpt><trkpt lat="45.84878451648661" lon="11.989906959532075"><ele>169.0</ele><time>2026-04-12T14:29:31Z</time></trkpt><trkpt lat="45.84863636294151" lon="11.98988333673725"><ele>169.0</ele><time>2026-04-12T14:29:32Z</time></trkpt><trkpt lat="45.848492075400436" lon="11.989862952055018"><ele>169.0</ele><time>2026-04-12T14:29:33Z</time></trkpt><trkpt lat="45.84835434188964" lon="11.989849971068292"><ele>169.25</ele><time>2026-04-12T14:29:34Z</time></trkpt><trkpt lat="45.848219203951004" lon="11.98983120354305"><ele>169.5</ele><time>2026-04-12T14:29:35Z</time></trkpt><trkpt lat="45.848098820121294" lon="11.989818785993087"><ele>169.75</ele><time>2026-04-12T14:29:36Z</time></trkpt><trkpt lat="45.84798113758855" lon="11.989808106781132"><ele>170.0</ele><time>2026-04-12T14:29:37Z</time></trkpt><trkpt lat="45.8478530084426" lon="11.989784915510043"><ele>170.0</ele><time>2026-04-12T14:29:38Z</time></trkpt><trkpt lat="45.84771473647105" lon="11.989766575150261"><ele>170.0</ele><time>2026-04-12T14:29:39Z</time></trkpt><trkpt lat="45.84756655591717" lon="11.989756436193934"><ele>170.0</ele><time>2026-04-12T14:29:40Z</time></trkpt><trkpt lat="45.847422074618976" lon="11.989740758202087"><ele>170.0</ele><time>2026-04-12T14:29:41Z</time></trkpt><trkpt lat="45.84727357978601" lon="11.989722043349078"><ele>170.5</ele><time>2026-04-12T14:29:42Z</time></trkpt><trkpt lat="45.84712409804471" lon="11.989704038556047"><ele>171.0</ele><time>2026-04-12T14:29:43Z</time></trkpt><trkpt lat="45.84697771300479" lon="11.989681653906313"><ele>171.5</ele><time>2026-04-12T14:29:44Z</time></trkpt><trkpt lat="45.846834485380406" lon="11.9896708374159"><ele>172.0</ele><time>2026-04-12T14:29:45Z</time></trkpt><trkpt lat="45.846696702410185" lon="11.989649051188092"><ele>172.25</ele><time>2026-04-12T14:29:46Z</time></trkpt><trkpt lat="45.84655057348809" lon="11.989624850197986"><ele>172.5</ele><time>2026-04-12T14:29:47Z</time></trkpt><trkpt lat="45.84640984017044" lon="11.989614584592397"><ele>172.75</ele><time>2026-04-12T14:29:48Z</time></trkpt><trkpt lat="45.846261844877155" lon="11.989596387251398"><ele>173.0</ele><time>2026-04-12T14:29:49Z</time></trkpt><trkpt lat="45.84611595790252" lon="11.989573581406367"><ele>173.0</ele><time>2026-04-12T14:29:50Z</time></trkpt><trkpt lat="45.84597272006953" lon="11.989557853622296"><ele>173.0</ele><time>2026-04-12T14:29:51Z</time></trkpt><trkpt lat="45.845827669993874" lon="11.989542418428933"><ele>173.0</ele><time>2026-04-12T14:29:52Z</time></trkpt><trkpt lat="45.8456766455648" lon="11.989526152343801"><ele>173.0</ele><time>2026-04-12T14:29:53Z</time></trkpt><trkpt lat="45.84552007416356" lon="11.989503804042112"><ele>173.66666666666666</ele><time>2026-04-12T14:29:54Z</time></trkpt><trkpt lat="45.84536265307382" lon="11.989484666001777"><ele>174.33333333333334</ele><time>2026-04-12T14:29:55Z</time></trkpt><trkpt lat="45.845209759621056" lon="11.989465904476292"><ele>175.0</ele><time>2026-04-12T14:29:56Z</time></trkpt><trkpt lat="45.84505507952441" lon="11.989445831893677"><ele>173.66666666666669</ele><time>2026-04-12T14:29:57Z</time></trkpt><trkpt lat="45.84490198270813" lon="11.98942558486882"><ele>172.33333333333334</ele><time>2026-04-12T14:29:58Z</time></trkpt><trkpt lat="45.84474860205678" lon="11.989410121328117"><ele>171.0</ele><time>2026-04-12T14:29:59Z</time></trkpt><trkpt lat="45.84460023816589" lon="11.989395809353507"><ele>171.0</ele><time>2026-04-12T14:30:00Z</time></trkpt><trkpt lat="45.844454424216174" lon="11.989375951665311"><ele>171.0</ele><time>2026-04-12T14:30:01Z</time></trkpt><trkpt lat="45.84430563801343" lon="11.989353336707708"><ele>171.0</ele><time>2026-04-12T14:30:02Z</time></trkpt><trkpt lat="45.844158059401806" lon="11.989336549744696"><ele>171.0</ele><time>2026-04-12T14:30:03Z</time></trkpt><trkpt lat="45.84401744233875" lon="11.989320544942226"><ele>174.25</ele><time>2026-04-12T14:30:04Z</time></trkpt><trkpt lat="45.84388520106544" lon="11.989298793195903"><ele>177.5</ele><time>2026-04-12T14:30:05Z</time></trkpt><trkpt lat="45.84377446725298" lon="11.989286779225282"><ele>180.75</ele><time>2026-04-12T14:30:06Z</time></trkpt><trkpt lat="45.84366802192918" lon="11.989273846323824"><ele>184.0</ele><time>2026-04-12T14:30:07Z</time></trkpt><trkpt lat="45.84356516801656" lon="11.989264942437009"><ele>184.0</ele><time>2026-04-12T14:30:08Z</time></trkpt><trkpt lat="45.84346676913728" lon="11.989267198459634"><ele>184.0</ele><time>2026-04-12T14:30:09Z</time></trkpt><trkpt lat="45.84338512625593" lon="11.989236503459002"><ele>184.0</ele><time>2026-04-12T14:30:10Z</time></trkpt><trkpt lat="45.843328621765075" lon="11.989133441431118"><ele>184.0</ele><time>2026-04-12T14:30:11Z</time></trkpt><trkpt lat="45.84326332576397" lon="11.989021874284825"><ele>184.0</ele><time>2026-04-12T14:30:12Z</time></trkpt><trkpt lat="45.84326899086335" lon="11.988782455597528"><ele>182.5</ele><time>2026-04-12T14:30:12.999Z</time></trkpt><trkpt lat="45.843234951551935" lon="11.988593633618667"><ele>181.0</ele><time>2026-04-12T14:30:13.999Z</time></trkpt><trkpt lat="45.84318514124164" lon="11.9884021105949"><ele>179.5</ele><time>2026-04-12T14:30:14.999Z</time></trkpt><trkpt lat="45.84313519272755" lon="11.988179461253045"><ele>178.0</ele><time>2026-04-12T14:30:15.999Z</time></trkpt><trkpt lat="45.84307312435499" lon="11.987925532189694"><ele>177.0</ele><time>2026-04-12T14:30:16.999Z</time></trkpt><trkpt lat="45.843033218510385" lon="11.987666668833599"><ele>176.0</ele><time>2026-04-12T14:30:17.999Z</time></trkpt><trkpt lat="45.842992791680466" lon="11.98739168750075"><ele>175.0</ele><time>2026-04-12T14:30:18.999Z</time></trkpt><trkpt lat="45.842998339944394" lon="11.987094240300111"><ele>175.0</ele><time>2026-04-12T14:30:19.999Z</time></trkpt><trkpt lat="45.843032148102175" lon="11.986762239466977"><ele>175.0</ele><time>2026-04-12T14:30:20.999Z</time></trkpt><trkpt lat="45.8430611917356" lon="11.986399215471712"><ele>175.0</ele><time>2026-04-12T14:30:21.999Z</time></trkpt><trkpt lat="45.843087953551965" lon="11.986039560770008"><ele>175.0</ele><time>2026-04-12T14:30:22.999Z</time></trkpt><trkpt lat="45.843113542674494" lon="11.985685710853469"><ele>175.0</ele><time>2026-04-12T14:30:23.999Z</time></trkpt><trkpt lat="45.84314292298844" lon="11.985316850768552"><ele>175.0</ele><time>2026-04-12T14:30:24.999Z</time></trkpt><trkpt lat="45.84315943383628" lon="11.984915093397461"><ele>178.5</ele><time>2026-04-12T14:30:25.999Z</time></trkpt><trkpt lat="45.84320308693898" lon="11.984526061267998"><ele>182.0</ele><time>2026-04-12T14:30:26.999Z</time></trkpt><trkpt lat="45.84322727249713" lon="11.984165906913196"><ele>182.66666666666666</ele><time>2026-04-12T14:30:27.999Z</time></trkpt><trkpt lat="45.843276097518626" lon="11.983852012367908"><ele>183.33333333333334</ele><time>2026-04-12T14:30:28.999Z</time></trkpt><trkpt lat="45.843293238517255" lon="11.983555335654186"><ele>184.0</ele><time>2026-04-12T14:30:29.999Z</time></trkpt><trkpt lat="45.84333016868276" lon="11.983298698153751"><ele>184.0</ele><time>2026-04-12T14:30:30.999Z</time></trkpt><trkpt lat="45.843324639376505" lon="11.983038025363538"><ele>184.0</ele><time>2026-04-12T14:30:31.999Z</time></trkpt><trkpt lat="45.84328109242905" lon="11.9827539244698"><ele>184.0</ele><time>2026-04-12T14:30:32.999Z</time></trkpt><trkpt lat="45.84322945827093" lon="11.982472081456944"><ele>182.33333333333334</ele><time>2026-04-12T14:30:33.999Z</time></trkpt><trkpt lat="45.84316747690543" lon="11.982174383003503"><ele>180.66666666666666</ele><time>2026-04-12T14:30:34.999Z</time></trkpt><trkpt lat="45.843114328197544" lon="11.981871904292346"><ele>179.0</ele><time>2026-04-12T14:30:35.999Z</time></trkpt><trkpt lat="45.84304701111627" lon="11.981564864568409"><ele>178.66666666666666</ele><time>2026-04-12T14:30:36.999Z</time></trkpt><trkpt lat="45.842994592085944" lon="11.981260007559154"><ele>178.33333333333334</ele><time>2026-04-12T14:30:37.999Z</time></trkpt><trkpt lat="45.8429041348552" lon="11.980959913239362"><ele>178.0</ele><time>2026-04-12T14:30:38.999Z</time></trkpt><trkpt lat="45.842786453601875" lon="11.980673117267353"><ele>177.0</ele><time>2026-04-12T14:30:39.999Z</time></trkpt><trkpt lat="45.84267469008678" lon="11.980379103680361"><ele>176.0</ele><time>2026-04-12T14:30:40.999Z</time></trkpt><trkpt lat="45.84257060286203" lon="11.980081401417259"><ele>181.5</ele><time>2026-04-12T14:30:41.999Z</time></trkpt><trkpt lat="45.84248649495794" lon="11.979767837313009"><ele>187.0</ele><time>2026-04-12T14:30:42.999Z</time></trkpt><trkpt lat="45.84239398325771" lon="11.97945247331355"><ele>183.5</ele><time>2026-04-12T14:30:43.999Z</time></trkpt><trkpt lat="45.84229779660165" lon="11.97913757676177"><ele>180.0</ele><time>2026-04-12T14:30:44.999Z</time></trkpt><trkpt lat="45.842181317176724" lon="11.978842516887152"><ele>180.0</ele><time>2026-04-12T14:30:45.999Z</time></trkpt><trkpt lat="45.842075107859024" lon="11.978572920348864"><ele>180.0</ele><time>2026-04-12T14:30:46.999Z</time></trkpt><trkpt lat="45.84198144529838" lon="11.978321717415263"><ele>180.0</ele><time>2026-04-12T14:30:47.999Z</time></trkpt><trkpt lat="45.84191242654205" lon="11.978065892465866"><ele>179.33333333333334</ele><time>2026-04-12T14:30:48.999Z</time></trkpt><trkpt lat="45.84190391731354" lon="11.9777837538001"><ele>178.66666666666669</ele><time>2026-04-12T14:30:49.999Z</time></trkpt><trkpt lat="45.84190439150197" lon="11.97750030901097"><ele>178.0</ele><time>2026-04-12T14:30:50.999Z</time></trkpt><trkpt lat="45.84190728347434" lon="11.977207435527433"><ele>177.66666666666669</ele><time>2026-04-12T14:30:51.999Z</time></trkpt><trkpt lat="45.84190561549748" lon="11.976932479446928"><ele>177.33333333333334</ele><time>2026-04-12T14:30:52.999Z</time></trkpt><trkpt lat="45.841882495493174" lon="11.97668068366586"><ele>177.0</ele><time>2026-04-12T14:30:53.999Z</time></trkpt><trkpt lat="45.841850079413504" lon="11.976417465830819"><ele>177.0</ele><time>2026-04-12T14:30:54.999Z</time></trkpt><trkpt lat="45.84182047633271" lon="11.976174789539098"><ele>177.0</ele><time>2026-04-12T14:30:55.999Z</time></trkpt><trkpt lat="45.841781597011064" lon="11.975942160077834"><ele>177.0</ele><time>2026-04-12T14:30:56.999Z</time></trkpt><trkpt lat="45.841457408233005" lon="11.975766818362462"><ele>178.0</ele><time>2026-04-12T14:30:57.999Z</time></trkpt><trkpt lat="45.841339618554" lon="11.975534696789882"><ele>179.0</ele><time>2026-04-12T14:30:58.999Z</time></trkpt><trkpt lat="45.84125052478347" lon="11.975271759757748"><ele>180.0</ele><time>2026-04-12T14:30:59.999Z</time></trkpt><trkpt lat="45.84117982660555" lon="11.974989796862651"><ele>180.0</ele><time>2026-04-12T14:31:00.999Z</time></trkpt><trkpt lat="45.84113910521515" lon="11.974708752926151"><ele>180.0</ele><time>2026-04-12T14:31:01.999Z</time></trkpt><trkpt lat="45.841109648470244" lon="11.974407806078563"><ele>180.0</ele><time>2026-04-12T14:31:02.999Z</time></trkpt><trkpt lat="45.84108271867817" lon="11.974095959199133"><ele>179.66666666666666</ele><time>2026-04-12T14:31:03.999Z</time></trkpt><trkpt lat="45.841049657470236" lon="11.973806870261388"><ele>179.33333333333331</ele><time>2026-04-12T14:31:04.999Z</time></trkpt><trkpt lat="45.84100935789936" lon="11.973501355156348"><ele>179.0</ele><time>2026-04-12T14:31:05.999Z</time></trkpt><trkpt lat="45.84098520120235" lon="11.973202096175196"><ele>183.0</ele><time>2026-04-12T14:31:06.999Z</time></trkpt><trkpt lat="45.8409408697462" lon="11.972905310793088"><ele>187.0</ele><time>2026-04-12T14:31:07.999Z</time></trkpt><trkpt lat="45.840903240231015" lon="11.972600513194676"><ele>191.0</ele><time>2026-04-12T14:31:08.999Z</time></trkpt><trkpt lat="45.840860181488274" lon="11.972286134290032"><ele>191.0</ele><time>2026-04-12T14:31:09.999Z</time></trkpt><trkpt lat="45.840814914792894" lon="11.971970807775259"><ele>191.0</ele><time>2026-04-12T14:31:10.999Z</time></trkpt><trkpt lat="45.84078650198433" lon="11.971675091317085"><ele>191.0</ele><time>2026-04-12T14:31:11.999Z</time></trkpt><trkpt lat="45.840743823131966" lon="11.971429361890934"><ele>190.5</ele><time>2026-04-12T14:31:12.999Z</time></trkpt><trkpt lat="45.84071015270997" lon="11.9711853957717"><ele>190.0</ele><time>2026-04-12T14:31:13.999Z</time></trkpt><trkpt lat="45.8407178642876" lon="11.970984707065112"><ele>189.5</ele><time>2026-04-12T14:31:14.999Z</time></trkpt><trkpt lat="45.840738802131916" lon="11.970809790827108"><ele>189.0</ele><time>2026-04-12T14:31:15.999Z</time></trkpt><trkpt lat="45.84078797486634" lon="11.970671700944282"><ele>188.75</ele><time>2026-04-12T14:31:16.999Z</time></trkpt><trkpt lat="45.84089038283062" lon="11.97058236087318"><ele>188.5</ele><time>2026-04-12T14:31:17.999Z</time></trkpt><trkpt lat="45.841032859035764" lon="11.970515180597696"><ele>188.25</ele><time>2026-04-12T14:31:18.999Z</time></trkpt><trkpt lat="45.84117908689472" lon="11.970479588340378"><ele>188.0</ele><time>2026-04-12T14:31:19.999Z</time></trkpt><trkpt lat="45.84134437228833" lon="11.970423696462207"><ele>188.0</ele><time>2026-04-12T14:31:20.999Z</time></trkpt><trkpt lat="45.84150655727146" lon="11.97034889314848"><ele>188.0</ele><time>2026-04-12T14:31:21.999Z</time></trkpt><trkpt lat="45.841673448220575" lon="11.97030130949189"><ele>188.0</ele><time>2026-04-12T14:31:22.998Z</time></trkpt><trkpt lat="45.841846578487925" lon="11.970230533529682"><ele>187.0</ele><time>2026-04-12T14:31:23.998Z</time></trkpt><trkpt lat="45.84199232504576" lon="11.970144049641307"><ele>186.0</ele><time>2026-04-12T14:31:24.998Z</time></trkpt><trkpt lat="45.84209637917066" lon="11.970052958413788"><ele>185.0</ele><time>2026-04-12T14:31:25.998Z</time></trkpt><trkpt lat="45.84218469123206" lon="11.969875032991615"><ele>184.0</ele><time>2026-04-12T14:31:27Z</time></trkpt><trkpt lat="45.84225390372082" lon="11.969657502637311"><ele>183.66666666666669</ele><time>2026-04-12T14:31:28Z</time></trkpt><trkpt lat="45.842343829659654" lon="11.969408081381829"><ele>183.33333333333334</ele><time>2026-04-12T14:31:29Z</time></trkpt><trkpt lat="45.842441297049156" lon="11.969173830963253"><ele>183.0</ele><time>2026-04-12T14:31:30Z</time></trkpt><trkpt lat="45.842524498166256" lon="11.968960081546436"><ele>184.0</ele><time>2026-04-12T14:31:31Z</time></trkpt><trkpt lat="45.84258264439416" lon="11.968720112298803"><ele>185.0</ele><time>2026-04-12T14:31:32Z</time></trkpt><trkpt lat="45.84261151513527" lon="11.968436924311828"><ele>186.0</ele><time>2026-04-12T14:31:33Z</time></trkpt><trkpt lat="45.84262621487471" lon="11.968137597338682"><ele>186.33333333333334</ele><time>2026-04-12T14:31:34Z</time></trkpt><trkpt lat="45.84262484877091" lon="11.967835830607767"><ele>186.66666666666669</ele><time>2026-04-12T14:31:35Z</time></trkpt><trkpt lat="45.84265826725315" lon="11.967578425292855"><ele>187.0</ele><time>2026-04-12T14:31:36Z</time></trkpt><trkpt lat="45.84272311966659" lon="11.967364198406196"><ele>187.75</ele><time>2026-04-12T14:31:37Z</time></trkpt><trkpt lat="45.84281256122935" lon="11.967188971887454"><ele>188.5</ele><time>2026-04-12T14:31:38Z</time></trkpt><trkpt lat="45.8429048187628" lon="11.967033521237044"><ele>189.25</ele><time>2026-04-12T14:31:39Z</time></trkpt><trkpt lat="45.84295085519746" lon="11.966866011975192"><ele>190.0</ele><time>2026-04-12T14:31:40Z</time></trkpt><trkpt lat="45.84294863490823" lon="11.966688324263824"><ele>191.0</ele><time>2026-04-12T14:31:41Z</time></trkpt><trkpt lat="45.84289644350451" lon="11.966502061251365"><ele>192.0</ele><time>2026-04-12T14:31:42Z</time></trkpt><trkpt lat="45.84279862608718" lon="11.966317157410236"><ele>193.0</ele><time>2026-04-12T14:31:43Z</time></trkpt><trkpt lat="45.84267463532331" lon="11.966156414691916"><ele>190.33333333333331</ele><time>2026-04-12T14:31:44Z</time></trkpt><trkpt lat="45.84253758843309" lon="11.96600082117902"><ele>187.66666666666666</ele><time>2026-04-12T14:31:45Z</time></trkpt><trkpt lat="45.842412094025924" lon="11.965827682895386"><ele>185.0</ele><time>2026-04-12T14:31:46Z</time></trkpt><trkpt lat="45.842317293651575" lon="11.96561680953901"><ele>184.66666666666666</ele><time>2026-04-12T14:31:47Z</time></trkpt><trkpt lat="45.842252903077025" lon="11.965367301908264"><ele>184.33333333333334</ele><time>2026-04-12T14:31:48Z</time></trkpt><trkpt lat="45.84219525316915" lon="11.965090476773403"><ele>184.0</ele><time>2026-04-12T14:31:49Z</time></trkpt><trkpt lat="45.84214014934637" lon="11.964802482453507"><ele>184.0</ele><time>2026-04-12T14:31:50Z</time></trkpt><trkpt lat="45.842064391501175" lon="11.964470293494438"><ele>184.0</ele><time>2026-04-12T14:31:51Z</time></trkpt><trkpt lat="45.84199200878679" lon="11.96413412502575"><ele>184.5</ele><time>2026-04-12T14:31:52Z</time></trkpt><trkpt lat="45.84191760228748" lon="11.963802963481967"><ele>185.0</ele><time>2026-04-12T14:31:53Z</time></trkpt><trkpt lat="45.841840235601474" lon="11.963484623723827"><ele>185.33333333333331</ele><time>2026-04-12T14:31:54Z</time></trkpt><trkpt lat="45.841779025084634" lon="11.963195907747325"><ele>185.66666666666666</ele><time>2026-04-12T14:31:55Z</time></trkpt><trkpt lat="45.84174749555051" lon="11.962911543565198"><ele>186.0</ele><time>2026-04-12T14:31:56Z</time></trkpt><trkpt lat="45.841756329108904" lon="11.962585544966359"><ele>184.5</ele><time>2026-04-12T14:31:57Z</time></trkpt><trkpt lat="45.84178198961457" lon="11.962226332527775"><ele>183.0</ele><time>2026-04-12T14:31:58Z</time></trkpt><trkpt lat="45.84180105280569" lon="11.96187522483308"><ele>185.66666666666666</ele><time>2026-04-12T14:31:59Z</time></trkpt><trkpt lat="45.84182025384238" lon="11.961548617592843"><ele>188.33333333333331</ele><time>2026-04-12T14:32:00Z</time></trkpt><trkpt lat="45.84182483709391" lon="11.96127215286148"><ele>191.0</ele><time>2026-04-12T14:32:01Z</time></trkpt><trkpt lat="45.84182794215568" lon="11.961047577554883"><ele>190.0</ele><time>2026-04-12T14:32:02Z</time></trkpt><trkpt lat="45.8418139086569" lon="11.96083333961408"><ele>189.0</ele><time>2026-04-12T14:32:03Z</time></trkpt><trkpt lat="45.84175626968648" lon="11.960633278354079"><ele>188.0</ele><time>2026-04-12T14:32:04Z</time></trkpt><trkpt lat="45.84165536036338" lon="11.960436840206306"><ele>188.0</ele><time>2026-04-12T14:32:05Z</time></trkpt><trkpt lat="45.84153391751098" lon="11.960246469274047"><ele>188.0</ele><time>2026-04-12T14:32:06Z</time></trkpt><trkpt lat="45.84142266315084" lon="11.960047345453468"><ele>188.0</ele><time>2026-04-12T14:32:07Z</time></trkpt><trkpt lat="45.841312391556606" lon="11.959827846101495"><ele>188.0</ele><time>2026-04-12T14:32:08Z</time></trkpt><trkpt lat="45.84121320341084" lon="11.959638416420969"><ele>188.0</ele><time>2026-04-12T14:32:09Z</time></trkpt><trkpt lat="45.841134581303976" lon="11.959465560992417"><ele>188.0</ele><time>2026-04-12T14:32:10Z</time></trkpt><trkpt lat="45.84113630541853" lon="11.959301161300735"><ele>188.0</ele><time>2026-04-12T14:32:11Z</time></trkpt><trkpt lat="45.841172544828964" lon="11.959120600740908"><ele>188.0</ele><time>2026-04-12T14:32:12Z</time></trkpt><trkpt lat="45.841236614495706" lon="11.958952590812205"><ele>188.0</ele><time>2026-04-12T14:32:13Z</time></trkpt><trkpt lat="45.841395829478834" lon="11.958830985008602"><ele>188.0</ele><time>2026-04-12T14:32:14Z</time></trkpt><trkpt lat="45.841520075991056" lon="11.958692229625097"><ele>188.0</ele><time>2026-04-12T14:32:15Z</time></trkpt><trkpt lat="45.841670283254224" lon="11.958508245395466"><ele>188.0</ele><time>2026-04-12T14:32:16Z</time></trkpt><trkpt lat="45.84181875874001" lon="11.958335138807342"><ele>188.0</ele><time>2026-04-12T14:32:16.999Z</time></trkpt><trkpt lat="45.841969520887936" lon="11.958141660693473"><ele>191.0</ele><time>2026-04-12T14:32:17.999Z</time></trkpt><trkpt lat="45.84212179437592" lon="11.957906725366815"><ele>194.0</ele><time>2026-04-12T14:32:18.999Z</time></trkpt><trkpt lat="45.842282540258225" lon="11.957628923639776"><ele>194.66666666666669</ele><time>2026-04-12T14:32:19.999Z</time></trkpt><trkpt lat="45.842441374428624" lon="11.957431403724499"><ele>195.33333333333331</ele><time>2026-04-12T14:32:20.999Z</time></trkpt><trkpt lat="45.84261636861891" lon="11.957280813571499"><ele>196.0</ele><time>2026-04-12T14:32:21.999Z</time></trkpt><trkpt lat="45.842818379973714" lon="11.95717695992995"><ele>196.0</ele><time>2026-04-12T14:32:22.999Z</time></trkpt><trkpt lat="45.84302615134794" lon="11.95705277765687"><ele>196.0</ele><time>2026-04-12T14:32:23.999Z</time></trkpt><trkpt lat="45.84324131775978" lon="11.956963950223813"><ele>196.0</ele><time>2026-04-12T14:32:24.999Z</time></trkpt><trkpt lat="45.84345658019243" lon="11.956861098053748"><ele>197.0</ele><time>2026-04-12T14:32:25.999Z</time></trkpt><trkpt lat="45.84367775773178" lon="11.956755427035068"><ele>198.0</ele><time>2026-04-12T14:32:26.999Z</time></trkpt><trkpt lat="45.84387841247746" lon="11.956665923886305"><ele>199.0</ele><time>2026-04-12T14:32:27.999Z</time></trkpt><trkpt lat="45.84404633467294" lon="11.956593030548992"><ele>199.0</ele><time>2026-04-12T14:32:28.999Z</time></trkpt><trkpt lat="45.844190967361264" lon="11.956507592102874"><ele>199.0</ele><time>2026-04-12T14:32:29.999Z</time></trkpt><trkpt lat="45.84430426426652" lon="11.956324523492336"><ele>199.0</ele><time>2026-04-12T14:32:30.999Z</time></trkpt><trkpt lat="45.844421622411325" lon="11.956181894241524"><ele>199.66666666666666</ele><time>2026-04-12T14:32:31.999Z</time></trkpt><trkpt lat="45.844552779525195" lon="11.956012915530685"><ele>200.33333333333331</ele><time>2026-04-12T14:32:32.999Z</time></trkpt><trkpt lat="45.8447035342193" lon="11.955839160656947"><ele>201.0</ele><time>2026-04-12T14:32:33.999Z</time></trkpt><trkpt lat="45.84485864369801" lon="11.955650113919589"><ele>201.0</ele><time>2026-04-12T14:32:34.999Z</time></trkpt><trkpt lat="45.845017382001615" lon="11.95543361156731"><ele>201.0</ele><time>2026-04-12T14:32:35.999Z</time></trkpt><trkpt lat="45.84514780131621" lon="11.955202572623715"><ele>201.0</ele><time>2026-04-12T14:32:36.999Z</time></trkpt><trkpt lat="45.8452743013548" lon="11.954991361594434"><ele>201.33333333333331</ele><time>2026-04-12T14:32:37.999Z</time></trkpt><trkpt lat="45.84544388820265" lon="11.954828290367203"><ele>201.66666666666666</ele><time>2026-04-12T14:32:38.999Z</time></trkpt><trkpt lat="45.84559464555042" lon="11.954627021847042"><ele>202.0</ele><time>2026-04-12T14:32:39.999Z</time></trkpt><trkpt lat="45.84572825660516" lon="11.954435816806253"><ele>202.0</ele><time>2026-04-12T14:32:40.999Z</time></trkpt><trkpt lat="45.84590795030494" lon="11.954330078866446"><ele>202.0</ele><time>2026-04-12T14:32:41.999Z</time></trkpt><trkpt lat="45.84608223172333" lon="11.954227652671014"><ele>202.0</ele><time>2026-04-12T14:32:42.999Z</time></trkpt><trkpt lat="45.84622078420726" lon="11.954144229816523"><ele>203.75</ele><time>2026-04-12T14:32:43.999Z</time></trkpt><trkpt lat="45.846328946294804" lon="11.954078802142092"><ele>205.5</ele><time>2026-04-12T14:32:44.999Z</time></trkpt><trkpt lat="45.84641426148217" lon="11.953976607304405"><ele>207.25</ele><time>2026-04-12T14:32:45.999Z</time></trkpt><trkpt lat="45.846471103799836" lon="11.95383452839464"><ele>209.0</ele><time>2026-04-12T14:32:46.999Z</time></trkpt><trkpt lat="45.846529350501314" lon="11.953669411077533"><ele>209.00000000000003</ele><time>2026-04-12T14:32:47.999Z</time></trkpt><trkpt lat="45.846566271691145" lon="11.953521918691441"><ele>209.0</ele><time>2026-04-12T14:32:48.999Z</time></trkpt><trkpt lat="45.84661790637543" lon="11.953440853757177"><ele>209.0</ele><time>2026-04-12T14:32:49.999Z</time></trkpt><trkpt lat="45.846669645959814" lon="11.95337772005709"><ele>209.0</ele><time>2026-04-12T14:32:50.999Z</time></trkpt><trkpt lat="45.84674159666871" lon="11.953332696231149"><ele>209.00000000000003</ele><time>2026-04-12T14:32:51.999Z</time></trkpt><trkpt lat="45.84683656162106" lon="11.953340238454157"><ele>209.0</ele><time>2026-04-12T14:32:52.999Z</time></trkpt><trkpt lat="45.84692692830455" lon="11.953374927019324"><ele>209.50000000000003</ele><time>2026-04-12T14:32:53.999Z</time></trkpt><trkpt lat="45.84700591804384" lon="11.953407244315905"><ele>210.0</ele><time>2026-04-12T14:32:54.999Z</time></trkpt><trkpt lat="45.84711130961887" lon="11.95339300364527"><ele>210.5</ele><time>2026-04-12T14:32:56.999Z</time></trkpt><trkpt lat="45.84717532415204" lon="11.953397910148434"><ele>211.0</ele><time>2026-04-12T14:32:58.999Z</time></trkpt><trkpt lat="45.84719194412243" lon="11.953279332070517"><ele>211.50000000000003</ele><time>2026-04-12T14:34:00Z</time></trkpt><trkpt lat="45.84713103843581" lon="11.95318400659898"><ele>212.0</ele><time>2026-04-12T14:34:02Z</time></trkpt><trkpt lat="45.84700648916955" lon="11.953162275065102"><ele>212.83333333333334</ele><time>2026-04-12T14:34:04Z</time></trkpt><trkpt lat="45.84691217387708" lon="11.95316030736484"><ele>213.66666666666669</ele><time>2026-04-12T14:34:05Z</time></trkpt><trkpt lat="45.84683233184302" lon="11.953143420600833"><ele>214.5</ele><time>2026-04-12T14:34:06Z</time></trkpt><trkpt lat="45.84676206032175" lon="11.953121445185836"><ele>215.33333333333331</ele><time>2026-04-12T14:34:07Z</time></trkpt><trkpt lat="45.84668873146005" lon="11.953107687347744"><ele>216.16666666666666</ele><time>2026-04-12T14:34:08Z</time></trkpt><trkpt lat="45.846606355272414" lon="11.953102256235965"><ele>217.0</ele><time>2026-04-12T14:34:09Z</time></trkpt><trkpt lat="45.84650529975753" lon="11.953090522885965"><ele>217.0</ele><time>2026-04-12T14:34:10Z</time></trkpt><trkpt lat="45.84639565486056" lon="11.953103240273956"><ele>217.0</ele><time>2026-04-12T14:34:11Z</time></trkpt><trkpt lat="45.846276768902" lon="11.953124121712047"><ele>217.0</ele><time>2026-04-12T14:34:12Z</time></trkpt><trkpt lat="45.846160975834714" lon="11.953153920488287"><ele>217.0</ele><time>2026-04-12T14:34:13Z</time></trkpt><trkpt lat="45.846049168304965" lon="11.95319498432467"><ele>216.75</ele><time>2026-04-12T14:34:14Z</time></trkpt><trkpt lat="45.84593383825245" lon="11.953207034979258"><ele>216.5</ele><time>2026-04-12T14:34:15Z</time></trkpt><trkpt lat="45.845808325453355" lon="11.953170947170403"><ele>216.25</ele><time>2026-04-12T14:34:16Z</time></trkpt><trkpt lat="45.845687732586086" lon="11.95308191756063"><ele>216.0</ele><time>2026-04-12T14:34:17Z</time></trkpt><trkpt lat="45.84558642828324" lon="11.952941408093027"><ele>216.0</ele><time>2026-04-12T14:34:18Z</time></trkpt><trkpt lat="45.84548508301761" lon="11.952838490089041"><ele>216.0</ele><time>2026-04-12T14:34:19Z</time></trkpt><trkpt lat="45.84536455292873" lon="11.95280547411922"><ele>216.0</ele><time>2026-04-12T14:34:20Z</time></trkpt><trkpt lat="45.845246387409205" lon="11.952806320315704"><ele>216.0</ele><time>2026-04-12T14:34:20.999Z</time></trkpt><trkpt lat="45.845124046125115" lon="11.952857985580104"><ele>217.25</ele><time>2026-04-12T14:34:21.999Z</time></trkpt><trkpt lat="45.84502524496104" lon="11.95300088771039"><ele>218.5</ele><time>2026-04-12T14:34:22.999Z</time></trkpt><trkpt lat="45.84488645723617" lon="11.953094422621318"><ele>219.75</ele><time>2026-04-12T14:34:23.999Z</time></trkpt><trkpt lat="45.844736723945914" lon="11.953128581434854"><ele>221.0</ele><time>2026-04-12T14:34:24.999Z</time></trkpt><trkpt lat="45.84457323070813" lon="11.953205262297061"><ele>221.0</ele><time>2026-04-12T14:34:25.999Z</time></trkpt><trkpt lat="45.84441752635895" lon="11.953213448826608"><ele>221.0</ele><time>2026-04-12T14:34:26.999Z</time></trkpt><trkpt lat="45.84430066542718" lon="11.953203317220943"><ele>221.0</ele><time>2026-04-12T14:34:27.999Z</time></trkpt><trkpt lat="45.84420047420584" lon="11.953174865757008"><ele>221.0</ele><time>2026-04-12T14:34:28.999Z</time></trkpt><trkpt lat="45.84414756904464" lon="11.953077307965815"><ele>221.75</ele><time>2026-04-12T14:34:29.999Z</time></trkpt><trkpt lat="45.84412646528575" lon="11.95291549862631"><ele>222.5</ele><time>2026-04-12T14:34:30.999Z</time></trkpt><trkpt lat="45.84410869176035" lon="11.952728995284412"><ele>223.25</ele><time>2026-04-12T14:34:31.999Z</time></trkpt><trkpt lat="45.844102833386614" lon="11.95257056601422"><ele>224.0</ele><time>2026-04-12T14:34:32.999Z</time></trkpt><trkpt lat="45.84402312897519" lon="11.95248485313076"><ele>224.0</ele><time>2026-04-12T14:34:33.999Z</time></trkpt><trkpt lat="45.84391666962452" lon="11.95245824838526"><ele>224.0</ele><time>2026-04-12T14:34:34.999Z</time></trkpt><trkpt lat="45.84381506607058" lon="11.952521995379591"><ele>224.0</ele><time>2026-04-12T14:34:35.999Z</time></trkpt><trkpt lat="45.843693316339106" lon="11.952544001375173"><ele>224.0</ele><time>2026-04-12T14:34:36.999Z</time></trkpt><trkpt lat="45.84359094995756" lon="11.952484538713321"><ele>224.0</ele><time>2026-04-12T14:34:37.999Z</time></trkpt><trkpt lat="45.843543532312395" lon="11.95230648397213"><ele>224.0</ele><time>2026-04-12T14:34:38.999Z</time></trkpt><trkpt lat="45.84347205641948" lon="11.952134016309998"><ele>224.0</ele><time>2026-04-12T14:34:39.999Z</time></trkpt><trkpt lat="45.843381979417174" lon="11.951902883367138"><ele>224.0</ele><time>2026-04-12T14:34:40.999Z</time></trkpt><trkpt lat="45.8433087111871" lon="11.951660630740557"><ele>224.0</ele><time>2026-04-12T14:34:41.999Z</time></trkpt><trkpt lat="45.843215569281135" lon="11.951440033079832"><ele>224.0</ele><time>2026-04-12T14:34:42.999Z</time></trkpt><trkpt lat="45.843089040272744" lon="11.951248678345115"><ele>224.0</ele><time>2026-04-12T14:34:43.999Z</time></trkpt><trkpt lat="45.84293935748219" lon="11.951121005639811"><ele>224.0</ele><time>2026-04-12T14:34:44.999Z</time></trkpt><trkpt lat="45.84276452344149" lon="11.951023893274703"><ele>224.0</ele><time>2026-04-12T14:34:45.999Z</time></trkpt><trkpt lat="45.84257854157354" lon="11.950944721011842"><ele>222.33333333333334</ele><time>2026-04-12T14:34:46.999Z</time></trkpt><trkpt lat="45.84240806677283" lon="11.950876513414183"><ele>220.66666666666669</ele><time>2026-04-12T14:34:47.999Z</time></trkpt><trkpt lat="45.84224941036643" lon="11.950864622947325"><ele>219.0</ele><time>2026-04-12T14:34:48.999Z</time></trkpt><trkpt lat="45.84210422059409" lon="11.950891774122745"><ele>219.0</ele><time>2026-04-12T14:34:49.999Z</time></trkpt><trkpt lat="45.841985798346315" lon="11.950951722509885"><ele>218.99999999999997</ele><time>2026-04-12T14:34:50.999Z</time></trkpt><trkpt lat="45.841886067164545" lon="11.95090614174053"><ele>218.99999999999997</ele><time>2026-04-12T14:34:51.999Z</time></trkpt><trkpt lat="45.841807738734744" lon="11.950811755137067"><ele>219.0</ele><time>2026-04-12T14:34:52.999Z</time></trkpt><trkpt lat="45.841770902512046" lon="11.950661403725494"><ele>219.0</ele><time>2026-04-12T14:34:53.999Z</time></trkpt><trkpt lat="45.84173465221188" lon="11.950476135230279"><ele>220.0</ele><time>2026-04-12T14:34:54.999Z</time></trkpt><trkpt lat="45.84167185905889" lon="11.95029049637728"><ele>221.0</ele><time>2026-04-12T14:34:55.999Z</time></trkpt><trkpt lat="45.841574943464764" lon="11.950140841821442"><ele>222.0</ele><time>2026-04-12T14:34:56.999Z</time></trkpt><trkpt lat="45.84147994666666" lon="11.949985381956175"><ele>223.0</ele><time>2026-04-12T14:34:57.999Z</time></trkpt><trkpt lat="45.841405200580475" lon="11.9497673329829"><ele>224.0</ele><time>2026-04-12T14:34:58.999Z</time></trkpt><trkpt lat="45.84117811021514" lon="11.949905167796285"><ele>225.0</ele><time>2026-04-12T14:34:59.999Z</time></trkpt><trkpt lat="45.84106061914983" lon="11.949939934775962"><ele>226.0</ele><time>2026-04-12T14:35:00.999Z</time></trkpt><trkpt lat="45.84095804905598" lon="11.950014870688058"><ele>226.0</ele><time>2026-04-12T14:35:01.999Z</time></trkpt><trkpt lat="45.840866811268924" lon="11.950069775749665"><ele>226.00000000000003</ele><time>2026-04-12T14:35:02.999Z</time></trkpt><trkpt lat="45.840762745156695" lon="11.949999068630072"><ele>226.00000000000003</ele><time>2026-04-12T14:35:03.999Z</time></trkpt><trkpt lat="45.84068564257324" lon="11.949940510609887"><ele>226.0</ele><time>2026-04-12T14:35:04.999Z</time></trkpt><trkpt lat="45.84063583809501" lon="11.949795393350124"><ele>226.0</ele><time>2026-04-12T14:35:05.999Z</time></trkpt><trkpt lat="45.840540987785054" lon="11.94963819529338"><ele>226.0</ele><time>2026-04-12T14:35:06.999Z</time></trkpt><trkpt lat="45.84041387516492" lon="11.949490434322255"><ele>226.0</ele><time>2026-04-12T14:35:07.999Z</time></trkpt><trkpt lat="45.84028217408533" lon="11.949309996051575"><ele>226.0</ele><time>2026-04-12T14:35:08.999Z</time></trkpt><trkpt lat="45.840139823047345" lon="11.949144017686088"><ele>222.66666666666666</ele><time>2026-04-12T14:35:09.999Z</time></trkpt><trkpt lat="45.840001707873384" lon="11.948991523176373"><ele>219.33333333333331</ele><time>2026-04-12T14:35:10.999Z</time></trkpt><trkpt lat="45.839892368176436" lon="11.948808463673922"><ele>216.0</ele><time>2026-04-12T14:35:11.999Z</time></trkpt><trkpt lat="45.83978729347457" lon="11.94860894534671"><ele>216.0</ele><time>2026-04-12T14:35:12.999Z</time></trkpt><trkpt lat="45.839680535522305" lon="11.94839774644605"><ele>216.0</ele><time>2026-04-12T14:35:13.999Z</time></trkpt><trkpt lat="45.839576370746165" lon="11.948219739377478"><ele>216.0</ele><time>2026-04-12T14:35:14.999Z</time></trkpt><trkpt lat="45.83949850646502" lon="11.948046279549839"><ele>214.0</ele><time>2026-04-12T14:35:15.999Z</time></trkpt><trkpt lat="45.83942039337292" lon="11.947889620551539"><ele>212.0</ele><time>2026-04-12T14:35:16.999Z</time></trkpt><trkpt lat="45.83931970449964" lon="11.947774983071497"><ele>210.0</ele><time>2026-04-12T14:35:17.999Z</time></trkpt><trkpt lat="45.83919357145968" lon="11.947716140438738"><ele>208.0</ele><time>2026-04-12T14:35:18.999Z</time></trkpt><trkpt lat="45.83904930551665" lon="11.947709945594722"><ele>207.0</ele><time>2026-04-12T14:35:19.999Z</time></trkpt><trkpt lat="45.83890351997516" lon="11.947733556329693"><ele>206.0</ele><time>2026-04-12T14:35:20.999Z</time></trkpt><trkpt lat="45.838755841649714" lon="11.947783436064828"><ele>205.0</ele><time>2026-04-12T14:35:21.999Z</time></trkpt><trkpt lat="45.83862869525129" lon="11.947879055487338"><ele>204.0</ele><time>2026-04-12T14:35:22.999Z</time></trkpt><trkpt lat="45.83852073498084" lon="11.948007596312218"><ele>203.2</ele><time>2026-04-12T14:35:23.999Z</time></trkpt><trkpt lat="45.838431527036335" lon="11.948145821790677"><ele>202.39999999999998</ele><time>2026-04-12T14:35:24.999Z</time></trkpt><trkpt lat="45.838353453507274" lon="11.948264275257248"><ele>201.6</ele><time>2026-04-12T14:35:25.999Z</time></trkpt><trkpt lat="45.83825686257304" lon="11.948326239398023"><ele>200.8</ele><time>2026-04-12T14:35:26.999Z</time></trkpt><trkpt lat="45.8381830535057" lon="11.94836060651331"><ele>200.0</ele><time>2026-04-12T14:35:27.999Z</time></trkpt><trkpt lat="45.838076631990695" lon="11.948257044080513"><ele>200.0</ele><time>2026-04-12T14:35:29.999Z</time></trkpt><trkpt lat="45.83810850324979" lon="11.94810539864378"><ele>200.0</ele><time>2026-04-12T14:35:30.999Z</time></trkpt><trkpt lat="45.83816439346833" lon="11.947968035713268"><ele>200.0</ele><time>2026-04-12T14:35:31.998Z</time></trkpt><trkpt lat="45.838219284287234" lon="11.947800894287708"><ele>200.0</ele><time>2026-04-12T14:35:32.998Z</time></trkpt><trkpt lat="45.83823874583661" lon="11.94761628859954"><ele>201.25</ele><time>2026-04-12T14:35:33.998Z</time></trkpt><trkpt lat="45.83822222982231" lon="11.947444605645897"><ele>202.5</ele><time>2026-04-12T14:35:34.998Z</time></trkpt><trkpt lat="45.83815352609658" lon="11.94727757096513"><ele>203.75</ele><time>2026-04-12T14:35:35.998Z</time></trkpt><trkpt lat="45.838038565608734" lon="11.947160263242644"><ele>205.0</ele><time>2026-04-12T14:35:36.998Z</time></trkpt><trkpt lat="45.837923201977745" lon="11.947091081241625"><ele>205.0</ele><time>2026-04-12T14:35:37.998Z</time></trkpt><trkpt lat="45.83780553335492" lon="11.94702323859218"><ele>205.0</ele><time>2026-04-12T14:35:39Z</time></trkpt><trkpt lat="45.83771974685512" lon="11.947005121585944"><ele>205.0</ele><time>2026-04-12T14:35:40Z</time></trkpt><trkpt lat="45.837660722606806" lon="11.946921140333158"><ele>205.0</ele><time>2026-04-12T14:35:41Z</time></trkpt><trkpt lat="45.83764466714641" lon="11.946764883487543"><ele>205.0</ele><time>2026-04-12T14:35:42Z</time></trkpt><trkpt lat="45.83766510090311" lon="11.946584287530388"><ele>203.83333333333331</ele><time>2026-04-12T14:35:43Z</time></trkpt><trkpt lat="45.83768499352199" lon="11.946414506293838"><ele>202.66666666666666</ele><time>2026-04-12T14:35:44Z</time></trkpt><trkpt lat="45.837689729528826" lon="11.946294157906653"><ele>201.5</ele><time>2026-04-12T14:35:45Z</time></trkpt><trkpt lat="45.83765757321734" lon="11.946207901149299"><ele>200.33333333333331</ele><time>2026-04-12T14:35:46Z</time></trkpt><trkpt lat="45.83758248952189" lon="11.946163821279088"><ele>199.16666666666666</ele><time>2026-04-12T14:35:47Z</time></trkpt><trkpt lat="45.83750278458667" lon="11.946206009328499"><ele>198.0</ele><time>2026-04-12T14:35:48Z</time></trkpt><trkpt lat="45.837441696426396" lon="11.946339646944695"><ele>193.0</ele><time>2026-04-12T14:35:49Z</time></trkpt><trkpt lat="45.837433313369836" lon="11.946509720894465"><ele>188.0</ele><time>2026-04-12T14:35:50Z</time></trkpt><trkpt lat="45.83743790949531" lon="11.946703489947245"><ele>183.0</ele><time>2026-04-12T14:35:51Z</time></trkpt><trkpt lat="45.83743217505544" lon="11.946907214762426"><ele>178.0</ele><time>2026-04-12T14:35:52Z</time></trkpt><trkpt lat="45.8374189175662" lon="11.947096854703135"><ele>177.8</ele><time>2026-04-12T14:35:53Z</time></trkpt><trkpt lat="45.83743146404933" lon="11.947263457733985"><ele>177.60000000000002</ele><time>2026-04-12T14:35:54Z</time></trkpt><trkpt lat="45.837479297910555" lon="11.947387184160181"><ele>177.39999999999998</ele><time>2026-04-12T14:35:55Z</time></trkpt><trkpt lat="45.83755966788722" lon="11.947469778932426"><ele>177.2</ele><time>2026-04-12T14:35:56Z</time></trkpt><trkpt lat="45.83762451510606" lon="11.947529962180607"><ele>177.0</ele><time>2026-04-12T14:35:57Z</time></trkpt><trkpt lat="45.8376519586169" lon="11.947615269156893"><ele>177.0</ele><time>2026-04-12T14:35:58Z</time></trkpt><trkpt lat="45.83761916155659" lon="11.947725857781293"><ele>177.0</ele><time>2026-04-12T14:35:59Z</time></trkpt><trkpt lat="45.83754427682165" lon="11.947792202430549"><ele>177.0</ele><time>2026-04-12T14:36:00Z</time></trkpt><trkpt lat="45.83745594201329" lon="11.947762727294098"><ele>177.0</ele><time>2026-04-12T14:36:01Z</time></trkpt><trkpt lat="45.83737341726567" lon="11.94765498146708"><ele>177.0</ele><time>2026-04-12T14:36:02Z</time></trkpt><trkpt lat="45.83733261596804" lon="11.947491101627016"><ele>177.0</ele><time>2026-04-12T14:36:03Z</time></trkpt><trkpt lat="45.83732559064229" lon="11.947287297663092"><ele>177.0</ele><time>2026-04-12T14:36:04Z</time></trkpt><trkpt lat="45.837273215068976" lon="11.947045962008795"><ele>177.0</ele><time>2026-04-12T14:36:05Z</time></trkpt><trkpt lat="45.83722264968986" lon="11.94674202502403"><ele>177.33333333333334</ele><time>2026-04-12T14:36:06Z</time></trkpt><trkpt lat="45.83718498639651" lon="11.946470274317788"><ele>177.66666666666669</ele><time>2026-04-12T14:36:07Z</time></trkpt><trkpt lat="45.83711204860569" lon="11.946242708226052"><ele>178.0</ele><time>2026-04-12T14:36:08Z</time></trkpt><trkpt lat="45.836994152798404" lon="11.94602671022842"><ele>178.0</ele><time>2026-04-12T14:36:09Z</time></trkpt><trkpt lat="45.836832994327175" lon="11.94581165906183"><ele>178.0</ele><time>2026-04-12T14:36:10Z</time></trkpt><trkpt lat="45.836660432599764" lon="11.94558982582123"><ele>174.33333333333334</ele><time>2026-04-12T14:36:11Z</time></trkpt><trkpt lat="45.83650637833586" lon="11.945381609680753"><ele>170.66666666666666</ele><time>2026-04-12T14:36:12Z</time></trkpt><trkpt lat="45.83636101791265" lon="11.945174045017934"><ele>167.0</ele><time>2026-04-12T14:36:13Z</time></trkpt><trkpt lat="45.836221583164466" lon="11.944978966791812"><ele>167.0</ele><time>2026-04-12T14:36:14Z</time></trkpt><trkpt lat="45.83608472043469" lon="11.94478720077182"><ele>167.0</ele><time>2026-04-12T14:36:15Z</time></trkpt><trkpt lat="45.835949279950434" lon="11.944602669981121"><ele>167.0</ele><time>2026-04-12T14:36:16Z</time></trkpt><trkpt lat="45.835814347244764" lon="11.944415708523517"><ele>164.33333333333331</ele><time>2026-04-12T14:36:17Z</time></trkpt><trkpt lat="45.83567824876021" lon="11.944222365730457"><ele>161.66666666666666</ele><time>2026-04-12T14:36:18Z</time></trkpt><trkpt lat="45.83553953145154" lon="11.944040730223602"><ele>159.0</ele><time>2026-04-12T14:36:19Z</time></trkpt><trkpt lat="45.8353939108464" lon="11.943869492998243"><ele>158.66666666666666</ele><time>2026-04-12T14:36:20Z</time></trkpt><trkpt lat="45.835243385938426" lon="11.943690449056447"><ele>158.33333333333331</ele><time>2026-04-12T14:36:21Z</time></trkpt><trkpt lat="45.83509953421746" lon="11.943531052872018"><ele>158.0</ele><time>2026-04-12T14:36:22Z</time></trkpt><trkpt lat="45.83495166228626" lon="11.94338271044051"><ele>157.0</ele><time>2026-04-12T14:36:23Z</time></trkpt><trkpt lat="45.83479452984082" lon="11.943249307926042"><ele>156.0</ele><time>2026-04-12T14:36:24Z</time></trkpt><trkpt lat="45.8346466902034" lon="11.943126550904068"><ele>155.0</ele><time>2026-04-12T14:36:25Z</time></trkpt><trkpt lat="45.834486468486304" lon="11.942984507711765"><ele>155.0</ele><time>2026-04-12T14:36:26Z</time></trkpt><trkpt lat="45.8343366998123" lon="11.942846274122365"><ele>155.0</ele><time>2026-04-12T14:36:27Z</time></trkpt><trkpt lat="45.83417946300328" lon="11.942699354555023"><ele>155.0</ele><time>2026-04-12T14:36:27.999Z</time></trkpt><trkpt lat="45.83402163397664" lon="11.942563739304775"><ele>154.66666666666666</ele><time>2026-04-12T14:36:28.999Z</time></trkpt><trkpt lat="45.83385953918929" lon="11.942421578819678"><ele>154.33333333333334</ele><time>2026-04-12T14:36:29.999Z</time></trkpt><trkpt lat="45.83369858184605" lon="11.942288622786284"><ele>154.0</ele><time>2026-04-12T14:36:30.999Z</time></trkpt><trkpt lat="45.83354582769166" lon="11.942147942788194"><ele>154.33333333333334</ele><time>2026-04-12T14:36:31.999Z</time></trkpt><trkpt lat="45.83339710014876" lon="11.941993792725563"><ele>154.66666666666666</ele><time>2026-04-12T14:36:32.999Z</time></trkpt><trkpt lat="45.83326083393317" lon="11.941834232012651"><ele>155.0</ele><time>2026-04-12T14:36:33.999Z</time></trkpt><trkpt lat="45.83313913925877" lon="11.94166135233653"><ele>154.33333333333331</ele><time>2026-04-12T14:36:34.999Z</time></trkpt><trkpt lat="45.833030698772745" lon="11.94150434244009"><ele>153.66666666666666</ele><time>2026-04-12T14:36:35.999Z</time></trkpt><trkpt lat="45.8329015968696" lon="11.94137075972397"><ele>153.0</ele><time>2026-04-12T14:36:36.999Z</time></trkpt><trkpt lat="45.832756547380136" lon="11.941269420334917"><ele>153.0</ele><time>2026-04-12T14:36:37.999Z</time></trkpt><trkpt lat="45.832600135673374" lon="11.94119450880024"><ele>153.0</ele><time>2026-04-12T14:36:38.999Z</time></trkpt><trkpt lat="45.83242962576681" lon="11.941150688836098"><ele>153.0</ele><time>2026-04-12T14:36:39.999Z</time></trkpt><trkpt lat="45.832257611999694" lon="11.941138167323025"><ele>153.0</ele><time>2026-04-12T14:36:40.999Z</time></trkpt><trkpt lat="45.832078077923434" lon="11.941169278860409"><ele>153.0</ele><time>2026-04-12T14:36:41.999Z</time></trkpt><trkpt lat="45.831907531023994" lon="11.941235084582177"><ele>153.0</ele><time>2026-04-12T14:36:42.999Z</time></trkpt><trkpt lat="45.83174707600075" lon="11.941321261682628"><ele>152.33333333333334</ele><time>2026-04-12T14:36:43.999Z</time></trkpt><trkpt lat="45.83158559368889" lon="11.94136052161556"><ele>151.66666666666669</ele><time>2026-04-12T14:36:44.999Z</time></trkpt><trkpt lat="45.83141072355917" lon="11.941353738495536"><ele>151.0</ele><time>2026-04-12T14:36:45.999Z</time></trkpt><trkpt lat="45.83122688798725" lon="11.941310676933393"><ele>151.0</ele><time>2026-04-12T14:36:46.999Z</time></trkpt><trkpt lat="45.83102999899066" lon="11.941256425657546"><ele>151.0</ele><time>2026-04-12T14:36:47.999Z</time></trkpt><trkpt lat="45.83083450624552" lon="11.94121740044006"><ele>151.0</ele><time>2026-04-12T14:36:48.999Z</time></trkpt><trkpt lat="45.830647594784296" lon="11.941194967871118"><ele>150.33333333333334</ele><time>2026-04-12T14:36:49.999Z</time></trkpt><trkpt lat="45.83046317574811" lon="11.94116343233682"><ele>149.66666666666666</ele><time>2026-04-12T14:36:50.999Z</time></trkpt><trkpt lat="45.83028061085801" lon="11.941131429914378"><ele>149.0</ele><time>2026-04-12T14:36:51.999Z</time></trkpt><trkpt lat="45.83009625233575" lon="11.941101211466204"><ele>148.66666666666666</ele><time>2026-04-12T14:36:52.999Z</time></trkpt><trkpt lat="45.829919827599895" lon="11.941077882787466"><ele>148.33333333333334</ele><time>2026-04-12T14:36:53.999Z</time></trkpt><trkpt lat="45.82975180305513" lon="11.941076171592263"><ele>148.0</ele><time>2026-04-12T14:36:54.999Z</time></trkpt><trkpt lat="45.82958980356634" lon="11.941093218626177"><ele>148.0</ele><time>2026-04-12T14:36:55.999Z</time></trkpt><trkpt lat="45.8294353620133" lon="11.941110522524802"><ele>148.0</ele><time>2026-04-12T14:36:56.999Z</time></trkpt><trkpt lat="45.82929410797813" lon="11.941105427799664"><ele>148.0</ele><time>2026-04-12T14:36:57.999Z</time></trkpt><trkpt lat="45.82916458884449" lon="11.941057318941645"><ele>148.0</ele><time>2026-04-12T14:36:58.999Z</time></trkpt><trkpt lat="45.829053931737114" lon="11.940969057677224"><ele>148.4</ele><time>2026-04-12T14:36:59.999Z</time></trkpt><trkpt lat="45.828955788440254" lon="11.940861422216107"><ele>148.8</ele><time>2026-04-12T14:37:00.999Z</time></trkpt><trkpt lat="45.82887170425108" lon="11.940759635436436"><ele>149.2</ele><time>2026-04-12T14:37:01.999Z</time></trkpt><trkpt lat="45.82881675978542" lon="11.940674140213387"><ele>149.6</ele><time>2026-04-12T14:37:02.999Z</time></trkpt><trkpt lat="45.828739897836606" lon="11.940532181897689"><ele>150.0</ele><time>2026-04-12T14:37:04.999Z</time></trkpt><trkpt lat="45.82872218136314" lon="11.940400663226438"><ele>150.0</ele><time>2026-04-12T14:37:05.999Z</time></trkpt><trkpt lat="45.82870981437136" lon="11.940229330274144"><ele>150.0</ele><time>2026-04-12T14:37:06.999Z</time></trkpt><trkpt lat="45.82868288754722" lon="11.940057065897792"><ele>150.0</ele><time>2026-04-12T14:37:07.999Z</time></trkpt><trkpt lat="45.82865946035517" lon="11.939920305725206"><ele>150.0</ele><time>2026-04-12T14:37:08.999Z</time></trkpt><trkpt lat="45.82867785141392" lon="11.939794890768024"><ele>150.0</ele><time>2026-04-12T14:37:09.999Z</time></trkpt><trkpt lat="45.82873787530351" lon="11.939659377391251"><ele>152.25</ele><time>2026-04-12T14:37:10.999Z</time></trkpt><trkpt lat="45.828842551909844" lon="11.939544762239102"><ele>154.5</ele><time>2026-04-12T14:37:11.999Z</time></trkpt><trkpt lat="45.828963919421135" lon="11.939446738142337"><ele>156.75</ele><time>2026-04-12T14:37:12.999Z</time></trkpt><trkpt lat="45.829119956097216" lon="11.93932603341345"><ele>159.0</ele><time>2026-04-12T14:37:13.999Z</time></trkpt><trkpt lat="45.82931700922624" lon="11.939212754788729"><ele>163.66666666666666</ele><time>2026-04-12T14:37:14.999Z</time></trkpt><trkpt lat="45.82951097098768" lon="11.939117082182714"><ele>168.33333333333331</ele><time>2026-04-12T14:37:15.999Z</time></trkpt><trkpt lat="45.82967340081687" lon="11.939011896017545"><ele>173.0</ele><time>2026-04-12T14:37:16.999Z</time></trkpt><trkpt lat="45.829800264139834" lon="11.938893821750678"><ele>173.0</ele><time>2026-04-12T14:37:17.999Z</time></trkpt><trkpt lat="45.82989713236731" lon="11.938821650003165"><ele>173.0</ele><time>2026-04-12T14:37:18.999Z</time></trkpt><trkpt lat="45.8299799681319" lon="11.938817018523212"><ele>173.0</ele><time>2026-04-12T14:37:19.999Z</time></trkpt><trkpt lat="45.830062137163786" lon="11.938836731759949"><ele>173.0</ele><time>2026-04-12T14:37:20.999Z</time></trkpt><trkpt lat="45.83015521519451" lon="11.938877764121582"><ele>173.0</ele><time>2026-04-12T14:37:21.999Z</time></trkpt><trkpt lat="45.83024425169835" lon="11.938940146872998"><ele>170.5</ele><time>2026-04-12T14:37:22.999Z</time></trkpt><trkpt lat="45.83031980870791" lon="11.93895891567972"><ele>168.0</ele><time>2026-04-12T14:37:23.999Z</time></trkpt><trkpt lat="45.83043698919849" lon="11.938819912114141"><ele>165.5</ele><time>2026-04-12T14:37:25.999Z</time></trkpt><trkpt lat="45.830493195666406" lon="11.938677723953873"><ele>163.0</ele><time>2026-04-12T14:37:26.999Z</time></trkpt><trkpt lat="45.83055275760557" lon="11.93852012502866"><ele>163.0</ele><time>2026-04-12T14:37:27.999Z</time></trkpt><trkpt lat="45.830625388781144" lon="11.938391330420917"><ele>163.0</ele><time>2026-04-12T14:37:28.999Z</time></trkpt><trkpt lat="45.830674562038766" lon="11.938274140949897"><ele>163.0</ele><time>2026-04-12T14:37:29.999Z</time></trkpt><trkpt lat="45.83077154696465" lon="11.93818703350991"><ele>163.0</ele><time>2026-04-12T14:37:30.999Z</time></trkpt><trkpt lat="45.830890329406095" lon="11.938142568740014"><ele>163.0</ele><time>2026-04-12T14:37:31.999Z</time></trkpt><trkpt lat="45.83097488393343" lon="11.938043953499747"><ele>162.8</ele><time>2026-04-12T14:37:32.999Z</time></trkpt><trkpt lat="45.83101393115823" lon="11.937918126323632"><ele>162.60000000000002</ele><time>2026-04-12T14:37:33.999Z</time></trkpt><trkpt lat="45.83103836587806" lon="11.937766837901847"><ele>162.39999999999998</ele><time>2026-04-12T14:37:34.999Z</time></trkpt><trkpt lat="45.83103155798631" lon="11.937612647315323"><ele>162.2</ele><time>2026-04-12T14:37:35.999Z</time></trkpt><trkpt lat="45.83101723162774" lon="11.937468776659697"><ele>162.0</ele><time>2026-04-12T14:37:36.999Z</time></trkpt><trkpt lat="45.830974391434715" lon="11.937326646378382"><ele>166.39999999999998</ele><time>2026-04-12T14:37:37.999Z</time></trkpt><trkpt lat="45.830911488035746" lon="11.937184034951427"><ele>170.79999999999998</ele><time>2026-04-12T14:37:38.998Z</time></trkpt><trkpt lat="45.830849661108196" lon="11.937065496905197"><ele>175.2</ele><time>2026-04-12T14:37:39.998Z</time></trkpt><trkpt lat="45.83080936999094" lon="11.936968925524393"><ele>179.6</ele><time>2026-04-12T14:37:40.998Z</time></trkpt><trkpt lat="45.83081276894173" lon="11.936814103398117"><ele>184.0</ele><time>2026-04-12T14:37:42.998Z</time></trkpt><trkpt lat="45.83091250589826" lon="11.93673190907827"><ele>184.0</ele><time>2026-04-12T14:37:45Z</time></trkpt><trkpt lat="45.831006950426115" lon="11.936732853810831"><ele>184.0</ele><time>2026-04-12T14:37:46Z</time></trkpt><trkpt lat="45.831115612613964" lon="11.936693828717564"><ele>184.0</ele><time>2026-04-12T14:37:47Z</time></trkpt><trkpt lat="45.831235978742946" lon="11.936616699596087"><ele>184.0</ele><time>2026-04-12T14:37:48Z</time></trkpt><trkpt lat="45.83135661763376" lon="11.936513878008814"><ele>184.0</ele><time>2026-04-12T14:37:49Z</time></trkpt><trkpt lat="45.83147635498404" lon="11.936422272316246"><ele>184.0</ele><time>2026-04-12T14:37:50Z</time></trkpt><trkpt lat="45.83159784826889" lon="11.936373342145922"><ele>184.0</ele><time>2026-04-12T14:37:51Z</time></trkpt><trkpt lat="45.83171523117144" lon="11.936377231828589"><ele>184.0</ele><time>2026-04-12T14:37:52Z</time></trkpt><trkpt lat="45.831809804856796" lon="11.936379514396782"><ele>183.39999999999998</ele><time>2026-04-12T14:37:53Z</time></trkpt><trkpt lat="45.83187511179486" lon="11.936348156155704"><ele>182.8</ele><time>2026-04-12T14:37:54Z</time></trkpt><trkpt lat="45.83197153037851" lon="11.936273189142465"><ele>182.2</ele><time>2026-04-12T14:37:56Z</time></trkpt><trkpt lat="45.83206269706635" lon="11.93624109863491"><ele>181.60000000000002</ele><time>2026-04-12T14:37:57Z</time></trkpt><trkpt lat="45.832184046678286" lon="11.93622779630145"><ele>181.0</ele><time>2026-04-12T14:37:58Z</time></trkpt><trkpt lat="45.83232466196707" lon="11.936206701707748"><ele>181.0</ele><time>2026-04-12T14:37:59Z</time></trkpt><trkpt lat="45.832464201227985" lon="11.936178775413628"><ele>181.0</ele><time>2026-04-12T14:38:00Z</time></trkpt><trkpt lat="45.8326086448111" lon="11.936124385682442"><ele>181.0</ele><time>2026-04-12T14:38:01Z</time></trkpt><trkpt lat="45.832764347794324" lon="11.936074692389072"><ele>186.33333333333334</ele><time>2026-04-12T14:38:02Z</time></trkpt><trkpt lat="45.83293052496038" lon="11.936025855710433"><ele>191.66666666666669</ele><time>2026-04-12T14:38:03Z</time></trkpt><trkpt lat="45.83310234222861" lon="11.93599216062586"><ele>197.0</ele><time>2026-04-12T14:38:04Z</time></trkpt><trkpt lat="45.833287584865616" lon="11.935955302720036"><ele>197.0</ele><time>2026-04-12T14:38:05Z</time></trkpt><trkpt lat="45.83347367460655" lon="11.935932138038131"><ele>197.0</ele><time>2026-04-12T14:38:06Z</time></trkpt><trkpt lat="45.83365672116821" lon="11.935937320882143"><ele>197.0</ele><time>2026-04-12T14:38:07Z</time></trkpt><trkpt lat="45.833833913014274" lon="11.935914405534318"><ele>197.33333333333334</ele><time>2026-04-12T14:38:08Z</time></trkpt><trkpt lat="45.834000641898214" lon="11.935860605745402"><ele>197.66666666666669</ele><time>2026-04-12T14:38:09Z</time></trkpt><trkpt lat="45.83414427087049" lon="11.935773886269807"><ele>198.0</ele><time>2026-04-12T14:38:10Z</time></trkpt><trkpt lat="45.834285067451425" lon="11.935698229477344"><ele>201.0</ele><time>2026-04-12T14:38:11Z</time></trkpt><trkpt lat="45.83441058643311" lon="11.935652241573136"><ele>204.0</ele><time>2026-04-12T14:38:12Z</time></trkpt><trkpt lat="45.83453940295061" lon="11.935641889145941"><ele>207.0</ele><time>2026-04-12T14:38:13Z</time></trkpt><trkpt lat="45.834644636205056" lon="11.935672723092473"><ele>210.0</ele><time>2026-04-12T14:38:14Z</time></trkpt><trkpt lat="45.834751854378496" lon="11.935774198284781"><ele>210.0</ele><time>2026-04-12T14:38:15Z</time></trkpt><trkpt lat="45.834856298336945" lon="11.935841153822942"><ele>210.0</ele><time>2026-04-12T14:38:16Z</time></trkpt><trkpt lat="45.83497474020411" lon="11.935839037802596"><ele>210.0</ele><time>2026-04-12T14:38:17Z</time></trkpt><trkpt lat="45.835085237282904" lon="11.93574862455268"><ele>210.0</ele><time>2026-04-12T14:38:18Z</time></trkpt><trkpt lat="45.835188470481164" lon="11.935601487854546"><ele>214.75</ele><time>2026-04-12T14:38:19Z</time></trkpt><trkpt lat="45.83527687919081" lon="11.935428283944491"><ele>219.5</ele><time>2026-04-12T14:38:20Z</time></trkpt><trkpt lat="45.83535093238845" lon="11.9352703265337"><ele>224.25</ele><time>2026-04-12T14:38:21Z</time></trkpt><trkpt lat="45.83541057331085" lon="11.93515113007507"><ele>229.0</ele><time>2026-04-12T14:38:22Z</time></trkpt><trkpt lat="45.835517807610934" lon="11.935060145629384"><ele>224.75</ele><time>2026-04-12T14:38:23Z</time></trkpt><trkpt lat="45.835654288064674" lon="11.935018220811514"><ele>220.5</ele><time>2026-04-12T14:38:24Z</time></trkpt><trkpt lat="45.83580790331147" lon="11.934977373600832"><ele>216.25</ele><time>2026-04-12T14:38:25Z</time></trkpt><trkpt lat="45.83594992514058" lon="11.93494223754693"><ele>212.0</ele><time>2026-04-12T14:38:26Z</time></trkpt><trkpt lat="45.83607832659048" lon="11.934946646355513"><ele>210.75</ele><time>2026-04-12T14:38:27Z</time></trkpt><trkpt lat="45.836192597646225" lon="11.93497921362761"><ele>209.5</ele><time>2026-04-12T14:38:28Z</time></trkpt><trkpt lat="45.83629409258242" lon="11.935060132382741"><ele>208.25</ele><time>2026-04-12T14:38:29Z</time></trkpt><trkpt lat="45.83639984259075" lon="11.935156710417656"><ele>207.0</ele><time>2026-04-12T14:38:30Z</time></trkpt><trkpt lat="45.836506812219696" lon="11.935212708541409"><ele>206.5</ele><time>2026-04-12T14:38:31Z</time></trkpt><trkpt lat="45.83661472237145" lon="11.93520488262745"><ele>206.0</ele><time>2026-04-12T14:38:32Z</time></trkpt><trkpt lat="45.83678850522738" lon="11.935220495284497"><ele>205.5</ele><time>2026-04-12T14:38:33.999Z</time></trkpt><trkpt lat="45.836885141712884" lon="11.935280512873252"><ele>205.0</ele><time>2026-04-12T14:38:34.999Z</time></trkpt><trkpt lat="45.83696735435894" lon="11.9353528546203"><ele>205.0</ele><time>2026-04-12T14:38:35.999Z</time></trkpt><trkpt lat="45.83695537188659" lon="11.935471083291226"><ele>205.0</ele><time>2026-04-12T14:38:36.999Z</time></trkpt><trkpt lat="45.83704207625512" lon="11.935563981705155"><ele>205.0</ele><time>2026-04-12T14:38:37.999Z</time></trkpt><trkpt lat="45.83711892469661" lon="11.935638823001524"><ele>205.0</ele><time>2026-04-12T14:38:38.999Z</time></trkpt><trkpt lat="45.83719051339095" lon="11.935685508467188"><ele>205.0</ele><time>2026-04-12T14:38:39.999Z</time></trkpt><trkpt lat="45.83732270571911" lon="11.935766636979888"><ele>205.0</ele><time>2026-04-12T14:38:41.999Z</time></trkpt><trkpt lat="45.83742870213398" lon="11.935749346468883"><ele>205.0</ele><time>2026-04-12T14:38:42.999Z</time></trkpt><trkpt lat="45.83752104605186" lon="11.935694531112032"><ele>205.0</ele><time>2026-04-12T14:38:43.999Z</time></trkpt><trkpt lat="45.83759553842349" lon="11.935614023089421"><ele>205.0</ele><time>2026-04-12T14:38:44.999Z</time></trkpt><trkpt lat="45.83768142559592" lon="11.935554033747888"><ele>205.0</ele><time>2026-04-12T14:38:45.999Z</time></trkpt><trkpt lat="45.83777871429519" lon="11.93544780166022"><ele>202.4</ele><time>2026-04-12T14:38:46.999Z</time></trkpt><trkpt lat="45.83787041511761" lon="11.935364109723567"><ele>199.8</ele><time>2026-04-12T14:38:47.999Z</time></trkpt><trkpt lat="45.83795449105641" lon="11.935283497406981"><ele>197.2</ele><time>2026-04-12T14:38:48.999Z</time></trkpt><trkpt lat="45.83804617078508" lon="11.93522722951254"><ele>194.6</ele><time>2026-04-12T14:38:49.999Z</time></trkpt><trkpt lat="45.838125968260606" lon="11.935146515960142"><ele>192.0</ele><time>2026-04-12T14:38:50.999Z</time></trkpt><trkpt lat="45.83823545532745" lon="11.935126970740516"><ele>192.0</ele><time>2026-04-12T14:38:51.999Z</time></trkpt><trkpt lat="45.83832080090421" lon="11.935107971119448"><ele>192.0</ele><time>2026-04-12T14:38:52.999Z</time></trkpt><trkpt lat="45.83842988968639" lon="11.93508570827611"><ele>192.0</ele><time>2026-04-12T14:38:53.999Z</time></trkpt><trkpt lat="45.838576981258484" lon="11.935035814186678"><ele>192.0</ele><time>2026-04-12T14:38:54.999Z</time></trkpt><trkpt lat="45.83870034647554" lon="11.93500850419439"><ele>191.0</ele><time>2026-04-12T14:38:55.999Z</time></trkpt><trkpt lat="45.83881025911095" lon="11.934995840559838"><ele>190.0</ele><time>2026-04-12T14:38:56.999Z</time></trkpt><trkpt lat="45.83892892879734" lon="11.935038119359177"><ele>189.0</ele><time>2026-04-12T14:38:57.999Z</time></trkpt><trkpt lat="45.839064955710995" lon="11.93508146961395"><ele>188.0</ele><time>2026-04-12T14:38:58.999Z</time></trkpt><trkpt lat="45.839212226488335" lon="11.93502055294839"><ele>189.5</ele><time>2026-04-12T14:38:59.999Z</time></trkpt><trkpt lat="45.839340459848096" lon="11.934944774026892"><ele>191.0</ele><time>2026-04-12T14:39:00.999Z</time></trkpt><trkpt lat="45.83947168809832" lon="11.934887456360043"><ele>192.5</ele><time>2026-04-12T14:39:01.999Z</time></trkpt><trkpt lat="45.839588590645" lon="11.934808077709777"><ele>194.0</ele><time>2026-04-12T14:39:02.999Z</time></trkpt><trkpt lat="45.83970812703999" lon="11.934735892920784"><ele>194.0</ele><time>2026-04-12T14:39:03.999Z</time></trkpt><trkpt lat="45.839813770843335" lon="11.93469259915486"><ele>194.0</ele><time>2026-04-12T14:39:04.999Z</time></trkpt><trkpt lat="45.839929268739624" lon="11.934692895600312"><ele>194.0</ele><time>2026-04-12T14:39:05.999Z</time></trkpt><trkpt lat="45.84003662767914" lon="11.934743269233676"><ele>194.0</ele><time>2026-04-12T14:39:06.999Z</time></trkpt><trkpt lat="45.84013698013177" lon="11.934819286320351"><ele>194.0</ele><time>2026-04-12T14:39:07.999Z</time></trkpt><trkpt lat="45.84026853355355" lon="11.934841496723246"><ele>194.0</ele><time>2026-04-12T14:39:08.999Z</time></trkpt><trkpt lat="45.840408844931325" lon="11.934866024815015"><ele>194.0</ele><time>2026-04-12T14:39:09.999Z</time></trkpt><trkpt lat="45.84055539994079" lon="11.934907809781079"><ele>194.0</ele><time>2026-04-12T14:39:10.999Z</time></trkpt><trkpt lat="45.840687880755894" lon="11.934921032780489"><ele>194.0</ele><time>2026-04-12T14:39:11.999Z</time></trkpt><trkpt lat="45.84082792464428" lon="11.934931744225278"><ele>194.0</ele><time>2026-04-12T14:39:12.999Z</time></trkpt><trkpt lat="45.840939989872616" lon="11.934957105901903"><ele>194.0</ele><time>2026-04-12T14:39:13.999Z</time></trkpt><trkpt lat="45.841053546310725" lon="11.934996673207833"><ele>194.0</ele><time>2026-04-12T14:39:14.999Z</time></trkpt><trkpt lat="45.841154769717605" lon="11.935057451771284"><ele>195.0</ele><time>2026-04-12T14:39:15.999Z</time></trkpt><trkpt lat="45.84125856705196" lon="11.935101299296102"><ele>196.0</ele><time>2026-04-12T14:39:16.999Z</time></trkpt><trkpt lat="45.84139787431746" lon="11.935100623657034"><ele>197.0</ele><time>2026-04-12T14:39:17.999Z</time></trkpt><trkpt lat="45.841538439442154" lon="11.935073567450436"><ele>198.0</ele><time>2026-04-12T14:39:18.999Z</time></trkpt><trkpt lat="45.84166914246524" lon="11.935018732923268"><ele>198.25</ele><time>2026-04-12T14:39:19.999Z</time></trkpt><trkpt lat="45.84179432958086" lon="11.934979967434208"><ele>198.5</ele><time>2026-04-12T14:39:20.999Z</time></trkpt><trkpt lat="45.84192205315499" lon="11.934960203195965"><ele>198.75</ele><time>2026-04-12T14:39:21.999Z</time></trkpt><trkpt lat="45.84205343429036" lon="11.934935962443339"><ele>199.0</ele><time>2026-04-12T14:39:22.999Z</time></trkpt><trkpt lat="45.84218095288344" lon="11.934928564907729"><ele>200.2</ele><time>2026-04-12T14:39:23.999Z</time></trkpt><trkpt lat="45.842293160443965" lon="11.934905197489435"><ele>201.39999999999998</ele><time>2026-04-12T14:39:24.999Z</time></trkpt><trkpt lat="45.84240690079063" lon="11.934888311901513"><ele>202.6</ele><time>2026-04-12T14:39:25.999Z</time></trkpt><trkpt lat="45.84250895819191" lon="11.934866165745118"><ele>203.8</ele><time>2026-04-12T14:39:26.999Z</time></trkpt><trkpt lat="45.842593259147165" lon="11.934846559486617"><ele>205.0</ele><time>2026-04-12T14:39:27.999Z</time></trkpt><trkpt lat="45.8426566524646" lon="11.934833955215572"><ele>207.5</ele><time>2026-04-12T14:39:28.999Z</time></trkpt><trkpt lat="45.842765559147" lon="11.934800600300433"><ele>210.0</ele><time>2026-04-12T14:39:30.999Z</time></trkpt><trkpt lat="45.842797012124386" lon="11.93460685137267"><ele>212.5</ele><time>2026-04-12T14:39:32.999Z</time></trkpt><trkpt lat="45.842784923669015" lon="11.934449934681803"><ele>215.0</ele><time>2026-04-12T14:39:33.999Z</time></trkpt><trkpt lat="45.842769716309476" lon="11.934281956647624"><ele>216.6</ele><time>2026-04-12T14:39:34.999Z</time></trkpt><trkpt lat="45.84278216506882" lon="11.934116835156109"><ele>218.2</ele><time>2026-04-12T14:39:35.999Z</time></trkpt><trkpt lat="45.842806685463465" lon="11.933977083359423"><ele>219.8</ele><time>2026-04-12T14:39:36.999Z</time></trkpt><trkpt lat="45.84286333506422" lon="11.933902656048149"><ele>221.4</ele><time>2026-04-12T14:39:37.999Z</time></trkpt><trkpt lat="45.84294511535906" lon="11.933829968408245"><ele>223.0</ele><time>2026-04-12T14:39:38.999Z</time></trkpt><trkpt lat="45.84296658491012" lon="11.93359434150163"><ele>223.0</ele><time>2026-04-12T14:39:40.999Z</time></trkpt><trkpt lat="45.842891578766356" lon="11.933415910038342"><ele>223.0</ele><time>2026-04-12T14:39:41.999Z</time></trkpt><trkpt lat="45.84281617976358" lon="11.933264612405532"><ele>223.0</ele><time>2026-04-12T14:39:42.999Z</time></trkpt><trkpt lat="45.842787359352144" lon="11.933097462710617"><ele>223.0</ele><time>2026-04-12T14:39:43.998Z</time></trkpt><trkpt lat="45.84276481761885" lon="11.932933920119947"><ele>223.0</ele><time>2026-04-12T14:39:44.998Z</time></trkpt><trkpt lat="45.84282482698224" lon="11.932753060656488"><ele>223.0</ele><time>2026-04-12T14:39:45.998Z</time></trkpt><trkpt lat="45.842803744141285" lon="11.932599177388374"><ele>223.0</ele><time>2026-04-12T14:39:46.998Z</time></trkpt><trkpt lat="45.842768724330455" lon="11.932483168301657"><ele>223.0</ele><time>2026-04-12T14:39:47.998Z</time></trkpt><trkpt lat="45.84275149488031" lon="11.932379226569024"><ele>223.0</ele><time>2026-04-12T14:39:48.998Z</time></trkpt><trkpt lat="45.84280582404948" lon="11.932277804551019"><ele>222.25</ele><time>2026-04-12T14:39:49.998Z</time></trkpt><trkpt lat="45.842905121858465" lon="11.932218863107513"><ele>221.5</ele><time>2026-04-12T14:39:51Z</time></trkpt><trkpt lat="45.84301502973862" lon="11.932131240426965"><ele>220.75</ele><time>2026-04-12T14:39:52Z</time></trkpt><trkpt lat="45.84313111513687" lon="11.932042089276788"><ele>220.0</ele><time>2026-04-12T14:39:53Z</time></trkpt><trkpt lat="45.84319975725569" lon="11.931964973674862"><ele>220.0</ele><time>2026-04-12T14:39:54Z</time></trkpt><trkpt lat="45.84327079139085" lon="11.931919579864717"><ele>220.0</ele><time>2026-04-12T14:39:55Z</time></trkpt><trkpt lat="45.84330217383374" lon="11.931809129870544"><ele>220.0</ele><time>2026-04-12T14:39:56Z</time></trkpt><trkpt lat="45.84320014047768" lon="11.931639287848968"><ele>220.0</ele><time>2026-04-12T14:39:58Z</time></trkpt><trkpt lat="45.84306102227359" lon="11.931655686427066"><ele>218.5</ele><time>2026-04-12T14:39:59Z</time></trkpt><trkpt lat="45.84290061163616" lon="11.931688810370082"><ele>217.0</ele><time>2026-04-12T14:40:00Z</time></trkpt><trkpt lat="45.842775858109746" lon="11.93169430682993"><ele>215.5</ele><time>2026-04-12T14:40:01Z</time></trkpt><trkpt lat="45.842666486602674" lon="11.931621055978063"><ele>214.0</ele><time>2026-04-12T14:40:02Z</time></trkpt><trkpt lat="45.84257572623434" lon="11.931547668848495"><ele>210.6</ele><time>2026-04-12T14:40:03Z</time></trkpt><trkpt lat="45.84250103947392" lon="11.931444521084364"><ele>207.2</ele><time>2026-04-12T14:40:04Z</time></trkpt><trkpt lat="45.84245089222029" lon="11.931287416070983"><ele>203.79999999999998</ele><time>2026-04-12T14:40:05Z</time></trkpt><trkpt lat="45.8423890253899" lon="11.931151237246914"><ele>200.39999999999998</ele><time>2026-04-12T14:40:06Z</time></trkpt><trkpt lat="45.84236472058828" lon="11.931040529577576"><ele>197.0</ele><time>2026-04-12T14:40:07Z</time></trkpt><trkpt lat="45.8423603853854" lon="11.930897607174268"><ele>199.2</ele><time>2026-04-12T14:40:08Z</time></trkpt><trkpt lat="45.84231310648297" lon="11.930778867907684"><ele>201.39999999999998</ele><time>2026-04-12T14:40:09Z</time></trkpt><trkpt lat="45.84224691355304" lon="11.930685769509722"><ele>203.60000000000002</ele><time>2026-04-12T14:40:10Z</time></trkpt><trkpt lat="45.84211900719417" lon="11.930730503313592"><ele>205.8</ele><time>2026-04-12T14:40:11Z</time></trkpt><trkpt lat="45.84200722613948" lon="11.930673509886226"><ele>208.0</ele><time>2026-04-12T14:40:12Z</time></trkpt><trkpt lat="45.84189596661302" lon="11.930564260411803"><ele>203.5</ele><time>2026-04-12T14:40:13Z</time></trkpt><trkpt lat="45.84176138307147" lon="11.930453563200473"><ele>199.0</ele><time>2026-04-12T14:40:14Z</time></trkpt><trkpt lat="45.84162233185818" lon="11.930377320710244"><ele>194.5</ele><time>2026-04-12T14:40:15Z</time></trkpt><trkpt lat="45.84153029947493" lon="11.930281342330607"><ele>190.0</ele><time>2026-04-12T14:40:16Z</time></trkpt><trkpt lat="45.841444888201984" lon="11.930163641772639"><ele>194.0</ele><time>2026-04-12T14:40:17Z</time></trkpt><trkpt lat="45.84137583294756" lon="11.930033976211687"><ele>198.0</ele><time>2026-04-12T14:40:18Z</time></trkpt><trkpt lat="45.841317024806806" lon="11.929872637290357"><ele>202.0</ele><time>2026-04-12T14:40:19Z</time></trkpt><trkpt lat="45.841261900041054" lon="11.929709400395636"><ele>206.0</ele><time>2026-04-12T14:40:20Z</time></trkpt><trkpt lat="45.84122139829532" lon="11.929567287765943"><ele>206.0</ele><time>2026-04-12T14:40:21Z</time></trkpt><trkpt lat="45.84120066183944" lon="11.929448706674997"><ele>206.0</ele><time>2026-04-12T14:40:22Z</time></trkpt><trkpt lat="45.84123659987317" lon="11.929354086633486"><ele>206.0</ele><time>2026-04-12T14:40:23Z</time></trkpt><trkpt lat="45.84127612533575" lon="11.929225406200091"><ele>206.0</ele><time>2026-04-12T14:40:24Z</time></trkpt><trkpt lat="45.8413017987752" lon="11.929051340776494"><ele>206.0</ele><time>2026-04-12T14:40:25Z</time></trkpt><trkpt lat="45.84125924119531" lon="11.928858873637994"><ele>207.0</ele><time>2026-04-12T14:40:26Z</time></trkpt><trkpt lat="45.84121320477283" lon="11.928637301151628"><ele>208.0</ele><time>2026-04-12T14:40:27Z</time></trkpt><trkpt lat="45.84121645085731" lon="11.928467590578698"><ele>209.0</ele><time>2026-04-12T14:40:28Z</time></trkpt><trkpt lat="45.8412977915578" lon="11.928290294524118"><ele>210.0</ele><time>2026-04-12T14:40:29Z</time></trkpt><trkpt lat="45.841300963153195" lon="11.928103805748492"><ele>210.0</ele><time>2026-04-12T14:40:30Z</time></trkpt><trkpt lat="45.84125401461053" lon="11.92792782801494"><ele>210.0</ele><time>2026-04-12T14:40:31Z</time></trkpt><trkpt lat="45.84125240416083" lon="11.927768305203733"><ele>210.0</ele><time>2026-04-12T14:40:32Z</time></trkpt><trkpt lat="45.84128650918183" lon="11.927622343871914"><ele>210.0</ele><time>2026-04-12T14:40:33Z</time></trkpt><trkpt lat="45.841340025200985" lon="11.927495571108805"><ele>209.2</ele><time>2026-04-12T14:40:34Z</time></trkpt><trkpt lat="45.84143128395119" lon="11.927421765842984"><ele>208.4</ele><time>2026-04-12T14:40:35Z</time></trkpt><trkpt lat="45.841483990827825" lon="11.927367764476154"><ele>207.60000000000002</ele><time>2026-04-12T14:40:36Z</time></trkpt><trkpt lat="45.84153539078777" lon="11.927294475971284"><ele>206.8</ele><time>2026-04-12T14:40:37Z</time></trkpt><trkpt lat="45.84155056720051" lon="11.927183871703887"><ele>206.0</ele><time>2026-04-12T14:40:38Z</time></trkpt><trkpt lat="45.84139181822566" lon="11.927042536004"><ele>206.0</ele><time>2026-04-12T14:40:39Z</time></trkpt><trkpt lat="45.84130433445157" lon="11.927002407298957"><ele>206.0</ele><time>2026-04-12T14:40:39.999Z</time></trkpt><trkpt lat="45.84118966352449" lon="11.9269220312746"><ele>206.0</ele><time>2026-04-12T14:40:40.999Z</time></trkpt><trkpt lat="45.84107459578216" lon="11.926820925743389"><ele>206.0</ele><time>2026-04-12T14:40:41.999Z</time></trkpt><trkpt lat="45.84097497563689" lon="11.926689725362264"><ele>202.33333333333334</ele><time>2026-04-12T14:40:42.999Z</time></trkpt><trkpt lat="45.84084209252747" lon="11.926576942753742"><ele>198.66666666666669</ele><time>2026-04-12T14:40:43.999Z</time></trkpt><trkpt lat="45.840696616677675" lon="11.926502378019507"><ele>195.0</ele><time>2026-04-12T14:40:44.999Z</time></trkpt><trkpt lat="45.840565241157705" lon="11.926412072952079"><ele>195.0</ele><time>2026-04-12T14:40:45.999Z</time></trkpt><trkpt lat="45.840473571145814" lon="11.92630298735256"><ele>195.0</ele><time>2026-04-12T14:40:46.999Z</time></trkpt><trkpt lat="45.84041639818801" lon="11.926151976443727"><ele>195.0</ele><time>2026-04-12T14:40:47.999Z</time></trkpt><trkpt lat="45.84034254274972" lon="11.925974343500926"><ele>195.0</ele><time>2026-04-12T14:40:48.999Z</time></trkpt><trkpt lat="45.8402554515128" lon="11.925792011523965"><ele>194.5</ele><time>2026-04-12T14:40:49.999Z</time></trkpt><trkpt lat="45.84019482691048" lon="11.92559994665874"><ele>194.0</ele><time>2026-04-12T14:40:50.999Z</time></trkpt><trkpt lat="45.84011653886221" lon="11.925421658759191"><ele>193.5</ele><time>2026-04-12T14:40:51.999Z</time></trkpt><trkpt lat="45.84001340885987" lon="11.925279460811531"><ele>193.0</ele><time>2026-04-12T14:40:52.999Z</time></trkpt><trkpt lat="45.8398968707437" lon="11.925188207160819"><ele>192.99999999999997</ele><time>2026-04-12T14:40:53.999Z</time></trkpt><trkpt lat="45.83980836402762" lon="11.9251230055063"><ele>193.0</ele><time>2026-04-12T14:40:54.999Z</time></trkpt><trkpt lat="45.839753958804764" lon="11.925048515511298"><ele>193.0</ele><time>2026-04-12T14:40:55.999Z</time></trkpt><trkpt lat="45.839759345078654" lon="11.924956717880855"><ele>193.0</ele><time>2026-04-12T14:40:56.999Z</time></trkpt><trkpt lat="45.83975732105185" lon="11.924846808239858"><ele>192.99999999999997</ele><time>2026-04-12T14:40:57.999Z</time></trkpt><trkpt lat="45.839809082906356" lon="11.92477667693016"><ele>193.0</ele><time>2026-04-12T14:40:58.999Z</time></trkpt><trkpt lat="45.840001805241606" lon="11.924748657524018"><ele>194.75</ele><time>2026-04-12T14:41:00.999Z</time></trkpt><trkpt lat="45.8401170630633" lon="11.924636811734702"><ele>196.5</ele><time>2026-04-12T14:41:01.999Z</time></trkpt><trkpt lat="45.84023057836257" lon="11.924509942329722"><ele>198.25</ele><time>2026-04-12T14:41:02.999Z</time></trkpt><trkpt lat="45.840320933066096" lon="11.924452009461675"><ele>200.0</ele><time>2026-04-12T14:41:03.999Z</time></trkpt><trkpt lat="45.840392980183715" lon="11.924366498820554"><ele>203.25</ele><time>2026-04-12T14:41:04.999Z</time></trkpt><trkpt lat="45.84041967748551" lon="11.924215822457095"><ele>206.5</ele><time>2026-04-12T14:41:05.999Z</time></trkpt><trkpt lat="45.840405051665535" lon="11.924024760939508"><ele>209.75</ele><time>2026-04-12T14:41:06.999Z</time></trkpt><trkpt lat="45.84035348741293" lon="11.923783434248238"><ele>213.0</ele><time>2026-04-12T14:41:07.999Z</time></trkpt><trkpt lat="45.840296833068315" lon="11.923562559679445"><ele>213.0</ele><time>2026-04-12T14:41:08.999Z</time></trkpt><trkpt lat="45.840279462865716" lon="11.9233996112506"><ele>213.0</ele><time>2026-04-12T14:41:09.999Z</time></trkpt><trkpt lat="45.84031061019396" lon="11.923248102440803"><ele>213.0</ele><time>2026-04-12T14:41:10.999Z</time></trkpt><trkpt lat="45.84036324689548" lon="11.92310580351835"><ele>213.0</ele><time>2026-04-12T14:41:11.999Z</time></trkpt><trkpt lat="45.84042675608744" lon="11.9229488447832"><ele>212.0</ele><time>2026-04-12T14:41:12.999Z</time></trkpt><trkpt lat="45.840467653409455" lon="11.922817841292016"><ele>211.0</ele><time>2026-04-12T14:41:13.999Z</time></trkpt><trkpt lat="45.840510576142194" lon="11.922736193134995"><ele>210.0</ele><time>2026-04-12T14:41:14.999Z</time></trkpt><trkpt lat="45.840580411809604" lon="11.922733446023836"><ele>209.0</ele><time>2026-04-12T14:41:15.999Z</time></trkpt><trkpt lat="45.84064395267207" lon="11.922712624404936"><ele>208.0</ele><time>2026-04-12T14:41:16.999Z</time></trkpt><trkpt lat="45.84070849730423" lon="11.922665810402167"><ele>207.0</ele><time>2026-04-12T14:41:17.999Z</time></trkpt><trkpt lat="45.84073995460328" lon="11.922555215535768"><ele>204.5</ele><time>2026-04-12T14:41:18.999Z</time></trkpt><trkpt lat="45.84073760863968" lon="11.92244232653602"><ele>202.0</ele><time>2026-04-12T14:41:19.999Z</time></trkpt><trkpt lat="45.840656836833745" lon="11.922301425352961"><ele>199.5</ele><time>2026-04-12T14:41:20.999Z</time></trkpt><trkpt lat="45.84048163794427" lon="11.922253149855699"><ele>197.0</ele><time>2026-04-12T14:41:21.999Z</time></trkpt><trkpt lat="45.84038777008731" lon="11.922189833387344"><ele>197.0</ele><time>2026-04-12T14:41:22.999Z</time></trkpt><trkpt lat="45.84024439208621" lon="11.92209787182727"><ele>197.0</ele><time>2026-04-12T14:41:23.999Z</time></trkpt><trkpt lat="45.840154337790025" lon="11.922050972114883"><ele>197.0</ele><time>2026-04-12T14:41:24.999Z</time></trkpt><trkpt lat="45.84009274493663" lon="11.922010695408465"><ele>197.0</ele><time>2026-04-12T14:41:25.999Z</time></trkpt><trkpt lat="45.84006386628898" lon="11.921816596771793"><ele>196.39999999999998</ele><time>2026-04-12T14:41:27.999Z</time></trkpt><trkpt lat="45.8401401264315" lon="11.92170465976789"><ele>195.79999999999998</ele><time>2026-04-12T14:41:28.999Z</time></trkpt><trkpt lat="45.8401913438465" lon="11.921610175460406"><ele>195.2</ele><time>2026-04-12T14:41:29.999Z</time></trkpt><trkpt lat="45.840294948985104" lon="11.921543188625519"><ele>194.6</ele><time>2026-04-12T14:41:30.999Z</time></trkpt><trkpt lat="45.840403128827255" lon="11.921517130982204"><ele>194.0</ele><time>2026-04-12T14:41:31.999Z</time></trkpt><trkpt lat="45.84049976963647" lon="11.921459390385833"><ele>194.0</ele><time>2026-04-12T14:41:32.999Z</time></trkpt><trkpt lat="45.840566120537076" lon="11.921381352111613"><ele>194.0</ele><time>2026-04-12T14:41:33.999Z</time></trkpt><trkpt lat="45.840575358193846" lon="11.921256610046203"><ele>194.0</ele><time>2026-04-12T14:41:34.999Z</time></trkpt><trkpt lat="45.840527222486166" lon="11.92112371766562"><ele>194.0</ele><time>2026-04-12T14:41:35.999Z</time></trkpt><trkpt lat="45.840367909982824" lon="11.92103171622965"><ele>194.0</ele><time>2026-04-12T14:41:36.999Z</time></trkpt><trkpt lat="45.840215966434734" lon="11.921089076652628"><ele>190.5</ele><time>2026-04-12T14:41:37.999Z</time></trkpt><trkpt lat="45.84007467650663" lon="11.921124784934875"><ele>187.0</ele><time>2026-04-12T14:41:38.999Z</time></trkpt><trkpt lat="45.839932197192745" lon="11.921160299280542"><ele>183.5</ele><time>2026-04-12T14:41:39.999Z</time></trkpt><trkpt lat="45.83981317789948" lon="11.921154556073686"><ele>180.0</ele><time>2026-04-12T14:41:40.999Z</time></trkpt><trkpt lat="45.83970958621374" lon="11.921113578385011"><ele>180.0</ele><time>2026-04-12T14:41:41.999Z</time></trkpt><trkpt lat="45.839624556026" lon="11.921016866621226"><ele>180.0</ele><time>2026-04-12T14:41:42.999Z</time></trkpt><trkpt lat="45.839517807430944" lon="11.920891307184824"><ele>180.0</ele><time>2026-04-12T14:41:43.999Z</time></trkpt><trkpt lat="45.839395426413866" lon="11.920749372866542"><ele>180.0</ele><time>2026-04-12T14:41:44.999Z</time></trkpt><trkpt lat="45.83926219465727" lon="11.92064091092335"><ele>180.33333333333334</ele><time>2026-04-12T14:41:45.999Z</time></trkpt><trkpt lat="45.83911694827023" lon="11.92054934741553"><ele>180.66666666666669</ele><time>2026-04-12T14:41:46.999Z</time></trkpt><trkpt lat="45.83895260936075" lon="11.920498889872894"><ele>181.0</ele><time>2026-04-12T14:41:47.999Z</time></trkpt><trkpt lat="45.83877760601532" lon="11.920463729172017"><ele>181.0</ele><time>2026-04-12T14:41:48.999Z</time></trkpt><trkpt lat="45.83863597941412" lon="11.92039130627608"><ele>181.0</ele><time>2026-04-12T14:41:49.999Z</time></trkpt><trkpt lat="45.83854185608254" lon="11.920341579255675"><ele>181.0</ele><time>2026-04-12T14:41:50.998Z</time></trkpt><trkpt lat="45.83844882560189" lon="11.920272763191374"><ele>181.0</ele><time>2026-04-12T14:41:52.998Z</time></trkpt><trkpt lat="45.83840879986249" lon="11.920196891958582"><ele>181.0</ele><time>2026-04-12T14:41:53.998Z</time></trkpt><trkpt lat="45.83841989559208" lon="11.920045429607331"><ele>181.75</ele><time>2026-04-12T14:41:54.998Z</time></trkpt><trkpt lat="45.838385236468135" lon="11.919875476772615"><ele>182.5</ele><time>2026-04-12T14:41:55.998Z</time></trkpt><trkpt lat="45.838363885977415" lon="11.919700006143241"><ele>183.25</ele><time>2026-04-12T14:41:57Z</time></trkpt><trkpt lat="45.838338722809986" lon="11.919537475849392"><ele>184.0</ele><time>2026-04-12T14:41:58Z</time></trkpt><trkpt lat="45.83831474958838" lon="11.919395521660238"><ele>184.0</ele><time>2026-04-12T14:41:59Z</time></trkpt><trkpt lat="45.838289592129236" lon="11.919267104053638"><ele>184.0</ele><time>2026-04-12T14:42:00Z</time></trkpt><trkpt lat="45.83826229370416" lon="11.919175598852448"><ele>184.0</ele><time>2026-04-12T14:42:01Z</time></trkpt><trkpt lat="45.838243417727476" lon="11.919031316279828"><ele>184.0</ele><time>2026-04-12T14:42:06Z</time></trkpt><trkpt lat="45.83810098706404" lon="11.919006212733185"><ele>184.0</ele><time>2026-04-12T14:42:07Z</time></trkpt><trkpt lat="45.83800770448686" lon="11.918959603162852"><ele>184.2</ele><time>2026-04-12T14:42:08Z</time></trkpt><trkpt lat="45.837913362613286" lon="11.918908579658853"><ele>184.39999999999998</ele><time>2026-04-12T14:42:09Z</time></trkpt><trkpt lat="45.837839916404626" lon="11.918863695023468"><ele>184.6</ele><time>2026-04-12T14:42:10Z</time></trkpt><trkpt lat="45.83777678595277" lon="11.91883343633437"><ele>184.8</ele><time>2026-04-12T14:42:11Z</time></trkpt><trkpt lat="45.83758856150905" lon="11.918784557009465"><ele>185.0</ele><time>2026-04-12T14:43:10.999Z</time></trkpt><trkpt lat="45.83751353661357" lon="11.918796020329538"><ele>184.28571428571428</ele><time>2026-04-12T14:43:11.999Z</time></trkpt><trkpt lat="45.837445453076896" lon="11.91878720434874"><ele>183.57142857142856</ele><time>2026-04-12T14:43:12.999Z</time></trkpt><trkpt lat="45.8373716016082" lon="11.918762633018728"><ele>182.85714285714283</ele><time>2026-04-12T14:43:13.999Z</time></trkpt><trkpt lat="45.837299807165714" lon="11.918753016897634"><ele>182.14285714285714</ele><time>2026-04-12T14:43:14.999Z</time></trkpt><trkpt lat="45.837227607316066" lon="11.918756124182817"><ele>181.42857142857144</ele><time>2026-04-12T14:43:15.999Z</time></trkpt><trkpt lat="45.83715101189603" lon="11.918783133584183"><ele>180.7142857142857</ele><time>2026-04-12T14:43:16.999Z</time></trkpt><trkpt lat="45.837089462118854" lon="11.918816922251922"><ele>180.0</ele><time>2026-04-12T14:43:17.999Z</time></trkpt><trkpt lat="45.83699808757818" lon="11.918835760126761"><ele>180.0</ele><time>2026-04-12T14:43:19.999Z</time></trkpt><trkpt lat="45.8370467018475" lon="11.918655556567902"><ele>180.0</ele><time>2026-04-12T14:43:22.999Z</time></trkpt><trkpt lat="45.83710464323637" lon="11.918582516276146"><ele>180.0</ele><time>2026-04-12T14:43:23.999Z</time></trkpt><trkpt lat="45.837185396891186" lon="11.918497709717037"><ele>180.0</ele><time>2026-04-12T14:43:24.999Z</time></trkpt><trkpt lat="45.83727073506595" lon="11.918383994062227"><ele>180.0</ele><time>2026-04-12T14:43:25.999Z</time></trkpt><trkpt lat="45.837348696827625" lon="11.918278041963143"><ele>179.25</ele><time>2026-04-12T14:43:26.999Z</time></trkpt><trkpt lat="45.837430925127585" lon="11.918153840043727"><ele>178.5</ele><time>2026-04-12T14:43:27.999Z</time></trkpt><trkpt lat="45.837492094455854" lon="11.918019185606784"><ele>177.75</ele><time>2026-04-12T14:43:28.999Z</time></trkpt><trkpt lat="45.83752320198037" lon="11.917864876483215"><ele>177.0</ele><time>2026-04-12T14:43:29.999Z</time></trkpt><trkpt lat="45.83749570901522" lon="11.917667396174839"><ele>175.8</ele><time>2026-04-12T14:43:30.999Z</time></trkpt><trkpt lat="45.837452654276966" lon="11.917495399913049"><ele>174.6</ele><time>2026-04-12T14:43:31.999Z</time></trkpt><trkpt lat="45.83740248754438" lon="11.91734974567846"><ele>173.4</ele><time>2026-04-12T14:43:32.999Z</time></trkpt><trkpt lat="45.83738851489016" lon="11.917207168314496"><ele>172.20000000000002</ele><time>2026-04-12T14:43:33.999Z</time></trkpt><trkpt lat="45.83737180864078" lon="11.91708254151881"><ele>171.0</ele><time>2026-04-12T14:43:34.999Z</time></trkpt><trkpt lat="45.837417807932184" lon="11.916957398450268"><ele>171.0</ele><time>2026-04-12T14:43:35.999Z</time></trkpt><trkpt lat="45.837535692578456" lon="11.916889290867251"><ele>171.0</ele><time>2026-04-12T14:43:36.999Z</time></trkpt><trkpt lat="45.83765646119135" lon="11.916790594108809"><ele>171.0</ele><time>2026-04-12T14:43:37.999Z</time></trkpt><trkpt lat="45.83776007378909" lon="11.916684695638164"><ele>171.0</ele><time>2026-04-12T14:43:38.999Z</time></trkpt><trkpt lat="45.837896841762266" lon="11.916593374390711"><ele>169.5</ele><time>2026-04-12T14:43:39.999Z</time></trkpt><trkpt lat="45.838030819481276" lon="11.916515166972761"><ele>168.0</ele><time>2026-04-12T14:43:40.999Z</time></trkpt><trkpt lat="45.83816859756792" lon="11.916452843297836"><ele>166.5</ele><time>2026-04-12T14:43:41.999Z</time></trkpt><trkpt lat="45.838301976436334" lon="11.91641080206486"><ele>165.0</ele><time>2026-04-12T14:43:42.999Z</time></trkpt><trkpt lat="45.838421701251335" lon="11.916349592360397"><ele>166.5</ele><time>2026-04-12T14:43:43.999Z</time></trkpt><trkpt lat="45.838519673917396" lon="11.916235389181692"><ele>168.0</ele><time>2026-04-12T14:43:44.999Z</time></trkpt><trkpt lat="45.838587735342564" lon="11.91607843213992"><ele>169.5</ele><time>2026-04-12T14:43:45.999Z</time></trkpt><trkpt lat="45.838610136288075" lon="11.915907204874115"><ele>171.0</ele><time>2026-04-12T14:43:46.999Z</time></trkpt><trkpt lat="45.838580060943364" lon="11.915696652180555"><ele>171.0</ele><time>2026-04-12T14:43:47.999Z</time></trkpt><trkpt lat="45.8385324054885" lon="11.915498552782815"><ele>171.0</ele><time>2026-04-12T14:43:48.999Z</time></trkpt><trkpt lat="45.83845407369349" lon="11.915273328529961"><ele>171.0</ele><time>2026-04-12T14:43:49.999Z</time></trkpt><trkpt lat="45.83838376708096" lon="11.91504692608735"><ele>169.0</ele><time>2026-04-12T14:43:50.999Z</time></trkpt><trkpt lat="45.83829170254659" lon="11.914821468201108"><ele>167.0</ele><time>2026-04-12T14:43:51.999Z</time></trkpt><trkpt lat="45.83822409182225" lon="11.914609657251692"><ele>165.0</ele><time>2026-04-12T14:43:52.999Z</time></trkpt><trkpt lat="45.83816757772167" lon="11.914383511517467"><ele>164.0</ele><time>2026-04-12T14:43:53.999Z</time></trkpt><trkpt lat="45.83812547198341" lon="11.914167891931482"><ele>163.0</ele><time>2026-04-12T14:43:54.999Z</time></trkpt><trkpt lat="45.83810693430979" lon="11.913946948367093"><ele>162.0</ele><time>2026-04-12T14:43:55.999Z</time></trkpt><trkpt lat="45.838147532491476" lon="11.913724703182297"><ele>162.0</ele><time>2026-04-12T14:43:56.998Z</time></trkpt><trkpt lat="45.83820279229743" lon="11.91348062567261"><ele>162.0</ele><time>2026-04-12T14:43:57.998Z</time></trkpt><trkpt lat="45.83824834156704" lon="11.913227335180357"><ele>162.0</ele><time>2026-04-12T14:43:58.998Z</time></trkpt><trkpt lat="45.838289751892496" lon="11.912983496097143"><ele>161.0</ele><time>2026-04-12T14:43:59.998Z</time></trkpt><trkpt lat="45.838315131063794" lon="11.912739306241006"><ele>160.0</ele><time>2026-04-12T14:44:00.998Z</time></trkpt><trkpt lat="45.83837074390598" lon="11.912499251962657"><ele>159.0</ele><time>2026-04-12T14:44:01.998Z</time></trkpt><trkpt lat="45.83838193878928" lon="11.912267313555395"><ele>158.75</ele><time>2026-04-12T14:44:03Z</time></trkpt><trkpt lat="45.83838785954353" lon="11.91206654716737"><ele>158.5</ele><time>2026-04-12T14:44:04Z</time></trkpt><trkpt lat="45.8383675350994" lon="11.911878586559073"><ele>158.25</ele><time>2026-04-12T14:44:05Z</time></trkpt><trkpt lat="45.8383059787355" lon="11.911700034399766"><ele>158.0</ele><time>2026-04-12T14:44:06Z</time></trkpt><trkpt lat="45.838186755588104" lon="11.911574899292447"><ele>158.0</ele><time>2026-04-12T14:44:07Z</time></trkpt><trkpt lat="45.83804171665586" lon="11.9115314070046"><ele>158.0</ele><time>2026-04-12T14:44:08Z</time></trkpt><trkpt lat="45.8379045911313" lon="11.911481867998932"><ele>158.0</ele><time>2026-04-12T14:44:09Z</time></trkpt><trkpt lat="45.837732066839855" lon="11.911421508539814"><ele>157.0</ele><time>2026-04-12T14:44:10Z</time></trkpt><trkpt lat="45.83758934480585" lon="11.911376592100552"><ele>156.0</ele><time>2026-04-12T14:44:11Z</time></trkpt><trkpt lat="45.83751587911472" lon="11.911321871273746"><ele>155.0</ele><time>2026-04-12T14:44:12Z</time></trkpt><trkpt lat="45.83747107002555" lon="11.911208843301118"><ele>154.0</ele><time>2026-04-12T14:44:13Z</time></trkpt><trkpt lat="45.83749058682062" lon="11.91100311240802"><ele>155.5</ele><time>2026-04-12T14:44:14Z</time></trkpt><trkpt lat="45.837554494788776" lon="11.910831525302926"><ele>157.0</ele><time>2026-04-12T14:44:15Z</time></trkpt><trkpt lat="45.837604941824964" lon="11.91068113235422"><ele>158.5</ele><time>2026-04-12T14:44:16Z</time></trkpt><trkpt lat="45.837663928433784" lon="11.910494404269036"><ele>160.0</ele><time>2026-04-12T14:44:17Z</time></trkpt><trkpt lat="45.837720419784304" lon="11.910271130698868"><ele>163.0</ele><time>2026-04-12T14:44:18Z</time></trkpt><trkpt lat="45.83772971528066" lon="11.910019404222696"><ele>166.0</ele><time>2026-04-12T14:44:19Z</time></trkpt><trkpt lat="45.83772170428629" lon="11.909785284155"><ele>169.0</ele><time>2026-04-12T14:44:20Z</time></trkpt><trkpt lat="45.83766796469127" lon="11.9095425386692"><ele>168.0</ele><time>2026-04-12T14:44:21Z</time></trkpt><trkpt lat="45.83760390385735" lon="11.909313640192442"><ele>167.0</ele><time>2026-04-12T14:44:22Z</time></trkpt><trkpt lat="45.837539308003926" lon="11.909095737211448"><ele>166.0</ele><time>2026-04-12T14:44:23Z</time></trkpt><trkpt lat="45.837465610766515" lon="11.908923198219613"><ele>166.0</ele><time>2026-04-12T14:44:24Z</time></trkpt><trkpt lat="45.83736317363584" lon="11.908796301681317"><ele>166.0</ele><time>2026-04-12T14:44:25Z</time></trkpt><trkpt lat="45.83723759795579" lon="11.908717945315995"><ele>166.0</ele><time>2026-04-12T14:44:26Z</time></trkpt><trkpt lat="45.83709134812231" lon="11.908725420265787"><ele>166.0</ele><time>2026-04-12T14:44:27Z</time></trkpt><trkpt lat="45.83692918153323" lon="11.90870636459485"><ele>164.33333333333334</ele><time>2026-04-12T14:44:28Z</time></trkpt><trkpt lat="45.83674879421971" lon="11.908752894856484"><ele>162.66666666666666</ele><time>2026-04-12T14:44:29Z</time></trkpt><trkpt lat="45.83657823524362" lon="11.90874601691894"><ele>161.0</ele><time>2026-04-12T14:44:30Z</time></trkpt><trkpt lat="45.83642667164548" lon="11.908682685141336"><ele>161.0</ele><time>2026-04-12T14:44:31Z</time></trkpt><trkpt lat="45.83627568269084" lon="11.908646832815771"><ele>161.0</ele><time>2026-04-12T14:44:32Z</time></trkpt><trkpt lat="45.836139612895565" lon="11.908537165876199"><ele>161.0</ele><time>2026-04-12T14:44:33Z</time></trkpt><trkpt lat="45.83600699387112" lon="11.90842545601233"><ele>160.0</ele><time>2026-04-12T14:44:34Z</time></trkpt><trkpt lat="45.8358683388059" lon="11.908293740471212"><ele>159.0</ele><time>2026-04-12T14:44:35Z</time></trkpt><trkpt lat="45.83573197429007" lon="11.908151114060948"><ele>158.0</ele><time>2026-04-12T14:44:36Z</time></trkpt><trkpt lat="45.835620240815864" lon="11.907998351601229"><ele>158.0</ele><time>2026-04-12T14:44:37Z</time></trkpt><trkpt lat="45.83553086177312" lon="11.907820120768863"><ele>158.0</ele><time>2026-04-12T14:44:38Z</time></trkpt><trkpt lat="45.83547295681166" lon="11.907615935439273"><ele>158.0</ele><time>2026-04-12T14:44:39Z</time></trkpt><trkpt lat="45.835444291930166" lon="11.907417633506032"><ele>158.0</ele><time>2026-04-12T14:44:40Z</time></trkpt><trkpt lat="45.8354453660847" lon="11.907193471624103"><ele>156.66666666666666</ele><time>2026-04-12T14:44:41Z</time></trkpt><trkpt lat="45.83548059643189" lon="11.9069998910975"><ele>155.33333333333334</ele><time>2026-04-12T14:44:42Z</time></trkpt><trkpt lat="45.8355641199934" lon="11.906801357031908"><ele>154.0</ele><time>2026-04-12T14:44:43Z</time></trkpt><trkpt lat="45.83565516076782" lon="11.906609907493248"><ele>153.0</ele><time>2026-04-12T14:44:44Z</time></trkpt><trkpt lat="45.83575688837859" lon="11.906401423301702"><ele>152.0</ele><time>2026-04-12T14:44:45Z</time></trkpt><trkpt lat="45.835864646936805" lon="11.906165644832452"><ele>151.0</ele><time>2026-04-12T14:44:46Z</time></trkpt><trkpt lat="45.83595833493879" lon="11.905938402976185"><ele>149.66666666666669</ele><time>2026-04-12T14:44:47Z</time></trkpt><trkpt lat="45.83605296338231" lon="11.905693368054001"><ele>148.33333333333334</ele><time>2026-04-12T14:44:48Z</time></trkpt><trkpt lat="45.83615375957369" lon="11.905424111999986"><ele>147.0</ele><time>2026-04-12T14:44:49Z</time></trkpt><trkpt lat="45.83625129267652" lon="11.90515524214713"><ele>146.0</ele><time>2026-04-12T14:44:50Z</time></trkpt><trkpt lat="45.83634856823826" lon="11.904884416745805"><ele>145.0</ele><time>2026-04-12T14:44:51Z</time></trkpt><trkpt lat="45.836432473997434" lon="11.904605758902791"><ele>144.0</ele><time>2026-04-12T14:44:52Z</time></trkpt><trkpt lat="45.83655377328113" lon="11.904354039113937"><ele>145.66666666666666</ele><time>2026-04-12T14:44:52.999Z</time></trkpt><trkpt lat="45.83668282753459" lon="11.904118397574443"><ele>147.33333333333331</ele><time>2026-04-12T14:44:53.999Z</time></trkpt><trkpt lat="45.83682184599054" lon="11.903932479662263"><ele>149.0</ele><time>2026-04-12T14:44:54.999Z</time></trkpt><trkpt lat="45.83697437219189" lon="11.903757928852963"><ele>149.66666666666666</ele><time>2026-04-12T14:44:55.999Z</time></trkpt><trkpt lat="45.83713322080633" lon="11.90357623806952"><ele>150.33333333333334</ele><time>2026-04-12T14:44:56.999Z</time></trkpt><trkpt lat="45.83729027928715" lon="11.903394823397994"><ele>151.0</ele><time>2026-04-12T14:44:57.999Z</time></trkpt><trkpt lat="45.83744643902503" lon="11.903218276653375"><ele>151.75</ele><time>2026-04-12T14:44:58.999Z</time></trkpt><trkpt lat="45.83754999152913" lon="11.903051050207267"><ele>152.5</ele><time>2026-04-12T14:44:59.999Z</time></trkpt><trkpt lat="45.83760660819299" lon="11.90290307138288"><ele>153.25</ele><time>2026-04-12T14:45:00.999Z</time></trkpt><trkpt lat="45.837643729536936" lon="11.902705189586055"><ele>154.0</ele><time>2026-04-12T14:45:01.999Z</time></trkpt><trkpt lat="45.837674683154845" lon="11.902485460419445"><ele>155.66666666666669</ele><time>2026-04-12T14:45:02.999Z</time></trkpt><trkpt lat="45.8376644292908" lon="11.902239616335194"><ele>157.33333333333334</ele><time>2026-04-12T14:45:03.999Z</time></trkpt><trkpt lat="45.83762022936176" lon="11.901988362425397"><ele>159.0</ele><time>2026-04-12T14:45:04.999Z</time></trkpt><trkpt lat="45.837550294959655" lon="11.901749494795988"><ele>161.0</ele><time>2026-04-12T14:45:05.999Z</time></trkpt><trkpt lat="45.83747205075367" lon="11.901507275482551"><ele>163.0</ele><time>2026-04-12T14:45:06.999Z</time></trkpt><trkpt lat="45.83738281668588" lon="11.901273185282815"><ele>165.0</ele><time>2026-04-12T14:45:07.999Z</time></trkpt><trkpt lat="45.837292981658024" lon="11.901044878291923"><ele>167.66666666666666</ele><time>2026-04-12T14:45:08.999Z</time></trkpt><trkpt lat="45.837230655678766" lon="11.90076015094312"><ele>170.33333333333331</ele><time>2026-04-12T14:45:09.999Z</time></trkpt><trkpt lat="45.837186351637065" lon="11.900451677709725"><ele>173.0</ele><time>2026-04-12T14:45:10.999Z</time></trkpt><trkpt lat="45.83714346839988" lon="11.90015103554946"><ele>174.66666666666666</ele><time>2026-04-12T14:45:11.999Z</time></trkpt><trkpt lat="45.83710397538696" lon="11.899881697103035"><ele>176.33333333333334</ele><time>2026-04-12T14:45:12.999Z</time></trkpt><trkpt lat="45.83708662857252" lon="11.89965164054995"><ele>178.0</ele><time>2026-04-12T14:45:13.999Z</time></trkpt><trkpt lat="45.8370951934079" lon="11.899415004885471"><ele>181.0</ele><time>2026-04-12T14:45:14.999Z</time></trkpt><trkpt lat="45.83709621697977" lon="11.89916581360846"><ele>184.0</ele><time>2026-04-12T14:45:15.999Z</time></trkpt><trkpt lat="45.83708871564364" lon="11.898921961938193"><ele>187.0</ele><time>2026-04-12T14:45:16.999Z</time></trkpt><trkpt lat="45.83705034017955" lon="11.898688550379022"><ele>187.0</ele><time>2026-04-12T14:45:17.999Z</time></trkpt><trkpt lat="45.83698963174361" lon="11.898424995123092"><ele>187.0</ele><time>2026-04-12T14:45:18.999Z</time></trkpt><trkpt lat="45.83691610612514" lon="11.898164508132648"><ele>187.0</ele><time>2026-04-12T14:45:19.999Z</time></trkpt><trkpt lat="45.83683566220583" lon="11.897887960168884"><ele>179.66666666666669</ele><time>2026-04-12T14:45:20.999Z</time></trkpt><trkpt lat="45.83676648714066" lon="11.897632465269476"><ele>172.33333333333334</ele><time>2026-04-12T14:45:21.999Z</time></trkpt><trkpt lat="45.83669782784657" lon="11.897359142412663"><ele>165.0</ele><time>2026-04-12T14:45:22.999Z</time></trkpt><trkpt lat="45.83662333199338" lon="11.897146921719255"><ele>164.66666666666666</ele><time>2026-04-12T14:45:23.999Z</time></trkpt><trkpt lat="45.83651050998633" lon="11.896934000709335"><ele>164.33333333333331</ele><time>2026-04-12T14:45:24.999Z</time></trkpt><trkpt lat="45.836377685558446" lon="11.896738635358878"><ele>164.0</ele><time>2026-04-12T14:45:25.999Z</time></trkpt><trkpt lat="45.83624105941026" lon="11.896538037057432"><ele>164.33333333333331</ele><time>2026-04-12T14:45:26.999Z</time></trkpt><trkpt lat="45.836107047227664" lon="11.896333810678962"><ele>164.66666666666666</ele><time>2026-04-12T14:45:27.999Z</time></trkpt><trkpt lat="45.83596968060918" lon="11.896117076777553"><ele>165.0</ele><time>2026-04-12T14:45:28.999Z</time></trkpt><trkpt lat="45.83583610135406" lon="11.895906209683982"><ele>165.0</ele><time>2026-04-12T14:45:29.999Z</time></trkpt><trkpt lat="45.8356863257077" lon="11.895722570909989"><ele>165.0</ele><time>2026-04-12T14:45:30.999Z</time></trkpt><trkpt lat="45.83551507174395" lon="11.895573092704225"><ele>165.0</ele><time>2026-04-12T14:45:31.999Z</time></trkpt><trkpt lat="45.835324184415164" lon="11.895433322969213"><ele>163.33333333333334</ele><time>2026-04-12T14:45:32.999Z</time></trkpt><trkpt lat="45.83513375223351" lon="11.895317051271762"><ele>161.66666666666669</ele><time>2026-04-12T14:45:33.999Z</time></trkpt><trkpt lat="45.83495336325403" lon="11.895201494698425"><ele>160.0</ele><time>2026-04-12T14:45:34.999Z</time></trkpt><trkpt lat="45.834784369040044" lon="11.895093677093433"><ele>161.0</ele><time>2026-04-12T14:45:35.999Z</time></trkpt><trkpt lat="45.83463222681423" lon="11.894989124121537"><ele>162.0</ele><time>2026-04-12T14:45:36.999Z</time></trkpt><trkpt lat="45.834456569971856" lon="11.894866244473574"><ele>163.0</ele><time>2026-04-12T14:45:37.999Z</time></trkpt><trkpt lat="45.83429102397218" lon="11.894751311464168"><ele>159.33333333333334</ele><time>2026-04-12T14:45:38.999Z</time></trkpt><trkpt lat="45.834125847348986" lon="11.89463883193487"><ele>155.66666666666666</ele><time>2026-04-12T14:45:39.999Z</time></trkpt><trkpt lat="45.83396834893063" lon="11.894530492160676"><ele>152.0</ele><time>2026-04-12T14:45:40.999Z</time></trkpt><trkpt lat="45.83381252804995" lon="11.894424405702486"><ele>152.0</ele><time>2026-04-12T14:45:41.999Z</time></trkpt><trkpt lat="45.83366086700084" lon="11.894316776026809"><ele>152.0</ele><time>2026-04-12T14:45:42.999Z</time></trkpt><trkpt lat="45.83351329358805" lon="11.894215161260389"><ele>152.0</ele><time>2026-04-12T14:45:43.999Z</time></trkpt><trkpt lat="45.83337368845438" lon="11.894117352837076"><ele>149.33333333333331</ele><time>2026-04-12T14:45:44.999Z</time></trkpt><trkpt lat="45.83326340359878" lon="11.89397401738456"><ele>146.66666666666666</ele><time>2026-04-12T14:45:45.999Z</time></trkpt><trkpt lat="45.83315872024049" lon="11.893822799336279"><ele>144.0</ele><time>2026-04-12T14:45:46.999Z</time></trkpt><trkpt lat="45.8330595684512" lon="11.89364843744436"><ele>144.0</ele><time>2026-04-12T14:45:47.999Z</time></trkpt><trkpt lat="45.83301230639295" lon="11.893432026932707"><ele>144.0</ele><time>2026-04-12T14:45:48.999Z</time></trkpt><trkpt lat="45.8329591632989" lon="11.893231873345892"><ele>144.0</ele><time>2026-04-12T14:45:49.999Z</time></trkpt><trkpt lat="45.83295427628263" lon="11.893012467446534"><ele>144.25</ele><time>2026-04-12T14:45:50.999Z</time></trkpt><trkpt lat="45.832989059331425" lon="11.892801096161122"><ele>144.5</ele><time>2026-04-12T14:45:51.999Z</time></trkpt><trkpt lat="45.8330239212826" lon="11.892589251226715"><ele>144.75</ele><time>2026-04-12T14:45:52.999Z</time></trkpt><trkpt lat="45.833087195070156" lon="11.892421765536096"><ele>145.0</ele><time>2026-04-12T14:45:53.999Z</time></trkpt><trkpt lat="45.83315771283521" lon="11.892266436322029"><ele>147.5</ele><time>2026-04-12T14:45:54.999Z</time></trkpt><trkpt lat="45.83324164203528" lon="11.892122177493448"><ele>150.0</ele><time>2026-04-12T14:45:55.999Z</time></trkpt><trkpt lat="45.83332482958323" lon="11.89198575758192"><ele>152.5</ele><time>2026-04-12T14:45:56.999Z</time></trkpt><trkpt lat="45.833398641484145" lon="11.89185569321023"><ele>155.0</ele><time>2026-04-12T14:45:57.999Z</time></trkpt><trkpt lat="45.833473264205224" lon="11.89171712086799"><ele>155.5</ele><time>2026-04-12T14:45:58.999Z</time></trkpt><trkpt lat="45.83355183443232" lon="11.891578783305944"><ele>156.0</ele><time>2026-04-12T14:45:59.999Z</time></trkpt><trkpt lat="45.833627489260365" lon="11.891436046545756"><ele>156.5</ele><time>2026-04-12T14:46:00.999Z</time></trkpt><trkpt lat="45.83371752278619" lon="11.89130661928997"><ele>157.0</ele><time>2026-04-12T14:46:01.999Z</time></trkpt><trkpt lat="45.83377948696494" lon="11.891151849761698"><ele>157.0</ele><time>2026-04-12T14:46:02.999Z</time></trkpt><trkpt lat="45.83384924495301" lon="11.891016243807908"><ele>157.0</ele><time>2026-04-12T14:46:03.998Z</time></trkpt><trkpt lat="45.83391783994489" lon="11.890870818738712"><ele>157.0</ele><time>2026-04-12T14:46:04.998Z</time></trkpt><trkpt lat="45.833960374948134" lon="11.890703482697553"><ele>157.0</ele><time>2026-04-12T14:46:05.998Z</time></trkpt><trkpt lat="45.833991753872326" lon="11.890532080526174"><ele>158.75</ele><time>2026-04-12T14:46:06.998Z</time></trkpt><trkpt lat="45.83400927696819" lon="11.890354238993927"><ele>160.5</ele><time>2026-04-12T14:46:07.998Z</time></trkpt><trkpt lat="45.83400408858442" lon="11.890165916590183"><ele>162.25</ele><time>2026-04-12T14:46:09Z</time></trkpt><trkpt lat="45.833984046794626" lon="11.88997363846901"><ele>164.0</ele><time>2026-04-12T14:46:10Z</time></trkpt><trkpt lat="45.833944494602946" lon="11.889782980517056"><ele>165.0</ele><time>2026-04-12T14:46:11Z</time></trkpt><trkpt lat="45.83389488195022" lon="11.889598129474212"><ele>166.0</ele><time>2026-04-12T14:46:12Z</time></trkpt><trkpt lat="45.83384982029495" lon="11.889406016912472"><ele>167.0</ele><time>2026-04-12T14:46:13Z</time></trkpt><trkpt lat="45.83380617579047" lon="11.889214982673696"><ele>168.0</ele><time>2026-04-12T14:46:14Z</time></trkpt><trkpt lat="45.83376630642749" lon="11.889021675553428"><ele>168.0</ele><time>2026-04-12T14:46:15Z</time></trkpt><trkpt lat="45.83375160690249" lon="11.888836943239623"><ele>168.0</ele><time>2026-04-12T14:46:16Z</time></trkpt><trkpt lat="45.833730950811386" lon="11.888646244699059"><ele>168.0</ele><time>2026-04-12T14:46:17Z</time></trkpt><trkpt lat="45.83370362029579" lon="11.888452658658933"><ele>168.0</ele><time>2026-04-12T14:46:18Z</time></trkpt><trkpt lat="45.83368829683707" lon="11.888248208416966"><ele>168.0</ele><time>2026-04-12T14:46:19Z</time></trkpt><trkpt lat="45.833666773474484" lon="11.888047818384644"><ele>168.0</ele><time>2026-04-12T14:46:20Z</time></trkpt><trkpt lat="45.83364446281605" lon="11.887864643630898"><ele>168.0</ele><time>2026-04-12T14:46:21Z</time></trkpt><trkpt lat="45.833621492760564" lon="11.887697210892327"><ele>168.0</ele><time>2026-04-12T14:46:22Z</time></trkpt><trkpt lat="45.83360534967405" lon="11.88753455885455"><ele>168.16666666666666</ele><time>2026-04-12T14:46:23Z</time></trkpt><trkpt lat="45.83358325341518" lon="11.887399038525052"><ele>168.33333333333334</ele><time>2026-04-12T14:46:24Z</time></trkpt><trkpt lat="45.83356384803319" lon="11.887278394763332"><ele>168.5</ele><time>2026-04-12T14:46:25Z</time></trkpt><trkpt lat="45.83355161771055" lon="11.88718212969431"><ele>168.66666666666669</ele><time>2026-04-12T14:46:26Z</time></trkpt><trkpt lat="45.83354996737533" lon="11.887067097609851"><ele>168.83333333333334</ele><time>2026-04-12T14:46:27Z</time></trkpt><trkpt lat="45.83357103445782" lon="11.886936703949212"><ele>169.0</ele><time>2026-04-12T14:46:28Z</time></trkpt><trkpt lat="45.83363234993169" lon="11.88682956134896"><ele>170.79999999999998</ele><time>2026-04-12T14:46:29Z</time></trkpt><trkpt lat="45.83371418928723" lon="11.886725588007327"><ele>172.6</ele><time>2026-04-12T14:46:30Z</time></trkpt><trkpt lat="45.83378085754572" lon="11.886639337608422"><ele>174.4</ele><time>2026-04-12T14:46:31Z</time></trkpt><trkpt lat="45.83385114719814" lon="11.886558807533651"><ele>176.2</ele><time>2026-04-12T14:46:32Z</time></trkpt><trkpt lat="45.83392031055303" lon="11.886467823488049"><ele>178.0</ele><time>2026-04-12T14:46:33Z</time></trkpt><trkpt lat="45.83398636960368" lon="11.886384354755485"><ele>178.0</ele><time>2026-04-12T14:46:34Z</time></trkpt><trkpt lat="45.834042168179266" lon="11.886308300302378"><ele>178.0</ele><time>2026-04-12T14:46:35Z</time></trkpt><trkpt lat="45.834106979610574" lon="11.886254617882173"><ele>178.0</ele><time>2026-04-12T14:46:36Z</time></trkpt><trkpt lat="45.83415268700782" lon="11.886163465246874"><ele>178.0</ele><time>2026-04-12T14:46:37Z</time></trkpt><trkpt lat="45.83421286252675" lon="11.886074752655443"><ele>178.0</ele><time>2026-04-12T14:46:38Z</time></trkpt><trkpt lat="45.834272548757596" lon="11.885983135498321"><ele>178.0</ele><time>2026-04-12T14:46:39Z</time></trkpt><trkpt lat="45.834335158108125" lon="11.885917819957866"><ele>178.33333333333334</ele><time>2026-04-12T14:46:40Z</time></trkpt><trkpt lat="45.83437971262174" lon="11.885850339765282"><ele>178.66666666666669</ele><time>2026-04-12T14:46:41Z</time></trkpt><trkpt lat="45.83444512061198" lon="11.885749927277216"><ele>179.0</ele><time>2026-04-12T14:46:43Z</time></trkpt><trkpt lat="45.83449465653792" lon="11.88564175074056"><ele>179.33333333333334</ele><time>2026-04-12T14:46:52Z</time></trkpt><trkpt lat="45.83449419608258" lon="11.885519512225367"><ele>179.66666666666666</ele><time>2026-04-12T14:47:03.999Z</time></trkpt><trkpt lat="45.834438942144914" lon="11.885470223698336"><ele>180.0</ele><time>2026-04-12T14:47:04.999Z</time></trkpt><trkpt lat="45.834352416894454" lon="11.88543340120451"><ele>181.25</ele><time>2026-04-12T14:47:05.999Z</time></trkpt><trkpt lat="45.83426111294537" lon="11.8853987109635"><ele>182.5</ele><time>2026-04-12T14:47:06.999Z</time></trkpt><trkpt lat="45.834156406539115" lon="11.885370382474076"><ele>183.75</ele><time>2026-04-12T14:47:07.999Z</time></trkpt><trkpt lat="45.83403455890678" lon="11.885332925165628"><ele>185.0</ele><time>2026-04-12T14:47:08.999Z</time></trkpt><trkpt lat="45.83390629265232" lon="11.885280864277785"><ele>185.0</ele><time>2026-04-12T14:47:09.999Z</time></trkpt><trkpt lat="45.83377784493974" lon="11.885238060248296"><ele>185.0</ele><time>2026-04-12T14:47:10.999Z</time></trkpt><trkpt lat="45.833639629677194" lon="11.885184892000959"><ele>185.0</ele><time>2026-04-12T14:47:11.999Z</time></trkpt><trkpt lat="45.833514919744395" lon="11.8851446395554"><ele>185.0</ele><time>2026-04-12T14:47:12.999Z</time></trkpt><trkpt lat="45.83341029756154" lon="11.885108971014391"><ele>185.2</ele><time>2026-04-12T14:47:13.999Z</time></trkpt><trkpt lat="45.8333252398428" lon="11.885078908989362"><ele>185.4</ele><time>2026-04-12T14:47:14.999Z</time></trkpt><trkpt lat="45.83325983141546" lon="11.88504095133682"><ele>185.60000000000002</ele><time>2026-04-12T14:47:15.999Z</time></trkpt><trkpt lat="45.83321499917807" lon="11.884948584940979"><ele>185.8</ele><time>2026-04-12T14:47:16.999Z</time></trkpt><trkpt lat="45.83320988979424" lon="11.884806866927063"><ele>186.0</ele><time>2026-04-12T14:47:17.999Z</time></trkpt><trkpt lat="45.8332385608145" lon="11.884640599909245"><ele>186.0</ele><time>2026-04-12T14:47:18.999Z</time></trkpt><trkpt lat="45.83327273311017" lon="11.884454477859382"><ele>186.0</ele><time>2026-04-12T14:47:19.999Z</time></trkpt><trkpt lat="45.83329274369278" lon="11.884264560088607"><ele>186.0</ele><time>2026-04-12T14:47:20.999Z</time></trkpt><trkpt lat="45.83333379718183" lon="11.884068107067542"><ele>186.0</ele><time>2026-04-12T14:47:21.999Z</time></trkpt><trkpt lat="45.83340410097605" lon="11.883866421270845"><ele>186.0</ele><time>2026-04-12T14:47:22.999Z</time></trkpt><trkpt lat="45.83346533570277" lon="11.883654930824383"><ele>186.0</ele><time>2026-04-12T14:47:23.999Z</time></trkpt><trkpt lat="45.8335550772046" lon="11.883445673728728"><ele>186.0</ele><time>2026-04-12T14:47:24.999Z</time></trkpt><trkpt lat="45.83364588723688" lon="11.88323024604388"><ele>186.0</ele><time>2026-04-12T14:47:25.999Z</time></trkpt><trkpt lat="45.833713140178894" lon="11.883022844298601"><ele>186.0</ele><time>2026-04-12T14:47:26.999Z</time></trkpt><trkpt lat="45.833743014284515" lon="11.882810177468006"><ele>186.0</ele><time>2026-04-12T14:47:27.999Z</time></trkpt><trkpt lat="45.83373865236776" lon="11.882583221639253"><ele>186.66666666666666</ele><time>2026-04-12T14:47:28.999Z</time></trkpt><trkpt lat="45.8336941108596" lon="11.882336916062558"><ele>187.33333333333331</ele><time>2026-04-12T14:47:29.999Z</time></trkpt><trkpt lat="45.83363864520321" lon="11.882091076400972"><ele>188.0</ele><time>2026-04-12T14:47:30.999Z</time></trkpt><trkpt lat="45.833588905684685" lon="11.881833116261332"><ele>188.66666666666666</ele><time>2026-04-12T14:47:31.999Z</time></trkpt><trkpt lat="45.83354301837879" lon="11.881560501293325"><ele>189.33333333333334</ele><time>2026-04-12T14:47:32.999Z</time></trkpt><trkpt lat="45.83349594204369" lon="11.881258275166003"><ele>190.0</ele><time>2026-04-12T14:47:33.999Z</time></trkpt><trkpt lat="45.83344411582105" lon="11.880923160030019"><ele>191.66666666666669</ele><time>2026-04-12T14:47:34.999Z</time></trkpt><trkpt lat="45.833389562552064" lon="11.880598637453595"><ele>193.33333333333334</ele><time>2026-04-12T14:47:35.999Z</time></trkpt><trkpt lat="45.83334396596812" lon="11.8803019788605"><ele>195.0</ele><time>2026-04-12T14:47:36.999Z</time></trkpt><trkpt lat="45.83329567772048" lon="11.880009442365024"><ele>196.66666666666669</ele><time>2026-04-12T14:47:37.999Z</time></trkpt><trkpt lat="45.833248650349404" lon="11.879709732639913"><ele>198.33333333333334</ele><time>2026-04-12T14:47:38.999Z</time></trkpt><trkpt lat="45.83320043828622" lon="11.87941193113544"><ele>200.0</ele><time>2026-04-12T14:47:39.999Z</time></trkpt><trkpt lat="45.83315105956925" lon="11.87911514950561"><ele>200.0</ele><time>2026-04-12T14:47:40.999Z</time></trkpt><trkpt lat="45.8331010414741" lon="11.878817716685361"><ele>200.0</ele><time>2026-04-12T14:47:41.999Z</time></trkpt><trkpt lat="45.8330531430899" lon="11.878523443168396"><ele>200.0</ele><time>2026-04-12T14:47:42.999Z</time></trkpt><trkpt lat="45.8330034196799" lon="11.878228427234854"><ele>201.0</ele><time>2026-04-12T14:47:43.999Z</time></trkpt><trkpt lat="45.83295618500029" lon="11.877940545418188"><ele>202.0</ele><time>2026-04-12T14:47:44.999Z</time></trkpt><trkpt lat="45.8329166014896" lon="11.877649755300098"><ele>203.0</ele><time>2026-04-12T14:47:45.999Z</time></trkpt><trkpt lat="45.83287914869332" lon="11.877353912581237"><ele>204.33333333333334</ele><time>2026-04-12T14:47:46.999Z</time></trkpt><trkpt lat="45.83284884344052" lon="11.877056004617168"><ele>205.66666666666669</ele><time>2026-04-12T14:47:47.999Z</time></trkpt><trkpt lat="45.83282638094403" lon="11.87675426390537"><ele>207.0</ele><time>2026-04-12T14:47:48.999Z</time></trkpt><trkpt lat="45.83280122912683" lon="11.876458407264957"><ele>207.66666666666669</ele><time>2026-04-12T14:47:49.999Z</time></trkpt><trkpt lat="45.83277425784056" lon="11.876163592580879"><ele>208.33333333333334</ele><time>2026-04-12T14:47:50.999Z</time></trkpt><trkpt lat="45.83274450110264" lon="11.87586952632286"><ele>209.0</ele><time>2026-04-12T14:47:51.999Z</time></trkpt><trkpt lat="45.832713482664374" lon="11.87556883929904"><ele>209.0</ele><time>2026-04-12T14:47:52.999Z</time></trkpt><trkpt lat="45.83268451429345" lon="11.875264500702466"><ele>209.0</ele><time>2026-04-12T14:47:53.999Z</time></trkpt><trkpt lat="45.83265455630734" lon="11.874960857561753"><ele>209.0</ele><time>2026-04-12T14:47:54.999Z</time></trkpt><trkpt lat="45.83262665057725" lon="11.874656485415741"><ele>211.0</ele><time>2026-04-12T14:47:55.999Z</time></trkpt><trkpt lat="45.83259724774286" lon="11.87434838585633"><ele>213.0</ele><time>2026-04-12T14:47:56.999Z</time></trkpt><trkpt lat="45.832569903350716" lon="11.874053467640119"><ele>215.0</ele><time>2026-04-12T14:47:57.999Z</time></trkpt><trkpt lat="45.83254824807299" lon="11.873757057340733"><ele>215.33333333333334</ele><time>2026-04-12T14:47:58.999Z</time></trkpt><trkpt lat="45.83251758903387" lon="11.873474353579944"><ele>215.66666666666669</ele><time>2026-04-12T14:47:59.999Z</time></trkpt><trkpt lat="45.83247830656446" lon="11.873195907080332"><ele>216.0</ele><time>2026-04-12T14:48:00.999Z</time></trkpt><trkpt lat="45.83241897128547" lon="11.872921574256722"><ele>216.66666666666669</ele><time>2026-04-12T14:48:01.999Z</time></trkpt><trkpt lat="45.832341277530205" lon="11.872674830642488"><ele>217.33333333333334</ele><time>2026-04-12T14:48:02.999Z</time></trkpt><trkpt lat="45.83224676946138" lon="11.872437295047476"><ele>218.0</ele><time>2026-04-12T14:48:03.999Z</time></trkpt><trkpt lat="45.83214261212033" lon="11.872206191336366"><ele>219.33333333333334</ele><time>2026-04-12T14:48:04.999Z</time></trkpt><trkpt lat="45.83202922298805" lon="11.871983925080247"><ele>220.66666666666669</ele><time>2026-04-12T14:48:05.999Z</time></trkpt><trkpt lat="45.83191207532005" lon="11.871763148377008"><ele>222.0</ele><time>2026-04-12T14:48:06.999Z</time></trkpt><trkpt lat="45.83179138735456" lon="11.87154367598448"><ele>224.0</ele><time>2026-04-12T14:48:07.999Z</time></trkpt><trkpt lat="45.831676508138635" lon="11.871324258893043"><ele>226.0</ele><time>2026-04-12T14:48:08.999Z</time></trkpt><trkpt lat="45.83156552032082" lon="11.8710993554388"><ele>228.0</ele><time>2026-04-12T14:48:09.998Z</time></trkpt><trkpt lat="45.83144884140774" lon="11.87087936766163"><ele>229.66666666666669</ele><time>2026-04-12T14:48:10.998Z</time></trkpt><trkpt lat="45.8313320105629" lon="11.870658817612185"><ele>231.33333333333334</ele><time>2026-04-12T14:48:11.998Z</time></trkpt><trkpt lat="45.83121676632092" lon="11.87043361123185"><ele>233.0</ele><time>2026-04-12T14:48:12.998Z</time></trkpt><trkpt lat="45.83110311066815" lon="11.87021643213947"><ele>233.66666666666669</ele><time>2026-04-12T14:48:13.998Z</time></trkpt><trkpt lat="45.8309853647958" lon="11.869987116722132"><ele>234.33333333333331</ele><time>2026-04-12T14:48:15Z</time></trkpt><trkpt lat="45.830867459260546" lon="11.869763996366665"><ele>235.0</ele><time>2026-04-12T14:48:16Z</time></trkpt><trkpt lat="45.830757655691094" lon="11.869532644401954"><ele>236.0</ele><time>2026-04-12T14:48:17Z</time></trkpt><trkpt lat="45.830666450758194" lon="11.869275905445607"><ele>237.0</ele><time>2026-04-12T14:48:18Z</time></trkpt><trkpt lat="45.8305949869523" lon="11.869012351337076"><ele>238.0</ele><time>2026-04-12T14:48:19Z</time></trkpt><trkpt lat="45.83055073866843" lon="11.868725624837209"><ele>239.0</ele><time>2026-04-12T14:48:20Z</time></trkpt><trkpt lat="45.830513788893775" lon="11.868438694864599"><ele>240.0</ele><time>2026-04-12T14:48:21Z</time></trkpt><trkpt lat="45.830485400429104" lon="11.86815349288205"><ele>241.0</ele><time>2026-04-12T14:48:22Z</time></trkpt><trkpt lat="45.830455686184806" lon="11.867864679466676"><ele>242.0</ele><time>2026-04-12T14:48:23Z</time></trkpt><trkpt lat="45.830427871248894" lon="11.867577225745785"><ele>243.0</ele><time>2026-04-12T14:48:24Z</time></trkpt><trkpt lat="45.83039677365454" lon="11.867291646734037"><ele>244.0</ele><time>2026-04-12T14:48:25Z</time></trkpt><trkpt lat="45.83036011114568" lon="11.867009090648748"><ele>245.66666666666666</ele><time>2026-04-12T14:48:26Z</time></trkpt><trkpt lat="45.8303333242935" lon="11.866718942742226"><ele>247.33333333333331</ele><time>2026-04-12T14:48:27Z</time></trkpt><trkpt lat="45.83031771810401" lon="11.866425868994828"><ele>249.0</ele><time>2026-04-12T14:48:28Z</time></trkpt><trkpt lat="45.830310400550765" lon="11.866132860653146"><ele>249.66666666666669</ele><time>2026-04-12T14:48:29Z</time></trkpt><trkpt lat="45.83030432157053" lon="11.865844581965382"><ele>250.33333333333334</ele><time>2026-04-12T14:48:30Z</time></trkpt><trkpt lat="45.83032007918206" lon="11.865555236114494"><ele>251.0</ele><time>2026-04-12T14:48:31Z</time></trkpt><trkpt lat="45.830313812064176" lon="11.865272595885559"><ele>253.33333333333334</ele><time>2026-04-12T14:48:32Z</time></trkpt><trkpt lat="45.830311294165284" lon="11.864973811354625"><ele>255.66666666666669</ele><time>2026-04-12T14:48:33Z</time></trkpt><trkpt lat="45.83031000884822" lon="11.864682742255683"><ele>258.0</ele><time>2026-04-12T14:48:34Z</time></trkpt><trkpt lat="45.83031768521532" lon="11.864389955746603"><ele>259.3333333333333</ele><time>2026-04-12T14:48:35Z</time></trkpt><trkpt lat="45.83031565138093" lon="11.864097666130611"><ele>260.66666666666663</ele><time>2026-04-12T14:48:36Z</time></trkpt><trkpt lat="45.830315958493344" lon="11.863801368069666"><ele>262.0</ele><time>2026-04-12T14:48:37Z</time></trkpt><trkpt lat="45.830320272413886" lon="11.863504080319622"><ele>264.0</ele><time>2026-04-12T14:48:38Z</time></trkpt><trkpt lat="45.830327015552726" lon="11.863208931647268"><ele>266.0</ele><time>2026-04-12T14:48:39Z</time></trkpt><trkpt lat="45.8303335300944" lon="11.86290967089627"><ele>268.0</ele><time>2026-04-12T14:48:40Z</time></trkpt><trkpt lat="45.83033664735879" lon="11.86260924136021"><ele>270.0</ele><time>2026-04-12T14:48:41Z</time></trkpt><trkpt lat="45.83034091279012" lon="11.862307295625028"><ele>272.0</ele><time>2026-04-12T14:48:42Z</time></trkpt><trkpt lat="45.830346189777295" lon="11.862016819187817"><ele>274.0</ele><time>2026-04-12T14:48:43Z</time></trkpt><trkpt lat="45.83036323642249" lon="11.86174663061861"><ele>275.0</ele><time>2026-04-12T14:48:44Z</time></trkpt><trkpt lat="45.830331941846076" lon="11.8615154886137"><ele>276.0</ele><time>2026-04-12T14:48:45Z</time></trkpt><trkpt lat="45.83027810152811" lon="11.861320913573072"><ele>277.0</ele><time>2026-04-12T14:48:46Z</time></trkpt><trkpt lat="45.83018664851915" lon="11.861148078964343"><ele>276.66666666666663</ele><time>2026-04-12T14:48:47Z</time></trkpt><trkpt lat="45.83005862555775" lon="11.860985217821197"><ele>276.3333333333333</ele><time>2026-04-12T14:48:48Z</time></trkpt><trkpt lat="45.82990439172047" lon="11.860859295747725"><ele>276.0</ele><time>2026-04-12T14:48:49Z</time></trkpt><trkpt lat="45.829732192271436" lon="11.86076472790161"><ele>277.0</ele><time>2026-04-12T14:48:50Z</time></trkpt><trkpt lat="45.829561300247256" lon="11.860660393590399"><ele>278.0</ele><time>2026-04-12T14:48:51Z</time></trkpt><trkpt lat="45.82938682598944" lon="11.860539047354429"><ele>279.0</ele><time>2026-04-12T14:48:52Z</time></trkpt><trkpt lat="45.829213306262936" lon="11.860398561911847"><ele>279.3333333333333</ele><time>2026-04-12T14:48:53Z</time></trkpt><trkpt lat="45.829055362892056" lon="11.860257358976153"><ele>279.66666666666663</ele><time>2026-04-12T14:48:54Z</time></trkpt><trkpt lat="45.828931097363615" lon="11.860093943395778"><ele>280.0</ele><time>2026-04-12T14:48:55Z</time></trkpt><trkpt lat="45.828812738427935" lon="11.859917193486355"><ele>280.4</ele><time>2026-04-12T14:48:56Z</time></trkpt><trkpt lat="45.82870977882499" lon="11.85979479088658"><ele>280.8</ele><time>2026-04-12T14:48:57Z</time></trkpt><trkpt lat="45.828638959306424" lon="11.859689694643235"><ele>281.2</ele><time>2026-04-12T14:48:58Z</time></trkpt><trkpt lat="45.828574114727495" lon="11.859604326016953"><ele>281.6</ele><time>2026-04-12T14:48:59Z</time></trkpt><trkpt lat="45.828508407112416" lon="11.859539899747112"><ele>282.0</ele><time>2026-04-12T14:49:00Z</time></trkpt><trkpt lat="45.828429932740505" lon="11.859452912364318"><ele>282.25</ele><time>2026-04-12T14:49:01Z</time></trkpt><trkpt lat="45.82834268312776" lon="11.859334493509389"><ele>282.5</ele><time>2026-04-12T14:49:02Z</time></trkpt><trkpt lat="45.82827526581595" lon="11.859195627719453"><ele>282.75</ele><time>2026-04-12T14:49:03Z</time></trkpt><trkpt lat="45.828215207046526" lon="11.859050328301398"><ele>283.0</ele><time>2026-04-12T14:49:04Z</time></trkpt><trkpt lat="45.82815908802962" lon="11.858910894678164"><ele>283.5</ele><time>2026-04-12T14:49:05Z</time></trkpt><trkpt lat="45.82810439267335" lon="11.858786036687043"><ele>284.0</ele><time>2026-04-12T14:49:05.999Z</time></trkpt><trkpt lat="45.8280646419816" lon="11.858687570749119"><ele>284.5</ele><time>2026-04-12T14:49:06.999Z</time></trkpt><trkpt lat="45.82801848807565" lon="11.858584373391633"><ele>285.0</ele><time>2026-04-12T14:49:08.999Z</time></trkpt><trkpt lat="45.82804359995631" lon="11.858300318763582"><ele>285.6</ele><time>2026-04-12T14:49:16.999Z</time></trkpt><trkpt lat="45.82806854578244" lon="11.858142335395394"><ele>286.2</ele><time>2026-04-12T14:49:18.999Z</time></trkpt><trkpt lat="45.828090915570705" lon="11.858056099805891"><ele>286.8</ele><time>2026-04-12T14:49:19.999Z</time></trkpt><trkpt lat="45.82813496532558" lon="11.857912286891612"><ele>287.4</ele><time>2026-04-12T14:49:21.999Z</time></trkpt><trkpt lat="45.828174898995506" lon="11.857783614987227"><ele>288.0</ele><time>2026-04-12T14:49:23.999Z</time></trkpt><trkpt lat="45.82821539573186" lon="11.857690205945113"><ele>288.4</ele><time>2026-04-12T14:49:24.999Z</time></trkpt><trkpt lat="45.82825912042556" lon="11.857583734202185"><ele>288.8</ele><time>2026-04-12T14:49:25.999Z</time></trkpt><trkpt lat="45.828322142348725" lon="11.85747117202287"><ele>289.2</ele><time>2026-04-12T14:49:26.999Z</time></trkpt><trkpt lat="45.828409400294824" lon="11.857353900653179"><ele>289.6</ele><time>2026-04-12T14:49:27.999Z</time></trkpt><trkpt lat="45.828514869732665" lon="11.85728124769942"><ele>290.0</ele><time>2026-04-12T14:49:28.999Z</time></trkpt><trkpt lat="45.82863665847413" lon="11.857199802389827"><ele>290.25</ele><time>2026-04-12T14:49:29.999Z</time></trkpt><trkpt lat="45.82875705989049" lon="11.857130094340768"><ele>290.5</ele><time>2026-04-12T14:49:30.999Z</time></trkpt><trkpt lat="45.82890392111571" lon="11.85704131392979"><ele>290.75</ele><time>2026-04-12T14:49:31.999Z</time></trkpt><trkpt lat="45.82904326530611" lon="11.856959432092557"><ele>291.0</ele><time>2026-04-12T14:49:32.999Z</time></trkpt><trkpt lat="45.82918680714609" lon="11.856875975450551"><ele>293.6666666666667</ele><time>2026-04-12T14:49:33.999Z</time></trkpt><trkpt lat="45.82933504199134" lon="11.856774553363708"><ele>296.33333333333337</ele><time>2026-04-12T14:49:34.999Z</time></trkpt><trkpt lat="45.8294799171801" lon="11.856651040190403"><ele>299.0</ele><time>2026-04-12T14:49:35.999Z</time></trkpt><trkpt lat="45.8296252309232" lon="11.856503280742636"><ele>299.0</ele><time>2026-04-12T14:49:36.999Z</time></trkpt><trkpt lat="45.82976885937421" lon="11.856357841452422"><ele>299.0</ele><time>2026-04-12T14:49:37.999Z</time></trkpt><trkpt lat="45.82990750768287" lon="11.856199032538365"><ele>299.0</ele><time>2026-04-12T14:49:38.999Z</time></trkpt><trkpt lat="45.83004497009763" lon="11.856015392194621"><ele>301.6666666666667</ele><time>2026-04-12T14:49:39.999Z</time></trkpt><trkpt lat="45.83020116748233" lon="11.855836995336395"><ele>304.3333333333333</ele><time>2026-04-12T14:49:40.999Z</time></trkpt><trkpt lat="45.830358826280595" lon="11.855625917671494"><ele>307.0</ele><time>2026-04-12T14:49:41.999Z</time></trkpt><trkpt lat="45.830504401503994" lon="11.855439133301909"><ele>307.0</ele><time>2026-04-12T14:49:42.999Z</time></trkpt><trkpt lat="45.83064684270384" lon="11.855262355667882"><ele>307.0</ele><time>2026-04-12T14:49:43.999Z</time></trkpt><trkpt lat="45.83078645223385" lon="11.855086656813961"><ele>307.0</ele><time>2026-04-12T14:49:44.999Z</time></trkpt><trkpt lat="45.8309360600723" lon="11.854911411826276"><ele>313.66666666666663</ele><time>2026-04-12T14:49:45.999Z</time></trkpt><trkpt lat="45.83110930486206" lon="11.854781207851504"><ele>320.3333333333333</ele><time>2026-04-12T14:49:46.999Z</time></trkpt><trkpt lat="45.83126407774608" lon="11.854658941838487"><ele>327.0</ele><time>2026-04-12T14:49:47.999Z</time></trkpt><trkpt lat="45.83142213798298" lon="11.854548825443834"><ele>327.0</ele><time>2026-04-12T14:49:48.999Z</time></trkpt><trkpt lat="45.83157952983817" lon="11.85444165658848"><ele>327.0</ele><time>2026-04-12T14:49:49.999Z</time></trkpt><trkpt lat="45.8317182445747" lon="11.854333276913744"><ele>327.0</ele><time>2026-04-12T14:49:50.999Z</time></trkpt><trkpt lat="45.83183471819439" lon="11.854274013553225"><ele>325.40000000000003</ele><time>2026-04-12T14:49:51.999Z</time></trkpt><trkpt lat="45.83194678107596" lon="11.85424306860052"><ele>323.8</ele><time>2026-04-12T14:49:52.999Z</time></trkpt><trkpt lat="45.83203853036623" lon="11.854221929759477"><ele>322.2</ele><time>2026-04-12T14:49:53.999Z</time></trkpt><trkpt lat="45.83211599894668" lon="11.854218469003259"><ele>320.6</ele><time>2026-04-12T14:49:54.999Z</time></trkpt><trkpt lat="45.8322247607578" lon="11.85421942711969"><ele>319.0</ele><time>2026-04-12T14:49:56.999Z</time></trkpt><trkpt lat="45.83218553703095" lon="11.853956004055494"><ele>319.0</ele><time>2026-04-12T14:49:57.999Z</time></trkpt><trkpt lat="45.83220680591922" lon="11.853787245266501"><ele>319.0</ele><time>2026-04-12T14:49:58.999Z</time></trkpt><trkpt lat="45.8321733682142" lon="11.853598729196554"><ele>319.0</ele><time>2026-04-12T14:49:59.999Z</time></trkpt><trkpt lat="45.832136539022486" lon="11.853400369359882"><ele>319.0</ele><time>2026-04-12T14:50:00.999Z</time></trkpt><trkpt lat="45.83212012476095" lon="11.853181237028231"><ele>317.0</ele><time>2026-04-12T14:50:01.999Z</time></trkpt><trkpt lat="45.83208150782091" lon="11.852965858912558"><ele>315.0</ele><time>2026-04-12T14:50:02.999Z</time></trkpt><trkpt lat="45.83204750313777" lon="11.852719915140646"><ele>313.0</ele><time>2026-04-12T14:50:03.999Z</time></trkpt><trkpt lat="45.8320019416654" lon="11.852468964380126"><ele>313.0</ele><time>2026-04-12T14:50:04.999Z</time></trkpt><trkpt lat="45.83196656490864" lon="11.852224259410605"><ele>313.0</ele><time>2026-04-12T14:50:05.999Z</time></trkpt><trkpt lat="45.831915809766286" lon="11.851946827639743"><ele>313.0</ele><time>2026-04-12T14:50:06.999Z</time></trkpt><trkpt lat="45.83189064992442" lon="11.851687325867346"><ele>314.0</ele><time>2026-04-12T14:50:07.999Z</time></trkpt><trkpt lat="45.83184413452016" lon="11.851386330220853"><ele>315.0</ele><time>2026-04-12T14:50:08.999Z</time></trkpt><trkpt lat="45.8317885963452" lon="11.85102707643788"><ele>318.5</ele><time>2026-04-12T14:50:09.999Z</time></trkpt><trkpt lat="45.83171617743292" lon="11.850683669333177"><ele>322.0</ele><time>2026-04-12T14:50:10.999Z</time></trkpt><trkpt lat="45.8316711227625" lon="11.85032135486953"><ele>323.3333333333333</ele><time>2026-04-12T14:50:11.999Z</time></trkpt><trkpt lat="45.83160553209322" lon="11.850010866390754"><ele>324.6666666666667</ele><time>2026-04-12T14:50:12.999Z</time></trkpt><trkpt lat="45.83156643839654" lon="11.849713267539288"><ele>326.0</ele><time>2026-04-12T14:50:13.999Z</time></trkpt><trkpt lat="45.831529534727856" lon="11.84943515181634"><ele>325.33333333333337</ele><time>2026-04-12T14:50:14.998Z</time></trkpt><trkpt lat="45.83149452682512" lon="11.849177400840478"><ele>324.6666666666667</ele><time>2026-04-12T14:50:15.998Z</time></trkpt><trkpt lat="45.831447164732324" lon="11.848927623261536"><ele>324.0</ele><time>2026-04-12T14:50:16.998Z</time></trkpt><trkpt lat="45.83141476585267" lon="11.848703416498738"><ele>324.0</ele><time>2026-04-12T14:50:17.998Z</time></trkpt><trkpt lat="45.83137902417249" lon="11.848462081031297"><ele>324.0</ele><time>2026-04-12T14:50:18.998Z</time></trkpt><trkpt lat="45.83132575212094" lon="11.848211248310054"><ele>324.0</ele><time>2026-04-12T14:50:19.998Z</time></trkpt><trkpt lat="45.8312808041292" lon="11.84795921032209"><ele>323.0</ele><time>2026-04-12T14:50:21Z</time></trkpt><trkpt lat="45.83124473393828" lon="11.847705971815206"><ele>322.0</ele><time>2026-04-12T14:50:22Z</time></trkpt><trkpt lat="45.83120965975855" lon="11.847465097489428"><ele>321.0</ele><time>2026-04-12T14:50:23Z</time></trkpt><trkpt lat="45.83116375418478" lon="11.84722814468125"><ele>321.0</ele><time>2026-04-12T14:50:24Z</time></trkpt><trkpt lat="45.831146654946956" lon="11.847010212800821"><ele>321.0</ele><time>2026-04-12T14:50:25Z</time></trkpt><trkpt lat="45.83110942261566" lon="11.84681799417767"><ele>321.0</ele><time>2026-04-12T14:50:26Z</time></trkpt><trkpt lat="45.83108255129113" lon="11.846651057137139"><ele>321.0</ele><time>2026-04-12T14:50:27Z</time></trkpt><trkpt lat="45.83105827975037" lon="11.846507646599097"><ele>321.0</ele><time>2026-04-12T14:50:28Z</time></trkpt><trkpt lat="45.831039498708726" lon="11.846385728962149"><ele>321.0</ele><time>2026-04-12T14:50:29Z</time></trkpt><trkpt lat="45.83104448109886" lon="11.846232512819249"><ele>321.0</ele><time>2026-04-12T14:50:31Z</time></trkpt><trkpt lat="45.831221280936774" lon="11.846169320588805"><ele>321.0</ele><time>2026-04-12T14:50:35Z</time></trkpt><trkpt lat="45.83130842636746" lon="11.846167786930186"><ele>321.0</ele><time>2026-04-12T14:50:36Z</time></trkpt><trkpt lat="45.831403707473996" lon="11.846167417695368"><ele>321.0</ele><time>2026-04-12T14:50:37Z</time></trkpt><trkpt lat="45.83150884957556" lon="11.84614875854176"><ele>321.0</ele><time>2026-04-12T14:50:38Z</time></trkpt><trkpt lat="45.83160395037872" lon="11.846123628885769"><ele>321.0</ele><time>2026-04-12T14:50:39Z</time></trkpt><trkpt lat="45.831686157824315" lon="11.84610010884315"><ele>321.0</ele><time>2026-04-12T14:50:40Z</time></trkpt><trkpt lat="45.83175629790397" lon="11.846086936499251"><ele>321.5</ele><time>2026-04-12T14:50:41Z</time></trkpt><trkpt lat="45.831841779516395" lon="11.846104340013495"><ele>322.0</ele><time>2026-04-12T14:50:43Z</time></trkpt><trkpt lat="45.83182764567456" lon="11.846227088914345"><ele>322.5</ele><time>2026-04-12T14:50:44Z</time></trkpt><trkpt lat="45.83185375325351" lon="11.84633384425046"><ele>323.0</ele><time>2026-04-12T14:50:45Z</time></trkpt><trkpt lat="45.83186023006084" lon="11.846427993158711"><ele>323.5</ele><time>2026-04-12T14:50:46Z</time></trkpt><trkpt lat="45.83188507016195" lon="11.846564157352617"><ele>324.0</ele><time>2026-04-12T14:50:48Z</time></trkpt><trkpt lat="45.83189340597445" lon="11.846688988893064"><ele>324.0</ele><time>2026-04-12T14:50:50Z</time></trkpt><trkpt lat="45.831900586112745" lon="11.846813924344737"><ele>322.0</ele><time>2026-04-12T14:50:53Z</time></trkpt></trkseg><trkseg><trkpt lat="45.85089044556287" lon="11.867289801988798"><ele>283.0</ele><time>2026-04-12T15:40:17Z</time></trkpt><trkpt lat="45.85091780433281" lon="11.867192082592712"><ele>283.0</ele><time>2026-04-12T15:40:21Z</time></trkpt><trkpt lat="45.85123857428583" lon="11.867221455161397"><ele>283.0</ele><time>2026-04-12T16:15:26.986Z</time></trkpt><trkpt lat="45.85107648278007" lon="11.867082757685683"><ele>282.4</ele><time>2026-04-12T16:15:58Z</time></trkpt><trkpt lat="45.85115521984813" lon="11.866916948521807"><ele>281.8</ele><time>2026-04-12T16:16:01Z</time></trkpt><trkpt lat="45.851185813565486" lon="11.866831471025222"><ele>281.2</ele><time>2026-04-12T16:16:03Z</time></trkpt><trkpt lat="45.85125647831518" lon="11.866783661306968"><ele>280.6</ele><time>2026-04-12T16:16:05Z</time></trkpt><trkpt lat="45.85134297564161" lon="11.866847897111438"><ele>280.0</ele><time>2026-04-12T16:16:08Z</time></trkpt><trkpt lat="45.85141691836031" lon="11.866973725515344"><ele>280.0</ele><time>2026-04-12T16:16:10Z</time></trkpt><trkpt lat="45.851483114743964" lon="11.867079857186075"><ele>280.0</ele><time>2026-04-12T16:16:12Z</time></trkpt><trkpt lat="45.85151651240283" lon="11.86716271757216"><ele>280.0</ele><time>2026-04-12T16:16:14Z</time></trkpt><trkpt lat="45.851548823111365" lon="11.867244117864685"><ele>280.0</ele><time>2026-04-12T16:16:16Z</time></trkpt><trkpt lat="45.85148793191937" lon="11.867284734855337"><ele>280.0</ele><time>2026-04-12T16:16:17Z</time></trkpt><trkpt lat="45.85144090786819" lon="11.867359522124387"><ele>280.0</ele><time>2026-04-12T16:16:19Z</time></trkpt><trkpt lat="45.85137487012458" lon="11.867487703897005"><ele>280.0</ele><time>2026-04-12T16:16:21Z</time></trkpt><trkpt lat="45.85133619497838" lon="11.867575625748822"><ele>280.0</ele><time>2026-04-12T16:16:22Z</time></trkpt><trkpt lat="45.85129824655888" lon="11.86765789866873"><ele>280.0</ele><time>2026-04-12T16:16:22.999Z</time></trkpt><trkpt lat="45.85126313872024" lon="11.867747469163534"><ele>280.0</ele><time>2026-04-12T16:16:23.999Z</time></trkpt><trkpt lat="45.851223944328645" lon="11.867839529563954"><ele>280.0</ele><time>2026-04-12T16:16:24.999Z</time></trkpt><trkpt lat="45.85118354617651" lon="11.86794064414235"><ele>280.0</ele><time>2026-04-12T16:16:25.999Z</time></trkpt><trkpt lat="45.851146587186044" lon="11.868022411624823"><ele>280.0</ele><time>2026-04-12T16:16:26.999Z</time></trkpt><trkpt lat="45.851117469684326" lon="11.868115012360283"><ele>279.7142857142857</ele><time>2026-04-12T16:16:27.999Z</time></trkpt><trkpt lat="45.851092172981375" lon="11.868213571524837"><ele>279.42857142857144</ele><time>2026-04-12T16:16:28.999Z</time></trkpt><trkpt lat="45.851066926842385" lon="11.868296517963921"><ele>279.1428571428571</ele><time>2026-04-12T16:16:29.999Z</time></trkpt><trkpt lat="45.85104970268464" lon="11.868394419878307"><ele>278.8571428571429</ele><time>2026-04-12T16:16:30.999Z</time></trkpt><trkpt lat="45.85102383235953" lon="11.868490826022175"><ele>278.57142857142856</ele><time>2026-04-12T16:16:31.999Z</time></trkpt><trkpt lat="45.85101023622651" lon="11.868586290151308"><ele>278.2857142857143</ele><time>2026-04-12T16:16:32.999Z</time></trkpt><trkpt lat="45.85099094874208" lon="11.868677714444356"><ele>278.0</ele><time>2026-04-12T16:16:33.999Z</time></trkpt><trkpt lat="45.85097354319998" lon="11.868774138728911"><ele>277.2</ele><time>2026-04-12T16:16:34.999Z</time></trkpt><trkpt lat="45.850954548738805" lon="11.868870069929304"><ele>276.4</ele><time>2026-04-12T16:16:35.999Z</time></trkpt><trkpt lat="45.85093437413893" lon="11.868995200019073"><ele>275.59999999999997</ele><time>2026-04-12T16:16:36.999Z</time></trkpt><trkpt lat="45.8509129386068" lon="11.869122556824907"><ele>274.8</ele><time>2026-04-12T16:16:37.999Z</time></trkpt><trkpt lat="45.850866560294904" lon="11.869260165287978"><ele>274.0</ele><time>2026-04-12T16:16:38.999Z</time></trkpt><trkpt lat="45.85081038310176" lon="11.869395043433434"><ele>273.0</ele><time>2026-04-12T16:16:39.999Z</time></trkpt><trkpt lat="45.85074174114402" lon="11.869549778780957"><ele>272.0</ele><time>2026-04-12T16:16:40.999Z</time></trkpt><trkpt lat="45.85066683519875" lon="11.869681538824832"><ele>271.0</ele><time>2026-04-12T16:16:41.999Z</time></trkpt><trkpt lat="45.85058759644224" lon="11.869809932628197"><ele>270.0</ele><time>2026-04-12T16:16:42.999Z</time></trkpt><trkpt lat="45.8504867525314" lon="11.869924690447148"><ele>270.0</ele><time>2026-04-12T16:16:43.999Z</time></trkpt><trkpt lat="45.8503852873936" lon="11.870028422407398"><ele>270.0</ele><time>2026-04-12T16:16:44.999Z</time></trkpt><trkpt lat="45.85028659838535" lon="11.870132471189303"><ele>270.0</ele><time>2026-04-12T16:16:45.999Z</time></trkpt><trkpt lat="45.85019401943369" lon="11.870234637984664"><ele>270.0</ele><time>2026-04-12T16:16:46.999Z</time></trkpt><trkpt lat="45.850099034274876" lon="11.870337016261338"><ele>269.0</ele><time>2026-04-12T16:16:47.999Z</time></trkpt><trkpt lat="45.85001023982773" lon="11.870447269777861"><ele>268.0</ele><time>2026-04-12T16:16:48.999Z</time></trkpt><trkpt lat="45.84992880662721" lon="11.870541783033762"><ele>267.0</ele><time>2026-04-12T16:16:49.999Z</time></trkpt><trkpt lat="45.849849278336954" lon="11.870627575462967"><ele>266.0</ele><time>2026-04-12T16:16:50.999Z</time></trkpt><trkpt lat="45.84977657760807" lon="11.870710624430972"><ele>265.0</ele><time>2026-04-12T16:16:51.999Z</time></trkpt><trkpt lat="45.849714680337975" lon="11.870777579927958"><ele>265.0</ele><time>2026-04-12T16:16:52.999Z</time></trkpt><trkpt lat="45.849659554713355" lon="11.870841707007093"><ele>265.0</ele><time>2026-04-12T16:16:53.999Z</time></trkpt><trkpt lat="45.849575763331856" lon="11.870933565944537"><ele>265.0</ele><time>2026-04-12T16:16:55.999Z</time></trkpt><trkpt lat="45.849532594056875" lon="11.871010083610106"><ele>265.0</ele><time>2026-04-12T16:16:58.999Z</time></trkpt><trkpt lat="45.84958035230938" lon="11.87116062141737"><ele>265.0</ele><time>2026-04-12T16:17:01.999Z</time></trkpt><trkpt lat="45.84965544482719" lon="11.871198053355323"><ele>265.0</ele><time>2026-04-12T16:17:02.999Z</time></trkpt><trkpt lat="45.849755046635536" lon="11.871273328103493"><ele>265.25</ele><time>2026-04-12T16:17:03.999Z</time></trkpt><trkpt lat="45.849837467845745" lon="11.87134991562086"><ele>265.5</ele><time>2026-04-12T16:17:04.999Z</time></trkpt><trkpt lat="45.8499407056281" lon="11.871436839916626"><ele>265.75</ele><time>2026-04-12T16:17:05.999Z</time></trkpt><trkpt lat="45.85005289050807" lon="11.871540911350689"><ele>266.0</ele><time>2026-04-12T16:17:06.999Z</time></trkpt><trkpt lat="45.85018042275662" lon="11.87166203791083"><ele>266.0</ele><time>2026-04-12T16:17:07.999Z</time></trkpt><trkpt lat="45.85029668086932" lon="11.871769852334408"><ele>266.0</ele><time>2026-04-12T16:17:08.999Z</time></trkpt><trkpt lat="45.850414820542724" lon="11.871883230178991"><ele>266.0</ele><time>2026-04-12T16:17:09.999Z</time></trkpt><trkpt lat="45.850547567957435" lon="11.872010011945433"><ele>266.0</ele><time>2026-04-12T16:17:10.999Z</time></trkpt><trkpt lat="45.8506517007452" lon="11.87217167569875"><ele>266.0</ele><time>2026-04-12T16:17:11.999Z</time></trkpt><trkpt lat="45.85075672758584" lon="11.87234701163897"><ele>266.0</ele><time>2026-04-12T16:17:12.999Z</time></trkpt><trkpt lat="45.85084767551517" lon="11.872531345801743"><ele>266.0</ele><time>2026-04-12T16:17:13.999Z</time></trkpt><trkpt lat="45.85092034138344" lon="11.872717898182888"><ele>267.0</ele><time>2026-04-12T16:17:14.999Z</time></trkpt><trkpt lat="45.850995410391896" lon="11.872895135876702"><ele>268.0</ele><time>2026-04-12T16:17:15.999Z</time></trkpt><trkpt lat="45.85106405094157" lon="11.873067390391677"><ele>269.0</ele><time>2026-04-12T16:17:16.999Z</time></trkpt><trkpt lat="45.851129019935925" lon="11.873228558472482"><ele>270.0</ele><time>2026-04-12T16:17:17.999Z</time></trkpt><trkpt lat="45.85119043541306" lon="11.873365395408507"><ele>270.0</ele><time>2026-04-12T16:17:18.999Z</time></trkpt><trkpt lat="45.85123889894933" lon="11.873491593657048"><ele>270.0</ele><time>2026-04-12T16:17:19.999Z</time></trkpt><trkpt lat="45.85126777170747" lon="11.87361224163947"><ele>270.0</ele><time>2026-04-12T16:17:20.999Z</time></trkpt><trkpt lat="45.85127646583539" lon="11.873731606801847"><ele>270.0</ele><time>2026-04-12T16:17:21.999Z</time></trkpt><trkpt lat="45.85124801268928" lon="11.87383133186315"><ele>270.0</ele><time>2026-04-12T16:17:22.999Z</time></trkpt><trkpt lat="45.85122933882997" lon="11.873922621475284"><ele>270.0</ele><time>2026-04-12T16:17:23.999Z</time></trkpt><trkpt lat="45.85142682367487" lon="11.874034595421895"><ele>270.0</ele><time>2026-04-12T16:17:25.999Z</time></trkpt><trkpt lat="45.85148555117733" lon="11.8741297469788"><ele>270.0</ele><time>2026-04-12T16:17:26.999Z</time></trkpt><trkpt lat="45.851559648911675" lon="11.87424487084945"><ele>270.0</ele><time>2026-04-12T16:17:27.999Z</time></trkpt><trkpt lat="45.851627597754344" lon="11.874390863624685"><ele>270.0</ele><time>2026-04-12T16:17:28.999Z</time></trkpt><trkpt lat="45.851699455044546" lon="11.874571907617986"><ele>270.3333333333333</ele><time>2026-04-12T16:17:29.999Z</time></trkpt><trkpt lat="45.851773783311394" lon="11.874768919443484"><ele>270.66666666666663</ele><time>2026-04-12T16:17:30.999Z</time></trkpt><trkpt lat="45.85183829926244" lon="11.87495358714916"><ele>271.0</ele><time>2026-04-12T16:17:31.999Z</time></trkpt><trkpt lat="45.85192364130174" lon="11.875138592294501"><ele>272.3333333333333</ele><time>2026-04-12T16:17:32.999Z</time></trkpt><trkpt lat="45.852002666197244" lon="11.87533693967991"><ele>273.6666666666667</ele><time>2026-04-12T16:17:33.999Z</time></trkpt><trkpt lat="45.852080603195596" lon="11.87553797567984"><ele>275.0</ele><time>2026-04-12T16:17:34.999Z</time></trkpt><trkpt lat="45.852173842503916" lon="11.875730772163408"><ele>275.0</ele><time>2026-04-12T16:17:35.999Z</time></trkpt><trkpt lat="45.85225646763619" lon="11.875933266567316"><ele>275.0</ele><time>2026-04-12T16:17:36.999Z</time></trkpt><trkpt lat="45.852335346042764" lon="11.876133077332133"><ele>275.0</ele><time>2026-04-12T16:17:37.998Z</time></trkpt><trkpt lat="45.85241805894092" lon="11.876329862145909"><ele>274.6666666666667</ele><time>2026-04-12T16:17:39Z</time></trkpt><trkpt lat="45.852497106021" lon="11.87652424041599"><ele>274.3333333333333</ele><time>2026-04-12T16:17:40Z</time></trkpt><trkpt lat="45.852580048210854" lon="11.87671551553049"><ele>274.0</ele><time>2026-04-12T16:17:41Z</time></trkpt><trkpt lat="45.85266195704437" lon="11.876911785486797"><ele>276.3333333333333</ele><time>2026-04-12T16:17:42Z</time></trkpt><trkpt lat="45.85274934998632" lon="11.877112498841631"><ele>278.6666666666667</ele><time>2026-04-12T16:17:43Z</time></trkpt><trkpt lat="45.85282951952855" lon="11.87731475195603"><ele>281.0</ele><time>2026-04-12T16:17:44Z</time></trkpt><trkpt lat="45.85291424199817" lon="11.877504267732867"><ele>280.6666666666667</ele><time>2026-04-12T16:17:45Z</time></trkpt><trkpt lat="45.8529936386757" lon="11.877694460768957"><ele>280.3333333333333</ele><time>2026-04-12T16:17:46Z</time></trkpt><trkpt lat="45.8530663948085" lon="11.877882430132281"><ele>280.0</ele><time>2026-04-12T16:17:47Z</time></trkpt><trkpt lat="45.85314721241709" lon="11.878068843741865"><ele>280.0</ele><time>2026-04-12T16:17:48Z</time></trkpt><trkpt lat="45.85322080891299" lon="11.878260591166898"><ele>280.0</ele><time>2026-04-12T16:17:49Z</time></trkpt><trkpt lat="45.85330008182298" lon="11.878447295608236"><ele>280.0</ele><time>2026-04-12T16:17:50Z</time></trkpt><trkpt lat="45.85337484540757" lon="11.878626804365103"><ele>279.75</ele><time>2026-04-12T16:17:51Z</time></trkpt><trkpt lat="45.85344199780345" lon="11.878809932920474"><ele>279.5</ele><time>2026-04-12T16:17:52Z</time></trkpt><trkpt lat="45.853519853035294" lon="11.878987992532123"><ele>279.25</ele><time>2026-04-12T16:17:53Z</time></trkpt><trkpt lat="45.85360389388977" lon="11.87916347656882"><ele>279.0</ele><time>2026-04-12T16:17:54Z</time></trkpt><trkpt lat="45.853700893909576" lon="11.879327754781563"><ele>281.0</ele><time>2026-04-12T16:17:55Z</time></trkpt><trkpt lat="45.853798951114065" lon="11.879505733699915"><ele>283.0</ele><time>2026-04-12T16:17:56Z</time></trkpt><trkpt lat="45.85390203938102" lon="11.879657255282094"><ele>285.0</ele><time>2026-04-12T16:17:57Z</time></trkpt><trkpt lat="45.85399797608172" lon="11.879818167921167"><ele>285.0</ele><time>2026-04-12T16:17:58Z</time></trkpt><trkpt lat="45.85408747210705" lon="11.879981292384285"><ele>285.0</ele><time>2026-04-12T16:17:59Z</time></trkpt><trkpt lat="45.85418008293069" lon="11.8801086667529"><ele>285.0</ele><time>2026-04-12T16:18:00Z</time></trkpt><trkpt lat="45.85425764203043" lon="11.880233649398894"><ele>285.0</ele><time>2026-04-12T16:18:01Z</time></trkpt><trkpt lat="45.85433492717069" lon="11.880356087259072"><ele>285.5</ele><time>2026-04-12T16:18:02Z</time></trkpt><trkpt lat="45.854411465026566" lon="11.880487963663345"><ele>286.0</ele><time>2026-04-12T16:18:03Z</time></trkpt><trkpt lat="45.854491971288205" lon="11.880620273469072"><ele>286.5</ele><time>2026-04-12T16:18:04Z</time></trkpt><trkpt lat="45.85456707684244" lon="11.880749906044075"><ele>287.0</ele><time>2026-04-12T16:18:05Z</time></trkpt><trkpt lat="45.854633184989446" lon="11.88088710874453"><ele>285.5</ele><time>2026-04-12T16:18:06Z</time></trkpt><trkpt lat="45.85470969042218" lon="11.881019712569664"><ele>284.0</ele><time>2026-04-12T16:18:07Z</time></trkpt><trkpt lat="45.85480494171174" lon="11.88114353236199"><ele>282.5</ele><time>2026-04-12T16:18:08Z</time></trkpt><trkpt lat="45.85490566635409" lon="11.881239619228671"><ele>281.0</ele><time>2026-04-12T16:18:09Z</time></trkpt><trkpt lat="45.85500455540732" lon="11.881360869611791"><ele>281.0</ele><time>2026-04-12T16:18:10Z</time></trkpt><trkpt lat="45.85511107627926" lon="11.881462194915764"><ele>281.0</ele><time>2026-04-12T16:18:11Z</time></trkpt><trkpt lat="45.85520372597763" lon="11.881579782466197"><ele>281.0</ele><time>2026-04-12T16:18:12Z</time></trkpt><trkpt lat="45.85530289818764" lon="11.881677452660295"><ele>281.0</ele><time>2026-04-12T16:18:13Z</time></trkpt><trkpt lat="45.8554004104457" lon="11.881749282147878"><ele>282.25</ele><time>2026-04-12T16:18:14Z</time></trkpt><trkpt lat="45.85548036859607" lon="11.881849970235042"><ele>283.5</ele><time>2026-04-12T16:18:15Z</time></trkpt><trkpt lat="45.85557362148683" lon="11.8819357441184"><ele>284.75</ele><time>2026-04-12T16:18:16Z</time></trkpt><trkpt lat="45.855676118129146" lon="11.882034067557697"><ele>286.0</ele><time>2026-04-12T16:18:17Z</time></trkpt><trkpt lat="45.855781917043224" lon="11.882137572600088"><ele>286.0</ele><time>2026-04-12T16:18:18Z</time></trkpt><trkpt lat="45.85589342016289" lon="11.882245998587615"><ele>286.0</ele><time>2026-04-12T16:18:19Z</time></trkpt><trkpt lat="45.85602100979886" lon="11.882342518445062"><ele>286.0</ele><time>2026-04-12T16:18:20Z</time></trkpt><trkpt lat="45.85616136662592" lon="11.88241094889229"><ele>286.0</ele><time>2026-04-12T16:18:21Z</time></trkpt><trkpt lat="45.856307471256436" lon="11.882462156736045"><ele>286.5</ele><time>2026-04-12T16:18:22Z</time></trkpt><trkpt lat="45.856446993229646" lon="11.882528541420296"><ele>287.0</ele><time>2026-04-12T16:18:23Z</time></trkpt><trkpt lat="45.856579525225634" lon="11.882595323571543"><ele>287.5</ele><time>2026-04-12T16:18:24Z</time></trkpt><trkpt lat="45.85670626945315" lon="11.882665662292455"><ele>288.0</ele><time>2026-04-12T16:18:25Z</time></trkpt><trkpt lat="45.85682612536804" lon="11.882723882322358"><ele>287.0</ele><time>2026-04-12T16:18:26Z</time></trkpt><trkpt lat="45.85694487226927" lon="11.882784968033102"><ele>286.0</ele><time>2026-04-12T16:18:27Z</time></trkpt><trkpt lat="45.857071096333904" lon="11.882838906822602"><ele>285.0</ele><time>2026-04-12T16:18:28Z</time></trkpt><trkpt lat="45.8571723438178" lon="11.882939275456307"><ele>284.0</ele><time>2026-04-12T16:18:28.999Z</time></trkpt><trkpt lat="45.857238697971745" lon="11.883074207130027"><ele>284.0</ele><time>2026-04-12T16:18:29.999Z</time></trkpt><trkpt lat="45.857224021810545" lon="11.883270168093993"><ele>284.0</ele><time>2026-04-12T16:18:30.999Z</time></trkpt><trkpt lat="45.85728302528668" lon="11.883471038250642"><ele>284.0</ele><time>2026-04-12T16:18:31.999Z</time></trkpt><trkpt lat="45.85726911088144" lon="11.883705200679541"><ele>282.0</ele><time>2026-04-12T16:18:32.999Z</time></trkpt><trkpt lat="45.857273817679264" lon="11.883920049683796"><ele>280.0</ele><time>2026-04-12T16:18:33.999Z</time></trkpt><trkpt lat="45.8572859185119" lon="11.8841318654054"><ele>278.0</ele><time>2026-04-12T16:18:34.999Z</time></trkpt><trkpt lat="45.8573000091154" lon="11.884338133248603"><ele>276.0</ele><time>2026-04-12T16:18:35.999Z</time></trkpt><trkpt lat="45.85731081939222" lon="11.884529248563304"><ele>274.25</ele><time>2026-04-12T16:18:36.999Z</time></trkpt><trkpt lat="45.857322682403804" lon="11.884723464697768"><ele>272.5</ele><time>2026-04-12T16:18:37.999Z</time></trkpt><trkpt lat="45.857318617748355" lon="11.884903854783145"><ele>270.75</ele><time>2026-04-12T16:18:38.999Z</time></trkpt><trkpt lat="45.857342166688646" lon="11.885071925640244"><ele>269.0</ele><time>2026-04-12T16:18:39.999Z</time></trkpt><trkpt lat="45.857404291028566" lon="11.885219702110723"><ele>267.5</ele><time>2026-04-12T16:18:40.999Z</time></trkpt><trkpt lat="45.85750504469697" lon="11.885317968121626"><ele>266.0</ele><time>2026-04-12T16:18:41.999Z</time></trkpt><trkpt lat="45.85763148061575" lon="11.885361812118878"><ele>264.5</ele><time>2026-04-12T16:18:42.999Z</time></trkpt><trkpt lat="45.8577560480631" lon="11.885344393625745"><ele>263.0</ele><time>2026-04-12T16:18:43.999Z</time></trkpt><trkpt lat="45.85786737112369" lon="11.885302436110235"><ele>263.25</ele><time>2026-04-12T16:18:44.999Z</time></trkpt><trkpt lat="45.85795537042216" lon="11.885192452490127"><ele>263.5</ele><time>2026-04-12T16:18:45.999Z</time></trkpt><trkpt lat="45.85802402580697" lon="11.885041654378332"><ele>263.75</ele><time>2026-04-12T16:18:46.999Z</time></trkpt><trkpt lat="45.858042183355664" lon="11.884870791192794"><ele>264.0</ele><time>2026-04-12T16:18:47.999Z</time></trkpt><trkpt lat="45.85803672468889" lon="11.884703256186627"><ele>264.0</ele><time>2026-04-12T16:18:48.999Z</time></trkpt><trkpt lat="45.85803083800205" lon="11.884500301254004"><ele>264.0</ele><time>2026-04-12T16:18:49.999Z</time></trkpt><trkpt lat="45.85800195159762" lon="11.88430887388632"><ele>264.0</ele><time>2026-04-12T16:18:50.999Z</time></trkpt><trkpt lat="45.85800665304492" lon="11.88405308120758"><ele>265.5</ele><time>2026-04-12T16:18:51.999Z</time></trkpt><trkpt lat="45.85808420066724" lon="11.883906370572037"><ele>267.0</ele><time>2026-04-12T16:18:52.999Z</time></trkpt><trkpt lat="45.85817644423842" lon="11.883819106052895"><ele>268.5</ele><time>2026-04-12T16:18:53.999Z</time></trkpt><trkpt lat="45.85827388062935" lon="11.883803508070159"><ele>270.0</ele><time>2026-04-12T16:18:54.999Z</time></trkpt><trkpt lat="45.85841606482553" lon="11.88390862717333"><ele>270.0</ele><time>2026-04-12T16:18:55.999Z</time></trkpt><trkpt lat="45.858480365535115" lon="11.884063908540934"><ele>270.0</ele><time>2026-04-12T16:18:56.999Z</time></trkpt><trkpt lat="45.85849022385438" lon="11.884236030757524"><ele>270.0</ele><time>2026-04-12T16:18:57.999Z</time></trkpt><trkpt lat="45.85847737331493" lon="11.884408808595506"><ele>270.0</ele><time>2026-04-12T16:18:58.999Z</time></trkpt><trkpt lat="45.85844641654164" lon="11.884643227291864"><ele>268.0</ele><time>2026-04-12T16:18:59.999Z</time></trkpt><trkpt lat="45.8584213302812" lon="11.88488371945493"><ele>266.0</ele><time>2026-04-12T16:19:00.999Z</time></trkpt><trkpt lat="45.85840931134934" lon="11.885131127706908"><ele>264.0</ele><time>2026-04-12T16:19:01.999Z</time></trkpt><trkpt lat="45.85838277720559" lon="11.885385226826076"><ele>262.0</ele><time>2026-04-12T16:19:02.999Z</time></trkpt><trkpt lat="45.85834916371253" lon="11.885672370513843"><ele>260.0</ele><time>2026-04-12T16:19:03.999Z</time></trkpt><trkpt lat="45.85831584596259" lon="11.885981725883427"><ele>258.0</ele><time>2026-04-12T16:19:04.999Z</time></trkpt><trkpt lat="45.85828799073632" lon="11.886271482685645"><ele>255.66666666666669</ele><time>2026-04-12T16:19:05.999Z</time></trkpt><trkpt lat="45.85827358618516" lon="11.886557110404942"><ele>253.33333333333334</ele><time>2026-04-12T16:19:06.999Z</time></trkpt><trkpt lat="45.85828462169338" lon="11.88682765235241"><ele>251.0</ele><time>2026-04-12T16:19:07.999Z</time></trkpt><trkpt lat="45.858321560042484" lon="11.887102409864607"><ele>249.66666666666669</ele><time>2026-04-12T16:19:08.999Z</time></trkpt><trkpt lat="45.85837035116097" lon="11.887396454518564"><ele>248.33333333333331</ele><time>2026-04-12T16:19:09.999Z</time></trkpt><trkpt lat="45.85840908792559" lon="11.88769104157205"><ele>247.0</ele><time>2026-04-12T16:19:10.999Z</time></trkpt><trkpt lat="45.858458573851976" lon="11.887981790734953"><ele>249.0</ele><time>2026-04-12T16:19:11.999Z</time></trkpt><trkpt lat="45.85850136927091" lon="11.888266565591644"><ele>251.0</ele><time>2026-04-12T16:19:12.999Z</time></trkpt><trkpt lat="45.858541582762506" lon="11.888533052828643"><ele>253.0</ele><time>2026-04-12T16:19:13.999Z</time></trkpt><trkpt lat="45.85858458140919" lon="11.888792747308901"><ele>253.0</ele><time>2026-04-12T16:19:14.999Z</time></trkpt><trkpt lat="45.858625290610846" lon="11.889032394596157"><ele>253.0</ele><time>2026-04-12T16:19:15.999Z</time></trkpt><trkpt lat="45.8586471408434" lon="11.889255702528146"><ele>253.0</ele><time>2026-04-12T16:19:16.999Z</time></trkpt><trkpt lat="45.858684079070386" lon="11.889427253149156"><ele>252.4</ele><time>2026-04-12T16:19:17.999Z</time></trkpt><trkpt lat="45.85869078369274" lon="11.889571574341703"><ele>251.8</ele><time>2026-04-12T16:19:18.999Z</time></trkpt><trkpt lat="45.858700306035786" lon="11.889681460937457"><ele>251.2</ele><time>2026-04-12T16:19:19.999Z</time></trkpt><trkpt lat="45.85869222223075" lon="11.889840303805087"><ele>250.6</ele><time>2026-04-12T16:19:21.999Z</time></trkpt><trkpt lat="45.85860978033868" lon="11.889981746061165"><ele>250.0</ele><time>2026-04-12T16:19:23.999Z</time></trkpt><trkpt lat="45.85854134132158" lon="11.890051730789203"><ele>250.2</ele><time>2026-04-12T16:19:24.999Z</time></trkpt><trkpt lat="45.858464702242394" lon="11.890111296236197"><ele>250.4</ele><time>2026-04-12T16:19:25.999Z</time></trkpt><trkpt lat="45.85837793036731" lon="11.890164490462933"><ele>250.60000000000002</ele><time>2026-04-12T16:19:26.999Z</time></trkpt><trkpt lat="45.85829998293993" lon="11.890254731659754"><ele>250.8</ele><time>2026-04-12T16:19:27.999Z</time></trkpt><trkpt lat="45.85820953786528" lon="11.890330553473788"><ele>251.0</ele><time>2026-04-12T16:19:28.999Z</time></trkpt><trkpt lat="45.858105475753796" lon="11.890424652863324"><ele>249.75</ele><time>2026-04-12T16:19:29.999Z</time></trkpt><trkpt lat="45.85799445810212" lon="11.890534151329806"><ele>248.5</ele><time>2026-04-12T16:19:30.999Z</time></trkpt><trkpt lat="45.85788563191666" lon="11.890631955503084"><ele>247.25</ele><time>2026-04-12T16:19:31.999Z</time></trkpt><trkpt lat="45.85778536499163" lon="11.890725154199812"><ele>246.0</ele><time>2026-04-12T16:19:32.999Z</time></trkpt><trkpt lat="45.857678957952814" lon="11.89082006122939"><ele>244.0</ele><time>2026-04-12T16:19:33.999Z</time></trkpt><trkpt lat="45.85756622909418" lon="11.890924739434526"><ele>242.0</ele><time>2026-04-12T16:19:34.999Z</time></trkpt><trkpt lat="45.85744925487007" lon="11.891035644658087"><ele>240.0</ele><time>2026-04-12T16:19:35.999Z</time></trkpt><trkpt lat="45.85732894556879" lon="11.89114258603243"><ele>238.0</ele><time>2026-04-12T16:19:36.999Z</time></trkpt><trkpt lat="45.85719826516598" lon="11.891234007560204"><ele>238.0</ele><time>2026-04-12T16:19:37.999Z</time></trkpt><trkpt lat="45.857073758490635" lon="11.89131813199128"><ele>238.0</ele><time>2026-04-12T16:19:38.999Z</time></trkpt><trkpt lat="45.856938508528245" lon="11.8914006016957"><ele>238.0</ele><time>2026-04-12T16:19:39.999Z</time></trkpt><trkpt lat="45.85680216519672" lon="11.89147290120731"><ele>238.0</ele><time>2026-04-12T16:19:40.999Z</time></trkpt><trkpt lat="45.85665856897315" lon="11.89153944922201"><ele>235.33333333333331</ele><time>2026-04-12T16:19:41.999Z</time></trkpt><trkpt lat="45.856515895653224" lon="11.891602198255349"><ele>232.66666666666669</ele><time>2026-04-12T16:19:42.999Z</time></trkpt><trkpt lat="45.85636552255558" lon="11.89166885801598"><ele>230.0</ele><time>2026-04-12T16:19:43.998Z</time></trkpt><trkpt lat="45.85621065256361" lon="11.891732535207476"><ele>229.66666666666669</ele><time>2026-04-12T16:19:45Z</time></trkpt><trkpt lat="45.85605810681016" lon="11.891795441247355"><ele>229.33333333333331</ele><time>2026-04-12T16:19:46Z</time></trkpt><trkpt lat="45.85591929360784" lon="11.891844576947504"><ele>229.0</ele><time>2026-04-12T16:19:47Z</time></trkpt><trkpt lat="45.85576937385806" lon="11.891886467893622"><ele>227.66666666666666</ele><time>2026-04-12T16:19:48Z</time></trkpt><trkpt lat="45.85561533807624" lon="11.89198558263641"><ele>226.33333333333331</ele><time>2026-04-12T16:19:49Z</time></trkpt><trkpt lat="45.85546437551403" lon="11.892063185011331"><ele>225.0</ele><time>2026-04-12T16:19:50Z</time></trkpt><trkpt lat="45.855318021673874" lon="11.89211213464038"><ele>225.0</ele><time>2026-04-12T16:19:51Z</time></trkpt><trkpt lat="45.85516385082236" lon="11.892175006209841"><ele>225.0</ele><time>2026-04-12T16:19:52Z</time></trkpt><trkpt lat="45.855008812750704" lon="11.892239092052751"><ele>225.0</ele><time>2026-04-12T16:19:53Z</time></trkpt><trkpt lat="45.854851889785095" lon="11.892303333996711"><ele>224.0</ele><time>2026-04-12T16:19:54Z</time></trkpt><trkpt lat="45.854698385062584" lon="11.892366226063984"><ele>223.0</ele><time>2026-04-12T16:19:55Z</time></trkpt><trkpt lat="45.854545073079194" lon="11.892428907601202"><ele>222.0</ele><time>2026-04-12T16:19:56Z</time></trkpt><trkpt lat="45.854402682793626" lon="11.892494982709195"><ele>222.33333333333331</ele><time>2026-04-12T16:19:57Z</time></trkpt><trkpt lat="45.85425104299238" lon="11.892560557421849"><ele>222.66666666666666</ele><time>2026-04-12T16:19:58Z</time></trkpt><trkpt lat="45.85409504212932" lon="11.892623483927473"><ele>223.0</ele><time>2026-04-12T16:19:59Z</time></trkpt><trkpt lat="45.85394324220177" lon="11.892693544834747"><ele>223.0</ele><time>2026-04-12T16:20:00Z</time></trkpt><trkpt lat="45.85377758690964" lon="11.892757019566073"><ele>223.0</ele><time>2026-04-12T16:20:01Z</time></trkpt><trkpt lat="45.85363365964429" lon="11.892809090126123"><ele>223.0</ele><time>2026-04-12T16:20:02Z</time></trkpt><trkpt lat="45.85355377745038" lon="11.89284008765381"><ele>223.0</ele><time>2026-04-12T16:20:03Z</time></trkpt><trkpt lat="45.85356501080055" lon="11.892970581177396"><ele>223.0</ele><time>2026-04-12T16:20:07Z</time></trkpt><trkpt lat="45.85359531741012" lon="11.893104134516983"><ele>223.0</ele><time>2026-04-12T16:20:30Z</time></trkpt><trkpt lat="45.853670865187084" lon="11.893264459371126"><ele>223.0</ele><time>2026-04-12T16:20:32Z</time></trkpt><trkpt lat="45.85370972160759" lon="11.893380220096422"><ele>223.0</ele><time>2026-04-12T16:20:33Z</time></trkpt><trkpt lat="45.853755804801644" lon="11.893493074235343"><ele>223.0</ele><time>2026-04-12T16:20:34Z</time></trkpt><trkpt lat="45.85380035889996" lon="11.893612620677011"><ele>222.4</ele><time>2026-04-12T16:20:35Z</time></trkpt><trkpt lat="45.853845712334504" lon="11.89375392209959"><ele>221.8</ele><time>2026-04-12T16:20:35.999Z</time></trkpt><trkpt lat="45.85388468729161" lon="11.893903108578902"><ele>221.2</ele><time>2026-04-12T16:20:36.999Z</time></trkpt><trkpt lat="45.853942961628206" lon="11.894033006710295"><ele>220.6</ele><time>2026-04-12T16:20:37.999Z</time></trkpt><trkpt lat="45.85399600596777" lon="11.89416360857406"><ele>220.0</ele><time>2026-04-12T16:20:38.999Z</time></trkpt><trkpt lat="45.85407315084924" lon="11.894281963913468"><ele>220.0</ele><time>2026-04-12T16:20:39.999Z</time></trkpt><trkpt lat="45.85421026478412" lon="11.894323402102163"><ele>220.0</ele><time>2026-04-12T16:20:40.999Z</time></trkpt><trkpt lat="45.85434149890268" lon="11.8943710923595"><ele>220.0</ele><time>2026-04-12T16:20:41.999Z</time></trkpt><trkpt lat="45.85446058373513" lon="11.89443110399244"><ele>220.0</ele><time>2026-04-12T16:20:42.999Z</time></trkpt><trkpt lat="45.854556155169334" lon="11.894521637827632"><ele>220.5</ele><time>2026-04-12T16:20:43.999Z</time></trkpt><trkpt lat="45.85466028244202" lon="11.894614799158278"><ele>221.0</ele><time>2026-04-12T16:20:44.999Z</time></trkpt><trkpt lat="45.85473806245102" lon="11.89473316812657"><ele>221.5</ele><time>2026-04-12T16:20:45.999Z</time></trkpt><trkpt lat="45.854818446942495" lon="11.894859169327413"><ele>222.0</ele><time>2026-04-12T16:20:46.999Z</time></trkpt><trkpt lat="45.85485836387513" lon="11.895037716822896"><ele>221.25</ele><time>2026-04-12T16:20:47.999Z</time></trkpt><trkpt lat="45.85489701161494" lon="11.89522173813052"><ele>220.5</ele><time>2026-04-12T16:20:48.999Z</time></trkpt><trkpt lat="45.85493444646751" lon="11.895398832460128"><ele>219.75</ele><time>2026-04-12T16:20:49.999Z</time></trkpt><trkpt lat="45.85496919612387" lon="11.895554303955855"><ele>219.0</ele><time>2026-04-12T16:20:50.999Z</time></trkpt><trkpt lat="45.85500037152491" lon="11.895698881758937"><ele>219.0</ele><time>2026-04-12T16:20:51.999Z</time></trkpt><trkpt lat="45.855025341103165" lon="11.895834430155599"><ele>219.0</ele><time>2026-04-12T16:20:52.999Z</time></trkpt><trkpt lat="45.855040995230304" lon="11.895944722542792"><ele>219.0</ele><time>2026-04-12T16:20:53.999Z</time></trkpt><trkpt lat="45.85504572421341" lon="11.896035951835467"><ele>219.0</ele><time>2026-04-12T16:20:54.999Z</time></trkpt><trkpt lat="45.855046395854714" lon="11.896146111409609"><ele>219.0</ele><time>2026-04-12T16:20:56.999Z</time></trkpt><trkpt lat="45.85511010888954" lon="11.896221086620267"><ele>219.0</ele><time>2026-04-12T16:21:02.999Z</time></trkpt><trkpt lat="45.85517701154397" lon="11.896210490636513"><ele>218.79999999999998</ele><time>2026-04-12T16:21:03.999Z</time></trkpt><trkpt lat="45.85530059531097" lon="11.896161776982147"><ele>218.59999999999997</ele><time>2026-04-12T16:21:05.999Z</time></trkpt><trkpt lat="45.85537116725833" lon="11.896133195501207"><ele>218.4</ele><time>2026-04-12T16:21:06.999Z</time></trkpt><trkpt lat="45.85547010225365" lon="11.896104110932686"><ele>218.2</ele><time>2026-04-12T16:21:08.999Z</time></trkpt><trkpt lat="45.855557724519336" lon="11.896127102145208"><ele>218.0</ele><time>2026-04-12T16:21:10.999Z</time></trkpt><trkpt lat="45.855611372383144" lon="11.896317135947266"><ele>218.0</ele><time>2026-04-12T16:21:12.999Z</time></trkpt><trkpt lat="45.8556393439323" lon="11.896436330036995"><ele>218.0</ele><time>2026-04-12T16:21:13.999Z</time></trkpt><trkpt lat="45.855675671839364" lon="11.896553912412784"><ele>218.0</ele><time>2026-04-12T16:21:14.999Z</time></trkpt><trkpt lat="45.855712859070664" lon="11.896673805761122"><ele>218.0</ele><time>2026-04-12T16:21:15.999Z</time></trkpt><trkpt lat="45.85575034186872" lon="11.89681796439711"><ele>218.0</ele><time>2026-04-12T16:21:16.999Z</time></trkpt><trkpt lat="45.85579886907483" lon="11.896966801321126"><ele>218.2</ele><time>2026-04-12T16:21:17.999Z</time></trkpt><trkpt lat="45.85584471200372" lon="11.897107945128967"><ele>218.4</ele><time>2026-04-12T16:21:18.999Z</time></trkpt><trkpt lat="45.85588461315385" lon="11.897249704056668"><ele>218.59999999999997</ele><time>2026-04-12T16:21:19.999Z</time></trkpt><trkpt lat="45.85592667529287" lon="11.897367221139794"><ele>218.79999999999998</ele><time>2026-04-12T16:21:20.999Z</time></trkpt><trkpt lat="45.855961673562845" lon="11.897470480387744"><ele>219.0</ele><time>2026-04-12T16:21:21.999Z</time></trkpt><trkpt lat="45.85599453701401" lon="11.89757318876124"><ele>219.0</ele><time>2026-04-12T16:21:22.999Z</time></trkpt><trkpt lat="45.85602237518581" lon="11.897666089653477"><ele>218.99999999999997</ele><time>2026-04-12T16:21:23.999Z</time></trkpt><trkpt lat="45.85606203660153" lon="11.897804503551793"><ele>218.99999999999997</ele><time>2026-04-12T16:21:25.999Z</time></trkpt><trkpt lat="45.856032332608955" lon="11.897959833252461"><ele>219.0</ele><time>2026-04-12T16:21:27.999Z</time></trkpt><trkpt lat="45.85597612347963" lon="11.898055758085508"><ele>219.0</ele><time>2026-04-12T16:21:28.999Z</time></trkpt><trkpt lat="45.85591152358635" lon="11.898153312281245"><ele>219.0</ele><time>2026-04-12T16:21:29.999Z</time></trkpt><trkpt lat="45.85585790140633" lon="11.898255146451817"><ele>218.99999999999997</ele><time>2026-04-12T16:21:30.999Z</time></trkpt><trkpt lat="45.855798632885175" lon="11.89837467833671"><ele>218.99999999999997</ele><time>2026-04-12T16:21:31.999Z</time></trkpt><trkpt lat="45.855735607259085" lon="11.89850308224226"><ele>219.0</ele><time>2026-04-12T16:21:32.999Z</time></trkpt><trkpt lat="45.855671057608795" lon="11.898621692535457"><ele>219.0</ele><time>2026-04-12T16:21:33.999Z</time></trkpt><trkpt lat="45.855614842954616" lon="11.89871888035156"><ele>219.0</ele><time>2026-04-12T16:21:34.999Z</time></trkpt><trkpt lat="45.85555772094172" lon="11.898794436243595"><ele>218.99999999999997</ele><time>2026-04-12T16:21:35.999Z</time></trkpt><trkpt lat="45.85550366464077" lon="11.898858747604859"><ele>218.99999999999997</ele><time>2026-04-12T16:21:36.999Z</time></trkpt><trkpt lat="45.85544812700349" lon="11.898906501863785"><ele>219.0</ele><time>2026-04-12T16:21:37.999Z</time></trkpt><trkpt lat="45.85548833817288" lon="11.899171807143043"><ele>219.0</ele><time>2026-04-12T16:21:39.999Z</time></trkpt><trkpt lat="45.855551517222615" lon="11.899304743276154"><ele>219.0</ele><time>2026-04-12T16:21:40.999Z</time></trkpt><trkpt lat="45.855619521641245" lon="11.899432532371792"><ele>219.0</ele><time>2026-04-12T16:21:41.999Z</time></trkpt><trkpt lat="45.85569932914864" lon="11.899550838511747"><ele>219.0</ele><time>2026-04-12T16:21:42.999Z</time></trkpt><trkpt lat="45.85579487100187" lon="11.899649528317989"><ele>219.0</ele><time>2026-04-12T16:21:43.999Z</time></trkpt><trkpt lat="45.855898354424696" lon="11.899722260155988"><ele>219.75</ele><time>2026-04-12T16:21:44.999Z</time></trkpt><trkpt lat="45.85601133075205" lon="11.89976947061231"><ele>220.5</ele><time>2026-04-12T16:21:45.999Z</time></trkpt><trkpt lat="45.85613647874396" lon="11.899813659614523"><ele>221.25</ele><time>2026-04-12T16:21:46.999Z</time></trkpt><trkpt lat="45.85627072497643" lon="11.899850589649269"><ele>222.0</ele><time>2026-04-12T16:21:47.999Z</time></trkpt><trkpt lat="45.8563679040015" lon="11.8999498509909"><ele>222.0</ele><time>2026-04-12T16:21:48.999Z</time></trkpt><trkpt lat="45.85644742344544" lon="11.900071063004603"><ele>222.0</ele><time>2026-04-12T16:21:49.998Z</time></trkpt><trkpt lat="45.85649224819925" lon="11.900233211027784"><ele>222.0</ele><time>2026-04-12T16:21:51Z</time></trkpt><trkpt lat="45.85652772338725" lon="11.900429006318612"><ele>222.0</ele><time>2026-04-12T16:21:52Z</time></trkpt><trkpt lat="45.85657330175547" lon="11.90064787692105"><ele>222.33333333333331</ele><time>2026-04-12T16:21:53Z</time></trkpt><trkpt lat="45.85659840036636" lon="11.900890659371877"><ele>222.66666666666666</ele><time>2026-04-12T16:21:54Z</time></trkpt><trkpt lat="45.85662832560437" lon="11.90114148771653"><ele>223.0</ele><time>2026-04-12T16:21:55Z</time></trkpt><trkpt lat="45.85666190357906" lon="11.901405292161682"><ele>222.0</ele><time>2026-04-12T16:21:56Z</time></trkpt><trkpt lat="45.85668978665242" lon="11.901687014831587"><ele>221.0</ele><time>2026-04-12T16:21:57Z</time></trkpt><trkpt lat="45.8567123537052" lon="11.902007010742052"><ele>220.0</ele><time>2026-04-12T16:21:58Z</time></trkpt><trkpt lat="45.856725397729036" lon="11.90236908687151"><ele>219.33333333333331</ele><time>2026-04-12T16:21:59Z</time></trkpt><trkpt lat="45.85672707202968" lon="11.90270391120061"><ele>218.66666666666669</ele><time>2026-04-12T16:22:00Z</time></trkpt><trkpt lat="45.8567206625133" lon="11.903000021035998"><ele>218.0</ele><time>2026-04-12T16:22:01Z</time></trkpt><trkpt lat="45.85671942723024" lon="11.903283814977971"><ele>218.0</ele><time>2026-04-12T16:22:02Z</time></trkpt><trkpt lat="45.85671578816681" lon="11.903552075500512"><ele>218.0</ele><time>2026-04-12T16:22:03Z</time></trkpt><trkpt lat="45.85671582555096" lon="11.903810714351366"><ele>218.0</ele><time>2026-04-12T16:22:04Z</time></trkpt><trkpt lat="45.85671666496682" lon="11.90406579719428"><ele>217.66666666666669</ele><time>2026-04-12T16:22:05Z</time></trkpt><trkpt lat="45.856721257736794" lon="11.904315587978619"><ele>217.33333333333331</ele><time>2026-04-12T16:22:06Z</time></trkpt><trkpt lat="45.85672663714589" lon="11.904567529990494"><ele>217.0</ele><time>2026-04-12T16:22:07Z</time></trkpt><trkpt lat="45.856736222595124" lon="11.904817934037881"><ele>217.0</ele><time>2026-04-12T16:22:08Z</time></trkpt><trkpt lat="45.856749041848744" lon="11.905066166686762"><ele>217.0</ele><time>2026-04-12T16:22:09Z</time></trkpt><trkpt lat="45.856751732987775" lon="11.905310955842063"><ele>217.0</ele><time>2026-04-12T16:22:10Z</time></trkpt><trkpt lat="45.85673730655484" lon="11.905536526322638"><ele>217.0</ele><time>2026-04-12T16:22:11Z</time></trkpt><trkpt lat="45.856688926515346" lon="11.9057381054002"><ele>217.0</ele><time>2026-04-12T16:22:12Z</time></trkpt><trkpt lat="45.85665244635725" lon="11.905932592811016"><ele>217.0</ele><time>2026-04-12T16:22:13Z</time></trkpt><trkpt lat="45.85660449394975" lon="11.906113385623451"><ele>217.0</ele><time>2026-04-12T16:22:14Z</time></trkpt><trkpt lat="45.856580247847646" lon="11.906289066848766"><ele>216.66666666666666</ele><time>2026-04-12T16:22:15Z</time></trkpt><trkpt lat="45.856595920025114" lon="11.906498209153654"><ele>216.33333333333331</ele><time>2026-04-12T16:22:16Z</time></trkpt><trkpt lat="45.85663411393564" lon="11.906721532109938"><ele>216.0</ele><time>2026-04-12T16:22:17Z</time></trkpt><trkpt lat="45.85669502820027" lon="11.906937257973894"><ele>216.0</ele><time>2026-04-12T16:22:18Z</time></trkpt><trkpt lat="45.85676817070383" lon="11.907143578011985"><ele>216.0</ele><time>2026-04-12T16:22:19Z</time></trkpt><trkpt lat="45.85682071246213" lon="11.90735621960693"><ele>216.0</ele><time>2026-04-12T16:22:20Z</time></trkpt><trkpt lat="45.856883299563776" lon="11.90756047437043"><ele>215.66666666666669</ele><time>2026-04-12T16:22:21Z</time></trkpt><trkpt lat="45.85694234113163" lon="11.90777502438001"><ele>215.33333333333334</ele><time>2026-04-12T16:22:22Z</time></trkpt><trkpt lat="45.85698851495163" lon="11.908005421699198"><ele>215.0</ele><time>2026-04-12T16:22:23Z</time></trkpt><trkpt lat="45.857030720459406" lon="11.908250325593396"><ele>215.0</ele><time>2026-04-12T16:22:24Z</time></trkpt><trkpt lat="45.857068927496044" lon="11.90849833049897"><ele>215.0</ele><time>2026-04-12T16:22:25Z</time></trkpt><trkpt lat="45.857117709367444" lon="11.908720674956145"><ele>215.0</ele><time>2026-04-12T16:22:26Z</time></trkpt><trkpt lat="45.857162488292694" lon="11.908956267070362"><ele>215.0</ele><time>2026-04-12T16:22:27Z</time></trkpt><trkpt lat="45.857232926380966" lon="11.90918798891814"><ele>215.0</ele><time>2026-04-12T16:22:28Z</time></trkpt><trkpt lat="45.85731730902422" lon="11.90941863995968"><ele>215.0</ele><time>2026-04-12T16:22:29Z</time></trkpt><trkpt lat="45.857410498296154" lon="11.909625057490512"><ele>215.66666666666669</ele><time>2026-04-12T16:22:30Z</time></trkpt><trkpt lat="45.857506535022736" lon="11.909815920699987"><ele>216.33333333333331</ele><time>2026-04-12T16:22:31Z</time></trkpt><trkpt lat="45.85760556912934" lon="11.91000499216832"><ele>217.0</ele><time>2026-04-12T16:22:32Z</time></trkpt><trkpt lat="45.85769953834009" lon="11.910204818042224"><ele>218.5</ele><time>2026-04-12T16:22:33Z</time></trkpt><trkpt lat="45.85778777715888" lon="11.910393394156218"><ele>220.0</ele><time>2026-04-12T16:22:34Z</time></trkpt><trkpt lat="45.8578691664435" lon="11.910566656736737"><ele>221.5</ele><time>2026-04-12T16:22:35Z</time></trkpt><trkpt lat="45.8579401180811" lon="11.910737928934136"><ele>223.0</ele><time>2026-04-12T16:22:36Z</time></trkpt><trkpt lat="45.85800793931908" lon="11.910869750399069"><ele>222.75</ele><time>2026-04-12T16:22:37Z</time></trkpt><trkpt lat="45.858090310099456" lon="11.910967947697612"><ele>222.5</ele><time>2026-04-12T16:22:38Z</time></trkpt><trkpt lat="45.85817700977357" lon="11.911072593150685"><ele>222.25</ele><time>2026-04-12T16:22:39Z</time></trkpt><trkpt lat="45.85833021418253" lon="11.911051066460768"><ele>222.0</ele><time>2026-04-12T16:22:40Z</time></trkpt><trkpt lat="45.858472484228535" lon="11.911002492437085"><ele>222.0</ele><time>2026-04-12T16:22:41Z</time></trkpt><trkpt lat="45.8586206338386" lon="11.910926869441003"><ele>222.0</ele><time>2026-04-12T16:22:42Z</time></trkpt><trkpt lat="45.85875231675502" lon="11.910872052995005"><ele>222.0</ele><time>2026-04-12T16:22:42.999Z</time></trkpt><trkpt lat="45.858880807836485" lon="11.910828073143554"><ele>222.0</ele><time>2026-04-12T16:22:43.999Z</time></trkpt><trkpt lat="45.8590118377427" lon="11.91079109611019"><ele>222.5</ele><time>2026-04-12T16:22:44.999Z</time></trkpt><trkpt lat="45.85914821643804" lon="11.910746368804304"><ele>223.0</ele><time>2026-04-12T16:22:45.999Z</time></trkpt><trkpt lat="45.85928331199618" lon="11.910697543856822"><ele>223.5</ele><time>2026-04-12T16:22:46.999Z</time></trkpt><trkpt lat="45.8594279347394" lon="11.910693403485933"><ele>224.0</ele><time>2026-04-12T16:22:47.999Z</time></trkpt><trkpt lat="45.85957588102687" lon="11.910647564632745"><ele>225.66666666666669</ele><time>2026-04-12T16:22:48.999Z</time></trkpt><trkpt lat="45.85972230360039" lon="11.910625032829266"><ele>227.33333333333331</ele><time>2026-04-12T16:22:49.999Z</time></trkpt><trkpt lat="45.859878253785205" lon="11.910601264001903"><ele>229.0</ele><time>2026-04-12T16:22:50.999Z</time></trkpt><trkpt lat="45.86003654148277" lon="11.91057081852185"><ele>230.33333333333331</ele><time>2026-04-12T16:22:51.999Z</time></trkpt><trkpt lat="45.86019630260776" lon="11.910533833351025"><ele>231.66666666666669</ele><time>2026-04-12T16:22:52.999Z</time></trkpt><trkpt lat="45.86036876820517" lon="11.910498629402104"><ele>233.0</ele><time>2026-04-12T16:22:53.999Z</time></trkpt><trkpt lat="45.860547083604295" lon="11.910459860501893"><ele>233.0</ele><time>2026-04-12T16:22:54.999Z</time></trkpt><trkpt lat="45.860735992729865" lon="11.910413817356002"><ele>233.0</ele><time>2026-04-12T16:22:55.999Z</time></trkpt><trkpt lat="45.86092016625216" lon="11.910402542027454"><ele>233.0</ele><time>2026-04-12T16:22:56.999Z</time></trkpt><trkpt lat="45.861089228941076" lon="11.910381250209186"><ele>234.33333333333334</ele><time>2026-04-12T16:22:57.999Z</time></trkpt><trkpt lat="45.861252238704786" lon="11.91036095436299"><ele>235.66666666666669</ele><time>2026-04-12T16:22:58.999Z</time></trkpt><trkpt lat="45.861407243051964" lon="11.910331748742447"><ele>237.0</ele><time>2026-04-12T16:22:59.999Z</time></trkpt><trkpt lat="45.86156782258896" lon="11.910317769646891"><ele>237.0</ele><time>2026-04-12T16:23:00.999Z</time></trkpt><trkpt lat="45.86173993544736" lon="11.910309558226405"><ele>237.0</ele><time>2026-04-12T16:23:01.999Z</time></trkpt><trkpt lat="45.861915671631465" lon="11.910300566831522"><ele>237.0</ele><time>2026-04-12T16:23:02.999Z</time></trkpt><trkpt lat="45.86209031864259" lon="11.910288741468964"><ele>238.33333333333331</ele><time>2026-04-12T16:23:03.999Z</time></trkpt><trkpt lat="45.86225303938636" lon="11.91027702099451"><ele>239.66666666666666</ele><time>2026-04-12T16:23:04.999Z</time></trkpt><trkpt lat="45.86241366840618" lon="11.910303824216433"><ele>241.0</ele><time>2026-04-12T16:23:05.999Z</time></trkpt><trkpt lat="45.86258392640131" lon="11.91032022522388"><ele>242.0</ele><time>2026-04-12T16:23:06.999Z</time></trkpt><trkpt lat="45.862750711419004" lon="11.910362786426372"><ele>243.0</ele><time>2026-04-12T16:23:07.999Z</time></trkpt><trkpt lat="45.86291797105173" lon="11.91037828966716"><ele>244.0</ele><time>2026-04-12T16:23:08.999Z</time></trkpt><trkpt lat="45.86309008401779" lon="11.910390017884929"><ele>244.0</ele><time>2026-04-12T16:23:09.999Z</time></trkpt><trkpt lat="45.86326040671409" lon="11.910388142568666"><ele>244.0</ele><time>2026-04-12T16:23:10.999Z</time></trkpt><trkpt lat="45.863419588428336" lon="11.910385644266565"><ele>244.0</ele><time>2026-04-12T16:23:11.999Z</time></trkpt><trkpt lat="45.863578531344665" lon="11.910389328712444"><ele>246.5</ele><time>2026-04-12T16:23:12.999Z</time></trkpt><trkpt lat="45.86373147332281" lon="11.910391420738888"><ele>249.0</ele><time>2026-04-12T16:23:13.999Z</time></trkpt><trkpt lat="45.86387327497451" lon="11.910386324374285"><ele>251.5</ele><time>2026-04-12T16:23:14.999Z</time></trkpt><trkpt lat="45.8640102133847" lon="11.910384761852711"><ele>254.0</ele><time>2026-04-12T16:23:15.999Z</time></trkpt><trkpt lat="45.864143713187545" lon="11.910387869796983"><ele>254.0</ele><time>2026-04-12T16:23:16.999Z</time></trkpt><trkpt lat="45.86427424202767" lon="11.910422830850534"><ele>254.0</ele><time>2026-04-12T16:23:17.999Z</time></trkpt><trkpt lat="45.864383444383954" lon="11.910531006968283"><ele>254.0</ele><time>2026-04-12T16:23:18.999Z</time></trkpt><trkpt lat="45.864492217756315" lon="11.910619204614118"><ele>254.0</ele><time>2026-04-12T16:23:19.999Z</time></trkpt><trkpt lat="45.86456649710554" lon="11.910733578417517"><ele>254.6</ele><time>2026-04-12T16:23:20.999Z</time></trkpt><trkpt lat="45.86465411926836" lon="11.910827079086147"><ele>255.2</ele><time>2026-04-12T16:23:21.999Z</time></trkpt><trkpt lat="45.864739676291215" lon="11.910925917455108"><ele>255.79999999999998</ele><time>2026-04-12T16:23:22.999Z</time></trkpt><trkpt lat="45.86481904415987" lon="11.911026203620205"><ele>256.4</ele><time>2026-04-12T16:23:23.999Z</time></trkpt><trkpt lat="45.86490691311704" lon="11.911134178922055"><ele>257.0</ele><time>2026-04-12T16:23:24.999Z</time></trkpt><trkpt lat="45.86497869306577" lon="11.911219478670004"><ele>257.4</ele><time>2026-04-12T16:23:25.999Z</time></trkpt><trkpt lat="45.86503665203404" lon="11.911289370889685"><ele>257.79999999999995</ele><time>2026-04-12T16:23:26.999Z</time></trkpt><trkpt lat="45.86513245502291" lon="11.911382210013757"><ele>258.2</ele><time>2026-04-12T16:23:28.999Z</time></trkpt><trkpt lat="45.86521502903179" lon="11.911462433076977"><ele>258.59999999999997</ele><time>2026-04-12T16:23:30.999Z</time></trkpt><trkpt lat="45.86525403569722" lon="11.911666521142502"><ele>259.0</ele><time>2026-04-12T16:23:32.999Z</time></trkpt><trkpt lat="45.8652539177503" lon="11.911829417471042"><ele>259.5</ele><time>2026-04-12T16:23:33.999Z</time></trkpt><trkpt lat="45.865259142541625" lon="11.912016472604662"><ele>260.0</ele><time>2026-04-12T16:23:34.999Z</time></trkpt><trkpt lat="45.86527206036465" lon="11.912227144436066"><ele>260.5</ele><time>2026-04-12T16:23:35.999Z</time></trkpt><trkpt lat="45.86527941843098" lon="11.912434650253042"><ele>261.0</ele><time>2026-04-12T16:23:36.999Z</time></trkpt><trkpt lat="45.86529204002833" lon="11.912638521027132"><ele>261.3333333333333</ele><time>2026-04-12T16:23:37.999Z</time></trkpt><trkpt lat="45.865291963264504" lon="11.912852242673265"><ele>261.66666666666663</ele><time>2026-04-12T16:23:38.999Z</time></trkpt><trkpt lat="45.86530753196186" lon="11.913076421596777"><ele>262.0</ele><time>2026-04-12T16:23:39.999Z</time></trkpt><trkpt lat="45.86532096467315" lon="11.913294288258431"><ele>261.66666666666663</ele><time>2026-04-12T16:23:40.999Z</time></trkpt><trkpt lat="45.86532687876696" lon="11.913537675614835"><ele>261.3333333333333</ele><time>2026-04-12T16:23:41.999Z</time></trkpt><trkpt lat="45.865337393396274" lon="11.913770666442735"><ele>261.0</ele><time>2026-04-12T16:23:42.999Z</time></trkpt><trkpt lat="45.86534356087632" lon="11.91399033068185"><ele>261.0</ele><time>2026-04-12T16:23:43.999Z</time></trkpt><trkpt lat="45.865347667152264" lon="11.914200773649695"><ele>261.0</ele><time>2026-04-12T16:23:44.999Z</time></trkpt><trkpt lat="45.86536356733231" lon="11.914416640409877"><ele>261.0</ele><time>2026-04-12T16:23:45.999Z</time></trkpt><trkpt lat="45.86537244656516" lon="11.914611396704945"><ele>261.0</ele><time>2026-04-12T16:23:46.999Z</time></trkpt><trkpt lat="45.86539379389877" lon="11.9148129393514"><ele>260.5</ele><time>2026-04-12T16:23:47.999Z</time></trkpt><trkpt lat="45.86541928965241" lon="11.91502480920793"><ele>260.0</ele><time>2026-04-12T16:23:48.999Z</time></trkpt><trkpt lat="45.86545889128332" lon="11.915225935183853"><ele>259.5</ele><time>2026-04-12T16:23:49.999Z</time></trkpt><trkpt lat="45.86550366767443" lon="11.915421786481616"><ele>259.0</ele><time>2026-04-12T16:23:50.999Z</time></trkpt><trkpt lat="45.865553422105506" lon="11.915627009829931"><ele>258.0</ele><time>2026-04-12T16:23:51.999Z</time></trkpt><trkpt lat="45.86560924946376" lon="11.91583312790176"><ele>257.0</ele><time>2026-04-12T16:23:52.999Z</time></trkpt><trkpt lat="45.865658588190236" lon="11.916034281843139"><ele>256.0</ele><time>2026-04-12T16:23:53.999Z</time></trkpt><trkpt lat="45.86570562199923" lon="11.91621846406692"><ele>255.0</ele><time>2026-04-12T16:23:54.999Z</time></trkpt><trkpt lat="45.86576085777044" lon="11.916373138524671"><ele>253.25</ele><time>2026-04-12T16:23:55.999Z</time></trkpt><trkpt lat="45.86586741472612" lon="11.916524568028331"><ele>251.5</ele><time>2026-04-12T16:23:57Z</time></trkpt><trkpt lat="45.86599860593095" lon="11.91660131220895"><ele>249.75</ele><time>2026-04-12T16:23:58Z</time></trkpt><trkpt lat="45.86612880022616" lon="11.916676683187923"><ele>248.0</ele><time>2026-04-12T16:23:59Z</time></trkpt><trkpt lat="45.86626140369154" lon="11.916699734382238"><ele>248.0</ele><time>2026-04-12T16:24:00Z</time></trkpt><trkpt lat="45.86642698240906" lon="11.916661548816526"><ele>248.0</ele><time>2026-04-12T16:24:01Z</time></trkpt><trkpt lat="45.86658147206942" lon="11.916635717549172"><ele>248.0</ele><time>2026-04-12T16:24:02Z</time></trkpt><trkpt lat="45.86673330920444" lon="11.916605853973339"><ele>247.60000000000002</ele><time>2026-04-12T16:24:03Z</time></trkpt><trkpt lat="45.86685827120117" lon="11.916582884921638"><ele>247.20000000000002</ele><time>2026-04-12T16:24:04Z</time></trkpt><trkpt lat="45.86694487554036" lon="11.916591752234106"><ele>246.8</ele><time>2026-04-12T16:24:05Z</time></trkpt><trkpt lat="45.86702382457088" lon="11.916653773875058"><ele>246.4</ele><time>2026-04-12T16:24:06Z</time></trkpt><trkpt lat="45.86706852958606" lon="11.91678005228287"><ele>246.0</ele><time>2026-04-12T16:24:07Z</time></trkpt><trkpt lat="45.86709829308837" lon="11.91695529513719"><ele>246.0</ele><time>2026-04-12T16:24:08Z</time></trkpt><trkpt lat="45.86717769397143" lon="11.917152301726322"><ele>246.0</ele><time>2026-04-12T16:24:09Z</time></trkpt><trkpt lat="45.86726154709746" lon="11.917324634027638"><ele>246.0</ele><time>2026-04-12T16:24:10Z</time></trkpt><trkpt lat="45.8673781060833" lon="11.917498220650035"><ele>242.75</ele><time>2026-04-12T16:24:11Z</time></trkpt><trkpt lat="45.86747910154866" lon="11.917628095220742"><ele>239.5</ele><time>2026-04-12T16:24:12Z</time></trkpt><trkpt lat="45.867592738076524" lon="11.917742840440374"><ele>236.25</ele><time>2026-04-12T16:24:13Z</time></trkpt><trkpt lat="45.8677146251884" lon="11.917801761592736"><ele>233.0</ele><time>2026-04-12T16:24:14Z</time></trkpt><trkpt lat="45.86783787581523" lon="11.917835018429908"><ele>233.0</ele><time>2026-04-12T16:24:15Z</time></trkpt><trkpt lat="45.867962144458886" lon="11.917810379779462"><ele>233.0</ele><time>2026-04-12T16:24:16Z</time></trkpt><trkpt lat="45.86809255415754" lon="11.917686649109537"><ele>233.0</ele><time>2026-04-12T16:24:17Z</time></trkpt><trkpt lat="45.86819589238685" lon="11.917547128737631"><ele>233.0</ele><time>2026-04-12T16:24:18Z</time></trkpt><trkpt lat="45.868298031105965" lon="11.917416947544462"><ele>234.75</ele><time>2026-04-12T16:24:19Z</time></trkpt><trkpt lat="45.86839195027989" lon="11.917331078921425"><ele>236.5</ele><time>2026-04-12T16:24:20Z</time></trkpt><trkpt lat="45.86851204268017" lon="11.91730260089861"><ele>238.25</ele><time>2026-04-12T16:24:21Z</time></trkpt><trkpt lat="45.86862143080918" lon="11.917350918159505"><ele>240.0</ele><time>2026-04-12T16:24:22Z</time></trkpt><trkpt lat="45.86869028442712" lon="11.917485365964692"><ele>241.5</ele><time>2026-04-12T16:24:23Z</time></trkpt><trkpt lat="45.86873787509002" lon="11.917618608895996"><ele>243.0</ele><time>2026-04-12T16:24:24Z</time></trkpt><trkpt lat="45.868771786718" lon="11.917813831231532"><ele>244.5</ele><time>2026-04-12T16:24:25Z</time></trkpt><trkpt lat="45.86872495790391" lon="11.918019300248996"><ele>246.0</ele><time>2026-04-12T16:24:26Z</time></trkpt><trkpt lat="45.86868516269371" lon="11.918264433389082"><ele>244.0</ele><time>2026-04-12T16:24:27Z</time></trkpt><trkpt lat="45.868653181438546" lon="11.918520488830849"><ele>242.0</ele><time>2026-04-12T16:24:28Z</time></trkpt><trkpt lat="45.86860864307196" lon="11.918778009553678"><ele>240.0</ele><time>2026-04-12T16:24:29Z</time></trkpt><trkpt lat="45.86855649992086" lon="11.919039706467137"><ele>240.0</ele><time>2026-04-12T16:24:30Z</time></trkpt><trkpt lat="45.86851138574677" lon="11.919337604713624"><ele>240.0</ele><time>2026-04-12T16:24:31Z</time></trkpt><trkpt lat="45.86845595432188" lon="11.91961254475179"><ele>240.0</ele><time>2026-04-12T16:24:32Z</time></trkpt><trkpt lat="45.868342661270404" lon="11.919835744189857"><ele>238.66666666666669</ele><time>2026-04-12T16:24:33Z</time></trkpt><trkpt lat="45.86820309481494" lon="11.920049209609124"><ele>237.33333333333334</ele><time>2026-04-12T16:24:34Z</time></trkpt><trkpt lat="45.86806426092699" lon="11.920265357741679"><ele>236.0</ele><time>2026-04-12T16:24:35Z</time></trkpt><trkpt lat="45.86789969686538" lon="11.920463796809788"><ele>236.0</ele><time>2026-04-12T16:24:36Z</time></trkpt><trkpt lat="45.8677463888817" lon="11.920652666538995"><ele>236.0</ele><time>2026-04-12T16:24:37Z</time></trkpt><trkpt lat="45.86760472634254" lon="11.920835250534582"><ele>236.0</ele><time>2026-04-12T16:24:38Z</time></trkpt><trkpt lat="45.86746842287971" lon="11.921006406401247"><ele>235.66666666666669</ele><time>2026-04-12T16:24:39Z</time></trkpt><trkpt lat="45.8673526846964" lon="11.921176475702612"><ele>235.33333333333331</ele><time>2026-04-12T16:24:40Z</time></trkpt><trkpt lat="45.86726540183709" lon="11.921366545742345"><ele>235.0</ele><time>2026-04-12T16:24:41Z</time></trkpt><trkpt lat="45.86721922995981" lon="11.921574043995188"><ele>234.33333333333331</ele><time>2026-04-12T16:24:42Z</time></trkpt><trkpt lat="45.867215749766196" lon="11.921785524675023"><ele>233.66666666666669</ele><time>2026-04-12T16:24:43Z</time></trkpt><trkpt lat="45.86723563101675" lon="11.922016757541954"><ele>233.0</ele><time>2026-04-12T16:24:44Z</time></trkpt><trkpt lat="45.86729827340579" lon="11.92227196666307"><ele>233.0</ele><time>2026-04-12T16:24:45Z</time></trkpt><trkpt lat="45.867375666579974" lon="11.922521842549667"><ele>233.0</ele><time>2026-04-12T16:24:46Z</time></trkpt><trkpt lat="45.86745227001905" lon="11.922764261096717"><ele>233.0</ele><time>2026-04-12T16:24:47Z</time></trkpt><trkpt lat="45.867509806616795" lon="11.923009345905221"><ele>232.5</ele><time>2026-04-12T16:24:48Z</time></trkpt><trkpt lat="45.86757681785766" lon="11.923229040078418"><ele>232.0</ele><time>2026-04-12T16:24:49Z</time></trkpt><trkpt lat="45.86763735403899" lon="11.923427505941412"><ele>231.5</ele><time>2026-04-12T16:24:50Z</time></trkpt><trkpt lat="45.86768438546484" lon="11.923601286930818"><ele>231.0</ele><time>2026-04-12T16:24:50.999Z</time></trkpt><trkpt lat="45.867701727781224" lon="11.923768822719175"><ele>232.75</ele><time>2026-04-12T16:24:51.999Z</time></trkpt><trkpt lat="45.86769122142041" lon="11.923934727305484"><ele>234.5</ele><time>2026-04-12T16:24:52.999Z</time></trkpt><trkpt lat="45.8676643509063" lon="11.924068899073392"><ele>236.25</ele><time>2026-04-12T16:24:53.999Z</time></trkpt><trkpt lat="45.867825463737745" lon="11.924215648173165"><ele>238.0</ele><time>2026-04-12T16:24:54.999Z</time></trkpt><trkpt lat="45.86789172257095" lon="11.924347749100486"><ele>238.0</ele><time>2026-04-12T16:24:55.999Z</time></trkpt><trkpt lat="45.86794196992577" lon="11.924488431654012"><ele>238.0</ele><time>2026-04-12T16:24:56.999Z</time></trkpt><trkpt lat="45.86799155460309" lon="11.924674057501555"><ele>238.0</ele><time>2026-04-12T16:24:57.999Z</time></trkpt><trkpt lat="45.8680476981368" lon="11.924884224196433"><ele>238.0</ele><time>2026-04-12T16:24:58.999Z</time></trkpt><trkpt lat="45.86810686116731" lon="11.9251056939783"><ele>236.0</ele><time>2026-04-12T16:24:59.999Z</time></trkpt><trkpt lat="45.8681689750804" lon="11.925338210178614"><ele>234.0</ele><time>2026-04-12T16:25:00.999Z</time></trkpt><trkpt lat="45.86824902391914" lon="11.925574501438447"><ele>232.0</ele><time>2026-04-12T16:25:01.999Z</time></trkpt><trkpt lat="45.86832209946192" lon="11.92583527677711"><ele>231.0</ele><time>2026-04-12T16:25:02.999Z</time></trkpt><trkpt lat="45.86840613070087" lon="11.926124992021549"><ele>230.0</ele><time>2026-04-12T16:25:03.999Z</time></trkpt><trkpt lat="45.868493150043406" lon="11.92644408703578"><ele>234.0</ele><time>2026-04-12T16:25:04.999Z</time></trkpt><trkpt lat="45.86857846779427" lon="11.926742128505467"><ele>238.0</ele><time>2026-04-12T16:25:05.999Z</time></trkpt><trkpt lat="45.86863124821589" lon="11.927055505296964"><ele>242.0</ele><time>2026-04-12T16:25:06.999Z</time></trkpt><trkpt lat="45.86866475042113" lon="11.92736150388193"><ele>242.0</ele><time>2026-04-12T16:25:07.999Z</time></trkpt><trkpt lat="45.86866098458654" lon="11.927649742203354"><ele>242.0</ele><time>2026-04-12T16:25:08.999Z</time></trkpt><trkpt lat="45.868649355122336" lon="11.927932286976139"><ele>242.0</ele><time>2026-04-12T16:25:09.999Z</time></trkpt><trkpt lat="45.868652776833855" lon="11.928183843187284"><ele>241.66666666666669</ele><time>2026-04-12T16:25:10.999Z</time></trkpt><trkpt lat="45.86868096233289" lon="11.928421104871445"><ele>241.33333333333331</ele><time>2026-04-12T16:25:11.999Z</time></trkpt><trkpt lat="45.86874266593659" lon="11.928659066989358"><ele>241.0</ele><time>2026-04-12T16:25:12.999Z</time></trkpt><trkpt lat="45.86883138654044" lon="11.928896477688722"><ele>241.0</ele><time>2026-04-12T16:25:13.999Z</time></trkpt><trkpt lat="45.868904279697276" lon="11.929145557476241"><ele>241.0</ele><time>2026-04-12T16:25:14.999Z</time></trkpt><trkpt lat="45.868980994374894" lon="11.92939719972362"><ele>241.0</ele><time>2026-04-12T16:25:15.999Z</time></trkpt><trkpt lat="45.86906488170031" lon="11.929638530258831"><ele>241.33333333333331</ele><time>2026-04-12T16:25:16.999Z</time></trkpt><trkpt lat="45.86914975582784" lon="11.929889811330648"><ele>241.66666666666669</ele><time>2026-04-12T16:25:17.999Z</time></trkpt><trkpt lat="45.86923436771335" lon="11.930131339413004"><ele>242.0</ele><time>2026-04-12T16:25:18.999Z</time></trkpt><trkpt lat="45.869311454082094" lon="11.930368105359081"><ele>242.0</ele><time>2026-04-12T16:25:19.999Z</time></trkpt><trkpt lat="45.86938507097808" lon="11.930596212491304"><ele>242.0</ele><time>2026-04-12T16:25:20.999Z</time></trkpt><trkpt lat="45.86943452173327" lon="11.930846884476951"><ele>242.0</ele><time>2026-04-12T16:25:21.999Z</time></trkpt><trkpt lat="45.86947400414635" lon="11.931090948716927"><ele>241.0</ele><time>2026-04-12T16:25:22.999Z</time></trkpt><trkpt lat="45.869474150375545" lon="11.931339499195769"><ele>240.0</ele><time>2026-04-12T16:25:23.999Z</time></trkpt><trkpt lat="45.86943651679785" lon="11.93159809423997"><ele>239.0</ele><time>2026-04-12T16:25:24.999Z</time></trkpt><trkpt lat="45.869383813718926" lon="11.931864708021001"><ele>237.66666666666669</ele><time>2026-04-12T16:25:25.999Z</time></trkpt><trkpt lat="45.86933614855714" lon="11.93214491818601"><ele>236.33333333333331</ele><time>2026-04-12T16:25:26.999Z</time></trkpt><trkpt lat="45.86928179802079" lon="11.932431418848834"><ele>235.0</ele><time>2026-04-12T16:25:27.999Z</time></trkpt><trkpt lat="45.86922884807242" lon="11.932725030726685"><ele>232.66666666666666</ele><time>2026-04-12T16:25:28.999Z</time></trkpt><trkpt lat="45.86917274955757" lon="11.933008738176913"><ele>230.33333333333331</ele><time>2026-04-12T16:25:29.999Z</time></trkpt><trkpt lat="45.86911615072884" lon="11.933289356395962"><ele>228.0</ele><time>2026-04-12T16:25:30.999Z</time></trkpt><trkpt lat="45.86906057555103" lon="11.933563464057611"><ele>226.33333333333331</ele><time>2026-04-12T16:25:31.999Z</time></trkpt><trkpt lat="45.86900887253726" lon="11.933841645327862"><ele>224.66666666666666</ele><time>2026-04-12T16:25:32.999Z</time></trkpt><trkpt lat="45.868960255407714" lon="11.934109793123067"><ele>223.0</ele><time>2026-04-12T16:25:33.999Z</time></trkpt><trkpt lat="45.8689066065177" lon="11.934388210502995"><ele>222.33333333333331</ele><time>2026-04-12T16:25:34.999Z</time></trkpt><trkpt lat="45.86886033007446" lon="11.93466425284291"><ele>221.66666666666669</ele><time>2026-04-12T16:25:35.999Z</time></trkpt><trkpt lat="45.86883096347359" lon="11.934949947207194"><ele>221.0</ele><time>2026-04-12T16:25:36.999Z</time></trkpt><trkpt lat="45.868812423809956" lon="11.93523904588714"><ele>220.0</ele><time>2026-04-12T16:25:37.999Z</time></trkpt><trkpt lat="45.86881822818069" lon="11.935534874624105"><ele>219.0</ele><time>2026-04-12T16:25:38.999Z</time></trkpt><trkpt lat="45.86884730022494" lon="11.935831950802466"><ele>218.0</ele><time>2026-04-12T16:25:39.999Z</time></trkpt><trkpt lat="45.86889915678533" lon="11.93612667189762"><ele>217.0</ele><time>2026-04-12T16:25:40.999Z</time></trkpt><trkpt lat="45.86895427248102" lon="11.93641968985676"><ele>216.0</ele><time>2026-04-12T16:25:41.999Z</time></trkpt><trkpt lat="45.8690073686308" lon="11.936720076277707"><ele>215.0</ele><time>2026-04-12T16:25:42.999Z</time></trkpt><trkpt lat="45.86905683578926" lon="11.937026514179118"><ele>214.66666666666669</ele><time>2026-04-12T16:25:43.999Z</time></trkpt><trkpt lat="45.86910833345981" lon="11.937337577349465"><ele>214.33333333333331</ele><time>2026-04-12T16:25:44.999Z</time></trkpt><trkpt lat="45.869160948923636" lon="11.937646518387583"><ele>214.0</ele><time>2026-04-12T16:25:45.999Z</time></trkpt><trkpt lat="45.86920010820965" lon="11.93794452050504"><ele>213.0</ele><time>2026-04-12T16:25:46.999Z</time></trkpt><trkpt lat="45.86925063809984" lon="11.938242221218912"><ele>212.0</ele><time>2026-04-12T16:25:47.999Z</time></trkpt><trkpt lat="45.869301631557825" lon="11.938542652979015"><ele>211.0</ele><time>2026-04-12T16:25:48.999Z</time></trkpt><trkpt lat="45.86935392682184" lon="11.938850752737098"><ele>211.0</ele><time>2026-04-12T16:25:49.999Z</time></trkpt><trkpt lat="45.8694026814712" lon="11.93914420642762"><ele>211.0</ele><time>2026-04-12T16:25:50.999Z</time></trkpt><trkpt lat="45.86944923195007" lon="11.939421860984615"><ele>211.0</ele><time>2026-04-12T16:25:51.999Z</time></trkpt><trkpt lat="45.86949293718853" lon="11.939690081380272"><ele>210.33333333333331</ele><time>2026-04-12T16:25:52.999Z</time></trkpt><trkpt lat="45.86952429405069" lon="11.939945160776524"><ele>209.66666666666669</ele><time>2026-04-12T16:25:53.999Z</time></trkpt><trkpt lat="45.86950577122777" lon="11.940191682633953"><ele>209.0</ele><time>2026-04-12T16:25:54.999Z</time></trkpt><trkpt lat="45.86944724831996" lon="11.940432427052906"><ele>209.0</ele><time>2026-04-12T16:25:55.999Z</time></trkpt><trkpt lat="45.86933995037942" lon="11.940653076763688"><ele>209.0</ele><time>2026-04-12T16:25:56.999Z</time></trkpt><trkpt lat="45.86921852957803" lon="11.940848904835544"><ele>209.0</ele><time>2026-04-12T16:25:57.999Z</time></trkpt><trkpt lat="45.86907972844324" lon="11.941069692184952"><ele>208.66666666666669</ele><time>2026-04-12T16:25:58.999Z</time></trkpt><trkpt lat="45.86895105854952" lon="11.941293385848313"><ele>208.33333333333331</ele><time>2026-04-12T16:25:59.999Z</time></trkpt><trkpt lat="45.868820395972165" lon="11.941493243569823"><ele>208.0</ele><time>2026-04-12T16:26:00.999Z</time></trkpt><trkpt lat="45.86869121240769" lon="11.941678693415517"><ele>209.0</ele><time>2026-04-12T16:26:01.999Z</time></trkpt><trkpt lat="45.86857603276729" lon="11.94185394294155"><ele>210.0</ele><time>2026-04-12T16:26:03Z</time></trkpt><trkpt lat="45.86848869849045" lon="11.942045113844744"><ele>211.0</ele><time>2026-04-12T16:26:04Z</time></trkpt><trkpt lat="45.86843678632789" lon="11.942260976516064"><ele>210.33333333333331</ele><time>2026-04-12T16:26:05Z</time></trkpt><trkpt lat="45.868414871293155" lon="11.942500666937947"><ele>209.66666666666669</ele><time>2026-04-12T16:26:06Z</time></trkpt><trkpt lat="45.86842225526221" lon="11.942750354271451"><ele>209.0</ele><time>2026-04-12T16:26:07Z</time></trkpt><trkpt lat="45.8684519480957" lon="11.943008327758944"><ele>209.0</ele><time>2026-04-12T16:26:08Z</time></trkpt><trkpt lat="45.868519179497774" lon="11.943236555863127"><ele>209.0</ele><time>2026-04-12T16:26:09Z</time></trkpt><trkpt lat="45.86861551197313" lon="11.943441910985571"><ele>209.0</ele><time>2026-04-12T16:26:10Z</time></trkpt><trkpt lat="45.86874325088513" lon="11.943631105430127"><ele>209.33333333333334</ele><time>2026-04-12T16:26:11Z</time></trkpt><trkpt lat="45.86887613554652" lon="11.943794303725962"><ele>209.66666666666669</ele><time>2026-04-12T16:26:12Z</time></trkpt><trkpt lat="45.86899167432312" lon="11.9439289440192"><ele>210.0</ele><time>2026-04-12T16:26:13Z</time></trkpt><trkpt lat="45.86908037561484" lon="11.9440815922472"><ele>210.0</ele><time>2026-04-12T16:26:14Z</time></trkpt><trkpt lat="45.86916783100771" lon="11.944205209078468"><ele>210.0</ele><time>2026-04-12T16:26:15Z</time></trkpt><trkpt lat="45.8692536340528" lon="11.944326490430482"><ele>210.0</ele><time>2026-04-12T16:26:16Z</time></trkpt><trkpt lat="45.86932088129778" lon="11.944421543489728"><ele>210.0</ele><time>2026-04-12T16:26:17Z</time></trkpt><trkpt lat="45.869398997443916" lon="11.944531960944653"><ele>210.0</ele><time>2026-04-12T16:26:18Z</time></trkpt><trkpt lat="45.8695019451982" lon="11.944678558799042"><ele>211.25</ele><time>2026-04-12T16:26:19Z</time></trkpt><trkpt lat="45.86958850365685" lon="11.944799684619646"><ele>212.5</ele><time>2026-04-12T16:26:20Z</time></trkpt><trkpt lat="45.86968469541414" lon="11.944907300507776"><ele>213.75</ele><time>2026-04-12T16:26:21Z</time></trkpt><trkpt lat="45.86976529998164" lon="11.94502112276571"><ele>215.0</ele><time>2026-04-12T16:26:22Z</time></trkpt><trkpt lat="45.86984518552448" lon="11.945130556746609"><ele>215.25</ele><time>2026-04-12T16:26:23Z</time></trkpt><trkpt lat="45.869915681261325" lon="11.945263113865376"><ele>215.5</ele><time>2026-04-12T16:26:24Z</time></trkpt><trkpt lat="45.870014106888995" lon="11.945364197467336"><ele>215.75</ele><time>2026-04-12T16:26:25Z</time></trkpt><trkpt lat="45.87010394271657" lon="11.945456436612641"><ele>216.0</ele><time>2026-04-12T16:26:26Z</time></trkpt><trkpt lat="45.87022109004929" lon="11.94550372234678"><ele>216.8</ele><time>2026-04-12T16:26:27Z</time></trkpt><trkpt lat="45.87033328145355" lon="11.945533476002154"><ele>217.60000000000002</ele><time>2026-04-12T16:26:28Z</time></trkpt><trkpt lat="45.87044336854734" lon="11.945533353578293"><ele>218.4</ele><time>2026-04-12T16:26:29Z</time></trkpt><trkpt lat="45.87054464249044" lon="11.945529950724513"><ele>219.2</ele><time>2026-04-12T16:26:30Z</time></trkpt><trkpt lat="45.87064749726014" lon="11.945520297262066"><ele>220.0</ele><time>2026-04-12T16:26:31Z</time></trkpt><trkpt lat="45.87075618554517" lon="11.945501878364183"><ele>220.0</ele><time>2026-04-12T16:26:32Z</time></trkpt><trkpt lat="45.87086628599461" lon="11.945480776046896"><ele>220.0</ele><time>2026-04-12T16:26:33Z</time></trkpt><trkpt lat="45.87097055251532" lon="11.945469785381336"><ele>220.0</ele><time>2026-04-12T16:26:34Z</time></trkpt><trkpt lat="45.87107660121772" lon="11.945464299287574"><ele>220.0</ele><time>2026-04-12T16:26:35Z</time></trkpt><trkpt lat="45.87117666314233" lon="11.945466814194095"><ele>220.0</ele><time>2026-04-12T16:26:36Z</time></trkpt><trkpt lat="45.871281752367125" lon="11.945461505099534"><ele>220.8</ele><time>2026-04-12T16:26:37Z</time></trkpt><trkpt lat="45.871374504202954" lon="11.945464486453268"><ele>221.6</ele><time>2026-04-12T16:26:38Z</time></trkpt><trkpt lat="45.87148448706347" lon="11.945464456867638"><ele>222.39999999999998</ele><time>2026-04-12T16:26:39Z</time></trkpt><trkpt lat="45.87157924922519" lon="11.945519494002154"><ele>223.2</ele><time>2026-04-12T16:26:40Z</time></trkpt><trkpt lat="45.87166989702344" lon="11.945576629550553"><ele>224.0</ele><time>2026-04-12T16:26:41Z</time></trkpt><trkpt lat="45.87177314888141" lon="11.945603226731995"><ele>224.0</ele><time>2026-04-12T16:26:42Z</time></trkpt><trkpt lat="45.87186852731184" lon="11.945692744655092"><ele>224.0</ele><time>2026-04-12T16:26:43Z</time></trkpt><trkpt lat="45.87195536016928" lon="11.94580316641053"><ele>224.0</ele><time>2026-04-12T16:26:44Z</time></trkpt><trkpt lat="45.872030061638824" lon="11.94591886775917"><ele>224.0</ele><time>2026-04-12T16:26:45Z</time></trkpt><trkpt lat="45.872101812554654" lon="11.946049944820015"><ele>224.0</ele><time>2026-04-12T16:26:46Z</time></trkpt><trkpt lat="45.87218455466078" lon="11.946150182246354"><ele>223.99999999999997</ele><time>2026-04-12T16:26:47Z</time></trkpt><trkpt lat="45.872268461516846" lon="11.946252144679809"><ele>223.99999999999997</ele><time>2026-04-12T16:26:48Z</time></trkpt><trkpt lat="45.872356438494926" lon="11.946359053039734"><ele>224.0</ele><time>2026-04-12T16:26:49Z</time></trkpt><trkpt lat="45.87243369638306" lon="11.946452935858549"><ele>224.0</ele><time>2026-04-12T16:26:50Z</time></trkpt><trkpt lat="45.872518901909665" lon="11.946526631159255"><ele>224.00000000000003</ele><time>2026-04-12T16:26:51Z</time></trkpt><trkpt lat="45.87258009266701" lon="11.946630832208573"><ele>224.0</ele><time>2026-04-12T16:26:52Z</time></trkpt><trkpt lat="45.872649729837676" lon="11.946715645707005"><ele>224.0</ele><time>2026-04-12T16:26:53Z</time></trkpt><trkpt lat="45.872707337356815" lon="11.946784703528687"><ele>224.0</ele><time>2026-04-12T16:26:54Z</time></trkpt><trkpt lat="45.87275957219994" lon="11.946847320996518"><ele>224.00000000000003</ele><time>2026-04-12T16:26:55Z</time></trkpt><trkpt lat="45.87281394630847" lon="11.94691832309742"><ele>224.0</ele><time>2026-04-12T16:26:56.999Z</time></trkpt><trkpt lat="45.872873083496394" lon="11.947026637691174"><ele>223.5</ele><time>2026-04-12T16:26:59.999Z</time></trkpt><trkpt lat="45.872937398920094" lon="11.947135015833172"><ele>223.0</ele><time>2026-04-12T16:27:01.999Z</time></trkpt><trkpt lat="45.87307913567487" lon="11.947098200095601"><ele>222.5</ele><time>2026-04-12T16:27:03.999Z</time></trkpt><trkpt lat="45.8732034711961" lon="11.947137380944536"><ele>222.0</ele><time>2026-04-12T16:27:05.999Z</time></trkpt><trkpt lat="45.873278204289804" lon="11.947179218556153"><ele>222.0</ele><time>2026-04-12T16:27:06.999Z</time></trkpt><trkpt lat="45.87335881238915" lon="11.947254175487908"><ele>222.0</ele><time>2026-04-12T16:27:07.999Z</time></trkpt><trkpt lat="45.87344687825506" lon="11.947270941850967"><ele>222.0</ele><time>2026-04-12T16:27:08.999Z</time></trkpt><trkpt lat="45.87352299195875" lon="11.947305627456378"><ele>222.0</ele><time>2026-04-12T16:27:09.999Z</time></trkpt><trkpt lat="45.87359840081529" lon="11.94733499290032"><ele>222.0</ele><time>2026-04-12T16:27:10.999Z</time></trkpt><trkpt lat="45.873677778197184" lon="11.947366089339564"><ele>222.0</ele><time>2026-04-12T16:27:11.999Z</time></trkpt><trkpt lat="45.87375007529873" lon="11.947419689276556"><ele>221.8</ele><time>2026-04-12T16:27:12.999Z</time></trkpt><trkpt lat="45.873820614856314" lon="11.947489067359099"><ele>221.6</ele><time>2026-04-12T16:27:13.999Z</time></trkpt><trkpt lat="45.87389450981819" lon="11.947572463616181"><ele>221.40000000000003</ele><time>2026-04-12T16:27:14.999Z</time></trkpt><trkpt lat="45.87394746567864" lon="11.947682525779474"><ele>221.20000000000002</ele><time>2026-04-12T16:27:15.999Z</time></trkpt><trkpt lat="45.87401624482024" lon="11.947779114700445"><ele>221.0</ele><time>2026-04-12T16:27:16.999Z</time></trkpt><trkpt lat="45.87407558838551" lon="11.947865962383466"><ele>220.8</ele><time>2026-04-12T16:27:17.999Z</time></trkpt><trkpt lat="45.874139000937475" lon="11.947974079230745"><ele>220.60000000000002</ele><time>2026-04-12T16:27:18.999Z</time></trkpt><trkpt lat="45.874186324130854" lon="11.948087866109288"><ele>220.4</ele><time>2026-04-12T16:27:19.999Z</time></trkpt><trkpt lat="45.8742434783466" lon="11.948193927898497"><ele>220.2</ele><time>2026-04-12T16:27:20.999Z</time></trkpt><trkpt lat="45.8743164788055" lon="11.948278588141322"><ele>220.0</ele><time>2026-04-12T16:27:21.999Z</time></trkpt><trkpt lat="45.87436456408973" lon="11.94838673398553"><ele>220.0</ele><time>2026-04-12T16:27:22.999Z</time></trkpt><trkpt lat="45.87442928884732" lon="11.948481792691954"><ele>220.0</ele><time>2026-04-12T16:27:23.999Z</time></trkpt><trkpt lat="45.8745003782035" lon="11.948574495400882"><ele>220.0</ele><time>2026-04-12T16:27:24.999Z</time></trkpt><trkpt lat="45.8745700329549" lon="11.94866386407425"><ele>220.0</ele><time>2026-04-12T16:27:25.999Z</time></trkpt><trkpt lat="45.87463880315093" lon="11.94874753304161"><ele>220.0</ele><time>2026-04-12T16:27:26.999Z</time></trkpt><trkpt lat="45.87470981368552" lon="11.948836479394256"><ele>219.99999999999997</ele><time>2026-04-12T16:27:27.999Z</time></trkpt><trkpt lat="45.8747718264291" lon="11.948916360805063"><ele>220.0</ele><time>2026-04-12T16:27:28.999Z</time></trkpt><trkpt lat="45.87484147951567" lon="11.949006083992812"><ele>220.0</ele><time>2026-04-12T16:27:29.999Z</time></trkpt><trkpt lat="45.87490730387554" lon="11.94909087563228"><ele>220.0</ele><time>2026-04-12T16:27:30.999Z</time></trkpt><trkpt lat="45.874971033889615" lon="11.949165179617614"><ele>219.99999999999997</ele><time>2026-04-12T16:27:31.999Z</time></trkpt><trkpt lat="45.87503763501198" lon="11.949238758378774"><ele>220.0</ele><time>2026-04-12T16:27:32.999Z</time></trkpt><trkpt lat="45.87509636255764" lon="11.94930050358638"><ele>220.8</ele><time>2026-04-12T16:27:33.999Z</time></trkpt><trkpt lat="45.87515682828164" lon="11.949360140965402"><ele>221.6</ele><time>2026-04-12T16:27:34.999Z</time></trkpt><trkpt lat="45.87523196647886" lon="11.949430738501272"><ele>222.39999999999998</ele><time>2026-04-12T16:27:35.999Z</time></trkpt><trkpt lat="45.875316116649024" lon="11.949509600176171"><ele>223.2</ele><time>2026-04-12T16:27:36.999Z</time></trkpt><trkpt lat="45.875413719182646" lon="11.949580349610487"><ele>224.0</ele><time>2026-04-12T16:27:37.999Z</time></trkpt><trkpt lat="45.87549479296885" lon="11.94966655539464"><ele>224.0</ele><time>2026-04-12T16:27:38.999Z</time></trkpt><trkpt lat="45.87558018118739" lon="11.949763570791559"><ele>223.99999999999997</ele><time>2026-04-12T16:27:39.999Z</time></trkpt><trkpt lat="45.875665759643674" lon="11.949846292027383"><ele>223.99999999999997</ele><time>2026-04-12T16:27:40.999Z</time></trkpt><trkpt lat="45.87576008079999" lon="11.949910236875011"><ele>224.0</ele><time>2026-04-12T16:27:41.999Z</time></trkpt><trkpt lat="45.87583735215656" lon="11.950000743009415"><ele>224.0</ele><time>2026-04-12T16:27:42.999Z</time></trkpt><trkpt lat="45.87591015456082" lon="11.950095017006282"><ele>223.39999999999998</ele><time>2026-04-12T16:27:43.999Z</time></trkpt><trkpt lat="45.875989245198376" lon="11.950184200954688"><ele>222.79999999999998</ele><time>2026-04-12T16:27:44.999Z</time></trkpt><trkpt lat="45.87607175833716" lon="11.95025588834816"><ele>222.20000000000002</ele><time>2026-04-12T16:27:45.999Z</time></trkpt><trkpt lat="45.87615096338175" lon="11.950317834567988"><ele>221.60000000000002</ele><time>2026-04-12T16:27:46.999Z</time></trkpt><trkpt lat="45.87621929342539" lon="11.950376119125265"><ele>221.0</ele><time>2026-04-12T16:27:47.999Z</time></trkpt><trkpt lat="45.87628901187222" lon="11.950442507764441"><ele>221.0</ele><time>2026-04-12T16:27:48.999Z</time></trkpt><trkpt lat="45.87635643715528" lon="11.950517233455468"><ele>221.00000000000003</ele><time>2026-04-12T16:27:49.999Z</time></trkpt><trkpt lat="45.876426165007146" lon="11.950614323744947"><ele>221.00000000000003</ele><time>2026-04-12T16:27:50.999Z</time></trkpt><trkpt lat="45.876504919719615" lon="11.950714694960537"><ele>221.0</ele><time>2026-04-12T16:27:51.999Z</time></trkpt><trkpt lat="45.876587715179014" lon="11.950823586534984"><ele>221.0</ele><time>2026-04-12T16:27:52.999Z</time></trkpt><trkpt lat="45.876677735869976" lon="11.950949470626306"><ele>220.75</ele><time>2026-04-12T16:27:53.999Z</time></trkpt><trkpt lat="45.87678674334635" lon="11.951066196945533"><ele>220.5</ele><time>2026-04-12T16:27:54.999Z</time></trkpt><trkpt lat="45.87687386108855" lon="11.951172507084157"><ele>220.25</ele><time>2026-04-12T16:27:55.999Z</time></trkpt><trkpt lat="45.87697935706889" lon="11.951287694899994"><ele>220.0</ele><time>2026-04-12T16:27:56.999Z</time></trkpt><trkpt lat="45.8770606555059" lon="11.951401303642873"><ele>220.0</ele><time>2026-04-12T16:27:57.999Z</time></trkpt><trkpt lat="45.87711580781434" lon="11.951518888359333"><ele>220.0</ele><time>2026-04-12T16:27:58.999Z</time></trkpt><trkpt lat="45.87717633139853" lon="11.951639508303325"><ele>220.0</ele><time>2026-04-12T16:27:59.999Z</time></trkpt><trkpt lat="45.877242699266006" lon="11.951757038429202"><ele>220.0</ele><time>2026-04-12T16:28:00.999Z</time></trkpt><trkpt lat="45.8773191701936" lon="11.951883004623566"><ele>220.0</ele><time>2026-04-12T16:28:01.999Z</time></trkpt><trkpt lat="45.877396066779895" lon="11.952001566378998"><ele>219.6</ele><time>2026-04-12T16:28:02.999Z</time></trkpt><trkpt lat="45.87747198239938" lon="11.952125158418044"><ele>219.2</ele><time>2026-04-12T16:28:03.999Z</time></trkpt><trkpt lat="45.87754023034422" lon="11.952255336816469"><ele>218.8</ele><time>2026-04-12T16:28:04.999Z</time></trkpt><trkpt lat="45.87760276967661" lon="11.952385277290315"><ele>218.4</ele><time>2026-04-12T16:28:05.999Z</time></trkpt><trkpt lat="45.87765130742862" lon="11.952512452886047"><ele>218.0</ele><time>2026-04-12T16:28:06.999Z</time></trkpt><trkpt lat="45.87767171527665" lon="11.952649619242099"><ele>218.0</ele><time>2026-04-12T16:28:07.998Z</time></trkpt><trkpt lat="45.877723933539485" lon="11.952788954020104"><ele>218.0</ele><time>2026-04-12T16:28:09Z</time></trkpt><trkpt lat="45.87774501498889" lon="11.952953108380404"><ele>218.0</ele><time>2026-04-12T16:28:10Z</time></trkpt><trkpt lat="45.877766693789" lon="11.95310437110736"><ele>218.0</ele><time>2026-04-12T16:28:11Z</time></trkpt><trkpt lat="45.87778272599061" lon="11.953234442444044"><ele>218.0</ele><time>2026-04-12T16:28:12Z</time></trkpt><trkpt lat="45.877807795134814" lon="11.953370335743788"><ele>218.00000000000003</ele><time>2026-04-12T16:28:13Z</time></trkpt><trkpt lat="45.877823995259575" lon="11.953500880867765"><ele>218.0</ele><time>2026-04-12T16:28:14Z</time></trkpt><trkpt lat="45.87783688117822" lon="11.953618861063159"><ele>218.0</ele><time>2026-04-12T16:28:15Z</time></trkpt><trkpt lat="45.87786030158751" lon="11.953734424669415"><ele>218.0</ele><time>2026-04-12T16:28:16Z</time></trkpt><trkpt lat="45.87787199535345" lon="11.95385059756203"><ele>218.00000000000003</ele><time>2026-04-12T16:28:17Z</time></trkpt><trkpt lat="45.87789008713079" lon="11.953961311227626"><ele>218.0</ele><time>2026-04-12T16:28:18Z</time></trkpt><trkpt lat="45.87790194008986" lon="11.954072667328171"><ele>218.16666666666669</ele><time>2026-04-12T16:28:19Z</time></trkpt><trkpt lat="45.87792390172441" lon="11.954204958376947"><ele>218.33333333333334</ele><time>2026-04-12T16:28:20Z</time></trkpt><trkpt lat="45.8779413951765" lon="11.95432930026421"><ele>218.5</ele><time>2026-04-12T16:28:21Z</time></trkpt><trkpt lat="45.87796369089124" lon="11.954455389892148"><ele>218.66666666666669</ele><time>2026-04-12T16:28:22Z</time></trkpt><trkpt lat="45.87798905317014" lon="11.954565815076663"><ele>218.83333333333334</ele><time>2026-04-12T16:28:23Z</time></trkpt><trkpt lat="45.878003934601466" lon="11.95467977570422"><ele>219.0</ele><time>2026-04-12T16:28:24Z</time></trkpt><trkpt lat="45.878026184896385" lon="11.954807994318392"><ele>219.0</ele><time>2026-04-12T16:28:25Z</time></trkpt><trkpt lat="45.87805033222859" lon="11.95494490195007"><ele>218.99999999999997</ele><time>2026-04-12T16:28:26Z</time></trkpt><trkpt lat="45.87806920340741" lon="11.955049774487263"><ele>218.99999999999997</ele><time>2026-04-12T16:28:27Z</time></trkpt><trkpt lat="45.87813438902194" lon="11.955197139870657"><ele>219.0</ele><time>2026-04-12T16:28:28Z</time></trkpt><trkpt lat="45.87816922648312" lon="11.955337621190088"><ele>219.0</ele><time>2026-04-12T16:28:29Z</time></trkpt><trkpt lat="45.87822479811671" lon="11.955454190260028"><ele>218.6</ele><time>2026-04-12T16:28:30Z</time></trkpt><trkpt lat="45.87826243677241" lon="11.955588942251053"><ele>218.2</ele><time>2026-04-12T16:28:31Z</time></trkpt><trkpt lat="45.878299217421244" lon="11.955691242631078"><ele>217.79999999999998</ele><time>2026-04-12T16:28:32Z</time></trkpt><trkpt lat="45.878313717933544" lon="11.955926846067314"><ele>217.39999999999998</ele><time>2026-04-12T16:28:34Z</time></trkpt><trkpt lat="45.8783432429265" lon="11.956057833453931"><ele>217.0</ele><time>2026-04-12T16:28:35Z</time></trkpt><trkpt lat="45.87834895820823" lon="11.956189183680273"><ele>216.0</ele><time>2026-04-12T16:28:36Z</time></trkpt><trkpt lat="45.87835700349833" lon="11.956337959392824"><ele>215.0</ele><time>2026-04-12T16:28:37Z</time></trkpt><trkpt lat="45.87836958242045" lon="11.956495429028633"><ele>214.0</ele><time>2026-04-12T16:28:38Z</time></trkpt><trkpt lat="45.87837919713095" lon="11.956642239835642"><ele>213.0</ele><time>2026-04-12T16:28:39Z</time></trkpt><trkpt lat="45.87838825994272" lon="11.956788315532282"><ele>212.0</ele><time>2026-04-12T16:28:40Z</time></trkpt><trkpt lat="45.878397419840816" lon="11.95693484084089"><ele>211.6</ele><time>2026-04-12T16:28:41Z</time></trkpt><trkpt lat="45.87840693732204" lon="11.957074869777017"><ele>211.2</ele><time>2026-04-12T16:28:42Z</time></trkpt><trkpt lat="45.87840373546654" lon="11.957211736185785"><ele>210.8</ele><time>2026-04-12T16:28:43Z</time></trkpt><trkpt lat="45.878388367926476" lon="11.957352333732995"><ele>210.4</ele><time>2026-04-12T16:28:44Z</time></trkpt><trkpt lat="45.87833406325805" lon="11.957474738577757"><ele>210.0</ele><time>2026-04-12T16:28:45Z</time></trkpt><trkpt lat="45.87826877664262" lon="11.9575785443294"><ele>209.8</ele><time>2026-04-12T16:28:46Z</time></trkpt><trkpt lat="45.87818296904842" lon="11.957656363408198"><ele>209.6</ele><time>2026-04-12T16:28:47Z</time></trkpt><trkpt lat="45.87808994118237" lon="11.95772989274736"><ele>209.39999999999998</ele><time>2026-04-12T16:28:48Z</time></trkpt><trkpt lat="45.87799844671452" lon="11.957811613161434"><ele>209.2</ele><time>2026-04-12T16:28:49Z</time></trkpt><trkpt lat="45.87791504550408" lon="11.95787678919402"><ele>209.0</ele><time>2026-04-12T16:28:50Z</time></trkpt><trkpt lat="45.877838316128134" lon="11.957929965208837"><ele>209.0</ele><time>2026-04-12T16:28:51Z</time></trkpt><trkpt lat="45.87776167001885" lon="11.957980210388433"><ele>209.0</ele><time>2026-04-12T16:28:52Z</time></trkpt><trkpt lat="45.877681155176646" lon="11.958033856332284"><ele>209.0</ele><time>2026-04-12T16:28:53Z</time></trkpt><trkpt lat="45.87759806535268" lon="11.958103631710111"><ele>209.0</ele><time>2026-04-12T16:28:54Z</time></trkpt><trkpt lat="45.87749561758848" lon="11.958180553468857"><ele>209.0</ele><time>2026-04-12T16:28:55Z</time></trkpt><trkpt lat="45.87738794103703" lon="11.958254330254332"><ele>208.75</ele><time>2026-04-12T16:28:56Z</time></trkpt><trkpt lat="45.87728656074727" lon="11.958344509697763"><ele>208.5</ele><time>2026-04-12T16:28:57Z</time></trkpt><trkpt lat="45.877202373781955" lon="11.958478546688479"><ele>208.25</ele><time>2026-04-12T16:28:58Z</time></trkpt><trkpt lat="45.877134858953994" lon="11.958633519488663"><ele>208.0</ele><time>2026-04-12T16:28:59Z</time></trkpt><trkpt lat="45.8771001864213" lon="11.95880527430411"><ele>207.75</ele><time>2026-04-12T16:29:00Z</time></trkpt><trkpt lat="45.8770801020104" lon="11.958998670788926"><ele>207.5</ele><time>2026-04-12T16:29:00.999Z</time></trkpt><trkpt lat="45.87711303821826" lon="11.959197225607905"><ele>207.25</ele><time>2026-04-12T16:29:01.999Z</time></trkpt><trkpt lat="45.87713482545598" lon="11.959390875424884"><ele>207.0</ele><time>2026-04-12T16:29:02.999Z</time></trkpt><trkpt lat="45.8771445757903" lon="11.95958817877754"><ele>206.75</ele><time>2026-04-12T16:29:03.999Z</time></trkpt><trkpt lat="45.8771638728966" lon="11.959764047429248"><ele>206.5</ele><time>2026-04-12T16:29:04.999Z</time></trkpt><trkpt lat="45.87717027554127" lon="11.95991767891777"><ele>206.25</ele><time>2026-04-12T16:29:05.999Z</time></trkpt><trkpt lat="45.87717842770717" lon="11.96005597364043"><ele>206.0</ele><time>2026-04-12T16:29:06.999Z</time></trkpt><trkpt lat="45.87710284081474" lon="11.960197122135664"><ele>205.5</ele><time>2026-04-12T16:29:07.999Z</time></trkpt><trkpt lat="45.87700245592617" lon="11.960314081240409"><ele>205.0</ele><time>2026-04-12T16:29:08.999Z</time></trkpt><trkpt lat="45.87687607210076" lon="11.960421565951073"><ele>204.5</ele><time>2026-04-12T16:29:09.999Z</time></trkpt><trkpt lat="45.87674336496099" lon="11.96055440007225"><ele>204.0</ele><time>2026-04-12T16:29:10.999Z</time></trkpt><trkpt lat="45.876612453931955" lon="11.96069620370444"><ele>203.33333333333331</ele><time>2026-04-12T16:29:11.999Z</time></trkpt><trkpt lat="45.876470923628496" lon="11.960845137608285"><ele>202.66666666666666</ele><time>2026-04-12T16:29:12.999Z</time></trkpt><trkpt lat="45.8763230223409" lon="11.960999291664598"><ele>202.0</ele><time>2026-04-12T16:29:13.999Z</time></trkpt><trkpt lat="45.87618108157209" lon="11.961141838601144"><ele>199.66666666666666</ele><time>2026-04-12T16:29:14.999Z</time></trkpt><trkpt lat="45.87604693777918" lon="11.961279633683276"><ele>197.33333333333331</ele><time>2026-04-12T16:29:15.999Z</time></trkpt><trkpt lat="45.875902900382364" lon="11.961415864451652"><ele>195.0</ele><time>2026-04-12T16:29:16.999Z</time></trkpt><trkpt lat="45.87577414962993" lon="11.961552203086267"><ele>195.0</ele><time>2026-04-12T16:29:17.999Z</time></trkpt><trkpt lat="45.87565873345135" lon="11.961698087202203"><ele>195.0</ele><time>2026-04-12T16:29:18.999Z</time></trkpt><trkpt lat="45.87556934423225" lon="11.961875188737691"><ele>195.0</ele><time>2026-04-12T16:29:19.999Z</time></trkpt><trkpt lat="45.875514436552905" lon="11.962092289852995"><ele>193.33333333333334</ele><time>2026-04-12T16:29:20.999Z</time></trkpt><trkpt lat="45.87548130331857" lon="11.962326897616347"><ele>191.66666666666669</ele><time>2026-04-12T16:29:21.999Z</time></trkpt><trkpt lat="45.8754573128166" lon="11.962559698472301"><ele>190.0</ele><time>2026-04-12T16:29:22.999Z</time></trkpt><trkpt lat="45.87540123086832" lon="11.962783643768256"><ele>189.25</ele><time>2026-04-12T16:29:23.999Z</time></trkpt><trkpt lat="45.875364499471154" lon="11.962997890139667"><ele>188.5</ele><time>2026-04-12T16:29:24.999Z</time></trkpt><trkpt lat="45.87534251034665" lon="11.963207496677919"><ele>187.75</ele><time>2026-04-12T16:29:25.999Z</time></trkpt><trkpt lat="45.87530913686588" lon="11.963380087366652"><ele>187.0</ele><time>2026-04-12T16:29:26.999Z</time></trkpt><trkpt lat="45.875280582567456" lon="11.963526600176385"><ele>185.6</ele><time>2026-04-12T16:29:27.999Z</time></trkpt><trkpt lat="45.87525760246753" lon="11.963649652650309"><ele>184.2</ele><time>2026-04-12T16:29:28.999Z</time></trkpt><trkpt lat="45.87524172551004" lon="11.96374709738089"><ele>182.8</ele><time>2026-04-12T16:29:29.999Z</time></trkpt><trkpt lat="45.87524716059851" lon="11.963877979762506"><ele>181.4</ele><time>2026-04-12T16:29:31.999Z</time></trkpt><trkpt lat="45.87539009883055" lon="11.963961012729444"><ele>180.0</ele><time>2026-04-12T16:29:57.999Z</time></trkpt><trkpt lat="45.87546382255437" lon="11.96391725641835"><ele>180.0</ele><time>2026-04-12T16:29:58.999Z</time></trkpt><trkpt lat="45.875549058736226" lon="11.963861562214584"><ele>180.0</ele><time>2026-04-12T16:29:59.999Z</time></trkpt><trkpt lat="45.87565810594313" lon="11.96378934332022"><ele>180.0</ele><time>2026-04-12T16:30:00.999Z</time></trkpt><trkpt lat="45.87579229308127" lon="11.963706023284162"><ele>180.0</ele><time>2026-04-12T16:30:01.999Z</time></trkpt><trkpt lat="45.87592789330381" lon="11.963625803464888"><ele>177.33333333333334</ele><time>2026-04-12T16:30:02.999Z</time></trkpt><trkpt lat="45.87607250964861" lon="11.963538829124984"><ele>174.66666666666669</ele><time>2026-04-12T16:30:03.999Z</time></trkpt><trkpt lat="45.87624478057534" lon="11.963477095525212"><ele>172.0</ele><time>2026-04-12T16:30:04.999Z</time></trkpt><trkpt lat="45.87642609855169" lon="11.963411976054815"><ele>174.33333333333334</ele><time>2026-04-12T16:30:05.999Z</time></trkpt><trkpt lat="45.87663045368387" lon="11.963349854252916"><ele>176.66666666666666</ele><time>2026-04-12T16:30:06.999Z</time></trkpt><trkpt lat="45.8768673676543" lon="11.963310672734888"><ele>179.0</ele><time>2026-04-12T16:30:07.999Z</time></trkpt><trkpt lat="45.877122265303214" lon="11.963272924997097"><ele>179.0</ele><time>2026-04-12T16:30:08.999Z</time></trkpt><trkpt lat="45.8773777348327" lon="11.963235843494836"><ele>179.0</ele><time>2026-04-12T16:30:09.999Z</time></trkpt><trkpt lat="45.87764701818973" lon="11.963190838897855"><ele>178.5</ele><time>2026-04-12T16:30:10.998Z</time></trkpt><trkpt lat="45.87792572359891" lon="11.963175394742267"><ele>178.0</ele><time>2026-04-12T16:30:11.998Z</time></trkpt><trkpt lat="45.87817997009051" lon="11.963141535967711"><ele>178.0</ele><time>2026-04-12T16:30:12.998Z</time></trkpt><trkpt lat="45.87840095182431" lon="11.963078394528063"><ele>178.0</ele><time>2026-04-12T16:30:13.998Z</time></trkpt><trkpt lat="45.87859544438916" lon="11.963034010850324"><ele>178.0</ele><time>2026-04-12T16:30:15Z</time></trkpt><trkpt lat="45.87877790761774" lon="11.96295405599413"><ele>174.66666666666669</ele><time>2026-04-12T16:30:16Z</time></trkpt><trkpt lat="45.87894539958092" lon="11.962905486133792"><ele>171.33333333333334</ele><time>2026-04-12T16:30:17Z</time></trkpt><trkpt lat="45.87911419778054" lon="11.962857815508366"><ele>168.0</ele><time>2026-04-12T16:30:18Z</time></trkpt><trkpt lat="45.87926999618964" lon="11.962799818023363"><ele>167.33333333333334</ele><time>2026-04-12T16:30:19Z</time></trkpt><trkpt lat="45.87942247366215" lon="11.962717347307738"><ele>166.66666666666669</ele><time>2026-04-12T16:30:20Z</time></trkpt><trkpt lat="45.87957047088264" lon="11.962607194562748"><ele>166.0</ele><time>2026-04-12T16:30:21Z</time></trkpt><trkpt lat="45.879683697941104" lon="11.962462069355867"><ele>167.66666666666669</ele><time>2026-04-12T16:30:22Z</time></trkpt><trkpt lat="45.879787034210416" lon="11.962303822452814"><ele>169.33333333333334</ele><time>2026-04-12T16:30:23Z</time></trkpt><trkpt lat="45.87990746790442" lon="11.96215498710058"><ele>171.0</ele><time>2026-04-12T16:30:24Z</time></trkpt><trkpt lat="45.880019232125676" lon="11.962010268667553"><ele>171.33333333333334</ele><time>2026-04-12T16:30:25Z</time></trkpt><trkpt lat="45.88013710020802" lon="11.961866389053803"><ele>171.66666666666669</ele><time>2026-04-12T16:30:26Z</time></trkpt><trkpt lat="45.880247203332885" lon="11.961717630054432"><ele>172.0</ele><time>2026-04-12T16:30:27Z</time></trkpt><trkpt lat="45.8803816529522" lon="11.961565282936776"><ele>172.0</ele><time>2026-04-12T16:30:28Z</time></trkpt><trkpt lat="45.880491881968936" lon="11.961418088954572"><ele>172.0</ele><time>2026-04-12T16:30:29Z</time></trkpt><trkpt lat="45.88061321802643" lon="11.96126349319936"><ele>172.0</ele><time>2026-04-12T16:30:30Z</time></trkpt><trkpt lat="45.880713891757175" lon="11.961104148682526"><ele>172.0</ele><time>2026-04-12T16:30:31Z</time></trkpt><trkpt lat="45.880807488346164" lon="11.960932911415393"><ele>172.0</ele><time>2026-04-12T16:30:32Z</time></trkpt><trkpt lat="45.880904220269485" lon="11.960750894253223"><ele>172.0</ele><time>2026-04-12T16:30:33Z</time></trkpt><trkpt lat="45.88099350532131" lon="11.960558763440186"><ele>170.66666666666669</ele><time>2026-04-12T16:30:34Z</time></trkpt><trkpt lat="45.88109608120174" lon="11.960374103123943"><ele>169.33333333333334</ele><time>2026-04-12T16:30:35Z</time></trkpt><trkpt lat="45.8811731785103" lon="11.96018806504393"><ele>168.0</ele><time>2026-04-12T16:30:36Z</time></trkpt><trkpt lat="45.88127434536769" lon="11.959992692881952"><ele>168.0</ele><time>2026-04-12T16:30:37Z</time></trkpt><trkpt lat="45.88136264641007" lon="11.959802562126159"><ele>168.0</ele><time>2026-04-12T16:30:38Z</time></trkpt><trkpt lat="45.88145214328931" lon="11.959604578584612"><ele>168.0</ele><time>2026-04-12T16:30:39Z</time></trkpt><trkpt lat="45.881543548817156" lon="11.959411734876245"><ele>168.0</ele><time>2026-04-12T16:30:40Z</time></trkpt><trkpt lat="45.881640309097065" lon="11.959221887919554"><ele>168.0</ele><time>2026-04-12T16:30:41Z</time></trkpt><trkpt lat="45.881740083741676" lon="11.959033744851878"><ele>168.0</ele><time>2026-04-12T16:30:42Z</time></trkpt><trkpt lat="45.88184866924128" lon="11.958837858215665"><ele>168.33333333333334</ele><time>2026-04-12T16:30:43Z</time></trkpt><trkpt lat="45.88195440048577" lon="11.958666693579625"><ele>168.66666666666669</ele><time>2026-04-12T16:30:44Z</time></trkpt><trkpt lat="45.88206362536452" lon="11.958480411635433"><ele>169.0</ele><time>2026-04-12T16:30:45Z</time></trkpt><trkpt lat="45.882167732503596" lon="11.95830396638259"><ele>169.0</ele><time>2026-04-12T16:30:46Z</time></trkpt><trkpt lat="45.88228256433802" lon="11.958132204852"><ele>169.0</ele><time>2026-04-12T16:30:47Z</time></trkpt><trkpt lat="45.882400482170794" lon="11.9579620224991"><ele>169.0</ele><time>2026-04-12T16:30:48Z</time></trkpt><trkpt lat="45.882514971281104" lon="11.957787148824753"><ele>168.66666666666669</ele><time>2026-04-12T16:30:49Z</time></trkpt><trkpt lat="45.88263903422181" lon="11.95760764023746"><ele>168.33333333333334</ele><time>2026-04-12T16:30:50Z</time></trkpt><trkpt lat="45.88275659795172" lon="11.957423359426198"><ele>168.0</ele><time>2026-04-12T16:30:51Z</time></trkpt><trkpt lat="45.88288364706985" lon="11.957232611826822"><ele>168.0</ele><time>2026-04-12T16:30:52Z</time></trkpt><trkpt lat="45.88298888922709" lon="11.957044449871328"><ele>168.0</ele><time>2026-04-12T16:30:53Z</time></trkpt><trkpt lat="45.88310383535857" lon="11.95686043437184"><ele>168.0</ele><time>2026-04-12T16:30:54Z</time></trkpt><trkpt lat="45.88320378462481" lon="11.956682807657932"><ele>167.33333333333334</ele><time>2026-04-12T16:30:55Z</time></trkpt><trkpt lat="45.88332097493608" lon="11.956502968498924"><ele>166.66666666666669</ele><time>2026-04-12T16:30:56Z</time></trkpt><trkpt lat="45.88342773588528" lon="11.956316229447147"><ele>166.0</ele><time>2026-04-12T16:30:57Z</time></trkpt><trkpt lat="45.883533932116336" lon="11.956129529475712"><ele>166.0</ele><time>2026-04-12T16:30:58Z</time></trkpt><trkpt lat="45.88364811294192" lon="11.95593941273342"><ele>166.0</ele><time>2026-04-12T16:30:59Z</time></trkpt><trkpt lat="45.883758767261156" lon="11.95575008289652"><ele>166.0</ele><time>2026-04-12T16:31:00Z</time></trkpt><trkpt lat="45.883870178293826" lon="11.955554640927245"><ele>167.0</ele><time>2026-04-12T16:31:01Z</time></trkpt><trkpt lat="45.88397870119037" lon="11.955365059374678"><ele>168.0</ele><time>2026-04-12T16:31:02Z</time></trkpt><trkpt lat="45.88409150106446" lon="11.95517104410761"><ele>169.0</ele><time>2026-04-12T16:31:03Z</time></trkpt><trkpt lat="45.8842051337576" lon="11.954979052648012"><ele>170.0</ele><time>2026-04-12T16:31:04Z</time></trkpt><trkpt lat="45.88431927115972" lon="11.954782553817255"><ele>171.0</ele><time>2026-04-12T16:31:05Z</time></trkpt><trkpt lat="45.884425572717014" lon="11.954592321879908"><ele>172.0</ele><time>2026-04-12T16:31:06Z</time></trkpt><trkpt lat="45.88452867015985" lon="11.954406137120829"><ele>172.0</ele><time>2026-04-12T16:31:06.999Z</time></trkpt><trkpt lat="45.88462065543522" lon="11.95421651504434"><ele>172.0</ele><time>2026-04-12T16:31:07.999Z</time></trkpt><trkpt lat="45.88470387530967" lon="11.9540103883907"><ele>172.0</ele><time>2026-04-12T16:31:08.999Z</time></trkpt><trkpt lat="45.88477253941984" lon="11.953790560517866"><ele>172.0</ele><time>2026-04-12T16:31:09.999Z</time></trkpt><trkpt lat="45.88482187304748" lon="11.953567871887692"><ele>172.0</ele><time>2026-04-12T16:31:10.999Z</time></trkpt><trkpt lat="45.88488294726097" lon="11.953352463429693"><ele>172.0</ele><time>2026-04-12T16:31:11.999Z</time></trkpt><trkpt lat="45.88492413752013" lon="11.953118431174055"><ele>173.66666666666669</ele><time>2026-04-12T16:31:12.999Z</time></trkpt><trkpt lat="45.884956786453415" lon="11.952874744953894"><ele>175.33333333333334</ele><time>2026-04-12T16:31:13.999Z</time></trkpt><trkpt lat="45.88498314043274" lon="11.952642626274837"><ele>177.0</ele><time>2026-04-12T16:31:14.999Z</time></trkpt><trkpt lat="45.88503738936738" lon="11.952411682390006"><ele>179.33333333333334</ele><time>2026-04-12T16:31:15.999Z</time></trkpt><trkpt lat="45.88506838023051" lon="11.952189611770496"><ele>181.66666666666669</ele><time>2026-04-12T16:31:16.999Z</time></trkpt><trkpt lat="45.88509814035795" lon="11.95195768610884"><ele>184.0</ele><time>2026-04-12T16:31:17.999Z</time></trkpt><trkpt lat="45.88514067923525" lon="11.95174172419478"><ele>178.0</ele><time>2026-04-12T16:31:18.999Z</time></trkpt><trkpt lat="45.885170083856835" lon="11.95152746692504"><ele>172.0</ele><time>2026-04-12T16:31:19.999Z</time></trkpt><trkpt lat="45.88522567004497" lon="11.9512935957281"><ele>166.0</ele><time>2026-04-12T16:31:20.999Z</time></trkpt><trkpt lat="45.88527449368966" lon="11.951067765583415"><ele>164.66666666666669</ele><time>2026-04-12T16:31:21.999Z</time></trkpt><trkpt lat="45.88531969565736" lon="11.95083094674634"><ele>163.33333333333334</ele><time>2026-04-12T16:31:22.999Z</time></trkpt><trkpt lat="45.88536671965263" lon="11.950604474184944"><ele>162.0</ele><time>2026-04-12T16:31:23.999Z</time></trkpt><trkpt lat="45.88541990016052" lon="11.950377577083591"><ele>162.0</ele><time>2026-04-12T16:31:24.999Z</time></trkpt><trkpt lat="45.885476515628625" lon="11.95015123739441"><ele>162.0</ele><time>2026-04-12T16:31:25.999Z</time></trkpt><trkpt lat="45.8855274635993" lon="11.949924970515417"><ele>162.0</ele><time>2026-04-12T16:31:26.999Z</time></trkpt><trkpt lat="45.88558019333515" lon="11.949696400825012"><ele>164.66666666666666</ele><time>2026-04-12T16:31:27.999Z</time></trkpt><trkpt lat="45.88566008468515" lon="11.949475984416322"><ele>167.33333333333331</ele><time>2026-04-12T16:31:28.999Z</time></trkpt><trkpt lat="45.885728876891" lon="11.949270751364605"><ele>170.0</ele><time>2026-04-12T16:31:29.999Z</time></trkpt><trkpt lat="45.88581531797124" lon="11.94906591891431"><ele>169.66666666666666</ele><time>2026-04-12T16:31:30.999Z</time></trkpt><trkpt lat="45.88589602132551" lon="11.948864028693214"><ele>169.33333333333334</ele><time>2026-04-12T16:31:31.999Z</time></trkpt><trkpt lat="45.88597327966817" lon="11.948656964973654"><ele>169.0</ele><time>2026-04-12T16:31:32.999Z</time></trkpt><trkpt lat="45.88606233540404" lon="11.948466099435581"><ele>169.0</ele><time>2026-04-12T16:31:33.999Z</time></trkpt><trkpt lat="45.8861523771512" lon="11.948282140087764"><ele>169.0</ele><time>2026-04-12T16:31:34.999Z</time></trkpt><trkpt lat="45.886240514842214" lon="11.948100744438896"><ele>169.0</ele><time>2026-04-12T16:31:35.999Z</time></trkpt><trkpt lat="45.88633561736766" lon="11.947930719637329"><ele>169.0</ele><time>2026-04-12T16:31:36.999Z</time></trkpt><trkpt lat="45.886429831109275" lon="11.947764641327156"><ele>169.0</ele><time>2026-04-12T16:31:37.999Z</time></trkpt><trkpt lat="45.88651863094189" lon="11.947595581200403"><ele>169.0</ele><time>2026-04-12T16:31:38.999Z</time></trkpt><trkpt lat="45.8866189453743" lon="11.947422132936607"><ele>169.33333333333334</ele><time>2026-04-12T16:31:39.999Z</time></trkpt><trkpt lat="45.886733074921295" lon="11.947268628483423"><ele>169.66666666666666</ele><time>2026-04-12T16:31:40.999Z</time></trkpt><trkpt lat="45.88688352094167" lon="11.947141274642634"><ele>170.0</ele><time>2026-04-12T16:31:41.999Z</time></trkpt><trkpt lat="45.887023699806896" lon="11.947000903110531"><ele>170.0</ele><time>2026-04-12T16:31:42.999Z</time></trkpt><trkpt lat="45.88716529697233" lon="11.946867665295155"><ele>170.0</ele><time>2026-04-12T16:31:43.999Z</time></trkpt><trkpt lat="45.887304348662006" lon="11.94674587082538"><ele>170.0</ele><time>2026-04-12T16:31:44.999Z</time></trkpt><trkpt lat="45.887433506418915" lon="11.94662193433694"><ele>170.0</ele><time>2026-04-12T16:31:45.999Z</time></trkpt><trkpt lat="45.88757159741489" lon="11.94649842693859"><ele>170.0</ele><time>2026-04-12T16:31:46.999Z</time></trkpt><trkpt lat="45.88770889125376" lon="11.94637538509614"><ele>170.0</ele><time>2026-04-12T16:31:47.999Z</time></trkpt><trkpt lat="45.8878324645372" lon="11.946251567350965"><ele>170.0</ele><time>2026-04-12T16:31:48.999Z</time></trkpt><trkpt lat="45.88796071803355" lon="11.946133252928558"><ele>170.0</ele><time>2026-04-12T16:31:49.999Z</time></trkpt><trkpt lat="45.88809020648481" lon="11.946010636096066"><ele>170.0</ele><time>2026-04-12T16:31:50.999Z</time></trkpt><trkpt lat="45.88821786490075" lon="11.94588452590477"><ele>169.66666666666666</ele><time>2026-04-12T16:31:51.999Z</time></trkpt><trkpt lat="45.8883505410348" lon="11.945763755995591"><ele>169.33333333333334</ele><time>2026-04-12T16:31:52.999Z</time></trkpt><trkpt lat="45.88848242789978" lon="11.945641633752919"><ele>169.0</ele><time>2026-04-12T16:31:53.999Z</time></trkpt><trkpt lat="45.88862572785718" lon="11.945532824850169"><ele>169.0</ele><time>2026-04-12T16:31:54.999Z</time></trkpt><trkpt lat="45.8887565849567" lon="11.945412468936906"><ele>169.0</ele><time>2026-04-12T16:31:55.999Z</time></trkpt><trkpt lat="45.88888908926692" lon="11.945295205512629"><ele>169.0</ele><time>2026-04-12T16:31:56.999Z</time></trkpt><trkpt lat="45.88901673090498" lon="11.94518028385044"><ele>169.0</ele><time>2026-04-12T16:31:57.999Z</time></trkpt><trkpt lat="45.88915284518342" lon="11.945065036113872"><ele>169.0</ele><time>2026-04-12T16:31:58.999Z</time></trkpt><trkpt lat="45.8892923922408" lon="11.944946314537633"><ele>169.0</ele><time>2026-04-12T16:31:59.999Z</time></trkpt><trkpt lat="45.8894246279452" lon="11.944823193099179"><ele>170.66666666666669</ele><time>2026-04-12T16:32:00.999Z</time></trkpt><trkpt lat="45.889565116264166" lon="11.944701224560234"><ele>172.33333333333334</ele><time>2026-04-12T16:32:01.999Z</time></trkpt><trkpt lat="45.88970647115154" lon="11.944568021682386"><ele>174.0</ele><time>2026-04-12T16:32:02.999Z</time></trkpt><trkpt lat="45.88984895191415" lon="11.94443363820042"><ele>174.0</ele><time>2026-04-12T16:32:03.999Z</time></trkpt><trkpt lat="45.889982737839766" lon="11.944308844405962"><ele>174.0</ele><time>2026-04-12T16:32:04.999Z</time></trkpt><trkpt lat="45.89011784845905" lon="11.944194689075157"><ele>174.0</ele><time>2026-04-12T16:32:05.999Z</time></trkpt><trkpt lat="45.89026600884795" lon="11.944096479059846"><ele>174.66666666666666</ele><time>2026-04-12T16:32:06.999Z</time></trkpt><trkpt lat="45.890408970011734" lon="11.944023502531522"><ele>175.33333333333331</ele><time>2026-04-12T16:32:07.999Z</time></trkpt><trkpt lat="45.89056615618136" lon="11.943983683843875"><ele>176.0</ele><time>2026-04-12T16:32:08.999Z</time></trkpt><trkpt lat="45.89071886108186" lon="11.943954472045728"><ele>176.0</ele><time>2026-04-12T16:32:09.999Z</time></trkpt><trkpt lat="45.89087923762954" lon="11.943936384057684"><ele>176.0</ele><time>2026-04-12T16:32:10.999Z</time></trkpt><trkpt lat="45.89102697139526" lon="11.943899823667955"><ele>176.0</ele><time>2026-04-12T16:32:11.999Z</time></trkpt><trkpt lat="45.89118450102362" lon="11.943881551333794"><ele>175.66666666666666</ele><time>2026-04-12T16:32:12.999Z</time></trkpt><trkpt lat="45.891339304307756" lon="11.943854207121262"><ele>175.33333333333334</ele><time>2026-04-12T16:32:13.999Z</time></trkpt><trkpt lat="45.891488899353924" lon="11.94382253427532"><ele>175.0</ele><time>2026-04-12T16:32:14.998Z</time></trkpt><trkpt lat="45.891642797240614" lon="11.943791914423068"><ele>175.33333333333334</ele><time>2026-04-12T16:32:15.998Z</time></trkpt><trkpt lat="45.89180186169482" lon="11.943746669484582"><ele>175.66666666666666</ele><time>2026-04-12T16:32:16.998Z</time></trkpt><trkpt lat="45.891956175657484" lon="11.943710204915858"><ele>176.0</ele><time>2026-04-12T16:32:17.998Z</time></trkpt><trkpt lat="45.8921130865267" lon="11.943671647299245"><ele>176.0</ele><time>2026-04-12T16:32:18.998Z</time></trkpt><trkpt lat="45.892255758953624" lon="11.943627426690199"><ele>176.0</ele><time>2026-04-12T16:32:19.998Z</time></trkpt><trkpt lat="45.892405183660046" lon="11.94356274280462"><ele>176.0</ele><time>2026-04-12T16:32:21Z</time></trkpt><trkpt lat="45.892548511960456" lon="11.943503348529164"><ele>176.66666666666666</ele><time>2026-04-12T16:32:22Z</time></trkpt><trkpt lat="45.892690716064145" lon="11.943425476583641"><ele>177.33333333333334</ele><time>2026-04-12T16:32:23Z</time></trkpt><trkpt lat="45.89283591894246" lon="11.94333770177378"><ele>178.0</ele><time>2026-04-12T16:32:24Z</time></trkpt><trkpt lat="45.89297888374298" lon="11.943239093794432"><ele>178.0</ele><time>2026-04-12T16:32:25Z</time></trkpt><trkpt lat="45.893122414645525" lon="11.943141017896759"><ele>178.0</ele><time>2026-04-12T16:32:26Z</time></trkpt><trkpt lat="45.89326724075773" lon="11.94302998484607"><ele>178.0</ele><time>2026-04-12T16:32:27Z</time></trkpt><trkpt lat="45.89341107943319" lon="11.942923945884926"><ele>175.33333333333334</ele><time>2026-04-12T16:32:28Z</time></trkpt><trkpt lat="45.89355137761491" lon="11.942823080591786"><ele>172.66666666666666</ele><time>2026-04-12T16:32:29Z</time></trkpt><trkpt lat="45.89368343192738" lon="11.942732186987417"><ele>170.0</ele><time>2026-04-12T16:32:30Z</time></trkpt><trkpt lat="45.89382065676244" lon="11.942632438365694"><ele>172.66666666666666</ele><time>2026-04-12T16:32:31Z</time></trkpt><trkpt lat="45.893969473834595" lon="11.942544116099569"><ele>175.33333333333334</ele><time>2026-04-12T16:32:32Z</time></trkpt><trkpt lat="45.8941169510023" lon="11.942477739957111"><ele>178.0</ele><time>2026-04-12T16:32:33Z</time></trkpt><trkpt lat="45.89427575438091" lon="11.942433543231468"><ele>178.0</ele><time>2026-04-12T16:32:34Z</time></trkpt><trkpt lat="45.894432101082174" lon="11.94240903135446"><ele>178.0</ele><time>2026-04-12T16:32:35Z</time></trkpt><trkpt lat="45.89459348932168" lon="11.942399786717033"><ele>178.0</ele><time>2026-04-12T16:32:36Z</time></trkpt><trkpt lat="45.89476493226807" lon="11.942393620230513"><ele>178.0</ele><time>2026-04-12T16:32:37Z</time></trkpt><trkpt lat="45.8949311608067" lon="11.942402264552328"><ele>178.0</ele><time>2026-04-12T16:32:38Z</time></trkpt><trkpt lat="45.89508670794468" lon="11.942453506690589"><ele>178.0</ele><time>2026-04-12T16:32:39Z</time></trkpt><trkpt lat="45.89524432254037" lon="11.94248481070301"><ele>179.66666666666669</ele><time>2026-04-12T16:32:40Z</time></trkpt><trkpt lat="45.89539989189195" lon="11.942504734446127"><ele>181.33333333333334</ele><time>2026-04-12T16:32:41Z</time></trkpt><trkpt lat="45.89555896126448" lon="11.94252162079786"><ele>183.0</ele><time>2026-04-12T16:32:42Z</time></trkpt><trkpt lat="45.895705969299165" lon="11.942545799691972"><ele>181.25</ele><time>2026-04-12T16:32:43Z</time></trkpt><trkpt lat="45.89585591966986" lon="11.94257711337363"><ele>179.5</ele><time>2026-04-12T16:32:44Z</time></trkpt><trkpt lat="45.89598828532001" lon="11.94259454159199"><ele>177.75</ele><time>2026-04-12T16:32:45Z</time></trkpt><trkpt lat="45.89613152739915" lon="11.942618990332297"><ele>176.0</ele><time>2026-04-12T16:32:46Z</time></trkpt><trkpt lat="45.896283369027984" lon="11.942643720828142"><ele>176.0</ele><time>2026-04-12T16:32:47Z</time></trkpt><trkpt lat="45.896423377394285" lon="11.942661103394123"><ele>176.0</ele><time>2026-04-12T16:32:48Z</time></trkpt><trkpt lat="45.896566056679056" lon="11.942686388146745"><ele>176.0</ele><time>2026-04-12T16:32:49Z</time></trkpt><trkpt lat="45.89670800806592" lon="11.942706801811626"><ele>176.0</ele><time>2026-04-12T16:32:50Z</time></trkpt><trkpt lat="45.89685312356235" lon="11.942706019345549"><ele>175.5</ele><time>2026-04-12T16:32:51Z</time></trkpt><trkpt lat="45.89699781204742" lon="11.942709545176921"><ele>175.0</ele><time>2026-04-12T16:32:52Z</time></trkpt><trkpt lat="45.89714664773473" lon="11.942739453891315"><ele>174.5</ele><time>2026-04-12T16:32:53Z</time></trkpt><trkpt lat="45.89729440272531" lon="11.94277706182277"><ele>174.0</ele><time>2026-04-12T16:32:54Z</time></trkpt><trkpt lat="45.89744289790826" lon="11.94276581620008"><ele>174.0</ele><time>2026-04-12T16:32:55Z</time></trkpt><trkpt lat="45.897592973515565" lon="11.942750622318254"><ele>174.0</ele><time>2026-04-12T16:32:56Z</time></trkpt><trkpt lat="45.89774363179242" lon="11.942734315477878"><ele>174.0</ele><time>2026-04-12T16:32:57Z</time></trkpt><trkpt lat="45.89789209618676" lon="11.942704181007002"><ele>174.0</ele><time>2026-04-12T16:32:58Z</time></trkpt><trkpt lat="45.898033968402856" lon="11.942680164739517"><ele>174.0</ele><time>2026-04-12T16:32:59Z</time></trkpt><trkpt lat="45.8981774817953" lon="11.942666158574893"><ele>174.0</ele><time>2026-04-12T16:33:00Z</time></trkpt><trkpt lat="45.89831840402262" lon="11.94264896086757"><ele>174.0</ele><time>2026-04-12T16:33:01Z</time></trkpt><trkpt lat="45.89846227490582" lon="11.942633984665981"><ele>175.5</ele><time>2026-04-12T16:33:02Z</time></trkpt><trkpt lat="45.89860335164728" lon="11.942643681415865"><ele>177.0</ele><time>2026-04-12T16:33:03Z</time></trkpt><trkpt lat="45.898745873471164" lon="11.942657428240384"><ele>178.5</ele><time>2026-04-12T16:33:04Z</time></trkpt><trkpt lat="45.89888394169274" lon="11.942697583773716"><ele>180.0</ele><time>2026-04-12T16:33:05Z</time></trkpt><trkpt lat="45.899020493225684" lon="11.942737531208914"><ele>180.0</ele><time>2026-04-12T16:33:06Z</time></trkpt><trkpt lat="45.899149701452835" lon="11.942757575536966"><ele>180.0</ele><time>2026-04-12T16:33:07Z</time></trkpt><trkpt lat="45.89925722383956" lon="11.942807429956705"><ele>180.0</ele><time>2026-04-12T16:33:08Z</time></trkpt><trkpt lat="45.89934529161434" lon="11.942855079644275"><ele>180.0</ele><time>2026-04-12T16:33:09Z</time></trkpt><trkpt lat="45.89941829517814" lon="11.94290712619804"><ele>180.0</ele><time>2026-04-12T16:33:10Z</time></trkpt><trkpt lat="45.899464242875986" lon="11.942980427299737"><ele>180.8</ele><time>2026-04-12T16:33:10.999Z</time></trkpt><trkpt lat="45.8995034949082" lon="11.943073199269035"><ele>181.6</ele><time>2026-04-12T16:33:11.999Z</time></trkpt><trkpt lat="45.89954373145748" lon="11.9431747389038"><ele>182.39999999999998</ele><time>2026-04-12T16:33:12.999Z</time></trkpt><trkpt lat="45.89961298519553" lon="11.943235137226239"><ele>183.2</ele><time>2026-04-12T16:33:13.999Z</time></trkpt><trkpt lat="45.89970253626809" lon="11.943265513302514"><ele>184.0</ele><time>2026-04-12T16:33:14.999Z</time></trkpt><trkpt lat="45.899798670937315" lon="11.943156456896661"><ele>184.0</ele><time>2026-04-12T16:33:15.999Z</time></trkpt><trkpt lat="45.89988943427213" lon="11.943042545648106"><ele>184.0</ele><time>2026-04-12T16:33:16.999Z</time></trkpt><trkpt lat="45.89998886748937" lon="11.942963612501915"><ele>184.0</ele><time>2026-04-12T16:33:17.999Z</time></trkpt><trkpt lat="45.9001204122959" lon="11.942940153954847"><ele>184.0</ele><time>2026-04-12T16:33:18.999Z</time></trkpt><trkpt lat="45.900269051188275" lon="11.942986376135089"><ele>184.66666666666669</ele><time>2026-04-12T16:33:19.999Z</time></trkpt><trkpt lat="45.900421210268256" lon="11.94296665059092"><ele>185.33333333333334</ele><time>2026-04-12T16:33:20.999Z</time></trkpt><trkpt lat="45.900578669953234" lon="11.942942593281526"><ele>186.0</ele><time>2026-04-12T16:33:21.999Z</time></trkpt><trkpt lat="45.900741437127785" lon="11.942913366285701"><ele>185.66666666666666</ele><time>2026-04-12T16:33:22.999Z</time></trkpt><trkpt lat="45.900917133443365" lon="11.94287330733176"><ele>185.33333333333331</ele><time>2026-04-12T16:33:23.999Z</time></trkpt><trkpt lat="45.901102509428874" lon="11.9428359266323"><ele>185.0</ele><time>2026-04-12T16:33:24.999Z</time></trkpt><trkpt lat="45.9012796888715" lon="11.942806282981106"><ele>185.0</ele><time>2026-04-12T16:33:25.999Z</time></trkpt><trkpt lat="45.90145027416885" lon="11.942781270563696"><ele>185.0</ele><time>2026-04-12T16:33:26.999Z</time></trkpt><trkpt lat="45.901620141202045" lon="11.942734013102159"><ele>185.0</ele><time>2026-04-12T16:33:27.999Z</time></trkpt><trkpt lat="45.90179589869294" lon="11.942705603736131"><ele>186.0</ele><time>2026-04-12T16:33:28.999Z</time></trkpt><trkpt lat="45.90197562321992" lon="11.942659444429697"><ele>187.0</ele><time>2026-04-12T16:33:29.999Z</time></trkpt><trkpt lat="45.902153965289564" lon="11.942617401457923"><ele>188.0</ele><time>2026-04-12T16:33:30.999Z</time></trkpt><trkpt lat="45.90232943126936" lon="11.942562214570867"><ele>188.66666666666666</ele><time>2026-04-12T16:33:31.999Z</time></trkpt><trkpt lat="45.90250733283731" lon="11.94251092388031"><ele>189.33333333333334</ele><time>2026-04-12T16:33:32.999Z</time></trkpt><trkpt lat="45.902684397682876" lon="11.942456077685858"><ele>190.0</ele><time>2026-04-12T16:33:33.999Z</time></trkpt><trkpt lat="45.90286206077423" lon="11.942399249061634"><ele>190.0</ele><time>2026-04-12T16:33:34.999Z</time></trkpt><trkpt lat="45.903037837435186" lon="11.942329416467377"><ele>190.0</ele><time>2026-04-12T16:33:35.999Z</time></trkpt><trkpt lat="45.903210108194074" lon="11.942263208740076"><ele>190.0</ele><time>2026-04-12T16:33:36.999Z</time></trkpt><trkpt lat="45.90337802210885" lon="11.94221300051765"><ele>189.66666666666669</ele><time>2026-04-12T16:33:37.999Z</time></trkpt><trkpt lat="45.903556209001295" lon="11.942135001004623"><ele>189.33333333333334</ele><time>2026-04-12T16:33:38.999Z</time></trkpt><trkpt lat="45.90372308015833" lon="11.942053609395892"><ele>189.0</ele><time>2026-04-12T16:33:39.999Z</time></trkpt><trkpt lat="45.90388732294792" lon="11.941983229984027"><ele>189.0</ele><time>2026-04-12T16:33:40.999Z</time></trkpt><trkpt lat="45.904051336323285" lon="11.941910488069388"><ele>189.0</ele><time>2026-04-12T16:33:41.999Z</time></trkpt><trkpt lat="45.904217514575194" lon="11.941835589228555"><ele>189.0</ele><time>2026-04-12T16:33:42.999Z</time></trkpt><trkpt lat="45.90438124806963" lon="11.941764042865895"><ele>189.25</ele><time>2026-04-12T16:33:43.999Z</time></trkpt><trkpt lat="45.904533310311855" lon="11.941701262312952"><ele>189.5</ele><time>2026-04-12T16:33:44.999Z</time></trkpt><trkpt lat="45.90467819585542" lon="11.941635271254826"><ele>189.75</ele><time>2026-04-12T16:33:45.999Z</time></trkpt><trkpt lat="45.90480350895336" lon="11.941574178828395"><ele>190.0</ele><time>2026-04-12T16:33:46.999Z</time></trkpt><trkpt lat="45.90491732039434" lon="11.941517843513894"><ele>190.0</ele><time>2026-04-12T16:33:47.999Z</time></trkpt><trkpt lat="45.90501077220142" lon="11.941453061081605"><ele>190.0</ele><time>2026-04-12T16:33:48.999Z</time></trkpt><trkpt lat="45.905111977509854" lon="11.9414133544368"><ele>190.0</ele><time>2026-04-12T16:33:49.999Z</time></trkpt><trkpt lat="45.905216528539384" lon="11.941388594426291"><ele>190.0</ele><time>2026-04-12T16:33:50.999Z</time></trkpt><trkpt lat="45.90530943486031" lon="11.94133564636519"><ele>190.0</ele><time>2026-04-12T16:33:51.999Z</time></trkpt><trkpt lat="45.90536555310684" lon="11.9412317953139"><ele>188.8</ele><time>2026-04-12T16:33:52.999Z</time></trkpt><trkpt lat="45.9053877765513" lon="11.941110199853284"><ele>187.6</ele><time>2026-04-12T16:33:53.999Z</time></trkpt><trkpt lat="45.905383993122896" lon="11.940975168352688"><ele>186.39999999999998</ele><time>2026-04-12T16:33:54.999Z</time></trkpt><trkpt lat="45.905377916724625" lon="11.94082985236662"><ele>185.2</ele><time>2026-04-12T16:33:55.999Z</time></trkpt><trkpt lat="45.90539047823239" lon="11.940681467366181"><ele>184.0</ele><time>2026-04-12T16:33:56.999Z</time></trkpt><trkpt lat="45.90543206912227" lon="11.940513715583585"><ele>184.0</ele><time>2026-04-12T16:33:57.999Z</time></trkpt><trkpt lat="45.90548376542378" lon="11.940341854969066"><ele>184.0</ele><time>2026-04-12T16:33:58.999Z</time></trkpt><trkpt lat="45.90551199869289" lon="11.940163348107925"><ele>184.0</ele><time>2026-04-12T16:33:59.999Z</time></trkpt><trkpt lat="45.90553407760869" lon="11.939995176775636"><ele>184.0</ele><time>2026-04-12T16:34:00.999Z</time></trkpt><trkpt lat="45.905548538434005" lon="11.939833110542871"><ele>183.79999999999998</ele><time>2026-04-12T16:34:01.999Z</time></trkpt><trkpt lat="45.905556394526684" lon="11.93967189925743"><ele>183.6</ele><time>2026-04-12T16:34:02.999Z</time></trkpt><trkpt lat="45.9055635390314" lon="11.93952979209184"><ele>183.4</ele><time>2026-04-12T16:34:03.999Z</time></trkpt><trkpt lat="45.90556954746691" lon="11.939394963100646"><ele>183.2</ele><time>2026-04-12T16:34:04.999Z</time></trkpt><trkpt lat="45.90557622442618" lon="11.939264981821415"><ele>183.0</ele><time>2026-04-12T16:34:05.999Z</time></trkpt><trkpt lat="45.9055857592168" lon="11.939118250835284"><ele>184.0</ele><time>2026-04-12T16:34:06.999Z</time></trkpt><trkpt lat="45.90560263700466" lon="11.938970352214625"><ele>185.0</ele><time>2026-04-12T16:34:07.999Z</time></trkpt><trkpt lat="45.905633451461384" lon="11.938819548624329"><ele>186.0</ele><time>2026-04-12T16:34:08.999Z</time></trkpt><trkpt lat="45.90569636472901" lon="11.93867454839706"><ele>187.0</ele><time>2026-04-12T16:34:09.999Z</time></trkpt><trkpt lat="45.905746352604595" lon="11.938502513699413"><ele>186.25</ele><time>2026-04-12T16:34:10.999Z</time></trkpt><trkpt lat="45.90582363685085" lon="11.938330992804946"><ele>185.5</ele><time>2026-04-12T16:34:11.999Z</time></trkpt><trkpt lat="45.90588700332853" lon="11.938152910791512"><ele>184.75</ele><time>2026-04-12T16:34:12.999Z</time></trkpt><trkpt lat="45.9059492151364" lon="11.937981245795775"><ele>184.0</ele><time>2026-04-12T16:34:13.999Z</time></trkpt><trkpt lat="45.906018610491806" lon="11.937803235397393"><ele>184.0</ele><time>2026-04-12T16:34:14.999Z</time></trkpt><trkpt lat="45.90608501486443" lon="11.937624143056505"><ele>184.0</ele><time>2026-04-12T16:34:15.999Z</time></trkpt><trkpt lat="45.90614745757786" lon="11.93744311128302"><ele>184.0</ele><time>2026-04-12T16:34:16.999Z</time></trkpt><trkpt lat="45.906219855903004" lon="11.937285448648657"><ele>184.0</ele><time>2026-04-12T16:34:17.999Z</time></trkpt><trkpt lat="45.90630138665932" lon="11.937110458608897"><ele>184.75</ele><time>2026-04-12T16:34:18.998Z</time></trkpt><trkpt lat="45.90637549026187" lon="11.936959641100122"><ele>185.5</ele><time>2026-04-12T16:34:19.998Z</time></trkpt><trkpt lat="45.90648564120395" lon="11.93683574132873"><ele>186.25</ele><time>2026-04-12T16:34:20.998Z</time></trkpt><trkpt lat="45.9065830081758" lon="11.93670607528003"><ele>187.0</ele><time>2026-04-12T16:34:21.998Z</time></trkpt><trkpt lat="45.90666601163464" lon="11.93656444426531"><ele>186.5</ele><time>2026-04-12T16:34:22.998Z</time></trkpt><trkpt lat="45.906767940693285" lon="11.936410708068012"><ele>186.0</ele><time>2026-04-12T16:34:23.998Z</time></trkpt><trkpt lat="45.906844612925916" lon="11.936252121502122"><ele>185.5</ele><time>2026-04-12T16:34:24.998Z</time></trkpt><trkpt lat="45.90692883631693" lon="11.936088595771416"><ele>185.0</ele><time>2026-04-12T16:34:25.998Z</time></trkpt><trkpt lat="45.90701381250428" lon="11.935929657813935"><ele>186.25</ele><time>2026-04-12T16:34:27Z</time></trkpt><trkpt lat="45.90709819025434" lon="11.935776782001938"><ele>187.5</ele><time>2026-04-12T16:34:28Z</time></trkpt><trkpt lat="45.90718349092724" lon="11.935618744756809"><ele>188.75</ele><time>2026-04-12T16:34:29Z</time></trkpt><trkpt lat="45.907256336957275" lon="11.935462025946213"><ele>190.0</ele><time>2026-04-12T16:34:30Z</time></trkpt><trkpt lat="45.90732444075942" lon="11.935294702732898"><ele>190.0</ele><time>2026-04-12T16:34:31Z</time></trkpt><trkpt lat="45.90740530843243" lon="11.935132462542578"><ele>190.0</ele><time>2026-04-12T16:34:32Z</time></trkpt><trkpt lat="45.907489321027" lon="11.934972321256172"><ele>190.0</ele><time>2026-04-12T16:34:33Z</time></trkpt><trkpt lat="45.90757710227178" lon="11.934858758252377"><ele>190.0</ele><time>2026-04-12T16:34:34Z</time></trkpt><trkpt lat="45.90764416523397" lon="11.934699752912701"><ele>189.83333333333334</ele><time>2026-04-12T16:34:35Z</time></trkpt><trkpt lat="45.90770064703666" lon="11.934568104724747"><ele>189.66666666666669</ele><time>2026-04-12T16:34:36Z</time></trkpt><trkpt lat="45.90775739887136" lon="11.934445793568583"><ele>189.5</ele><time>2026-04-12T16:34:37Z</time></trkpt><trkpt lat="45.90781584005516" lon="11.934342180548033"><ele>189.33333333333334</ele><time>2026-04-12T16:34:38Z</time></trkpt><trkpt lat="45.90785748398395" lon="11.934260462141998"><ele>189.16666666666666</ele><time>2026-04-12T16:34:39Z</time></trkpt><trkpt lat="45.90791195664895" lon="11.934205632178069"><ele>189.0</ele><time>2026-04-12T16:34:40Z</time></trkpt><trkpt lat="45.90803118821624" lon="11.934143787953046"><ele>190.0</ele><time>2026-04-12T16:34:42Z</time></trkpt><trkpt lat="45.90810167709499" lon="11.934139488203755"><ele>191.0</ele><time>2026-04-12T16:34:43Z</time></trkpt><trkpt lat="45.90817106374292" lon="11.934001561062871"><ele>192.0</ele><time>2026-04-12T16:34:44Z</time></trkpt><trkpt lat="45.90822136038538" lon="11.933854579031472"><ele>193.0</ele><time>2026-04-12T16:34:45Z</time></trkpt><trkpt lat="45.90828859183927" lon="11.933707406209347"><ele>194.0</ele><time>2026-04-12T16:34:46Z</time></trkpt><trkpt lat="45.90840087497621" lon="11.93355141374232"><ele>193.75</ele><time>2026-04-12T16:34:47Z</time></trkpt><trkpt lat="45.90849507863587" lon="11.933408332865305"><ele>193.5</ele><time>2026-04-12T16:34:48Z</time></trkpt><trkpt lat="45.908580360265994" lon="11.933253433743918"><ele>193.25</ele><time>2026-04-12T16:34:49Z</time></trkpt><trkpt lat="45.9086613284343" lon="11.933093595919518"><ele>193.0</ele><time>2026-04-12T16:34:50Z</time></trkpt><trkpt lat="45.908742974575105" lon="11.932938907217558"><ele>193.0</ele><time>2026-04-12T16:34:51Z</time></trkpt><trkpt lat="45.908809570192986" lon="11.932783765426645"><ele>193.0</ele><time>2026-04-12T16:34:52Z</time></trkpt><trkpt lat="45.90887580375882" lon="11.932654077878619"><ele>193.0</ele><time>2026-04-12T16:34:53Z</time></trkpt><trkpt lat="45.90893864679021" lon="11.932526999398144"><ele>193.0</ele><time>2026-04-12T16:34:54Z</time></trkpt><trkpt lat="45.90900561048446" lon="11.932393305921375"><ele>192.5</ele><time>2026-04-12T16:34:55Z</time></trkpt><trkpt lat="45.90908066586448" lon="11.932286521692657"><ele>192.0</ele><time>2026-04-12T16:34:56Z</time></trkpt><trkpt lat="45.90914555013229" lon="11.932156667060392"><ele>191.5</ele><time>2026-04-12T16:34:57Z</time></trkpt><trkpt lat="45.909165322929" lon="11.931983817150872"><ele>191.0</ele><time>2026-04-12T16:34:58Z</time></trkpt><trkpt lat="45.90913907851766" lon="11.931804066124354"><ele>191.75</ele><time>2026-04-12T16:34:59Z</time></trkpt><trkpt lat="45.9090858865776" lon="11.931638057024124"><ele>192.5</ele><time>2026-04-12T16:35:00Z</time></trkpt><trkpt lat="45.9090319269366" lon="11.931460107686828"><ele>193.25</ele><time>2026-04-12T16:35:01Z</time></trkpt><trkpt lat="45.908981891698666" lon="11.931269448734668"><ele>194.0</ele><time>2026-04-12T16:35:02Z</time></trkpt><trkpt lat="45.90892577750073" lon="11.93107044722505"><ele>195.0</ele><time>2026-04-12T16:35:03Z</time></trkpt><trkpt lat="45.90886640373598" lon="11.93085431244972"><ele>196.0</ele><time>2026-04-12T16:35:04Z</time></trkpt><trkpt lat="45.90880233501101" lon="11.93063863346141"><ele>197.0</ele><time>2026-04-12T16:35:05Z</time></trkpt><trkpt lat="45.90874064996596" lon="11.930405336228098"><ele>197.0</ele><time>2026-04-12T16:35:06Z</time></trkpt><trkpt lat="45.908681265270296" lon="11.9301778394926"><ele>197.0</ele><time>2026-04-12T16:35:07Z</time></trkpt><trkpt lat="45.908612911107255" lon="11.929964013153633"><ele>197.0</ele><time>2026-04-12T16:35:08Z</time></trkpt><trkpt lat="45.90857430508383" lon="11.929729541591641"><ele>199.0</ele><time>2026-04-12T16:35:09Z</time></trkpt><trkpt lat="45.908516054320984" lon="11.929493612480043"><ele>201.0</ele><time>2026-04-12T16:35:10Z</time></trkpt><trkpt lat="45.90848373028651" lon="11.929237313002542"><ele>203.0</ele><time>2026-04-12T16:35:11Z</time></trkpt><trkpt lat="45.90846146898547" lon="11.928973570801963"><ele>203.66666666666669</ele><time>2026-04-12T16:35:12Z</time></trkpt><trkpt lat="45.90844644645416" lon="11.928701274057765"><ele>204.33333333333331</ele><time>2026-04-12T16:35:13Z</time></trkpt><trkpt lat="45.908449891665846" lon="11.928431721583642"><ele>205.0</ele><time>2026-04-12T16:35:14Z</time></trkpt><trkpt lat="45.908467309691446" lon="11.928107630965801"><ele>206.0</ele><time>2026-04-12T16:35:15Z</time></trkpt><trkpt lat="45.90847179139134" lon="11.927845760690827"><ele>207.0</ele><time>2026-04-12T16:35:15.999Z</time></trkpt><trkpt lat="45.90849375020316" lon="11.92760251768124"><ele>208.0</ele><time>2026-04-12T16:35:16.999Z</time></trkpt><trkpt lat="45.908513246769004" lon="11.92734269229568"><ele>212.0</ele><time>2026-04-12T16:35:17.999Z</time></trkpt><trkpt lat="45.908525872201785" lon="11.927064312348833"><ele>216.0</ele><time>2026-04-12T16:35:18.999Z</time></trkpt><trkpt lat="45.90852444287938" lon="11.92678278909109"><ele>220.0</ele><time>2026-04-12T16:35:19.999Z</time></trkpt><trkpt lat="45.90852182857506" lon="11.926493904871943"><ele>222.33333333333331</ele><time>2026-04-12T16:35:20.999Z</time></trkpt><trkpt lat="45.90851414662456" lon="11.926204555308965"><ele>224.66666666666669</ele><time>2026-04-12T16:35:21.999Z</time></trkpt><trkpt lat="45.90850567671451" lon="11.925910021403116"><ele>227.0</ele><time>2026-04-12T16:35:22.999Z</time></trkpt><trkpt lat="45.90850261106222" lon="11.925622828679176"><ele>227.33333333333334</ele><time>2026-04-12T16:35:23.999Z</time></trkpt><trkpt lat="45.90849977794975" lon="11.925336763741896"><ele>227.66666666666669</ele><time>2026-04-12T16:35:24.999Z</time></trkpt><trkpt lat="45.90849457456728" lon="11.925046186951617"><ele>228.0</ele><time>2026-04-12T16:35:25.999Z</time></trkpt><trkpt lat="45.90849193057322" lon="11.924751398484903"><ele>228.0</ele><time>2026-04-12T16:35:26.999Z</time></trkpt><trkpt lat="45.90849234617885" lon="11.92446008782499"><ele>228.0</ele><time>2026-04-12T16:35:27.999Z</time></trkpt><trkpt lat="45.908495460532116" lon="11.924165252833854"><ele>228.0</ele><time>2026-04-12T16:35:28.999Z</time></trkpt><trkpt lat="45.908521259691724" lon="11.923883329698961"><ele>228.66666666666669</ele><time>2026-04-12T16:35:29.999Z</time></trkpt><trkpt lat="45.9085655270046" lon="11.92361305639868"><ele>229.33333333333334</ele><time>2026-04-12T16:35:30.999Z</time></trkpt><trkpt lat="45.908624478337394" lon="11.923346519645664"><ele>230.0</ele><time>2026-04-12T16:35:31.999Z</time></trkpt><trkpt lat="45.90869780049558" lon="11.923069182638196"><ele>231.66666666666669</ele><time>2026-04-12T16:35:32.999Z</time></trkpt><trkpt lat="45.908752186694905" lon="11.92279403775544"><ele>233.33333333333331</ele><time>2026-04-12T16:35:33.999Z</time></trkpt><trkpt lat="45.90882266635309" lon="11.922519856114667"><ele>235.0</ele><time>2026-04-12T16:35:34.999Z</time></trkpt><trkpt lat="45.90889147300016" lon="11.92225089423736"><ele>235.0</ele><time>2026-04-12T16:35:35.999Z</time></trkpt><trkpt lat="45.90897121829433" lon="11.921978741219789"><ele>235.0</ele><time>2026-04-12T16:35:36.999Z</time></trkpt><trkpt lat="45.90908356600539" lon="11.921735017282714"><ele>235.0</ele><time>2026-04-12T16:35:37.999Z</time></trkpt><trkpt lat="45.90918794235981" lon="11.921477982733297"><ele>237.0</ele><time>2026-04-12T16:35:38.999Z</time></trkpt><trkpt lat="45.909297606138004" lon="11.92121606379271"><ele>239.0</ele><time>2026-04-12T16:35:39.999Z</time></trkpt><trkpt lat="45.909410828911795" lon="11.920955876425054"><ele>241.0</ele><time>2026-04-12T16:35:40.999Z</time></trkpt><trkpt lat="45.909518515304796" lon="11.920695999364801"><ele>241.0</ele><time>2026-04-12T16:35:41.999Z</time></trkpt><trkpt lat="45.90963528514871" lon="11.920439218389301"><ele>241.0</ele><time>2026-04-12T16:35:42.999Z</time></trkpt><trkpt lat="45.90974458950849" lon="11.920172956413408"><ele>241.0</ele><time>2026-04-12T16:35:43.999Z</time></trkpt><trkpt lat="45.909852412095255" lon="11.919919099330079"><ele>240.66666666666666</ele><time>2026-04-12T16:35:44.999Z</time></trkpt><trkpt lat="45.90996846415921" lon="11.919653481837777"><ele>240.33333333333331</ele><time>2026-04-12T16:35:45.999Z</time></trkpt><trkpt lat="45.91007759368471" lon="11.919387307953563"><ele>240.0</ele><time>2026-04-12T16:35:46.999Z</time></trkpt><trkpt lat="45.910178936371246" lon="11.919128520116644"><ele>244.33333333333331</ele><time>2026-04-12T16:35:47.999Z</time></trkpt><trkpt lat="45.910271219075945" lon="11.918869952290324"><ele>248.66666666666666</ele><time>2026-04-12T16:35:48.999Z</time></trkpt><trkpt lat="45.91034620270483" lon="11.918593015884325"><ele>253.0</ele><time>2026-04-12T16:35:49.999Z</time></trkpt><trkpt lat="45.9104109858294" lon="11.918329276616173"><ele>253.0</ele><time>2026-04-12T16:35:50.999Z</time></trkpt><trkpt lat="45.91046849518147" lon="11.918067083762812"><ele>253.0</ele><time>2026-04-12T16:35:51.999Z</time></trkpt><trkpt lat="45.91052923668055" lon="11.917807283457325"><ele>253.0</ele><time>2026-04-12T16:35:52.999Z</time></trkpt><trkpt lat="45.91059074994119" lon="11.917554700407683"><ele>253.0</ele><time>2026-04-12T16:35:53.999Z</time></trkpt><trkpt lat="45.91066987448366" lon="11.91730856668534"><ele>253.0</ele><time>2026-04-12T16:35:54.999Z</time></trkpt><trkpt lat="45.9107738589997" lon="11.917085817908387"><ele>253.0</ele><time>2026-04-12T16:35:55.999Z</time></trkpt><trkpt lat="45.910879123448595" lon="11.916866281106843"><ele>256.66666666666663</ele><time>2026-04-12T16:35:56.999Z</time></trkpt><trkpt lat="45.910974215963854" lon="11.916674607441477"><ele>260.3333333333333</ele><time>2026-04-12T16:35:57.999Z</time></trkpt><trkpt lat="45.91106407662884" lon="11.916470976926101"><ele>264.0</ele><time>2026-04-12T16:35:58.999Z</time></trkpt><trkpt lat="45.91116755659426" lon="11.916279138928104"><ele>264.0</ele><time>2026-04-12T16:35:59.999Z</time></trkpt><trkpt lat="45.91124593400611" lon="11.916086704452413"><ele>264.0</ele><time>2026-04-12T16:36:00.999Z</time></trkpt><trkpt lat="45.91130795336822" lon="11.915892516795902"><ele>264.0</ele><time>2026-04-12T16:36:01.999Z</time></trkpt><trkpt lat="45.911359588132406" lon="11.915719116890678"><ele>264.0</ele><time>2026-04-12T16:36:02.999Z</time></trkpt><trkpt lat="45.91139548680304" lon="11.91553588630262"><ele>264.0</ele><time>2026-04-12T16:36:03.999Z</time></trkpt><trkpt lat="45.91142935099279" lon="11.915370295824266"><ele>264.0</ele><time>2026-04-12T16:36:04.999Z</time></trkpt><trkpt lat="45.91143521541039" lon="11.915208346702716"><ele>264.0</ele><time>2026-04-12T16:36:05.999Z</time></trkpt><trkpt lat="45.91141422271934" lon="11.915035762934247"><ele>264.0</ele><time>2026-04-12T16:36:06.999Z</time></trkpt><trkpt lat="45.9113410438686" lon="11.914866867458366"><ele>263.25</ele><time>2026-04-12T16:36:07.999Z</time></trkpt><trkpt lat="45.91125161205084" lon="11.914754172952138"><ele>262.5</ele><time>2026-04-12T16:36:08.999Z</time></trkpt><trkpt lat="45.91113462650091" lon="11.914671430492378"><ele>261.75</ele><time>2026-04-12T16:36:09.999Z</time></trkpt><trkpt lat="45.91100960458373" lon="11.914589932029726"><ele>261.0</ele><time>2026-04-12T16:36:10.999Z</time></trkpt><trkpt lat="45.91088874269459" lon="11.914508032463962"><ele>260.0</ele><time>2026-04-12T16:36:11.999Z</time></trkpt><trkpt lat="45.91075405469148" lon="11.914455620001739"><ele>259.0</ele><time>2026-04-12T16:36:12.999Z</time></trkpt><trkpt lat="45.910617434464775" lon="11.914433394819875"><ele>258.0</ele><time>2026-04-12T16:36:13.999Z</time></trkpt><trkpt lat="45.91048384436731" lon="11.914439178221567"><ele>257.0</ele><time>2026-04-12T16:36:14.999Z</time></trkpt><trkpt lat="45.91035611070631" lon="11.914459434012535"><ele>257.0</ele><time>2026-04-12T16:36:15.999Z</time></trkpt><trkpt lat="45.91023136723163" lon="11.914459164020665"><ele>257.0</ele><time>2026-04-12T16:36:16.999Z</time></trkpt><trkpt lat="45.91010634805952" lon="11.914456345425789"><ele>257.0</ele><time>2026-04-12T16:36:17.999Z</time></trkpt><trkpt lat="45.90997747884233" lon="11.914443953457159"><ele>257.0</ele><time>2026-04-12T16:36:18.999Z</time></trkpt><trkpt lat="45.90985604607879" lon="11.914437291067632"><ele>259.0</ele><time>2026-04-12T16:36:19.999Z</time></trkpt><trkpt lat="45.90973011711165" lon="11.914417396234185"><ele>261.0</ele><time>2026-04-12T16:36:20.999Z</time></trkpt><trkpt lat="45.9096089000215" lon="11.914372768917811"><ele>263.0</ele><time>2026-04-12T16:36:21.999Z</time></trkpt><trkpt lat="45.90949715897862" lon="11.914314727994888"><ele>265.0</ele><time>2026-04-12T16:36:22.998Z</time></trkpt><trkpt lat="45.90939814715496" lon="11.914273939391416"><ele>266.0</ele><time>2026-04-12T16:36:23.998Z</time></trkpt><trkpt lat="45.90930878235133" lon="11.914230257151369"><ele>267.0</ele><time>2026-04-12T16:36:24.998Z</time></trkpt><trkpt lat="45.909219056310356" lon="11.914167107055981"><ele>268.0</ele><time>2026-04-12T16:36:25.998Z</time></trkpt><trkpt lat="45.909135679228974" lon="11.914089760938552"><ele>269.0</ele><time>2026-04-12T16:36:26.998Z</time></trkpt><trkpt lat="45.909077513304716" lon="11.914022055982604"><ele>270.0</ele><time>2026-04-12T16:36:27.998Z</time></trkpt><trkpt lat="45.90904615248873" lon="11.91389810419542"><ele>270.4</ele><time>2026-04-12T16:36:28.998Z</time></trkpt><trkpt lat="45.90902820305482" lon="11.913743634050116"><ele>270.8</ele><time>2026-04-12T16:36:29.998Z</time></trkpt><trkpt lat="45.90901020479712" lon="11.913607752318947"><ele>271.2</ele><time>2026-04-12T16:36:30.998Z</time></trkpt><trkpt lat="45.90899026201282" lon="11.913474884618283"><ele>271.6</ele><time>2026-04-12T16:36:31.998Z</time></trkpt><trkpt lat="45.908957656329164" lon="11.913336148157379"><ele>272.0</ele><time>2026-04-12T16:36:33Z</time></trkpt><trkpt lat="45.90892664924981" lon="11.913219986430867"><ele>272.5</ele><time>2026-04-12T16:36:34Z</time></trkpt><trkpt lat="45.90889683801358" lon="11.913082098348914"><ele>273.0</ele><time>2026-04-12T16:36:36Z</time></trkpt><trkpt lat="45.90886797478255" lon="11.912956738143416"><ele>273.5</ele><time>2026-04-12T16:36:42Z</time></trkpt><trkpt lat="45.90884356528062" lon="11.912871261213558"><ele>274.0</ele><time>2026-04-12T16:36:43Z</time></trkpt><trkpt lat="45.90879573551879" lon="11.912716919803435"><ele>274.5</ele><time>2026-04-12T16:36:45Z</time></trkpt><trkpt lat="45.90877126622278" lon="11.912614890672055"><ele>275.0</ele><time>2026-04-12T16:36:46Z</time></trkpt><trkpt lat="45.908744468149465" lon="11.912492255398439"><ele>275.5</ele><time>2026-04-12T16:36:47Z</time></trkpt><trkpt lat="45.90873536150897" lon="11.912332904098703"><ele>276.0</ele><time>2026-04-12T16:36:48Z</time></trkpt><trkpt lat="45.9087311241916" lon="11.912157872125071"><ele>276.5</ele><time>2026-04-12T16:36:49Z</time></trkpt><trkpt lat="45.90869686222297" lon="11.911999519359103"><ele>277.0</ele><time>2026-04-12T16:36:50Z</time></trkpt><trkpt lat="45.908669035961935" lon="11.911827194718288"><ele>277.75</ele><time>2026-04-12T16:36:51Z</time></trkpt><trkpt lat="45.90864150198649" lon="11.911670513398725"><ele>278.5</ele><time>2026-04-12T16:36:52Z</time></trkpt><trkpt lat="45.908603822334385" lon="11.911508089101753"><ele>279.25</ele><time>2026-04-12T16:36:53Z</time></trkpt><trkpt lat="45.908563278801566" lon="11.911349162096032"><ele>280.0</ele><time>2026-04-12T16:36:54Z</time></trkpt><trkpt lat="45.90852636391381" lon="11.911197803916235"><ele>280.0</ele><time>2026-04-12T16:36:55Z</time></trkpt><trkpt lat="45.90851012537189" lon="11.91103830551863"><ele>280.0</ele><time>2026-04-12T16:36:56Z</time></trkpt><trkpt lat="45.90846544611533" lon="11.910865306631191"><ele>280.0</ele><time>2026-04-12T16:36:57Z</time></trkpt><trkpt lat="45.908408445895134" lon="11.910709646528247"><ele>280.0</ele><time>2026-04-12T16:36:58Z</time></trkpt><trkpt lat="45.90837612689142" lon="11.910558254722048"><ele>282.25</ele><time>2026-04-12T16:36:59Z</time></trkpt><trkpt lat="45.908329522864236" lon="11.910400579637626"><ele>284.5</ele><time>2026-04-12T16:37:00Z</time></trkpt><trkpt lat="45.9083061471471" lon="11.910240563320409"><ele>286.75</ele><time>2026-04-12T16:37:01Z</time></trkpt><trkpt lat="45.908267861641164" lon="11.910090438304133"><ele>289.0</ele><time>2026-04-12T16:37:02Z</time></trkpt><trkpt lat="45.90821662761977" lon="11.909947614226493"><ele>289.5</ele><time>2026-04-12T16:37:03Z</time></trkpt><trkpt lat="45.90818544607028" lon="11.909814755463556"><ele>290.0</ele><time>2026-04-12T16:37:04Z</time></trkpt><trkpt lat="45.90816345584741" lon="11.90970805587236"><ele>290.5</ele><time>2026-04-12T16:37:05Z</time></trkpt><trkpt lat="45.90814092607072" lon="11.909615805541485"><ele>291.0</ele><time>2026-04-12T16:37:06Z</time></trkpt><trkpt lat="45.908118042438346" lon="11.909512244100027"><ele>291.5</ele><time>2026-04-12T16:37:07Z</time></trkpt><trkpt lat="45.908091921586454" lon="11.90941024857074"><ele>292.0</ele><time>2026-04-12T16:37:08Z</time></trkpt><trkpt lat="45.908058981393474" lon="11.909272370013467"><ele>291.8</ele><time>2026-04-12T16:37:10Z</time></trkpt><trkpt lat="45.9080548071543" lon="11.909134834146595"><ele>291.6</ele><time>2026-04-12T16:37:12Z</time></trkpt><trkpt lat="45.908198712884506" lon="11.909027005431112"><ele>291.40000000000003</ele><time>2026-04-12T16:37:15Z</time></trkpt><trkpt lat="45.90827699264787" lon="11.909005824060925"><ele>291.2</ele><time>2026-04-12T16:37:16Z</time></trkpt><trkpt lat="45.90835677527557" lon="11.90896294339834"><ele>291.0</ele><time>2026-04-12T16:37:17Z</time></trkpt><trkpt lat="45.90843348807513" lon="11.908902525884642"><ele>291.0</ele><time>2026-04-12T16:37:18Z</time></trkpt><trkpt lat="45.90851808253839" lon="11.908852324282536"><ele>291.0</ele><time>2026-04-12T16:37:19Z</time></trkpt><trkpt lat="45.90858399613068" lon="11.908837260172444"><ele>291.0</ele><time>2026-04-12T16:37:20Z</time></trkpt><trkpt lat="45.90866083245699" lon="11.908814636065339"><ele>291.0</ele><time>2026-04-12T16:37:21Z</time></trkpt><trkpt lat="45.90873525916276" lon="11.908780494127974"><ele>291.0</ele><time>2026-04-12T16:37:22Z</time></trkpt><trkpt lat="45.908810144887845" lon="11.908748435658389"><ele>291.0</ele><time>2026-04-12T16:37:22.999Z</time></trkpt><trkpt lat="45.90888485974629" lon="11.908714829103015"><ele>291.0</ele><time>2026-04-12T16:37:23.999Z</time></trkpt><trkpt lat="45.9089468340571" lon="11.908685838972072"><ele>291.0</ele><time>2026-04-12T16:37:24.999Z</time></trkpt><trkpt lat="45.909042307376374" lon="11.90863105550187"><ele>291.0</ele><time>2026-04-12T16:37:26.999Z</time></trkpt><trkpt lat="45.9090980028872" lon="11.908550094254855"><ele>291.0</ele><time>2026-04-12T16:37:28.999Z</time></trkpt><trkpt lat="45.9090974172909" lon="11.908432532816201"><ele>291.0</ele><time>2026-04-12T16:37:30.999Z</time></trkpt><trkpt lat="45.90908001351122" lon="11.908314157277957"><ele>291.0</ele><time>2026-04-12T16:37:32.999Z</time></trkpt><trkpt lat="45.909038618171095" lon="11.908153331106295"><ele>291.6</ele><time>2026-04-12T16:37:34.999Z</time></trkpt><trkpt lat="45.90903300417723" lon="11.907999397413901"><ele>292.20000000000005</ele><time>2026-04-12T16:37:36.999Z</time></trkpt><trkpt lat="45.90910869085136" lon="11.908015513928387"><ele>292.79999999999995</ele><time>2026-04-12T16:37:38.999Z</time></trkpt><trkpt lat="45.90918703594254" lon="11.907972110858621"><ele>293.4</ele><time>2026-04-12T16:37:39.999Z</time></trkpt><trkpt lat="45.90928007385682" lon="11.907917756169049"><ele>294.0</ele><time>2026-04-12T16:37:40.999Z</time></trkpt><trkpt lat="45.909357564007436" lon="11.90786756365397"><ele>285.0</ele><time>2026-04-12T16:37:41.999Z</time></trkpt><trkpt lat="45.9094240568631" lon="11.907807679184431"><ele>285.0</ele><time>2026-04-12T16:37:42.999Z</time></trkpt><trkpt lat="45.90948542687822" lon="11.907769499715764"><ele>285.0</ele><time>2026-04-12T16:37:43.999Z</time></trkpt><trkpt lat="45.909540988226226" lon="11.907644610956307"><ele>285.0</ele><time>2026-04-12T16:37:45.999Z</time></trkpt><trkpt lat="45.90947593741068" lon="11.907733494119471"><ele>285.0</ele><time>2026-04-12T16:39:06.701Z</time></trkpt></trkseg></trk></gpx>